<?xml version='1.0' encoding='UTF-8'?><gpx version="1.1" creator="JPX - https://github.com/jenetics/jpx" xmlns="http://www.topografix.com/GPX/1/1"><trk><trkseg><trkpt lat="36.93380010386662" lon="15.048079076305005"><ele>325.0</ele><time>2026-04-11T14:16:53.001Z</time></trkpt><trkpt lat="36.9338771129354" lon="15.048131371083533"><ele>325.0</ele><time>2026-04-11T14:19:35.999Z</time></trkpt><trkpt lat="36.93399852977239" lon="15.04817295827979"><ele>325.0</ele><time>2026-04-11T14:19:37.999Z</time></trkpt><trkpt lat="36.93407155234907" lon="15.048181296192451"><ele>325.0</ele><time>2026-04-11T14:19:38.999Z</time></trkpt><trkpt lat="36.934154844458526" lon="15.048175829249683"><ele>325.0</ele><time>2026-04-11T14:19:39.999Z</time></trkpt><trkpt lat="36.93425403357966" lon="15.048208805649454"><ele>325.16666666666663</ele><time>2026-04-11T14:19:41Z</time></trkpt><trkpt lat="36.934347459874154" lon="15.048214245593059"><ele>325.3333333333333</ele><time>2026-04-11T14:19:42Z</time></trkpt><trkpt lat="36.93442228666218" lon="15.048218602541203"><ele>325.5</ele><time>2026-04-11T14:19:43Z</time></trkpt><trkpt lat="36.93450379676978" lon="15.048223348640771"><ele>325.6666666666667</ele><time>2026-04-11T14:19:44Z</time></trkpt><trkpt lat="36.93459437752895" lon="15.048209136936565"><ele>325.83333333333337</ele><time>2026-04-11T14:19:45Z</time></trkpt><trkpt lat="36.934687540152694" lon="15.048224422433458"><ele>326.0</ele><time>2026-04-11T14:19:46Z</time></trkpt><trkpt lat="36.934773683847425" lon="15.048229906350151"><ele>326.0</ele><time>2026-04-11T14:19:47Z</time></trkpt><trkpt lat="36.93486270359398" lon="15.048261388985432"><ele>326.0</ele><time>2026-04-11T14:19:48Z</time></trkpt><trkpt lat="36.93494350757283" lon="15.048284852182107"><ele>326.0</ele><time>2026-04-11T14:19:49Z</time></trkpt><trkpt lat="36.93502367024414" lon="15.04831185305211"><ele>326.0</ele><time>2026-04-11T14:19:50Z</time></trkpt><trkpt lat="36.935106183257474" lon="15.048341214663811"><ele>326.0</ele><time>2026-04-11T14:19:51Z</time></trkpt><trkpt lat="36.9351883129519" lon="15.048378442676633"><ele>326.0</ele><time>2026-04-11T14:19:52Z</time></trkpt><trkpt lat="36.935267052099654" lon="15.048425738160553"><ele>326.33333333333337</ele><time>2026-04-11T14:19:53Z</time></trkpt><trkpt lat="36.935340832259435" lon="15.048482737420509"><ele>326.6666666666667</ele><time>2026-04-11T14:19:54Z</time></trkpt><trkpt lat="36.93541586133734" lon="15.048523685476896"><ele>327.0</ele><time>2026-04-11T14:19:55Z</time></trkpt><trkpt lat="36.935476501889156" lon="15.048566456614141"><ele>327.3333333333333</ele><time>2026-04-11T14:19:56Z</time></trkpt><trkpt lat="36.935551729846395" lon="15.048601908232138"><ele>327.66666666666663</ele><time>2026-04-11T14:19:57Z</time></trkpt><trkpt lat="36.93563124323866" lon="15.04863788232158"><ele>328.0</ele><time>2026-04-11T14:19:58Z</time></trkpt><trkpt lat="36.93570667020318" lon="15.048668518829162"><ele>328.0</ele><time>2026-04-11T14:19:59Z</time></trkpt><trkpt lat="36.93577749693593" lon="15.048704936537593"><ele>328.0</ele><time>2026-04-11T14:20:00Z</time></trkpt><trkpt lat="36.93584032396436" lon="15.048720660537139"><ele>328.0</ele><time>2026-04-11T14:20:01Z</time></trkpt><trkpt lat="36.935942392151645" lon="15.048739855332064"><ele>328.0</ele><time>2026-04-11T14:20:03Z</time></trkpt><trkpt lat="36.93602073994538" lon="15.04862321136226"><ele>328.0</ele><time>2026-04-11T14:20:05Z</time></trkpt><trkpt lat="36.93605593909717" lon="15.048545347953548"><ele>328.0</ele><time>2026-04-11T14:20:06Z</time></trkpt><trkpt lat="36.93611865060551" lon="15.048463370254463"><ele>328.0</ele><time>2026-04-11T14:20:07Z</time></trkpt><trkpt lat="36.936166094901445" lon="15.048331314250655"><ele>328.0</ele><time>2026-04-11T14:20:08Z</time></trkpt><trkpt lat="36.93622669746814" lon="15.048232566886437"><ele>328.0</ele><time>2026-04-11T14:20:09Z</time></trkpt><trkpt lat="36.93628223357211" lon="15.048117850575101"><ele>328.0</ele><time>2026-04-11T14:20:10Z</time></trkpt><trkpt lat="36.93636242346063" lon="15.04800951097305"><ele>328.0</ele><time>2026-04-11T14:20:11Z</time></trkpt><trkpt lat="36.93643475181051" lon="15.04788473845015"><ele>328.0</ele><time>2026-04-11T14:20:12Z</time></trkpt><trkpt lat="36.936517964569944" lon="15.047741189399154"><ele>328.0</ele><time>2026-04-11T14:20:13Z</time></trkpt><trkpt lat="36.936613303214685" lon="15.047575524838138"><ele>328.0</ele><time>2026-04-11T14:20:14Z</time></trkpt><trkpt lat="36.93668958556547" lon="15.047449480624127"><ele>328.0</ele><time>2026-04-11T14:20:15Z</time></trkpt><trkpt lat="36.936757113371904" lon="15.04736733872018"><ele>330.0</ele><time>2026-04-11T14:20:16Z</time></trkpt><trkpt lat="36.936830195619365" lon="15.047291642554983"><ele>332.0</ele><time>2026-04-11T14:20:17Z</time></trkpt><trkpt lat="36.93691601776179" lon="15.047202612882677"><ele>334.0</ele><time>2026-04-11T14:20:18Z</time></trkpt><trkpt lat="36.93701174223748" lon="15.047103310792469"><ele>336.0</ele><time>2026-04-11T14:20:19Z</time></trkpt><trkpt lat="36.937106202142836" lon="15.047008188117177"><ele>336.0</ele><time>2026-04-11T14:20:20Z</time></trkpt><trkpt lat="36.93718336747783" lon="15.046938906166211"><ele>336.0</ele><time>2026-04-11T14:20:21Z</time></trkpt><trkpt lat="36.937252772230714" lon="15.04688140750013"><ele>336.0</ele><time>2026-04-11T14:20:22Z</time></trkpt><trkpt lat="36.937318575426296" lon="15.046836045478706"><ele>336.0</ele><time>2026-04-11T14:20:23Z</time></trkpt><trkpt lat="36.93740130195078" lon="15.046789180704174"><ele>336.0</ele><time>2026-04-11T14:20:24Z</time></trkpt><trkpt lat="36.93746871750789" lon="15.04672337023577"><ele>336.0</ele><time>2026-04-11T14:20:25Z</time></trkpt><trkpt lat="36.93753188937156" lon="15.04661840468666"><ele>337.1666666666667</ele><time>2026-04-11T14:20:26Z</time></trkpt><trkpt lat="36.937627043313185" lon="15.046538684085755"><ele>338.3333333333333</ele><time>2026-04-11T14:20:27Z</time></trkpt><trkpt lat="36.93771072255175" lon="15.046456099800995"><ele>339.5</ele><time>2026-04-11T14:20:28Z</time></trkpt><trkpt lat="36.937783400402466" lon="15.046407582799915"><ele>340.66666666666663</ele><time>2026-04-11T14:20:29Z</time></trkpt><trkpt lat="36.93785122034823" lon="15.046387299842179"><ele>341.8333333333333</ele><time>2026-04-11T14:20:30Z</time></trkpt><trkpt lat="36.93791815720599" lon="15.046380579467524"><ele>343.0</ele><time>2026-04-11T14:20:31.001Z</time></trkpt><trkpt lat="36.938011938377045" lon="15.046446743222893"><ele>343.0</ele><time>2026-04-11T14:20:32.001Z</time></trkpt><trkpt lat="36.93813832271426" lon="15.04645174122135"><ele>343.0</ele><time>2026-04-11T14:20:33.001Z</time></trkpt><trkpt lat="36.93827826061644" lon="15.046433932669416"><ele>343.0</ele><time>2026-04-11T14:20:34.001Z</time></trkpt><trkpt lat="36.9384184782891" lon="15.046409229501673"><ele>343.0</ele><time>2026-04-11T14:20:35.001Z</time></trkpt><trkpt lat="36.93856845006079" lon="15.04637759228745"><ele>343.5</ele><time>2026-04-11T14:20:36.001Z</time></trkpt><trkpt lat="36.93869958074073" lon="15.046346882961682"><ele>344.0</ele><time>2026-04-11T14:20:37.001Z</time></trkpt><trkpt lat="36.938826355074" lon="15.046318883113114"><ele>344.5</ele><time>2026-04-11T14:20:38.001Z</time></trkpt><trkpt lat="36.93896109651663" lon="15.046297182311974"><ele>345.0</ele><time>2026-04-11T14:20:39.001Z</time></trkpt><trkpt lat="36.93908069015432" lon="15.046283334627432"><ele>345.0</ele><time>2026-04-11T14:20:40.001Z</time></trkpt><trkpt lat="36.939194894150084" lon="15.046266672271381"><ele>345.0</ele><time>2026-04-11T14:20:41.001Z</time></trkpt><trkpt lat="36.93930667362228" lon="15.046234567597336"><ele>345.0</ele><time>2026-04-11T14:20:42.001Z</time></trkpt><trkpt lat="36.93943160808842" lon="15.046173779856167"><ele>345.0</ele><time>2026-04-11T14:20:43.001Z</time></trkpt><trkpt lat="36.939550933533944" lon="15.046116334385196"><ele>343.75</ele><time>2026-04-11T14:20:44.001Z</time></trkpt><trkpt lat="36.93966415924393" lon="15.046064026375811"><ele>342.5</ele><time>2026-04-11T14:20:45.001Z</time></trkpt><trkpt lat="36.93977731435412" lon="15.046009918596381"><ele>341.25</ele><time>2026-04-11T14:20:46.001Z</time></trkpt><trkpt lat="36.93989021904316" lon="15.045954303643434"><ele>340.0</ele><time>2026-04-11T14:20:47.001Z</time></trkpt><trkpt lat="36.94000887172564" lon="15.045893655682013"><ele>339.0</ele><time>2026-04-11T14:20:48.001Z</time></trkpt><trkpt lat="36.9401352831989" lon="15.045828779071917"><ele>338.0</ele><time>2026-04-11T14:20:49.001Z</time></trkpt><trkpt lat="36.94026685048213" lon="15.045764856303933"><ele>337.0</ele><time>2026-04-11T14:20:50.001Z</time></trkpt><trkpt lat="36.940402582963756" lon="15.045673117360767"><ele>336.0</ele><time>2026-04-11T14:20:51.001Z</time></trkpt><trkpt lat="36.94053903796429" lon="15.045621921023068"><ele>336.5</ele><time>2026-04-11T14:20:52.001Z</time></trkpt><trkpt lat="36.9406798446963" lon="15.045575686917601"><ele>337.0</ele><time>2026-04-11T14:20:53.001Z</time></trkpt><trkpt lat="36.94081054575497" lon="15.045538809141322"><ele>337.5</ele><time>2026-04-11T14:20:54.001Z</time></trkpt><trkpt lat="36.94093369134265" lon="15.045491046122022"><ele>338.0</ele><time>2026-04-11T14:20:55.001Z</time></trkpt><trkpt lat="36.94104788985453" lon="15.0454307212745"><ele>338.0</ele><time>2026-04-11T14:20:56.001Z</time></trkpt><trkpt lat="36.941168168020106" lon="15.0453305831607"><ele>338.0</ele><time>2026-04-11T14:20:57.001Z</time></trkpt><trkpt lat="36.94129525421479" lon="15.045229376659199"><ele>338.0</ele><time>2026-04-11T14:20:58.001Z</time></trkpt><trkpt lat="36.94141692197897" lon="15.045131157334094"><ele>338.0</ele><time>2026-04-11T14:20:59.001Z</time></trkpt><trkpt lat="36.94152692931875" lon="15.04503768803215"><ele>337.33333333333337</ele><time>2026-04-11T14:21:00.001Z</time></trkpt><trkpt lat="36.941635333630025" lon="15.04492850232196"><ele>336.6666666666667</ele><time>2026-04-11T14:21:01.001Z</time></trkpt><trkpt lat="36.94174945282575" lon="15.044796352408373"><ele>336.0</ele><time>2026-04-11T14:21:02.001Z</time></trkpt><trkpt lat="36.94185545427094" lon="15.044639582386736"><ele>336.0</ele><time>2026-04-11T14:21:03.001Z</time></trkpt><trkpt lat="36.941964217477704" lon="15.044473567455835"><ele>336.0</ele><time>2026-04-11T14:21:04.001Z</time></trkpt><trkpt lat="36.94206419956811" lon="15.044320887505119"><ele>336.0</ele><time>2026-04-11T14:21:05.001Z</time></trkpt><trkpt lat="36.942178175378864" lon="15.044188150816305"><ele>337.25</ele><time>2026-04-11T14:21:06.001Z</time></trkpt><trkpt lat="36.94226750627924" lon="15.044037620066058"><ele>338.5</ele><time>2026-04-11T14:21:07.001Z</time></trkpt><trkpt lat="36.94233868147506" lon="15.043883299157553"><ele>339.75</ele><time>2026-04-11T14:21:08.001Z</time></trkpt><trkpt lat="36.942399275246565" lon="15.043711816791756"><ele>341.0</ele><time>2026-04-11T14:21:09.001Z</time></trkpt><trkpt lat="36.94246264731416" lon="15.043530520751212"><ele>341.0</ele><time>2026-04-11T14:21:10.001Z</time></trkpt><trkpt lat="36.9425340844056" lon="15.043348523157407"><ele>341.0</ele><time>2026-04-11T14:21:11.001Z</time></trkpt><trkpt lat="36.94261427476451" lon="15.04317692758874"><ele>341.0</ele><time>2026-04-11T14:21:12.001Z</time></trkpt><trkpt lat="36.94269171635126" lon="15.04302204441175"><ele>341.0</ele><time>2026-04-11T14:21:13.001Z</time></trkpt><trkpt lat="36.942766257960145" lon="15.042890280539517"><ele>341.0</ele><time>2026-04-11T14:21:14.001Z</time></trkpt><trkpt lat="36.942855359577514" lon="15.042787941599883"><ele>341.0</ele><time>2026-04-11T14:21:15.001Z</time></trkpt><trkpt lat="36.94296032806173" lon="15.042678798386246"><ele>341.0</ele><time>2026-04-11T14:21:16.001Z</time></trkpt><trkpt lat="36.94306270820757" lon="15.042575204078528"><ele>341.0</ele><time>2026-04-11T14:21:17.001Z</time></trkpt><trkpt lat="36.943167908008256" lon="15.042480627467055"><ele>341.0</ele><time>2026-04-11T14:21:18.001Z</time></trkpt><trkpt lat="36.94328536291089" lon="15.042401242206033"><ele>341.0</ele><time>2026-04-11T14:21:19.001Z</time></trkpt><trkpt lat="36.94341266771269" lon="15.04231836219123"><ele>341.0</ele><time>2026-04-11T14:21:20.001Z</time></trkpt><trkpt lat="36.94354088220113" lon="15.042232516093545"><ele>341.75</ele><time>2026-04-11T14:21:21.001Z</time></trkpt><trkpt lat="36.94367513101783" lon="15.042142228896148"><ele>342.5</ele><time>2026-04-11T14:21:22.001Z</time></trkpt><trkpt lat="36.94379988645302" lon="15.042058325011874"><ele>343.25</ele><time>2026-04-11T14:21:23Z</time></trkpt><trkpt lat="36.94391394301051" lon="15.041981173196467"><ele>344.0</ele><time>2026-04-11T14:21:24Z</time></trkpt><trkpt lat="36.94403085326738" lon="15.041898418168858"><ele>344.0</ele><time>2026-04-11T14:21:25Z</time></trkpt><trkpt lat="36.944144094699695" lon="15.041807624899274"><ele>344.0</ele><time>2026-04-11T14:21:26Z</time></trkpt><trkpt lat="36.94425635741777" lon="15.041695348367734"><ele>344.0</ele><time>2026-04-11T14:21:27Z</time></trkpt><trkpt lat="36.944362478782324" lon="15.041566340075516"><ele>344.0</ele><time>2026-04-11T14:21:28Z</time></trkpt><trkpt lat="36.944464393276355" lon="15.041428706831324"><ele>345.6666666666667</ele><time>2026-04-11T14:21:29Z</time></trkpt><trkpt lat="36.94457227798094" lon="15.041296908707752"><ele>347.3333333333333</ele><time>2026-04-11T14:21:30Z</time></trkpt><trkpt lat="36.94468667269311" lon="15.041164325536567"><ele>349.0</ele><time>2026-04-11T14:21:31Z</time></trkpt><trkpt lat="36.944801871642404" lon="15.041030540135427"><ele>349.0</ele><time>2026-04-11T14:21:32Z</time></trkpt><trkpt lat="36.944902379034865" lon="15.040915669049967"><ele>349.0</ele><time>2026-04-11T14:21:33Z</time></trkpt><trkpt lat="36.94500165277397" lon="15.040808774102327"><ele>349.0</ele><time>2026-04-11T14:21:34Z</time></trkpt><trkpt lat="36.94510752735282" lon="15.040698614855526"><ele>349.0</ele><time>2026-04-11T14:21:35Z</time></trkpt><trkpt lat="36.945220258232354" lon="15.040595386638985"><ele>349.5</ele><time>2026-04-11T14:21:36Z</time></trkpt><trkpt lat="36.9453366721446" lon="15.040506651121703"><ele>350.0</ele><time>2026-04-11T14:21:37Z</time></trkpt><trkpt lat="36.945458883732734" lon="15.040417034589513"><ele>350.5</ele><time>2026-04-11T14:21:38Z</time></trkpt><trkpt lat="36.94558280889558" lon="15.04030786830928"><ele>351.0</ele><time>2026-04-11T14:21:39Z</time></trkpt><trkpt lat="36.94570162321319" lon="15.040193802903525"><ele>351.0</ele><time>2026-04-11T14:21:40Z</time></trkpt><trkpt lat="36.94581431301083" lon="15.040086909503671"><ele>351.0</ele><time>2026-04-11T14:21:41Z</time></trkpt><trkpt lat="36.94592171693155" lon="15.039991538061201"><ele>351.0</ele><time>2026-04-11T14:21:42Z</time></trkpt><trkpt lat="36.946030405047566" lon="15.039906909097091"><ele>351.0</ele><time>2026-04-11T14:21:43Z</time></trkpt><trkpt lat="36.946157387259426" lon="15.039825964830646"><ele>350.75</ele><time>2026-04-11T14:21:44Z</time></trkpt><trkpt lat="36.94628152054439" lon="15.039751392216361"><ele>350.5</ele><time>2026-04-11T14:21:45Z</time></trkpt><trkpt lat="36.94640047452005" lon="15.03967317789543"><ele>350.25</ele><time>2026-04-11T14:21:46Z</time></trkpt><trkpt lat="36.94652160181954" lon="15.03959525387777"><ele>350.0</ele><time>2026-04-11T14:21:47Z</time></trkpt><trkpt lat="36.94665011315549" lon="15.039529733711912"><ele>347.25</ele><time>2026-04-11T14:21:48Z</time></trkpt><trkpt lat="36.9467861198721" lon="15.039462612847563"><ele>344.5</ele><time>2026-04-11T14:21:49Z</time></trkpt><trkpt lat="36.94691126605996" lon="15.03939411318724"><ele>341.75</ele><time>2026-04-11T14:21:50Z</time></trkpt><trkpt lat="36.94702654566004" lon="15.039331014064546"><ele>339.0</ele><time>2026-04-11T14:21:51Z</time></trkpt><trkpt lat="36.94713311338677" lon="15.039275069231232"><ele>339.0</ele><time>2026-04-11T14:21:52Z</time></trkpt><trkpt lat="36.947230002772976" lon="15.039222151682456"><ele>339.0</ele><time>2026-04-11T14:21:53Z</time></trkpt><trkpt lat="36.94732361421268" lon="15.03914968518038"><ele>339.0</ele><time>2026-04-11T14:21:54Z</time></trkpt><trkpt lat="36.947405624259424" lon="15.0390335893345"><ele>339.0</ele><time>2026-04-11T14:21:55Z</time></trkpt><trkpt lat="36.94751454221417" lon="15.038949609981326"><ele>340.25</ele><time>2026-04-11T14:21:56Z</time></trkpt><trkpt lat="36.94763938943101" lon="15.038892375386613"><ele>341.5</ele><time>2026-04-11T14:21:57Z</time></trkpt><trkpt lat="36.947768881285484" lon="15.038834778689033"><ele>342.75</ele><time>2026-04-11T14:21:58Z</time></trkpt><trkpt lat="36.947891261029994" lon="15.0387768068383"><ele>344.0</ele><time>2026-04-11T14:21:59Z</time></trkpt><trkpt lat="36.948004243176165" lon="15.038723748052098"><ele>344.0</ele><time>2026-04-11T14:22:00Z</time></trkpt><trkpt lat="36.948115222093826" lon="15.03868210676375"><ele>344.0</ele><time>2026-04-11T14:22:01Z</time></trkpt><trkpt lat="36.94823071143566" lon="15.038669144430424"><ele>344.0</ele><time>2026-04-11T14:22:02Z</time></trkpt><trkpt lat="36.94835328046746" lon="15.038675030938437"><ele>344.0</ele><time>2026-04-11T14:22:03Z</time></trkpt><trkpt lat="36.948477487619925" lon="15.038688066039901"><ele>344.0</ele><time>2026-04-11T14:22:04Z</time></trkpt><trkpt lat="36.94860533199403" lon="15.038712240758343"><ele>344.0</ele><time>2026-04-11T14:22:05Z</time></trkpt><trkpt lat="36.94872885283933" lon="15.038753625731387"><ele>344.0</ele><time>2026-04-11T14:22:06Z</time></trkpt><trkpt lat="36.9488537552499" lon="15.038791164537983"><ele>344.0</ele><time>2026-04-11T14:22:07Z</time></trkpt><trkpt lat="36.94896722486483" lon="15.03882193058335"><ele>344.0</ele><time>2026-04-11T14:22:08Z</time></trkpt><trkpt lat="36.9490596837854" lon="15.038851518625613"><ele>344.0</ele><time>2026-04-11T14:22:09Z</time></trkpt><trkpt lat="36.9491423354492" lon="15.038880841680754"><ele>344.0</ele><time>2026-04-11T14:22:10Z</time></trkpt><trkpt lat="36.94922073238821" lon="15.038909670414562"><ele>344.0</ele><time>2026-04-11T14:22:11.001Z</time></trkpt><trkpt lat="36.94929375596488" lon="15.038935365192094"><ele>344.0</ele><time>2026-04-11T14:22:12.001Z</time></trkpt><trkpt lat="36.9493657496788" lon="15.038947116735976"><ele>344.0</ele><time>2026-04-11T14:22:13.001Z</time></trkpt><trkpt lat="36.94942954160185" lon="15.03893459136206"><ele>344.79999999999995</ele><time>2026-04-11T14:22:14.001Z</time></trkpt><trkpt lat="36.94952929053425" lon="15.038914053138209"><ele>345.59999999999997</ele><time>2026-04-11T14:22:16.001Z</time></trkpt><trkpt lat="36.94961027045371" lon="15.038902764193697"><ele>346.4</ele><time>2026-04-11T14:22:18.001Z</time></trkpt><trkpt lat="36.94971411298079" lon="15.038817310789796"><ele>347.2</ele><time>2026-04-11T14:22:20.001Z</time></trkpt><trkpt lat="36.94979012658055" lon="15.038765636292748"><ele>348.0</ele><time>2026-04-11T14:22:22.001Z</time></trkpt><trkpt lat="36.949851804835276" lon="15.038729751499092"><ele>348.0</ele><time>2026-04-11T14:22:24.001Z</time></trkpt><trkpt lat="36.94991824634459" lon="15.038698352400683"><ele>348.0</ele><time>2026-04-11T14:22:28.001Z</time></trkpt><trkpt lat="36.949994254922025" lon="15.038669658036873"><ele>348.0</ele><time>2026-04-11T14:22:30.001Z</time></trkpt><trkpt lat="36.95007520056514" lon="15.03864889693288"><ele>348.0</ele><time>2026-04-11T14:22:32.001Z</time></trkpt><trkpt lat="36.950156653186646" lon="15.038673387982303"><ele>348.0</ele><time>2026-04-11T14:22:35.001Z</time></trkpt><trkpt lat="36.950256820209745" lon="15.038673700416812"><ele>348.0</ele><time>2026-04-11T14:22:38.001Z</time></trkpt><trkpt lat="36.95033353346077" lon="15.038628863813813"><ele>348.5</ele><time>2026-04-11T14:22:40.001Z</time></trkpt><trkpt lat="36.95040753211621" lon="15.038581265467762"><ele>349.0</ele><time>2026-04-11T14:22:42.001Z</time></trkpt><trkpt lat="36.95046972939796" lon="15.038541258163603"><ele>349.5</ele><time>2026-04-11T14:22:44.001Z</time></trkpt><trkpt lat="36.9505335749798" lon="15.038503058033966"><ele>350.0</ele><time>2026-04-11T14:22:46.001Z</time></trkpt><trkpt lat="36.95060525044439" lon="15.038465398700165"><ele>350.5</ele><time>2026-04-11T14:22:48.001Z</time></trkpt><trkpt lat="36.95067025399368" lon="15.038433732172084"><ele>351.0</ele><time>2026-04-11T14:22:50.001Z</time></trkpt><trkpt lat="36.95074452777737" lon="15.038397549626172"><ele>351.0</ele><time>2026-04-11T14:22:54.001Z</time></trkpt><trkpt lat="36.950797825663514" lon="15.038352498143487"><ele>351.0</ele><time>2026-04-11T14:22:56.001Z</time></trkpt><trkpt lat="36.95087512757912" lon="15.038319620794425"><ele>351.0</ele><time>2026-04-11T14:22:59.001Z</time></trkpt><trkpt lat="36.950961924681714" lon="15.038264418517985"><ele>351.0</ele><time>2026-04-11T14:23:01.001Z</time></trkpt><trkpt lat="36.95103187095427" lon="15.03822030131321"><ele>351.0</ele><time>2026-04-11T14:23:04.001Z</time></trkpt><trkpt lat="36.951088098301085" lon="15.038184088918243"><ele>351.0</ele><time>2026-04-11T14:23:06.001Z</time></trkpt><trkpt lat="36.951162620544046" lon="15.038141027351761"><ele>351.8333333333333</ele><time>2026-04-11T14:23:09.001Z</time></trkpt><trkpt lat="36.9512276311814" lon="15.038130384913734"><ele>352.6666666666667</ele><time>2026-04-11T14:23:14.001Z</time></trkpt><trkpt lat="36.951324556099" lon="15.03812558199556"><ele>353.5</ele><time>2026-04-11T14:23:17.001Z</time></trkpt><trkpt lat="36.95140779480706" lon="15.038059395371437"><ele>354.33333333333337</ele><time>2026-04-11T14:23:19.002Z</time></trkpt><trkpt lat="36.951476841506135" lon="15.0379578443437"><ele>355.1666666666667</ele><time>2026-04-11T14:23:21.002Z</time></trkpt><trkpt lat="36.95154425103503" lon="15.037939580656841"><ele>356.0</ele><time>2026-04-11T14:23:23.002Z</time></trkpt><trkpt lat="36.95160911027761" lon="15.037831112314935"><ele>356.0</ele><time>2026-04-11T14:23:25.002Z</time></trkpt><trkpt lat="36.95167840837856" lon="15.037726567124537"><ele>356.0</ele><time>2026-04-11T14:23:26.002Z</time></trkpt><trkpt lat="36.95170708536716" lon="15.037655284055424"><ele>356.0</ele><time>2026-04-11T14:23:28.002Z</time></trkpt><trkpt lat="36.95174486381612" lon="15.037581712125181"><ele>356.0</ele><time>2026-04-11T14:23:31Z</time></trkpt><trkpt lat="36.95178185204135" lon="15.037508531497455"><ele>356.0</ele><time>2026-04-11T14:23:34Z</time></trkpt><trkpt lat="36.951822942753566" lon="15.037427234442767"><ele>356.0</ele><time>2026-04-11T14:23:37Z</time></trkpt><trkpt lat="36.9518820563925" lon="15.03729835743794"><ele>357.25</ele><time>2026-04-11T14:23:41Z</time></trkpt><trkpt lat="36.95193119909604" lon="15.037190191296384"><ele>358.5</ele><time>2026-04-11T14:23:43Z</time></trkpt><trkpt lat="36.95198008344296" lon="15.037077831707906"><ele>359.75</ele><time>2026-04-11T14:23:45Z</time></trkpt><trkpt lat="36.95201794089777" lon="15.036990817205647"><ele>361.0</ele><time>2026-04-11T14:23:49Z</time></trkpt><trkpt lat="36.95210380329172" lon="15.036792020129523"><ele>361.0</ele><time>2026-04-11T14:23:51Z</time></trkpt><trkpt lat="36.95215870869958" lon="15.036663768258638"><ele>361.0</ele><time>2026-04-11T14:23:53Z</time></trkpt><trkpt lat="36.95219919655677" lon="15.036596140519444"><ele>361.0</ele><time>2026-04-11T14:23:54Z</time></trkpt><trkpt lat="36.95224294955131" lon="15.036457514470369"><ele>361.0</ele><time>2026-04-11T14:23:56Z</time></trkpt><trkpt lat="36.952274616534424" lon="15.036372754640693"><ele>361.0</ele><time>2026-04-11T14:23:58Z</time></trkpt><trkpt lat="36.95230995957066" lon="15.036262044533794"><ele>362.16666666666663</ele><time>2026-04-11T14:24:00Z</time></trkpt><trkpt lat="36.952332394623106" lon="15.036167103338599"><ele>363.3333333333333</ele><time>2026-04-11T14:24:02Z</time></trkpt><trkpt lat="36.95235358453503" lon="15.036047269699615"><ele>364.5</ele><time>2026-04-11T14:24:05Z</time></trkpt><trkpt lat="36.95237252945117" lon="15.03594387913053"><ele>365.6666666666667</ele><time>2026-04-11T14:24:07Z</time></trkpt><trkpt lat="36.95237986716324" lon="15.035862743707568"><ele>366.83333333333337</ele><time>2026-04-11T14:24:09Z</time></trkpt><trkpt lat="36.95239695125999" lon="15.035731277774921"><ele>368.0</ele><time>2026-04-11T14:24:11Z</time></trkpt><trkpt lat="36.95243066987115" lon="15.03559408929832"><ele>369.2</ele><time>2026-04-11T14:24:13.001Z</time></trkpt><trkpt lat="36.95249575957917" lon="15.035442722072396"><ele>370.4</ele><time>2026-04-11T14:24:14.001Z</time></trkpt><trkpt lat="36.952545439004794" lon="15.035337412713707"><ele>371.59999999999997</ele><time>2026-04-11T14:24:15.001Z</time></trkpt><trkpt lat="36.95258329190241" lon="15.035262244615849"><ele>372.79999999999995</ele><time>2026-04-11T14:24:16.001Z</time></trkpt><trkpt lat="36.95265407519201" lon="15.035138808411102"><ele>374.0</ele><time>2026-04-11T14:24:18.001Z</time></trkpt><trkpt lat="36.95274110937941" lon="15.03503949131826"><ele>374.1666666666667</ele><time>2026-04-11T14:24:20.001Z</time></trkpt><trkpt lat="36.95279890124258" lon="15.034979216539325"><ele>374.33333333333337</ele><time>2026-04-11T14:24:21.001Z</time></trkpt><trkpt lat="36.95286055111784" lon="15.034916406527891"><ele>374.5</ele><time>2026-04-11T14:24:22.001Z</time></trkpt><trkpt lat="36.95291816777359" lon="15.03486013353285"><ele>374.6666666666667</ele><time>2026-04-11T14:24:23.001Z</time></trkpt><trkpt lat="36.9529876860072" lon="15.034796355159047"><ele>374.8333333333333</ele><time>2026-04-11T14:24:24.001Z</time></trkpt><trkpt lat="36.95307694261135" lon="15.034724105633545"><ele>375.0</ele><time>2026-04-11T14:24:25.001Z</time></trkpt><trkpt lat="36.953157318348225" lon="15.034665128475824"><ele>375.6</ele><time>2026-04-11T14:24:26.001Z</time></trkpt><trkpt lat="36.953229100556605" lon="15.034610916028539"><ele>376.2</ele><time>2026-04-11T14:24:27.001Z</time></trkpt><trkpt lat="36.953296269561385" lon="15.034546925367458"><ele>376.79999999999995</ele><time>2026-04-11T14:24:28.001Z</time></trkpt><trkpt lat="36.9533502448334" lon="15.034482800026879"><ele>377.4</ele><time>2026-04-11T14:24:29.001Z</time></trkpt><trkpt lat="36.95347268794072" lon="15.03443255704493"><ele>378.0</ele><time>2026-04-11T14:24:31.001Z</time></trkpt><trkpt lat="36.95357575026719" lon="15.034382093166306"><ele>378.4</ele><time>2026-04-11T14:24:32.001Z</time></trkpt><trkpt lat="36.95366573886422" lon="15.034347750177293"><ele>378.79999999999995</ele><time>2026-04-11T14:24:33.001Z</time></trkpt><trkpt lat="36.9537394973291" lon="15.034331491643371"><ele>379.2</ele><time>2026-04-11T14:24:34.001Z</time></trkpt><trkpt lat="36.953858872785084" lon="15.034299245551672"><ele>379.6</ele><time>2026-04-11T14:24:36.001Z</time></trkpt><trkpt lat="36.95394889867035" lon="15.034299226055358"><ele>380.0</ele><time>2026-04-11T14:24:38.001Z</time></trkpt><trkpt lat="36.95407571057263" lon="15.034276181571187"><ele>380.0</ele><time>2026-04-11T14:24:40.001Z</time></trkpt><trkpt lat="36.954148389520505" lon="15.03425711096869"><ele>380.0</ele><time>2026-04-11T14:24:41.001Z</time></trkpt><trkpt lat="36.95424528950476" lon="15.034223947832675"><ele>380.0</ele><time>2026-04-11T14:24:43.001Z</time></trkpt><trkpt lat="36.95429916094054" lon="15.034137907735218"><ele>380.0</ele><time>2026-04-11T14:24:52.001Z</time></trkpt><trkpt lat="36.95437287064697" lon="15.034063202746863"><ele>380.0</ele><time>2026-04-11T14:24:54.001Z</time></trkpt><trkpt lat="36.954461051666556" lon="15.033964111942128"><ele>381.0</ele><time>2026-04-11T14:24:56.001Z</time></trkpt><trkpt lat="36.954525831457644" lon="15.033942393206532"><ele>382.0</ele><time>2026-04-11T14:24:57.001Z</time></trkpt><trkpt lat="36.95462005744872" lon="15.033855133583392"><ele>383.0</ele><time>2026-04-11T14:24:59.001Z</time></trkpt><trkpt lat="36.95470404423446" lon="15.033782649180681"><ele>384.0</ele><time>2026-04-11T14:25:01.001Z</time></trkpt><trkpt lat="36.954801952126815" lon="15.033697395305204"><ele>385.0</ele><time>2026-04-11T14:25:03.001Z</time></trkpt><trkpt lat="36.95485545363423" lon="15.03364695880581"><ele>385.00000000000006</ele><time>2026-04-11T14:25:04.001Z</time></trkpt><trkpt lat="36.95490411692216" lon="15.033579920168728"><ele>385.0</ele><time>2026-04-11T14:25:05.001Z</time></trkpt><trkpt lat="36.954949768810486" lon="15.033525605352136"><ele>385.0</ele><time>2026-04-11T14:25:06.001Z</time></trkpt><trkpt lat="36.95501118262747" lon="15.033485988777082"><ele>385.0</ele><time>2026-04-11T14:25:07.001Z</time></trkpt><trkpt lat="36.955075542163016" lon="15.033413880908844"><ele>385.00000000000006</ele><time>2026-04-11T14:25:08.001Z</time></trkpt><trkpt lat="36.95515231403714" lon="15.033326599124841"><ele>385.0</ele><time>2026-04-11T14:25:09.001Z</time></trkpt><trkpt lat="36.95521213268502" lon="15.033251952235572"><ele>384.1666666666667</ele><time>2026-04-11T14:25:10.001Z</time></trkpt><trkpt lat="36.955258271827155" lon="15.033193750881633"><ele>383.33333333333337</ele><time>2026-04-11T14:25:11.001Z</time></trkpt><trkpt lat="36.955334035358746" lon="15.033110044015348"><ele>382.5</ele><time>2026-04-11T14:25:13.001Z</time></trkpt><trkpt lat="36.95539976503041" lon="15.033067435865734"><ele>381.6666666666667</ele><time>2026-04-11T14:25:15.001Z</time></trkpt><trkpt lat="36.95552907924562" lon="15.03305077763759"><ele>380.83333333333337</ele><time>2026-04-11T14:25:17.001Z</time></trkpt><trkpt lat="36.95560749579652" lon="15.033042211940874"><ele>380.0</ele><time>2026-04-11T14:25:18.001Z</time></trkpt><trkpt lat="36.95568343210194" lon="15.033036469478002"><ele>380.0</ele><time>2026-04-11T14:25:19.001Z</time></trkpt><trkpt lat="36.95575670865583" lon="15.033037291910775"><ele>380.0</ele><time>2026-04-11T14:25:20.001Z</time></trkpt><trkpt lat="36.95581887041538" lon="15.03305173775177"><ele>380.0</ele><time>2026-04-11T14:25:21.001Z</time></trkpt><trkpt lat="36.955911582134526" lon="15.033088604445384"><ele>380.0</ele><time>2026-04-11T14:25:23.001Z</time></trkpt><trkpt lat="36.955994595627914" lon="15.033080525136095"><ele>380.0</ele><time>2026-04-11T14:25:38Z</time></trkpt><trkpt lat="36.95605557634895" lon="15.033106633637948"><ele>380.0</ele><time>2026-04-11T14:25:42Z</time></trkpt><trkpt lat="36.95611666694972" lon="15.033153342279972"><ele>381.0</ele><time>2026-04-11T14:26:43.001Z</time></trkpt><trkpt lat="36.95622534040563" lon="15.033178050807512"><ele>382.0</ele><time>2026-04-11T14:26:45.001Z</time></trkpt><trkpt lat="36.95636142319047" lon="15.033199466892116"><ele>383.0</ele><time>2026-04-11T14:26:47.001Z</time></trkpt><trkpt lat="36.95644606318146" lon="15.033181886889075"><ele>384.0</ele><time>2026-04-11T14:26:48.001Z</time></trkpt><trkpt lat="36.956532012339515" lon="15.033152523333177"><ele>385.0</ele><time>2026-04-11T14:26:49.001Z</time></trkpt><trkpt lat="36.95661705009653" lon="15.033109220170676"><ele>386.6</ele><time>2026-04-11T14:26:50.001Z</time></trkpt><trkpt lat="36.95670987132109" lon="15.033058608059102"><ele>388.2</ele><time>2026-04-11T14:26:51.001Z</time></trkpt><trkpt lat="36.95680115063627" lon="15.033011563520677"><ele>389.79999999999995</ele><time>2026-04-11T14:26:52.001Z</time></trkpt><trkpt lat="36.95690590422424" lon="15.032962698360334"><ele>391.4</ele><time>2026-04-11T14:26:53.001Z</time></trkpt><trkpt lat="36.95702225353252" lon="15.032914183500298"><ele>393.0</ele><time>2026-04-11T14:26:54.001Z</time></trkpt><trkpt lat="36.95714513112482" lon="15.032859638064087"><ele>393.0</ele><time>2026-04-11T14:26:55.001Z</time></trkpt><trkpt lat="36.95728103540791" lon="15.032802794813756"><ele>393.0</ele><time>2026-04-11T14:26:56.001Z</time></trkpt><trkpt lat="36.957418031146254" lon="15.03275430433083"><ele>393.0</ele><time>2026-04-11T14:26:57.001Z</time></trkpt><trkpt lat="36.95753799944159" lon="15.032691162632986"><ele>393.0</ele><time>2026-04-11T14:26:58.001Z</time></trkpt><trkpt lat="36.957652119709806" lon="15.032669898051205"><ele>391.4</ele><time>2026-04-11T14:26:59.001Z</time></trkpt><trkpt lat="36.957757664446845" lon="15.032632715562041"><ele>389.79999999999995</ele><time>2026-04-11T14:27:00.001Z</time></trkpt><trkpt lat="36.95785679784477" lon="15.032596742768202"><ele>388.2</ele><time>2026-04-11T14:27:01.001Z</time></trkpt><trkpt lat="36.95792997286394" lon="15.032574689585152"><ele>386.6</ele><time>2026-04-11T14:27:02.001Z</time></trkpt><trkpt lat="36.958018354530026" lon="15.03259290937166"><ele>385.0</ele><time>2026-04-11T14:27:04.001Z</time></trkpt><trkpt lat="36.95811901776772" lon="15.032712827294946"><ele>385.0</ele><time>2026-04-11T14:27:06.001Z</time></trkpt><trkpt lat="36.95815344602074" lon="15.032852326552232"><ele>385.0</ele><time>2026-04-11T14:27:07.001Z</time></trkpt><trkpt lat="36.95818828543348" lon="15.033001013926224"><ele>385.0</ele><time>2026-04-11T14:27:08.001Z</time></trkpt><trkpt lat="36.958227305998385" lon="15.033171049208327"><ele>385.0</ele><time>2026-04-11T14:27:09.001Z</time></trkpt><trkpt lat="36.95827302084129" lon="15.033344342697678"><ele>390.0</ele><time>2026-04-11T14:27:10.001Z</time></trkpt><trkpt lat="36.95832135966699" lon="15.033532689669379"><ele>395.0</ele><time>2026-04-11T14:27:11.001Z</time></trkpt><trkpt lat="36.95837368040594" lon="15.033726946202133"><ele>400.0</ele><time>2026-04-11T14:27:12.001Z</time></trkpt><trkpt lat="36.95841971280845" lon="15.033906813280776"><ele>400.0</ele><time>2026-04-11T14:27:13.001Z</time></trkpt><trkpt lat="36.9584591017849" lon="15.034060655965598"><ele>400.0</ele><time>2026-04-11T14:27:14.001Z</time></trkpt><trkpt lat="36.95849569019639" lon="15.0342141475892"><ele>400.0</ele><time>2026-04-11T14:27:15.001Z</time></trkpt><trkpt lat="36.958532337153386" lon="15.03435516640227"><ele>400.0</ele><time>2026-04-11T14:27:16.001Z</time></trkpt><trkpt lat="36.9585714930876" lon="15.034490855693925"><ele>402.4</ele><time>2026-04-11T14:27:17.001Z</time></trkpt><trkpt lat="36.958620914001415" lon="15.034614797021712"><ele>404.8</ele><time>2026-04-11T14:27:18.001Z</time></trkpt><trkpt lat="36.95868442789738" lon="15.0347233549384"><ele>407.20000000000005</ele><time>2026-04-11T14:27:19.001Z</time></trkpt><trkpt lat="36.958765282547844" lon="15.034813487006527"><ele>409.6</ele><time>2026-04-11T14:27:20.001Z</time></trkpt><trkpt lat="36.95885450698105" lon="15.034905405412216"><ele>412.0</ele><time>2026-04-11T14:27:21.001Z</time></trkpt><trkpt lat="36.9589525471743" lon="15.03500659099671"><ele>412.0</ele><time>2026-04-11T14:27:22.001Z</time></trkpt><trkpt lat="36.95906765945615" lon="15.035122227202049"><ele>412.0</ele><time>2026-04-11T14:27:23.001Z</time></trkpt><trkpt lat="36.959191907615775" lon="15.035252658500621"><ele>412.0</ele><time>2026-04-11T14:27:24.001Z</time></trkpt><trkpt lat="36.959316253010996" lon="15.035387132837071"><ele>412.6666666666667</ele><time>2026-04-11T14:27:25.001Z</time></trkpt><trkpt lat="36.959445483866986" lon="15.035530322990747"><ele>413.33333333333337</ele><time>2026-04-11T14:27:26.001Z</time></trkpt><trkpt lat="36.95957934853514" lon="15.03567899969273"><ele>414.0</ele><time>2026-04-11T14:27:27.001Z</time></trkpt><trkpt lat="36.95970702463323" lon="15.03581497080477"><ele>413.75</ele><time>2026-04-11T14:27:28.001Z</time></trkpt><trkpt lat="36.95982626013637" lon="15.035937435863604"><ele>413.5</ele><time>2026-04-11T14:27:29.001Z</time></trkpt><trkpt lat="36.95993676652241" lon="15.036054681835049"><ele>413.25</ele><time>2026-04-11T14:27:30.001Z</time></trkpt><trkpt lat="36.960044403180596" lon="15.036180625562986"><ele>413.0</ele><time>2026-04-11T14:27:31.001Z</time></trkpt><trkpt lat="36.960153883650236" lon="15.036301967303581"><ele>413.0</ele><time>2026-04-11T14:27:32.001Z</time></trkpt><trkpt lat="36.96027082123838" lon="15.036428756969283"><ele>413.0</ele><time>2026-04-11T14:27:33.002Z</time></trkpt><trkpt lat="36.9603844012095" lon="15.036540632422321"><ele>413.0</ele><time>2026-04-11T14:27:34.002Z</time></trkpt><trkpt lat="36.96049021752803" lon="15.036661128302"><ele>413.0</ele><time>2026-04-11T14:27:35.002Z</time></trkpt><trkpt lat="36.96058980073581" lon="15.036766987690871"><ele>412.0</ele><time>2026-04-11T14:27:36.002Z</time></trkpt><trkpt lat="36.96068246087489" lon="15.03687003856009"><ele>411.0</ele><time>2026-04-11T14:27:37.002Z</time></trkpt><trkpt lat="36.96077166699371" lon="15.036968387309313"><ele>410.0</ele><time>2026-04-11T14:27:38.002Z</time></trkpt><trkpt lat="36.960863397280235" lon="15.037066708661104"><ele>409.0</ele><time>2026-04-11T14:27:39.002Z</time></trkpt><trkpt lat="36.960955512639664" lon="15.037168266601162"><ele>409.0</ele><time>2026-04-11T14:27:40.002Z</time></trkpt><trkpt lat="36.96104497673387" lon="15.037262470109956"><ele>409.0</ele><time>2026-04-11T14:27:41Z</time></trkpt><trkpt lat="36.96112270831201" lon="15.037354847234045"><ele>409.0</ele><time>2026-04-11T14:27:42Z</time></trkpt><trkpt lat="36.961193560910495" lon="15.03743198380254"><ele>409.0</ele><time>2026-04-11T14:27:43Z</time></trkpt><trkpt lat="36.96125178750483" lon="15.037497139926076"><ele>409.0</ele><time>2026-04-11T14:27:44Z</time></trkpt><trkpt lat="36.96129976136072" lon="15.037602957254977"><ele>409.2</ele><time>2026-04-11T14:27:46Z</time></trkpt><trkpt lat="36.961392103329366" lon="15.0376693049377"><ele>409.4</ele><time>2026-04-11T14:27:50Z</time></trkpt><trkpt lat="36.9614621914073" lon="15.037647137597444"><ele>409.6</ele><time>2026-04-11T14:27:51Z</time></trkpt><trkpt lat="36.96154605553319" lon="15.037592234357668"><ele>409.8</ele><time>2026-04-11T14:27:52Z</time></trkpt><trkpt lat="36.9616492141006" lon="15.037548917669255"><ele>410.0</ele><time>2026-04-11T14:27:53Z</time></trkpt><trkpt lat="36.961752874804795" lon="15.037497593086918"><ele>410.6</ele><time>2026-04-11T14:27:54Z</time></trkpt><trkpt lat="36.96186698685202" lon="15.03744298174813"><ele>411.2</ele><time>2026-04-11T14:27:55Z</time></trkpt><trkpt lat="36.96198494312929" lon="15.037395174726683"><ele>411.79999999999995</ele><time>2026-04-11T14:27:56Z</time></trkpt><trkpt lat="36.962084307637284" lon="15.037352650598198"><ele>412.4</ele><time>2026-04-11T14:27:57Z</time></trkpt><trkpt lat="36.96216637967447" lon="15.037319142490563"><ele>413.0</ele><time>2026-04-11T14:27:58Z</time></trkpt><trkpt lat="36.96223957143371" lon="15.037287430207417"><ele>412.99999999999994</ele><time>2026-04-11T14:27:59Z</time></trkpt><trkpt lat="36.9623023566671" lon="15.037265412503706"><ele>413.0</ele><time>2026-04-11T14:28:00Z</time></trkpt><trkpt lat="36.96240645277224" lon="15.03729575997648"><ele>413.0</ele><time>2026-04-11T14:28:02Z</time></trkpt><trkpt lat="36.96244011424651" lon="15.037390772572467"><ele>413.0</ele><time>2026-04-11T14:28:03Z</time></trkpt><trkpt lat="36.962505025986374" lon="15.037476779195028"><ele>412.99999999999994</ele><time>2026-04-11T14:28:04Z</time></trkpt><trkpt lat="36.96256628981286" lon="15.037555825314524"><ele>413.0</ele><time>2026-04-11T14:28:05Z</time></trkpt><trkpt lat="36.96260354655868" lon="15.037623506940184"><ele>414.0</ele><time>2026-04-11T14:28:06Z</time></trkpt><trkpt lat="36.96263890986074" lon="15.037722254737293"><ele>415.0</ele><time>2026-04-11T14:28:08Z</time></trkpt><trkpt lat="36.962744213797" lon="15.037694667552714"><ele>416.0</ele><time>2026-04-11T14:28:10Z</time></trkpt><trkpt lat="36.962877119479344" lon="15.037651227067855"><ele>417.0</ele><time>2026-04-11T14:28:12Z</time></trkpt><trkpt lat="36.96296677694106" lon="15.03756840467211"><ele>418.0</ele><time>2026-04-11T14:28:13Z</time></trkpt><trkpt lat="36.963046806374344" lon="15.03747835530023"><ele>418.75</ele><time>2026-04-11T14:28:14Z</time></trkpt><trkpt lat="36.96314347203194" lon="15.03736628841153"><ele>419.5</ele><time>2026-04-11T14:28:15Z</time></trkpt><trkpt lat="36.9632509559485" lon="15.037231515393488"><ele>420.25</ele><time>2026-04-11T14:28:16Z</time></trkpt><trkpt lat="36.96334979938539" lon="15.037107588274496"><ele>421.0</ele><time>2026-04-11T14:28:17Z</time></trkpt><trkpt lat="36.963429342618134" lon="15.037017368147747"><ele>421.8</ele><time>2026-04-11T14:28:18.001Z</time></trkpt><trkpt lat="36.963501925209194" lon="15.036934566757756"><ele>422.6</ele><time>2026-04-11T14:28:19.001Z</time></trkpt><trkpt lat="36.96356431713039" lon="15.036833516973683"><ele>423.4</ele><time>2026-04-11T14:28:20.001Z</time></trkpt><trkpt lat="36.96362996326112" lon="15.036753651644206"><ele>424.2</ele><time>2026-04-11T14:28:21.001Z</time></trkpt><trkpt lat="36.96367797842591" lon="15.036675144608445"><ele>425.0</ele><time>2026-04-11T14:28:22.001Z</time></trkpt><trkpt lat="36.96375593074399" lon="15.03658265823481"><ele>426.4</ele><time>2026-04-11T14:28:23.001Z</time></trkpt><trkpt lat="36.963813897559334" lon="15.03650541875633"><ele>427.8</ele><time>2026-04-11T14:28:24.001Z</time></trkpt><trkpt lat="36.96387597741048" lon="15.036425818429567"><ele>429.20000000000005</ele><time>2026-04-11T14:28:25.001Z</time></trkpt><trkpt lat="36.96393878884669" lon="15.036341985884818"><ele>430.6</ele><time>2026-04-11T14:28:26.001Z</time></trkpt><trkpt lat="36.96398996797135" lon="15.03624528604626"><ele>432.0</ele><time>2026-04-11T14:28:27.001Z</time></trkpt><trkpt lat="36.96405820852085" lon="15.036155040442353"><ele>432.0</ele><time>2026-04-11T14:28:28.001Z</time></trkpt><trkpt lat="36.96412176049992" lon="15.036074760040144"><ele>432.00000000000006</ele><time>2026-04-11T14:28:29.001Z</time></trkpt><trkpt lat="36.964178852059604" lon="15.035988526744969"><ele>432.00000000000006</ele><time>2026-04-11T14:28:30.001Z</time></trkpt><trkpt lat="36.96423789964669" lon="15.035892307396322"><ele>432.0</ele><time>2026-04-11T14:28:31.001Z</time></trkpt><trkpt lat="36.96429644458438" lon="15.03580587913612"><ele>432.0</ele><time>2026-04-11T14:28:32.001Z</time></trkpt><trkpt lat="36.96435429844116" lon="15.035727815375518"><ele>433.0</ele><time>2026-04-11T14:28:33.001Z</time></trkpt><trkpt lat="36.96442202304559" lon="15.03567949672389"><ele>434.0</ele><time>2026-04-11T14:28:34.001Z</time></trkpt><trkpt lat="36.9644835124665" lon="15.035613410789626"><ele>435.0</ele><time>2026-04-11T14:28:35.001Z</time></trkpt><trkpt lat="36.9645512784418" lon="15.035539746302991"><ele>436.0</ele><time>2026-04-11T14:28:36.001Z</time></trkpt><trkpt lat="36.9646247695628" lon="15.035458851367641"><ele>437.0</ele><time>2026-04-11T14:28:37.001Z</time></trkpt><trkpt lat="36.9646928106943" lon="15.035394360632733"><ele>438.0</ele><time>2026-04-11T14:28:38.001Z</time></trkpt><trkpt lat="36.96475556129384" lon="15.035346196119063"><ele>438.0</ele><time>2026-04-11T14:28:39.001Z</time></trkpt><trkpt lat="36.96483598622937" lon="15.03528043045029"><ele>437.99999999999994</ele><time>2026-04-11T14:28:40.001Z</time></trkpt><trkpt lat="36.96492674739798" lon="15.035242465718095"><ele>437.99999999999994</ele><time>2026-04-11T14:28:41.001Z</time></trkpt><trkpt lat="36.965016864730146" lon="15.035187623103296"><ele>438.0</ele><time>2026-04-11T14:28:42.001Z</time></trkpt><trkpt lat="36.96510651963916" lon="15.035125200239278"><ele>438.0</ele><time>2026-04-11T14:28:43.001Z</time></trkpt><trkpt lat="36.96520163581836" lon="15.035057570912883"><ele>438.0</ele><time>2026-04-11T14:28:44.001Z</time></trkpt><trkpt lat="36.96530235134986" lon="15.034985960112211"><ele>437.99999999999994</ele><time>2026-04-11T14:28:45.001Z</time></trkpt><trkpt lat="36.96540231441909" lon="15.034920976268898"><ele>437.99999999999994</ele><time>2026-04-11T14:28:46.001Z</time></trkpt><trkpt lat="36.965509091959994" lon="15.034858626486944"><ele>438.0</ele><time>2026-04-11T14:28:47.001Z</time></trkpt><trkpt lat="36.96559935412213" lon="15.034807800427686"><ele>438.0</ele><time>2026-04-11T14:28:48.001Z</time></trkpt><trkpt lat="36.965679541320945" lon="15.034763440871862"><ele>438.0</ele><time>2026-04-11T14:28:49.001Z</time></trkpt><trkpt lat="36.96575286683755" lon="15.034717373013827"><ele>437.99999999999994</ele><time>2026-04-11T14:28:50.001Z</time></trkpt><trkpt lat="36.96580781736301" lon="15.03466061065829"><ele>437.99999999999994</ele><time>2026-04-11T14:28:51.001Z</time></trkpt><trkpt lat="36.965884711285746" lon="15.034629949613684"><ele>438.0</ele><time>2026-04-11T14:28:53.001Z</time></trkpt><trkpt lat="36.965958682103576" lon="15.03447747700141"><ele>438.0</ele><time>2026-04-11T14:28:58.001Z</time></trkpt><trkpt lat="36.96596602970217" lon="15.03489708028172"><ele>437.79999999999995</ele><time>2026-04-11T14:28:59.001Z</time></trkpt><trkpt lat="36.96604901339545" lon="15.03500948873137"><ele>437.59999999999997</ele><time>2026-04-11T14:29:01.001Z</time></trkpt><trkpt lat="36.96610250457663" lon="15.035068896032648"><ele>437.40000000000003</ele><time>2026-04-11T14:29:02.001Z</time></trkpt><trkpt lat="36.966144316339474" lon="15.03512888240306"><ele>437.20000000000005</ele><time>2026-04-11T14:29:03.001Z</time></trkpt><trkpt lat="36.96621978571583" lon="15.035253974600534"><ele>437.0</ele><time>2026-04-11T14:29:05.001Z</time></trkpt><trkpt lat="36.966266439092244" lon="15.035314027914263"><ele>436.99999999999994</ele><time>2026-04-11T14:29:06.001Z</time></trkpt><trkpt lat="36.96631021276946" lon="15.035372715975896"><ele>437.0</ele><time>2026-04-11T14:29:07.001Z</time></trkpt><trkpt lat="36.96636415673482" lon="15.0354260798314"><ele>437.0</ele><time>2026-04-11T14:29:08.001Z</time></trkpt><trkpt lat="36.966409363941054" lon="15.035484439346025"><ele>437.0</ele><time>2026-04-11T14:29:09.001Z</time></trkpt><trkpt lat="36.96650771405679" lon="15.03557155328867"><ele>436.99999999999994</ele><time>2026-04-11T14:29:11.001Z</time></trkpt><trkpt lat="36.96656747039164" lon="15.035608891210666"><ele>437.0</ele><time>2026-04-11T14:29:12.001Z</time></trkpt><trkpt lat="36.966639817210705" lon="15.035634274350375"><ele>436.40000000000003</ele><time>2026-04-11T14:29:13.001Z</time></trkpt><trkpt lat="36.966721062334805" lon="15.035645240337667"><ele>435.80000000000007</ele><time>2026-04-11T14:29:14.001Z</time></trkpt><trkpt lat="36.96681144059224" lon="15.035657282762907"><ele>435.2</ele><time>2026-04-11T14:29:15.001Z</time></trkpt><trkpt lat="36.966908832970425" lon="15.035669926473481"><ele>434.6</ele><time>2026-04-11T14:29:16.001Z</time></trkpt><trkpt lat="36.96701163958348" lon="15.035689021706167"><ele>434.0</ele><time>2026-04-11T14:29:17.001Z</time></trkpt><trkpt lat="36.96711678105852" lon="15.035709358093182"><ele>434.0</ele><time>2026-04-11T14:29:18.001Z</time></trkpt><trkpt lat="36.96722039270738" lon="15.035725629662808"><ele>434.0</ele><time>2026-04-11T14:29:19.001Z</time></trkpt><trkpt lat="36.96731813314802" lon="15.035734132644361"><ele>434.0</ele><time>2026-04-11T14:29:20.001Z</time></trkpt><trkpt lat="36.967407925561346" lon="15.035746248245312"><ele>434.0</ele><time>2026-04-11T14:29:21.001Z</time></trkpt><trkpt lat="36.9675035863706" lon="15.03576190078143"><ele>434.0</ele><time>2026-04-11T14:29:22.001Z</time></trkpt><trkpt lat="36.9676117224763" lon="15.035785326492933"><ele>433.0</ele><time>2026-04-11T14:29:23.001Z</time></trkpt><trkpt lat="36.967704281711065" lon="15.035817844510852"><ele>432.0</ele><time>2026-04-11T14:29:24.001Z</time></trkpt><trkpt lat="36.967804034802924" lon="15.035868963092186"><ele>431.0</ele><time>2026-04-11T14:29:25.001Z</time></trkpt><trkpt lat="36.96790050870433" lon="15.035915098063013"><ele>430.0</ele><time>2026-04-11T14:29:26.001Z</time></trkpt><trkpt lat="36.967997724477414" lon="15.035966997551464"><ele>429.0</ele><time>2026-04-11T14:29:27.001Z</time></trkpt><trkpt lat="36.96808854302138" lon="15.036023635104828"><ele>429.0</ele><time>2026-04-11T14:29:28.001Z</time></trkpt><trkpt lat="36.968179773247584" lon="15.036092061648919"><ele>429.0</ele><time>2026-04-11T14:29:29.001Z</time></trkpt><trkpt lat="36.9682769894344" lon="15.036172556631781"><ele>429.0</ele><time>2026-04-11T14:29:30.001Z</time></trkpt><trkpt lat="36.96837447624364" lon="15.036261670644896"><ele>429.0</ele><time>2026-04-11T14:29:31.001Z</time></trkpt><trkpt lat="36.96846244998329" lon="15.036342699247712"><ele>429.6</ele><time>2026-04-11T14:29:32.001Z</time></trkpt><trkpt lat="36.96853851902864" lon="15.03641922956737"><ele>430.2</ele><time>2026-04-11T14:29:33.001Z</time></trkpt><trkpt lat="36.9686164743712" lon="15.036510609553446"><ele>430.80000000000007</ele><time>2026-04-11T14:29:34.001Z</time></trkpt><trkpt lat="36.968707909099834" lon="15.036607621039677"><ele>431.40000000000003</ele><time>2026-04-11T14:29:35.001Z</time></trkpt><trkpt lat="36.968800983588025" lon="15.036707360637909"><ele>432.0</ele><time>2026-04-11T14:29:36.001Z</time></trkpt><trkpt lat="36.9688934579501" lon="15.036812770287188"><ele>431.40000000000003</ele><time>2026-04-11T14:29:37.001Z</time></trkpt><trkpt lat="36.968968531593134" lon="15.03691378870619"><ele>430.80000000000007</ele><time>2026-04-11T14:29:38.001Z</time></trkpt><trkpt lat="36.96903321307942" lon="15.037006691905422"><ele>430.2</ele><time>2026-04-11T14:29:39.002Z</time></trkpt><trkpt lat="36.96909551845466" lon="15.037092804052842"><ele>429.6</ele><time>2026-04-11T14:29:40.002Z</time></trkpt><trkpt lat="36.969154514168984" lon="15.037178743498329"><ele>429.0</ele><time>2026-04-11T14:29:41.002Z</time></trkpt><trkpt lat="36.96921913596465" lon="15.037265615241472"><ele>429.0</ele><time>2026-04-11T14:29:42.002Z</time></trkpt><trkpt lat="36.969290439626235" lon="15.037344439698057"><ele>429.0</ele><time>2026-04-11T14:29:43.002Z</time></trkpt><trkpt lat="36.96937270673677" lon="15.037411504403615"><ele>429.0</ele><time>2026-04-11T14:29:44.002Z</time></trkpt><trkpt lat="36.969462490797106" lon="15.0374769059216"><ele>429.0</ele><time>2026-04-11T14:29:45.002Z</time></trkpt><trkpt lat="36.9695454669862" lon="15.037531484159722"><ele>429.0</ele><time>2026-04-11T14:29:46.002Z</time></trkpt><trkpt lat="36.969629180879465" lon="15.037579793222113"><ele>429.0</ele><time>2026-04-11T14:29:47Z</time></trkpt><trkpt lat="36.96972647602754" lon="15.037626961003804"><ele>429.0</ele><time>2026-04-11T14:29:48Z</time></trkpt><trkpt lat="36.96982216015018" lon="15.037666004469253"><ele>429.0</ele><time>2026-04-11T14:29:49Z</time></trkpt><trkpt lat="36.96992448773232" lon="15.037703354143382"><ele>429.0</ele><time>2026-04-11T14:29:50Z</time></trkpt><trkpt lat="36.970027858270484" lon="15.03773803142984"><ele>429.0</ele><time>2026-04-11T14:29:51Z</time></trkpt><trkpt lat="36.970130515668245" lon="15.037770609707003"><ele>429.0</ele><time>2026-04-11T14:29:52Z</time></trkpt><trkpt lat="36.97022877684969" lon="15.037799041832333"><ele>429.0</ele><time>2026-04-11T14:29:53Z</time></trkpt><trkpt lat="36.97032385044282" lon="15.037829050724335"><ele>429.0</ele><time>2026-04-11T14:29:54Z</time></trkpt><trkpt lat="36.97042068304412" lon="15.037857807750061"><ele>429.0</ele><time>2026-04-11T14:29:55Z</time></trkpt><trkpt lat="36.970541637051376" lon="15.037899637500518"><ele>429.0</ele><time>2026-04-11T14:29:56Z</time></trkpt><trkpt lat="36.970652015252405" lon="15.037934850211032"><ele>429.0</ele><time>2026-04-11T14:29:57Z</time></trkpt><trkpt lat="36.97075596883025" lon="15.037966587315488"><ele>429.0</ele><time>2026-04-11T14:29:58Z</time></trkpt><trkpt lat="36.97085909224419" lon="15.038000880580404"><ele>429.0</ele><time>2026-04-11T14:29:59Z</time></trkpt><trkpt lat="36.97095142451497" lon="15.038038951820267"><ele>429.0</ele><time>2026-04-11T14:30:00Z</time></trkpt><trkpt lat="36.971033296915586" lon="15.03807283062553"><ele>429.0</ele><time>2026-04-11T14:30:01Z</time></trkpt><trkpt lat="36.9711169852333" lon="15.038104824314814"><ele>429.0</ele><time>2026-04-11T14:30:02Z</time></trkpt><trkpt lat="36.97121228964349" lon="15.038150185360529"><ele>429.0</ele><time>2026-04-11T14:30:03Z</time></trkpt><trkpt lat="36.97129202398244" lon="15.038198335347987"><ele>429.0</ele><time>2026-04-11T14:30:04Z</time></trkpt><trkpt lat="36.97137423876435" lon="15.038242069578699"><ele>429.0</ele><time>2026-04-11T14:30:05Z</time></trkpt><trkpt lat="36.97145206727566" lon="15.038277213834276"><ele>429.0</ele><time>2026-04-11T14:30:06Z</time></trkpt><trkpt lat="36.97152895345475" lon="15.038299803921236"><ele>429.0</ele><time>2026-04-11T14:30:07Z</time></trkpt><trkpt lat="36.97160839694877" lon="15.03830836992053"><ele>428.0</ele><time>2026-04-11T14:30:08Z</time></trkpt><trkpt lat="36.97171688311106" lon="15.038320453578423"><ele>427.0</ele><time>2026-04-11T14:30:09Z</time></trkpt><trkpt lat="36.97181698751088" lon="15.038338521769116"><ele>426.0</ele><time>2026-04-11T14:30:10Z</time></trkpt><trkpt lat="36.97189473630882" lon="15.038353406615878"><ele>425.0</ele><time>2026-04-11T14:30:11Z</time></trkpt><trkpt lat="36.9719695133114" lon="15.03836181915448"><ele>424.0</ele><time>2026-04-11T14:30:12Z</time></trkpt><trkpt lat="36.972050345911406" lon="15.038356724545359"><ele>423.0</ele><time>2026-04-11T14:30:13Z</time></trkpt><trkpt lat="36.97213269824508" lon="15.038328453921599"><ele>423.59999999999997</ele><time>2026-04-11T14:30:14Z</time></trkpt><trkpt lat="36.972198550628256" lon="15.03830032147906"><ele>424.2</ele><time>2026-04-11T14:30:15Z</time></trkpt><trkpt lat="36.97225642572149" lon="15.038253800173575"><ele>424.8</ele><time>2026-04-11T14:30:16Z</time></trkpt><trkpt lat="36.97233182391294" lon="15.038182120625326"><ele>425.4</ele><time>2026-04-11T14:30:17Z</time></trkpt><trkpt lat="36.97244454351081" lon="15.03807886980788"><ele>426.0</ele><time>2026-04-11T14:30:18Z</time></trkpt><trkpt lat="36.97254759111912" lon="15.037986960310056"><ele>426.0</ele><time>2026-04-11T14:30:19Z</time></trkpt><trkpt lat="36.97263449534838" lon="15.037899663192237"><ele>426.0</ele><time>2026-04-11T14:30:20Z</time></trkpt><trkpt lat="36.97271018696468" lon="15.037821046371981"><ele>426.0</ele><time>2026-04-11T14:30:21Z</time></trkpt><trkpt lat="36.9727820597324" lon="15.037760520790426"><ele>426.0</ele><time>2026-04-11T14:30:22Z</time></trkpt><trkpt lat="36.97286127223357" lon="15.037703257460782"><ele>426.0</ele><time>2026-04-11T14:30:23Z</time></trkpt><trkpt lat="36.97293520760523" lon="15.037654749302012"><ele>426.0</ele><time>2026-04-11T14:30:24Z</time></trkpt><trkpt lat="36.97300799357033" lon="15.037621021979666"><ele>426.0</ele><time>2026-04-11T14:30:25Z</time></trkpt><trkpt lat="36.97308152278704" lon="15.037613895302483"><ele>426.0</ele><time>2026-04-11T14:30:26Z</time></trkpt><trkpt lat="36.97317675656001" lon="15.037686547195317"><ele>426.0</ele><time>2026-04-11T14:30:28.001Z</time></trkpt><trkpt lat="36.973232849477604" lon="15.037746643369056"><ele>426.0</ele><time>2026-04-11T14:30:30.001Z</time></trkpt><trkpt lat="36.973290043716965" lon="15.03778019588654"><ele>426.0</ele><time>2026-04-11T14:30:32.001Z</time></trkpt><trkpt lat="36.97333052955327" lon="15.03786401401596"><ele>427.1666666666667</ele><time>2026-04-11T14:30:35.001Z</time></trkpt><trkpt lat="36.97336865134687" lon="15.037961558383758"><ele>428.33333333333337</ele><time>2026-04-11T14:30:38.001Z</time></trkpt><trkpt lat="36.973435629407966" lon="15.038024581767786"><ele>429.5</ele><time>2026-04-11T14:30:41.001Z</time></trkpt><trkpt lat="36.973477078817865" lon="15.038102978460248"><ele>430.6666666666667</ele><time>2026-04-11T14:30:46.001Z</time></trkpt><trkpt lat="36.97351404105236" lon="15.038190655410967"><ele>431.83333333333337</ele><time>2026-04-11T14:31:08.001Z</time></trkpt><trkpt lat="36.97350879408753" lon="15.038284885572423"><ele>433.0</ele><time>2026-04-11T14:31:14.001Z</time></trkpt><trkpt lat="36.973520621542924" lon="15.03837884264572"><ele>433.71428571428567</ele><time>2026-04-11T14:31:18.001Z</time></trkpt><trkpt lat="36.973523946497636" lon="15.038459887113575"><ele>434.42857142857144</ele><time>2026-04-11T14:31:22.001Z</time></trkpt><trkpt lat="36.97352936695135" lon="15.038547108838552"><ele>435.1428571428571</ele><time>2026-04-11T14:31:26.001Z</time></trkpt><trkpt lat="36.97352988580279" lon="15.038630510566215"><ele>435.85714285714283</ele><time>2026-04-11T14:31:31.001Z</time></trkpt><trkpt lat="36.97352969624599" lon="15.03871184947856"><ele>436.57142857142856</ele><time>2026-04-11T14:31:34.001Z</time></trkpt><trkpt lat="36.97354700915832" lon="15.038795785752363"><ele>437.2857142857143</ele><time>2026-04-11T14:31:37.001Z</time></trkpt><trkpt lat="36.973541727555876" lon="15.038874908309985"><ele>438.0</ele><time>2026-04-11T14:31:39.001Z</time></trkpt><trkpt lat="36.97355007441157" lon="15.038971612155919"><ele>438.0</ele><time>2026-04-11T14:31:41.001Z</time></trkpt><trkpt lat="36.97356051295497" lon="15.03907808949877"><ele>438.0</ele><time>2026-04-11T14:31:44.001Z</time></trkpt><trkpt lat="36.97358446788642" lon="15.039188627639913"><ele>438.0</ele><time>2026-04-11T14:31:47.001Z</time></trkpt><trkpt lat="36.97360161206882" lon="15.039266646825972"><ele>438.0</ele><time>2026-04-11T14:31:49.001Z</time></trkpt><trkpt lat="36.97361062004247" lon="15.039368622794623"><ele>438.0</ele><time>2026-04-11T14:31:52.002Z</time></trkpt><trkpt lat="36.97363833170873" lon="15.039441340446624"><ele>438.0</ele><time>2026-04-11T14:31:55Z</time></trkpt><trkpt lat="36.97362304327286" lon="15.039532320143273"><ele>438.0</ele><time>2026-04-11T14:31:59Z</time></trkpt><trkpt lat="36.973627829188096" lon="15.039615282794358"><ele>438.0</ele><time>2026-04-11T14:32:05Z</time></trkpt><trkpt lat="36.973681452528716" lon="15.039717901557623"><ele>438.0</ele><time>2026-04-11T14:32:19Z</time></trkpt><trkpt lat="36.973668091365916" lon="15.039820553505205"><ele>438.0</ele><time>2026-04-11T14:32:21Z</time></trkpt><trkpt lat="36.973664520809834" lon="15.039910309135173"><ele>438.0</ele><time>2026-04-11T14:32:25Z</time></trkpt><trkpt lat="36.973685936136654" lon="15.040018012130677"><ele>438.0</ele><time>2026-04-11T14:32:29Z</time></trkpt><trkpt lat="36.973718406210565" lon="15.040095840849446"><ele>437.6666666666667</ele><time>2026-04-11T14:32:31Z</time></trkpt><trkpt lat="36.97373126655004" lon="15.040197444295817"><ele>437.33333333333337</ele><time>2026-04-11T14:32:35Z</time></trkpt><trkpt lat="36.97371469476885" lon="15.040300011850144"><ele>437.0</ele><time>2026-04-11T14:32:38Z</time></trkpt><trkpt lat="36.97374556581426" lon="15.040374046641292"><ele>436.6666666666667</ele><time>2026-04-11T14:32:41Z</time></trkpt><trkpt lat="36.97376679377666" lon="15.040494871781702"><ele>436.33333333333337</ele><time>2026-04-11T14:32:44Z</time></trkpt><trkpt lat="36.97379119207329" lon="15.04057844214977"><ele>436.0</ele><time>2026-04-11T14:32:46.001Z</time></trkpt><trkpt lat="36.97384804923871" lon="15.040626564598785"><ele>436.00000000000006</ele><time>2026-04-11T14:34:13Z</time></trkpt><trkpt lat="36.97390294531196" lon="15.04075349661277"><ele>436.0</ele><time>2026-04-11T14:34:15Z</time></trkpt><trkpt lat="36.97396141858034" lon="15.040885325656154"><ele>436.0</ele><time>2026-04-11T14:34:17Z</time></trkpt><trkpt lat="36.97400148869669" lon="15.040956440623287"><ele>436.0</ele><time>2026-04-11T14:34:18Z</time></trkpt><trkpt lat="36.97405010178205" lon="15.041028273180395"><ele>436.00000000000006</ele><time>2026-04-11T14:34:19Z</time></trkpt><trkpt lat="36.97409204580362" lon="15.041091180270605"><ele>436.0</ele><time>2026-04-11T14:34:20Z</time></trkpt><trkpt lat="36.97413193838055" lon="15.04115429833724"><ele>435.6</ele><time>2026-04-11T14:34:21Z</time></trkpt><trkpt lat="36.97417801984472" lon="15.041222508360821"><ele>435.20000000000005</ele><time>2026-04-11T14:34:22Z</time></trkpt><trkpt lat="36.97422246887549" lon="15.041283402728904"><ele>434.79999999999995</ele><time>2026-04-11T14:34:23Z</time></trkpt><trkpt lat="36.97430094639172" lon="15.041395070182638"><ele>434.4</ele><time>2026-04-11T14:34:25Z</time></trkpt><trkpt lat="36.97438667728429" lon="15.041509764774737"><ele>434.0</ele><time>2026-04-11T14:34:27Z</time></trkpt><trkpt lat="36.97449571097394" lon="15.041602543148677"><ele>433.3333333333333</ele><time>2026-04-11T14:34:29Z</time></trkpt><trkpt lat="36.97455280536811" lon="15.04164401369863"><ele>432.66666666666663</ele><time>2026-04-11T14:34:30Z</time></trkpt><trkpt lat="36.9746115721709" lon="15.041685732103698"><ele>432.0</ele><time>2026-04-11T14:34:31Z</time></trkpt><trkpt lat="36.974670995498194" lon="15.04172727538181"><ele>431.33333333333337</ele><time>2026-04-11T14:34:32Z</time></trkpt><trkpt lat="36.97476654807444" lon="15.041788594079113"><ele>430.6666666666667</ele><time>2026-04-11T14:34:34Z</time></trkpt><trkpt lat="36.97483362633904" lon="15.041832120645577"><ele>430.0</ele><time>2026-04-11T14:34:38Z</time></trkpt><trkpt lat="36.97487790123846" lon="15.041568437898814"><ele>430.0</ele><time>2026-04-11T14:34:39Z</time></trkpt><trkpt lat="36.974903257515095" lon="15.041445277438045"><ele>430.0</ele><time>2026-04-11T14:34:40Z</time></trkpt><trkpt lat="36.974929010068024" lon="15.041319228951648"><ele>430.0</ele><time>2026-04-11T14:34:41Z</time></trkpt><trkpt lat="36.97496535877648" lon="15.041177415891474"><ele>430.0</ele><time>2026-04-11T14:34:42Z</time></trkpt><trkpt lat="36.97500895609032" lon="15.041029847083417"><ele>429.25</ele><time>2026-04-11T14:34:43Z</time></trkpt><trkpt lat="36.975058242300584" lon="15.040879815565464"><ele>428.5</ele><time>2026-04-11T14:34:44Z</time></trkpt><trkpt lat="36.975110775619044" lon="15.040724091618848"><ele>427.75</ele><time>2026-04-11T14:34:45Z</time></trkpt><trkpt lat="36.97516248036713" lon="15.040556231397973"><ele>427.0</ele><time>2026-04-11T14:34:46Z</time></trkpt><trkpt lat="36.975218271695276" lon="15.04039825529279"><ele>427.5</ele><time>2026-04-11T14:34:47Z</time></trkpt><trkpt lat="36.97527631823008" lon="15.040251893638407"><ele>428.0</ele><time>2026-04-11T14:34:48Z</time></trkpt><trkpt lat="36.97533910241061" lon="15.040104252250657"><ele>428.5</ele><time>2026-04-11T14:34:49Z</time></trkpt><trkpt lat="36.975406811376345" lon="15.039953883341763"><ele>429.0</ele><time>2026-04-11T14:34:50Z</time></trkpt><trkpt lat="36.975482130280255" lon="15.039782808595199"><ele>429.0</ele><time>2026-04-11T14:34:51Z</time></trkpt><trkpt lat="36.97555377038688" lon="15.039626976355489"><ele>429.0</ele><time>2026-04-11T14:34:52Z</time></trkpt><trkpt lat="36.975631059944696" lon="15.039462989982523"><ele>429.0</ele><time>2026-04-11T14:34:53Z</time></trkpt><trkpt lat="36.975707493388825" lon="15.03929653025684"><ele>429.0</ele><time>2026-04-11T14:34:54Z</time></trkpt><trkpt lat="36.97578925957335" lon="15.039122163000458"><ele>426.75</ele><time>2026-04-11T14:34:55.001Z</time></trkpt><trkpt lat="36.975874487475785" lon="15.03896200020445"><ele>424.5</ele><time>2026-04-11T14:34:56.001Z</time></trkpt><trkpt lat="36.97594425485184" lon="15.03880705658074"><ele>422.25</ele><time>2026-04-11T14:34:57.001Z</time></trkpt><trkpt lat="36.976005229228115" lon="15.038642750084863"><ele>420.0</ele><time>2026-04-11T14:34:58.001Z</time></trkpt><trkpt lat="36.97608009899606" lon="15.038483286758348"><ele>420.0</ele><time>2026-04-11T14:34:59.001Z</time></trkpt><trkpt lat="36.97615805741145" lon="15.038322900449892"><ele>420.0</ele><time>2026-04-11T14:35:00.001Z</time></trkpt><trkpt lat="36.976263409384906" lon="15.038191458806356"><ele>420.0</ele><time>2026-04-11T14:35:01.001Z</time></trkpt><trkpt lat="36.976361898861704" lon="15.038058014368948"><ele>420.0</ele><time>2026-04-11T14:35:02.001Z</time></trkpt><trkpt lat="36.97645225088964" lon="15.037942811085005"><ele>420.0</ele><time>2026-04-11T14:35:03.001Z</time></trkpt><trkpt lat="36.976536156021744" lon="15.037840714776024"><ele>420.0</ele><time>2026-04-11T14:35:04.001Z</time></trkpt><trkpt lat="36.97662138482842" lon="15.037741840614782"><ele>420.0</ele><time>2026-04-11T14:35:05.001Z</time></trkpt><trkpt lat="36.97671407911656" lon="15.03764036145957"><ele>420.0</ele><time>2026-04-11T14:35:06.001Z</time></trkpt><trkpt lat="36.976808996814064" lon="15.037522618414696"><ele>422.25</ele><time>2026-04-11T14:35:07.001Z</time></trkpt><trkpt lat="36.97692448921581" lon="15.037412208148918"><ele>424.5</ele><time>2026-04-11T14:35:08.001Z</time></trkpt><trkpt lat="36.97705196260493" lon="15.037318049431919"><ele>426.75</ele><time>2026-04-11T14:35:09.001Z</time></trkpt><trkpt lat="36.977169460665586" lon="15.037207963553287"><ele>429.0</ele><time>2026-04-11T14:35:10.001Z</time></trkpt><trkpt lat="36.97727537612937" lon="15.037073843292633"><ele>429.0</ele><time>2026-04-11T14:35:11.001Z</time></trkpt><trkpt lat="36.977394301231556" lon="15.036944955296471"><ele>429.0</ele><time>2026-04-11T14:35:12.001Z</time></trkpt><trkpt lat="36.977504556616296" lon="15.036822033938325"><ele>429.0</ele><time>2026-04-11T14:35:13.001Z</time></trkpt><trkpt lat="36.977615183961056" lon="15.03669996872922"><ele>428.0</ele><time>2026-04-11T14:35:14.001Z</time></trkpt><trkpt lat="36.97772595959923" lon="15.036581351267035"><ele>427.0</ele><time>2026-04-11T14:35:15.001Z</time></trkpt><trkpt lat="36.97783461608984" lon="15.036458859363968"><ele>426.0</ele><time>2026-04-11T14:35:16.001Z</time></trkpt><trkpt lat="36.97793238591607" lon="15.036342520955879"><ele>425.0</ele><time>2026-04-11T14:35:17.001Z</time></trkpt><trkpt lat="36.97802280480231" lon="15.036226771131771"><ele>425.0</ele><time>2026-04-11T14:35:18.001Z</time></trkpt><trkpt lat="36.97810540105248" lon="15.036088456594564"><ele>425.0</ele><time>2026-04-11T14:35:19.001Z</time></trkpt><trkpt lat="36.9781766079352" lon="15.035937782936399"><ele>425.0</ele><time>2026-04-11T14:35:20.001Z</time></trkpt><trkpt lat="36.97825005410399" lon="15.035787954978273"><ele>425.0</ele><time>2026-04-11T14:35:21.001Z</time></trkpt><trkpt lat="36.978329262201626" lon="15.035633125553096"><ele>424.75</ele><time>2026-04-11T14:35:22.001Z</time></trkpt><trkpt lat="36.97840470683781" lon="15.035477914700317"><ele>424.5</ele><time>2026-04-11T14:35:23.001Z</time></trkpt><trkpt lat="36.97849031916652" lon="15.035338675865493"><ele>424.25</ele><time>2026-04-11T14:35:24.001Z</time></trkpt><trkpt lat="36.97855019008129" lon="15.035178888498534"><ele>424.0</ele><time>2026-04-11T14:35:25.001Z</time></trkpt><trkpt lat="36.978632252620386" lon="15.035052904906866"><ele>425.25</ele><time>2026-04-11T14:35:26.001Z</time></trkpt><trkpt lat="36.97869537414196" lon="15.034928689260488"><ele>426.5</ele><time>2026-04-11T14:35:27.001Z</time></trkpt><trkpt lat="36.97876820063632" lon="15.034789251012818"><ele>427.75</ele><time>2026-04-11T14:35:28.001Z</time></trkpt><trkpt lat="36.97883361216856" lon="15.034647412072605"><ele>429.0</ele><time>2026-04-11T14:35:29.001Z</time></trkpt><trkpt lat="36.9789164463452" lon="15.034517543790981"><ele>429.0</ele><time>2026-04-11T14:35:30.001Z</time></trkpt><trkpt lat="36.979000771808224" lon="15.034381425693601"><ele>429.0</ele><time>2026-04-11T14:35:31.001Z</time></trkpt><trkpt lat="36.97908139297346" lon="15.034237057282487"><ele>429.0</ele><time>2026-04-11T14:35:32.001Z</time></trkpt><trkpt lat="36.97915959504958" lon="15.034087719302091"><ele>429.0</ele><time>2026-04-11T14:35:33.001Z</time></trkpt><trkpt lat="36.97923778500622" lon="15.03394569768243"><ele>428.5</ele><time>2026-04-11T14:35:34.001Z</time></trkpt><trkpt lat="36.97930913913085" lon="15.033815445673923"><ele>428.0</ele><time>2026-04-11T14:35:35.001Z</time></trkpt><trkpt lat="36.97938763365216" lon="15.033707010751545"><ele>427.5</ele><time>2026-04-11T14:35:36.001Z</time></trkpt><trkpt lat="36.97942854750657" lon="15.03358230440408"><ele>427.0</ele><time>2026-04-11T14:35:37.001Z</time></trkpt><trkpt lat="36.97947275806791" lon="15.033466996420964"><ele>427.0</ele><time>2026-04-11T14:35:38.001Z</time></trkpt><trkpt lat="36.97950847277058" lon="15.033348240273728"><ele>427.00000000000006</ele><time>2026-04-11T14:35:39.001Z</time></trkpt><trkpt lat="36.979535168957845" lon="15.033226790370518"><ele>427.00000000000006</ele><time>2026-04-11T14:35:40.001Z</time></trkpt><trkpt lat="36.97955893465497" lon="15.033104724258141"><ele>427.0</ele><time>2026-04-11T14:35:41.001Z</time></trkpt><trkpt lat="36.97958414984167" lon="15.03298006764456"><ele>427.0</ele><time>2026-04-11T14:35:42.001Z</time></trkpt><trkpt lat="36.97960570162426" lon="15.032856252050516"><ele>427.40000000000003</ele><time>2026-04-11T14:35:43.001Z</time></trkpt><trkpt lat="36.979613564472416" lon="15.032735664296759"><ele>427.80000000000007</ele><time>2026-04-11T14:35:44.001Z</time></trkpt><trkpt lat="36.979615311495024" lon="15.0326181496698"><ele>428.2</ele><time>2026-04-11T14:35:45.001Z</time></trkpt><trkpt lat="36.97962311125606" lon="15.032486465658527"><ele>428.6</ele><time>2026-04-11T14:35:46.001Z</time></trkpt><trkpt lat="36.979638118775725" lon="15.032342195071843"><ele>429.0</ele><time>2026-04-11T14:35:47.001Z</time></trkpt><trkpt lat="36.97965804030686" lon="15.032194438431837"><ele>430.0</ele><time>2026-04-11T14:35:48.001Z</time></trkpt><trkpt lat="36.97967029083232" lon="15.032041784782761"><ele>431.0</ele><time>2026-04-11T14:35:49.001Z</time></trkpt><trkpt lat="36.97967876106116" lon="15.031886417005097"><ele>432.0</ele><time>2026-04-11T14:35:50.001Z</time></trkpt><trkpt lat="36.97969302146291" lon="15.031733651669441"><ele>433.0</ele><time>2026-04-11T14:35:51.001Z</time></trkpt><trkpt lat="36.97971157083038" lon="15.03158176803729"><ele>434.0</ele><time>2026-04-11T14:35:52.001Z</time></trkpt><trkpt lat="36.97973383783378" lon="15.031434188023798"><ele>435.0</ele><time>2026-04-11T14:35:53.001Z</time></trkpt><trkpt lat="36.979759566511596" lon="15.031292869267672"><ele>436.0</ele><time>2026-04-11T14:35:54.001Z</time></trkpt><trkpt lat="36.97978673611833" lon="15.031156692883144"><ele>437.0</ele><time>2026-04-11T14:35:55.001Z</time></trkpt><trkpt lat="36.97980894801157" lon="15.031027683273594"><ele>437.0</ele><time>2026-04-11T14:35:56.001Z</time></trkpt><trkpt lat="36.97982805050423" lon="15.03092937993035"><ele>437.00000000000006</ele><time>2026-04-11T14:35:57.001Z</time></trkpt><trkpt lat="36.97987583529161" lon="15.030801842216292"><ele>437.00000000000006</ele><time>2026-04-11T14:35:59.001Z</time></trkpt><trkpt lat="36.979991497200395" lon="15.030729021832279"><ele>437.0</ele><time>2026-04-11T14:36:01.001Z</time></trkpt><trkpt lat="36.98007155630458" lon="15.030674234595839"><ele>437.0</ele><time>2026-04-11T14:36:02.001Z</time></trkpt><trkpt lat="36.98015459515412" lon="15.030600699734244"><ele>437.0</ele><time>2026-04-11T14:36:03.001Z</time></trkpt><trkpt lat="36.98025909032944" lon="15.03054043258058"><ele>437.0</ele><time>2026-04-11T14:36:04.001Z</time></trkpt><trkpt lat="36.98036488560748" lon="15.03047174427895"><ele>437.0</ele><time>2026-04-11T14:36:05Z</time></trkpt><trkpt lat="36.98047229891417" lon="15.030397050474095"><ele>437.0</ele><time>2026-04-11T14:36:06Z</time></trkpt><trkpt lat="36.980581348633415" lon="15.030320047901736"><ele>437.0</ele><time>2026-04-11T14:36:07Z</time></trkpt><trkpt lat="36.98069057994051" lon="15.030247998183437"><ele>437.0</ele><time>2026-04-11T14:36:08Z</time></trkpt><trkpt lat="36.98080949811357" lon="15.030170789294788"><ele>437.0</ele><time>2026-04-11T14:36:09Z</time></trkpt><trkpt lat="36.98094455858767" lon="15.030082218888966"><ele>437.0</ele><time>2026-04-11T14:36:10Z</time></trkpt><trkpt lat="36.98108304086062" lon="15.029992103807624"><ele>436.5</ele><time>2026-04-11T14:36:11Z</time></trkpt><trkpt lat="36.98121336332796" lon="15.029908546531344"><ele>436.0</ele><time>2026-04-11T14:36:12Z</time></trkpt><trkpt lat="36.98133973639303" lon="15.029820293635577"><ele>435.5</ele><time>2026-04-11T14:36:13Z</time></trkpt><trkpt lat="36.98147405681161" lon="15.02973203940219"><ele>435.0</ele><time>2026-04-11T14:36:14Z</time></trkpt><trkpt lat="36.98161381321993" lon="15.02965878184285"><ele>434.33333333333337</ele><time>2026-04-11T14:36:15Z</time></trkpt><trkpt lat="36.98174564930239" lon="15.029552267801174"><ele>433.6666666666667</ele><time>2026-04-11T14:36:16Z</time></trkpt><trkpt lat="36.98188061375174" lon="15.02946751801643"><ele>433.0</ele><time>2026-04-11T14:36:17Z</time></trkpt><trkpt lat="36.98201565366614" lon="15.029385700158242"><ele>433.0</ele><time>2026-04-11T14:36:18Z</time></trkpt><trkpt lat="36.98214884590492" lon="15.029294921283764"><ele>433.0</ele><time>2026-04-11T14:36:19Z</time></trkpt><trkpt lat="36.98228510021253" lon="15.029202851027657"><ele>433.0</ele><time>2026-04-11T14:36:20Z</time></trkpt><trkpt lat="36.98241980679507" lon="15.029109625046544"><ele>433.33333333333337</ele><time>2026-04-11T14:36:21Z</time></trkpt><trkpt lat="36.982559492594405" lon="15.029023778035343"><ele>433.66666666666663</ele><time>2026-04-11T14:36:22Z</time></trkpt><trkpt lat="36.98269674237467" lon="15.028937876941493"><ele>434.0</ele><time>2026-04-11T14:36:23Z</time></trkpt><trkpt lat="36.98283724661514" lon="15.028857550048498"><ele>434.0</ele><time>2026-04-11T14:36:24Z</time></trkpt><trkpt lat="36.98298420613389" lon="15.028794698405203"><ele>434.0</ele><time>2026-04-11T14:36:25Z</time></trkpt><trkpt lat="36.983133407223555" lon="15.028746802407648"><ele>434.0</ele><time>2026-04-11T14:36:26Z</time></trkpt><trkpt lat="36.98328494683171" lon="15.028691164044181"><ele>433.66666666666663</ele><time>2026-04-11T14:36:27Z</time></trkpt><trkpt lat="36.98344031107777" lon="15.028641015392344"><ele>433.33333333333337</ele><time>2026-04-11T14:36:28Z</time></trkpt><trkpt lat="36.98359327767414" lon="15.028583310233827"><ele>433.0</ele><time>2026-04-11T14:36:29Z</time></trkpt><trkpt lat="36.983748213898664" lon="15.028525494183471"><ele>433.0</ele><time>2026-04-11T14:36:30Z</time></trkpt><trkpt lat="36.98390331023989" lon="15.028473037171594"><ele>433.0</ele><time>2026-04-11T14:36:31Z</time></trkpt><trkpt lat="36.98404818061703" lon="15.028422788043"><ele>433.0</ele><time>2026-04-11T14:36:32Z</time></trkpt><trkpt lat="36.98419180301588" lon="15.028371797563166"><ele>433.33333333333337</ele><time>2026-04-11T14:36:33Z</time></trkpt><trkpt lat="36.9843402257379" lon="15.028316012601541"><ele>433.66666666666663</ele><time>2026-04-11T14:36:34Z</time></trkpt><trkpt lat="36.98449829709899" lon="15.02826264263924"><ele>434.0</ele><time>2026-04-11T14:36:35Z</time></trkpt><trkpt lat="36.98465903569492" lon="15.028206287103611"><ele>434.0</ele><time>2026-04-11T14:36:36Z</time></trkpt><trkpt lat="36.98482442945019" lon="15.028149071439678"><ele>434.0</ele><time>2026-04-11T14:36:37Z</time></trkpt><trkpt lat="36.984977766940126" lon="15.028097274349568"><ele>434.0</ele><time>2026-04-11T14:36:38Z</time></trkpt><trkpt lat="36.98512587574078" lon="15.028044456315705"><ele>432.25</ele><time>2026-04-11T14:36:39Z</time></trkpt><trkpt lat="36.98526801937417" lon="15.027991341732024"><ele>430.5</ele><time>2026-04-11T14:36:40Z</time></trkpt><trkpt lat="36.985403435584075" lon="15.027931641735467"><ele>428.75</ele><time>2026-04-11T14:36:41Z</time></trkpt><trkpt lat="36.98553240376029" lon="15.02785275665975"><ele>427.0</ele><time>2026-04-11T14:36:42Z</time></trkpt><trkpt lat="36.98564649129414" lon="15.027745840083726"><ele>427.0</ele><time>2026-04-11T14:36:43Z</time></trkpt><trkpt lat="36.98574466259504" lon="15.02761661937966"><ele>427.0</ele><time>2026-04-11T14:36:44Z</time></trkpt><trkpt lat="36.98583114595856" lon="15.02746989842806"><ele>427.0</ele><time>2026-04-11T14:36:45Z</time></trkpt><trkpt lat="36.98590390041179" lon="15.027313234506682"><ele>427.0</ele><time>2026-04-11T14:36:46Z</time></trkpt><trkpt lat="36.98596896214636" lon="15.027149891906877"><ele>425.25</ele><time>2026-04-11T14:36:47Z</time></trkpt><trkpt lat="36.98602656788367" lon="15.026988324961065"><ele>423.5</ele><time>2026-04-11T14:36:48Z</time></trkpt><trkpt lat="36.986084814126535" lon="15.026828363600117"><ele>421.75</ele><time>2026-04-11T14:36:49Z</time></trkpt><trkpt lat="36.9861385834969" lon="15.026676913121314"><ele>420.0</ele><time>2026-04-11T14:36:50Z</time></trkpt><trkpt lat="36.98619629639519" lon="15.026544811117963"><ele>419.6666666666667</ele><time>2026-04-11T14:36:51Z</time></trkpt><trkpt lat="36.98627606284726" lon="15.026465421148545"><ele>419.33333333333337</ele><time>2026-04-11T14:36:52Z</time></trkpt><trkpt lat="36.98634584697774" lon="15.026426444807107"><ele>419.0</ele><time>2026-04-11T14:36:53Z</time></trkpt><trkpt lat="36.98642297437714" lon="15.02641073314085"><ele>418.6666666666667</ele><time>2026-04-11T14:36:54Z</time></trkpt><trkpt lat="36.98648585874741" lon="15.026469053152475"><ele>418.33333333333337</ele><time>2026-04-11T14:36:55Z</time></trkpt><trkpt lat="36.986554394384456" lon="15.026482333703656"><ele>418.0</ele><time>2026-04-11T14:36:57Z</time></trkpt><trkpt lat="36.98659077791792" lon="15.026365447137698"><ele>418.00000000000006</ele><time>2026-04-11T14:36:58Z</time></trkpt><trkpt lat="36.98662319956696" lon="15.026268603084736"><ele>418.0</ele><time>2026-04-11T14:36:59Z</time></trkpt><trkpt lat="36.98664947544648" lon="15.026155722293527"><ele>418.0</ele><time>2026-04-11T14:37:00Z</time></trkpt><trkpt lat="36.98667126022598" lon="15.026048660877835"><ele>418.0</ele><time>2026-04-11T14:37:01Z</time></trkpt><trkpt lat="36.98667795819349" lon="15.025954313366233"><ele>418.00000000000006</ele><time>2026-04-11T14:37:02Z</time></trkpt><trkpt lat="36.986667860096276" lon="15.025868544097055"><ele>418.0</ele><time>2026-04-11T14:37:03Z</time></trkpt><trkpt lat="36.986600890630186" lon="15.025743121440454"><ele>417.83333333333337</ele><time>2026-04-11T14:37:05.001Z</time></trkpt><trkpt lat="36.98654760758749" lon="15.02567349309392"><ele>417.6666666666667</ele><time>2026-04-11T14:37:06.001Z</time></trkpt><trkpt lat="36.986573224503566" lon="15.025546871151162"><ele>417.5</ele><time>2026-04-11T14:37:08.001Z</time></trkpt><trkpt lat="36.98657477785867" lon="15.025456233380623"><ele>417.33333333333337</ele><time>2026-04-11T14:37:09.001Z</time></trkpt><trkpt lat="36.986586764288724" lon="15.02536386861769"><ele>417.1666666666667</ele><time>2026-04-11T14:37:10.001Z</time></trkpt><trkpt lat="36.98662073817775" lon="15.02526659485279"><ele>417.0</ele><time>2026-04-11T14:37:11.001Z</time></trkpt><trkpt lat="36.98664797694392" lon="15.02516726420548"><ele>417.0</ele><time>2026-04-11T14:37:12.001Z</time></trkpt><trkpt lat="36.986670734875105" lon="15.025055384420138"><ele>417.0</ele><time>2026-04-11T14:37:13.001Z</time></trkpt><trkpt lat="36.98668488604813" lon="15.024954993646213"><ele>417.0</ele><time>2026-04-11T14:37:14.001Z</time></trkpt><trkpt lat="36.98673005661141" lon="15.024862683280864"><ele>417.0</ele><time>2026-04-11T14:37:15.001Z</time></trkpt><trkpt lat="36.98677338805336" lon="15.024772879361711"><ele>417.0</ele><time>2026-04-11T14:37:16.001Z</time></trkpt><trkpt lat="36.98681096665273" lon="15.024691125823074"><ele>417.0</ele><time>2026-04-11T14:37:17.001Z</time></trkpt><trkpt lat="36.98684395400773" lon="15.024622456041932"><ele>417.20000000000005</ele><time>2026-04-11T14:37:18.001Z</time></trkpt><trkpt lat="36.986902540397" lon="15.02446497728679"><ele>417.4</ele><time>2026-04-11T14:37:20.001Z</time></trkpt><trkpt lat="36.98690938742546" lon="15.02435394184093"><ele>417.6</ele><time>2026-04-11T14:37:21.001Z</time></trkpt><trkpt lat="36.986934642388306" lon="15.024252947769162"><ele>417.79999999999995</ele><time>2026-04-11T14:37:22.001Z</time></trkpt><trkpt lat="36.98694729614423" lon="15.024158175918886"><ele>418.0</ele><time>2026-04-11T14:37:23.001Z</time></trkpt><trkpt lat="36.9869645086964" lon="15.024062236402246"><ele>418.0</ele><time>2026-04-11T14:37:24.001Z</time></trkpt><trkpt lat="36.987001343845655" lon="15.02396117205772"><ele>418.0</ele><time>2026-04-11T14:37:25.001Z</time></trkpt><trkpt lat="36.98701533374386" lon="15.023830390773988"><ele>418.0</ele><time>2026-04-11T14:37:26.001Z</time></trkpt><trkpt lat="36.986971658655605" lon="15.023710274188108"><ele>418.0</ele><time>2026-04-11T14:37:27.001Z</time></trkpt><trkpt lat="36.9869113209919" lon="15.023603103619699"><ele>418.0</ele><time>2026-04-11T14:37:28.001Z</time></trkpt><trkpt lat="36.98686787462108" lon="15.023486007242187"><ele>418.0</ele><time>2026-04-11T14:37:29.001Z</time></trkpt><trkpt lat="36.98682520233452" lon="15.023359780216188"><ele>418.0</ele><time>2026-04-11T14:37:30.001Z</time></trkpt><trkpt lat="36.986783674201185" lon="15.023225486447496"><ele>418.0</ele><time>2026-04-11T14:37:31.001Z</time></trkpt><trkpt lat="36.98674821511414" lon="15.023087915094342"><ele>418.0</ele><time>2026-04-11T14:37:32.001Z</time></trkpt><trkpt lat="36.986721643071775" lon="15.02294300108384"><ele>418.0</ele><time>2026-04-11T14:37:33.001Z</time></trkpt><trkpt lat="36.98669970875629" lon="15.022784296159262"><ele>418.0</ele><time>2026-04-11T14:37:34.001Z</time></trkpt><trkpt lat="36.98668478361948" lon="15.022628735061241"><ele>418.0</ele><time>2026-04-11T14:37:35.001Z</time></trkpt><trkpt lat="36.986677694276466" lon="15.02248853111279"><ele>418.0</ele><time>2026-04-11T14:37:36.001Z</time></trkpt><trkpt lat="36.98668045348054" lon="15.022358481395829"><ele>420.4</ele><time>2026-04-11T14:37:37.001Z</time></trkpt><trkpt lat="36.9866942321388" lon="15.022231138490916"><ele>422.79999999999995</ele><time>2026-04-11T14:37:38.001Z</time></trkpt><trkpt lat="36.98673338587411" lon="15.022137302259257"><ele>425.2</ele><time>2026-04-11T14:37:39.001Z</time></trkpt><trkpt lat="36.986781313294" lon="15.022069790332763"><ele>427.6</ele><time>2026-04-11T14:37:40.001Z</time></trkpt><trkpt lat="36.98685380766963" lon="15.022001703694679"><ele>430.0</ele><time>2026-04-11T14:37:41.001Z</time></trkpt><trkpt lat="36.98694319282773" lon="15.02192250986145"><ele>430.0</ele><time>2026-04-11T14:37:42.001Z</time></trkpt><trkpt lat="36.987031582568925" lon="15.021878420320949"><ele>430.0</ele><time>2026-04-11T14:37:43.001Z</time></trkpt><trkpt lat="36.987131660519346" lon="15.021841225243664"><ele>430.0</ele><time>2026-04-11T14:37:44.001Z</time></trkpt><trkpt lat="36.98724355824235" lon="15.021814701828102"><ele>430.0</ele><time>2026-04-11T14:37:45.001Z</time></trkpt><trkpt lat="36.98737267709924" lon="15.02178176376458"><ele>430.0</ele><time>2026-04-11T14:37:46.001Z</time></trkpt><trkpt lat="36.98750701338488" lon="15.02174747070361"><ele>430.2</ele><time>2026-04-11T14:37:47.001Z</time></trkpt><trkpt lat="36.987625983367444" lon="15.021712430470064"><ele>430.4</ele><time>2026-04-11T14:37:48.001Z</time></trkpt><trkpt lat="36.98770940665762" lon="15.02165195287603"><ele>430.6</ele><time>2026-04-11T14:37:49.001Z</time></trkpt><trkpt lat="36.987789848426736" lon="15.021592873218633"><ele>430.8</ele><time>2026-04-11T14:37:50.001Z</time></trkpt><trkpt lat="36.98784509138346" lon="15.021509611292064"><ele>431.0</ele><time>2026-04-11T14:37:51.001Z</time></trkpt><trkpt lat="36.987894278721605" lon="15.021391070244798"><ele>431.75</ele><time>2026-04-11T14:37:52.001Z</time></trkpt><trkpt lat="36.98793763038819" lon="15.021257955870976"><ele>432.5</ele><time>2026-04-11T14:37:53.001Z</time></trkpt><trkpt lat="36.98795537372594" lon="15.021112690685657"><ele>433.25</ele><time>2026-04-11T14:37:54.001Z</time></trkpt><trkpt lat="36.987951666397336" lon="15.020964350847835"><ele>434.0</ele><time>2026-04-11T14:37:55.001Z</time></trkpt><trkpt lat="36.98792998466416" lon="15.020811848876102"><ele>435.0</ele><time>2026-04-11T14:37:56.001Z</time></trkpt><trkpt lat="36.987910190596175" lon="15.020640405732982"><ele>436.0</ele><time>2026-04-11T14:37:57.001Z</time></trkpt><trkpt lat="36.98791210615257" lon="15.020463805056508"><ele>437.0</ele><time>2026-04-11T14:37:58.001Z</time></trkpt><trkpt lat="36.98790829196196" lon="15.020306776587336"><ele>438.0</ele><time>2026-04-11T14:37:59.001Z</time></trkpt><trkpt lat="36.987907781706944" lon="15.020131719508035"><ele>438.5</ele><time>2026-04-11T14:38:00.001Z</time></trkpt><trkpt lat="36.9879096229307" lon="15.019948780490001"><ele>439.0</ele><time>2026-04-11T14:38:01.001Z</time></trkpt><trkpt lat="36.987911506347615" lon="15.019779010153933"><ele>439.5</ele><time>2026-04-11T14:38:02.001Z</time></trkpt><trkpt lat="36.9879026044614" lon="15.019613884225953"><ele>440.0</ele><time>2026-04-11T14:38:03.001Z</time></trkpt><trkpt lat="36.98791335372793" lon="15.019448264452105"><ele>440.0</ele><time>2026-04-11T14:38:04.001Z</time></trkpt><trkpt lat="36.98790082685368" lon="15.019293540473534"><ele>440.0</ele><time>2026-04-11T14:38:05.001Z</time></trkpt><trkpt lat="36.98789966044503" lon="15.019155997156746"><ele>440.0</ele><time>2026-04-11T14:38:06.001Z</time></trkpt><trkpt lat="36.98791219618839" lon="15.01902496836955"><ele>440.0</ele><time>2026-04-11T14:38:07.001Z</time></trkpt><trkpt lat="36.987911687960825" lon="15.018891766695706"><ele>440.0</ele><time>2026-04-11T14:38:08.001Z</time></trkpt><trkpt lat="36.9879101490409" lon="15.018753364128997"><ele>440.2</ele><time>2026-04-11T14:38:09.001Z</time></trkpt><trkpt lat="36.98788831764068" lon="15.018614948188533"><ele>440.4</ele><time>2026-04-11T14:38:10.001Z</time></trkpt><trkpt lat="36.987868022034185" lon="15.018474326515836"><ele>440.6</ele><time>2026-04-11T14:38:11Z</time></trkpt><trkpt lat="36.98783694188263" lon="15.018337454752556"><ele>440.8</ele><time>2026-04-11T14:38:12Z</time></trkpt><trkpt lat="36.987798537780115" lon="15.018219112479725"><ele>441.0</ele><time>2026-04-11T14:38:13Z</time></trkpt><trkpt lat="36.987763828039085" lon="15.018087349773802"><ele>440.5</ele><time>2026-04-11T14:38:14Z</time></trkpt><trkpt lat="36.9877153779876" lon="15.017956971966907"><ele>440.0</ele><time>2026-04-11T14:38:15Z</time></trkpt><trkpt lat="36.9876601554579" lon="15.017825070241559"><ele>439.5</ele><time>2026-04-11T14:38:16Z</time></trkpt><trkpt lat="36.98760412565238" lon="15.017695274475651"><ele>439.0</ele><time>2026-04-11T14:38:17Z</time></trkpt><trkpt lat="36.987551994261416" lon="15.017563530661683"><ele>439.2</ele><time>2026-04-11T14:38:18Z</time></trkpt><trkpt lat="36.98750065350992" lon="15.017432801978268"><ele>439.4</ele><time>2026-04-11T14:38:19Z</time></trkpt><trkpt lat="36.98744798445282" lon="15.017298690893114"><ele>439.6</ele><time>2026-04-11T14:38:20Z</time></trkpt><trkpt lat="36.987395907238174" lon="15.017173589957057"><ele>439.8</ele><time>2026-04-11T14:38:21Z</time></trkpt><trkpt lat="36.987351940985846" lon="15.017070309528567"><ele>440.0</ele><time>2026-04-11T14:38:22Z</time></trkpt><trkpt lat="36.98731439576627" lon="15.016974105070542"><ele>440.0</ele><time>2026-04-11T14:38:23Z</time></trkpt><trkpt lat="36.98728185252406" lon="15.016868677037019"><ele>440.0</ele><time>2026-04-11T14:38:24Z</time></trkpt><trkpt lat="36.98725799388285" lon="15.016752416282081"><ele>440.0</ele><time>2026-04-11T14:38:25Z</time></trkpt><trkpt lat="36.98723864297925" lon="15.016636425984727"><ele>440.0</ele><time>2026-04-11T14:38:26Z</time></trkpt><trkpt lat="36.987225389826065" lon="15.016526582678878"><ele>440.0</ele><time>2026-04-11T14:38:27Z</time></trkpt><trkpt lat="36.987219199139616" lon="15.016420949498766"><ele>440.2</ele><time>2026-04-11T14:38:28Z</time></trkpt><trkpt lat="36.98722109037049" lon="15.016316981481388"><ele>440.4</ele><time>2026-04-11T14:38:29Z</time></trkpt><trkpt lat="36.987233757535215" lon="15.01621365435593"><ele>440.6</ele><time>2026-04-11T14:38:30Z</time></trkpt><trkpt lat="36.98724694969645" lon="15.01609606944294"><ele>440.8</ele><time>2026-04-11T14:38:31Z</time></trkpt><trkpt lat="36.98724745534436" lon="15.015972000676443"><ele>441.0</ele><time>2026-04-11T14:38:32Z</time></trkpt><trkpt lat="36.9872659104709" lon="15.015849628883807"><ele>441.4</ele><time>2026-04-11T14:38:33Z</time></trkpt><trkpt lat="36.98727727030235" lon="15.015723050978837"><ele>441.8</ele><time>2026-04-11T14:38:34Z</time></trkpt><trkpt lat="36.987290459988166" lon="15.015590030861675"><ele>442.19999999999993</ele><time>2026-04-11T14:38:35Z</time></trkpt><trkpt lat="36.98732270567121" lon="15.015456265395141"><ele>442.59999999999997</ele><time>2026-04-11T14:38:36Z</time></trkpt><trkpt lat="36.98733975220224" lon="15.015321571641232"><ele>443.0</ele><time>2026-04-11T14:38:37Z</time></trkpt><trkpt lat="36.98735806114626" lon="15.015194288325027"><ele>443.0</ele><time>2026-04-11T14:38:38Z</time></trkpt><trkpt lat="36.98737720092069" lon="15.015101085488801"><ele>442.99999999999994</ele><time>2026-04-11T14:38:39Z</time></trkpt><trkpt lat="36.98744492897487" lon="15.014975977021809"><ele>442.99999999999994</ele><time>2026-04-11T14:38:41Z</time></trkpt><trkpt lat="36.98749943974657" lon="15.014897029108408"><ele>443.0</ele><time>2026-04-11T14:38:42Z</time></trkpt><trkpt lat="36.987565089222635" lon="15.014799174817453"><ele>443.0</ele><time>2026-04-11T14:38:43Z</time></trkpt><trkpt lat="36.987638163424485" lon="15.014690253326679"><ele>443.3333333333333</ele><time>2026-04-11T14:38:44Z</time></trkpt><trkpt lat="36.98770504168555" lon="15.014590567368906"><ele>443.66666666666663</ele><time>2026-04-11T14:38:45Z</time></trkpt><trkpt lat="36.98775932379357" lon="15.014510098371966"><ele>444.0</ele><time>2026-04-11T14:38:46Z</time></trkpt><trkpt lat="36.98780160334394" lon="15.014427947615369"><ele>444.33333333333337</ele><time>2026-04-11T14:38:47Z</time></trkpt><trkpt lat="36.98780813705561" lon="15.014328819269535"><ele>444.6666666666667</ele><time>2026-04-11T14:38:48Z</time></trkpt><trkpt lat="36.98781509966757" lon="15.014231347301598"><ele>445.0</ele><time>2026-04-11T14:38:49Z</time></trkpt><trkpt lat="36.987816196143505" lon="15.014118481925443"><ele>445.0</ele><time>2026-04-11T14:38:50Z</time></trkpt><trkpt lat="36.98783367255564" lon="15.013974057675394"><ele>445.0</ele><time>2026-04-11T14:38:51Z</time></trkpt><trkpt lat="36.98784186469003" lon="15.01379685163751"><ele>445.0</ele><time>2026-04-11T14:38:52Z</time></trkpt><trkpt lat="36.98784976006548" lon="15.013607375758877"><ele>445.0</ele><time>2026-04-11T14:38:53Z</time></trkpt><trkpt lat="36.987855024622874" lon="15.013426767513025"><ele>445.0</ele><time>2026-04-11T14:38:54Z</time></trkpt><trkpt lat="36.98785787254221" lon="15.01325821924742"><ele>445.0</ele><time>2026-04-11T14:38:55Z</time></trkpt><trkpt lat="36.98786004726735" lon="15.013078634101166"><ele>445.0</ele><time>2026-04-11T14:38:56Z</time></trkpt><trkpt lat="36.98784675326814" lon="15.012878750987941"><ele>445.0</ele><time>2026-04-11T14:38:57Z</time></trkpt><trkpt lat="36.987851361574535" lon="15.012697182808921"><ele>445.0</ele><time>2026-04-11T14:38:58Z</time></trkpt><trkpt lat="36.987860047525366" lon="15.012536751219832"><ele>445.0</ele><time>2026-04-11T14:38:59Z</time></trkpt><trkpt lat="36.98786500362019" lon="15.01239669403773"><ele>445.0</ele><time>2026-04-11T14:39:00Z</time></trkpt><trkpt lat="36.9878539699357" lon="15.01227450616687"><ele>445.0</ele><time>2026-04-11T14:39:01Z</time></trkpt><trkpt lat="36.987820634394616" lon="15.012167908740741"><ele>445.0</ele><time>2026-04-11T14:39:02Z</time></trkpt><trkpt lat="36.98777013174478" lon="15.012065381288444"><ele>446.0</ele><time>2026-04-11T14:39:03Z</time></trkpt><trkpt lat="36.98770012764027" lon="15.011951763122777"><ele>447.0</ele><time>2026-04-11T14:39:04Z</time></trkpt><trkpt lat="36.9876253051297" lon="15.011847792866828"><ele>448.0</ele><time>2026-04-11T14:39:05Z</time></trkpt><trkpt lat="36.98756351846528" lon="15.01172883926269"><ele>449.0</ele><time>2026-04-11T14:39:06Z</time></trkpt><trkpt lat="36.98750006093184" lon="15.011608079397403"><ele>449.79999999999995</ele><time>2026-04-11T14:39:07Z</time></trkpt><trkpt lat="36.98743772669107" lon="15.011491649859323"><ele>450.59999999999997</ele><time>2026-04-11T14:39:08Z</time></trkpt><trkpt lat="36.98737860759913" lon="15.011384312296444"><ele>451.4</ele><time>2026-04-11T14:39:09Z</time></trkpt><trkpt lat="36.9873242017338" lon="15.011277924015477"><ele>452.2</ele><time>2026-04-11T14:39:10Z</time></trkpt><trkpt lat="36.98726721902974" lon="15.0111738339341"><ele>453.0</ele><time>2026-04-11T14:39:11Z</time></trkpt><trkpt lat="36.98720215651799" lon="15.011060334536038"><ele>453.0</ele><time>2026-04-11T14:39:12Z</time></trkpt><trkpt lat="36.98713146669678" lon="15.01095342539065"><ele>452.99999999999994</ele><time>2026-04-11T14:39:13Z</time></trkpt><trkpt lat="36.98706523042426" lon="15.010840629253389"><ele>452.99999999999994</ele><time>2026-04-11T14:39:14.001Z</time></trkpt><trkpt lat="36.987002679865185" lon="15.010733529648034"><ele>453.0</ele><time>2026-04-11T14:39:15.001Z</time></trkpt><trkpt lat="36.98694761014909" lon="15.010621051680383"><ele>453.0</ele><time>2026-04-11T14:39:16.001Z</time></trkpt><trkpt lat="36.986888937389935" lon="15.010511315402805"><ele>453.4</ele><time>2026-04-11T14:39:17.001Z</time></trkpt><trkpt lat="36.98682280596099" lon="15.010396487743849"><ele>453.79999999999995</ele><time>2026-04-11T14:39:18.001Z</time></trkpt><trkpt lat="36.986753557815874" lon="15.010283236737465"><ele>454.2</ele><time>2026-04-11T14:39:19.001Z</time></trkpt><trkpt lat="36.98669235409901" lon="15.010182758803701"><ele>454.6</ele><time>2026-04-11T14:39:20.001Z</time></trkpt><trkpt lat="36.98664068121211" lon="15.010087894465633"><ele>455.0</ele><time>2026-04-11T14:39:21.001Z</time></trkpt><trkpt lat="36.986599770859975" lon="15.010006286899442"><ele>456.4</ele><time>2026-04-11T14:39:22.001Z</time></trkpt><trkpt lat="36.98653579935907" lon="15.00989374060554"><ele>457.8</ele><time>2026-04-11T14:39:24.001Z</time></trkpt><trkpt lat="36.986482967286534" lon="15.00982923174929"><ele>459.20000000000005</ele><time>2026-04-11T14:39:25.001Z</time></trkpt><trkpt lat="36.9864732832002" lon="15.009652701225214"><ele>460.6</ele><time>2026-04-11T14:39:26.001Z</time></trkpt><trkpt lat="36.9865531710366" lon="15.0095356107306"><ele>462.0</ele><time>2026-04-11T14:39:27.001Z</time></trkpt><trkpt lat="36.9866177581429" lon="15.00941252036739"><ele>461.20000000000005</ele><time>2026-04-11T14:39:28.001Z</time></trkpt><trkpt lat="36.986681425363564" lon="15.009291181984985"><ele>460.40000000000003</ele><time>2026-04-11T14:39:29.001Z</time></trkpt><trkpt lat="36.98674073934021" lon="15.009193508527064"><ele>459.59999999999997</ele><time>2026-04-11T14:39:30.001Z</time></trkpt><trkpt lat="36.98677695151312" lon="15.00910914410735"><ele>458.79999999999995</ele><time>2026-04-11T14:39:31.001Z</time></trkpt><trkpt lat="36.98678690780876" lon="15.009027864212262"><ele>458.0</ele><time>2026-04-11T14:39:32.001Z</time></trkpt><trkpt lat="36.98677461784357" lon="15.008887796144126"><ele>458.0</ele><time>2026-04-11T14:39:34.001Z</time></trkpt><trkpt lat="36.986733876568934" lon="15.00875919797235"><ele>458.0</ele><time>2026-04-11T14:39:36.001Z</time></trkpt><trkpt lat="36.98668621903771" lon="15.008637435238665"><ele>458.0</ele><time>2026-04-11T14:39:38.001Z</time></trkpt><trkpt lat="36.98667446072039" lon="15.008543365988075"><ele>458.0</ele><time>2026-04-11T14:39:40.001Z</time></trkpt><trkpt lat="36.98697187825465" lon="15.00838658134097"><ele>458.0</ele><time>2026-04-11T14:39:41.001Z</time></trkpt><trkpt lat="36.987037694504146" lon="15.008345352391302"><ele>457.99999999999994</ele><time>2026-04-11T14:39:42.001Z</time></trkpt><trkpt lat="36.987141530085076" lon="15.008254322011785"><ele>457.99999999999994</ele><time>2026-04-11T14:39:44.001Z</time></trkpt><trkpt lat="36.98719227340081" lon="15.008199068287945"><ele>458.0</ele><time>2026-04-11T14:39:45.001Z</time></trkpt><trkpt lat="36.98727417157081" lon="15.008109503441538"><ele>458.0</ele><time>2026-04-11T14:39:47.001Z</time></trkpt><trkpt lat="36.9873809277291" lon="15.008033604572509"><ele>458.3333333333333</ele><time>2026-04-11T14:39:49.001Z</time></trkpt><trkpt lat="36.98744754933203" lon="15.007963789920586"><ele>458.66666666666663</ele><time>2026-04-11T14:39:50.001Z</time></trkpt><trkpt lat="36.98751826577783" lon="15.007886790239246"><ele>459.0</ele><time>2026-04-11T14:39:51.001Z</time></trkpt><trkpt lat="36.98758787359044" lon="15.007830214745068"><ele>459.33333333333337</ele><time>2026-04-11T14:39:52.001Z</time></trkpt><trkpt lat="36.98764971418414" lon="15.007779176182124"><ele>459.6666666666667</ele><time>2026-04-11T14:39:53.001Z</time></trkpt><trkpt lat="36.987704855351225" lon="15.007732017086038"><ele>460.0</ele><time>2026-04-11T14:39:54.001Z</time></trkpt><trkpt lat="36.98778229396486" lon="15.007646424036423"><ele>460.0</ele><time>2026-04-11T14:39:55.001Z</time></trkpt><trkpt lat="36.987865593686294" lon="15.007555304421839"><ele>460.0</ele><time>2026-04-11T14:39:56.001Z</time></trkpt><trkpt lat="36.98793388122048" lon="15.007489194928626"><ele>460.0</ele><time>2026-04-11T14:39:57.001Z</time></trkpt><trkpt lat="36.987995481738" lon="15.007437155889845"><ele>460.0</ele><time>2026-04-11T14:39:58.001Z</time></trkpt><trkpt lat="36.988063369222495" lon="15.007343060013703"><ele>460.0</ele><time>2026-04-11T14:40:00.001Z</time></trkpt><trkpt lat="36.988083235227236" lon="15.007212408171016"><ele>458.6666666666667</ele><time>2026-04-11T14:40:02.001Z</time></trkpt><trkpt lat="36.98808712454989" lon="15.007115673893114"><ele>457.33333333333337</ele><time>2026-04-11T14:40:03.001Z</time></trkpt><trkpt lat="36.988081373210164" lon="15.007026681141905"><ele>456.0</ele><time>2026-04-11T14:40:04.001Z</time></trkpt><trkpt lat="36.98803945864665" lon="15.006916656196436"><ele>454.66666666666663</ele><time>2026-04-11T14:40:06.001Z</time></trkpt><trkpt lat="36.98798018590249" lon="15.00684618732493"><ele>453.3333333333333</ele><time>2026-04-11T14:40:08.001Z</time></trkpt><trkpt lat="36.987924490849856" lon="15.006801502612044"><ele>452.0</ele><time>2026-04-11T14:40:10.001Z</time></trkpt><trkpt lat="36.9878947693443" lon="15.006720826872114"><ele>452.20000000000005</ele><time>2026-04-11T14:40:14.001Z</time></trkpt><trkpt lat="36.98783362987589" lon="15.006603871787075"><ele>452.40000000000003</ele><time>2026-04-11T14:40:17Z</time></trkpt><trkpt lat="36.98780186848999" lon="15.006514257249925"><ele>452.59999999999997</ele><time>2026-04-11T14:40:19Z</time></trkpt><trkpt lat="36.98778765006673" lon="15.00638203762751"><ele>452.79999999999995</ele><time>2026-04-11T14:40:21Z</time></trkpt><trkpt lat="36.98774530974281" lon="15.006307687945588"><ele>453.0</ele><time>2026-04-11T14:40:22Z</time></trkpt><trkpt lat="36.98771287339082" lon="15.00616362619706"><ele>453.0</ele><time>2026-04-11T14:40:24Z</time></trkpt><trkpt lat="36.98769723455883" lon="15.006082454832654"><ele>453.0</ele><time>2026-04-11T14:40:25Z</time></trkpt><trkpt lat="36.987657836228564" lon="15.005965027041539"><ele>453.0</ele><time>2026-04-11T14:40:26Z</time></trkpt><trkpt lat="36.98760753782844" lon="15.0059036425132"><ele>453.0</ele><time>2026-04-11T14:40:27Z</time></trkpt><trkpt lat="36.98751952736558" lon="15.005840990377758"><ele>453.0</ele><time>2026-04-11T14:40:29Z</time></trkpt><trkpt lat="36.98744895289849" lon="15.005796299663368"><ele>453.0</ele><time>2026-04-11T14:40:30Z</time></trkpt><trkpt lat="36.987353280626856" lon="15.005755628925195"><ele>452.6666666666667</ele><time>2026-04-11T14:40:32Z</time></trkpt><trkpt lat="36.98727804007127" lon="15.005715825103923"><ele>452.33333333333337</ele><time>2026-04-11T14:40:38Z</time></trkpt><trkpt lat="36.98721908324883" lon="15.005672386780283"><ele>452.0</ele><time>2026-04-11T14:40:40Z</time></trkpt><trkpt lat="36.98714930049215" lon="15.005606453450469"><ele>451.6666666666667</ele><time>2026-04-11T14:40:44Z</time></trkpt><trkpt lat="36.987089929740556" lon="15.00555348700499"><ele>451.33333333333337</ele><time>2026-04-11T14:40:47Z</time></trkpt><trkpt lat="36.98703824422306" lon="15.005446122625946"><ele>451.0</ele><time>2026-04-11T14:40:50Z</time></trkpt><trkpt lat="36.98698327516654" lon="15.005406920185271"><ele>451.00000000000006</ele><time>2026-04-11T14:40:51Z</time></trkpt><trkpt lat="36.98688536557446" lon="15.005339869443711"><ele>451.0</ele><time>2026-04-11T14:40:53Z</time></trkpt><trkpt lat="36.986818864331006" lon="15.005281214193223"><ele>451.0</ele><time>2026-04-11T14:40:56Z</time></trkpt><trkpt lat="36.98675328000703" lon="15.005239949522887"><ele>451.0</ele><time>2026-04-11T14:40:58Z</time></trkpt><trkpt lat="36.98676215904643" lon="15.005155669237604"><ele>451.00000000000006</ele><time>2026-04-11T14:41:19.001Z</time></trkpt><trkpt lat="36.98678036950909" lon="15.005068913490994"><ele>451.0</ele><time>2026-04-11T14:41:22.001Z</time></trkpt><trkpt lat="36.98680733522518" lon="15.004993998236767"><ele>451.00000000000006</ele><time>2026-04-11T14:41:49.001Z</time></trkpt><trkpt lat="36.98688957833306" lon="15.005001390569698"><ele>451.0</ele><time>2026-04-11T14:42:11.001Z</time></trkpt><trkpt lat="36.98697491646316" lon="15.005028680520972"><ele>451.0</ele><time>2026-04-11T14:42:13.001Z</time></trkpt><trkpt lat="36.987057924888184" lon="15.005031712394224"><ele>451.0</ele><time>2026-04-11T14:42:15.001Z</time></trkpt><trkpt lat="36.98712370980603" lon="15.00501164757337"><ele>451.00000000000006</ele><time>2026-04-11T14:42:17.001Z</time></trkpt><trkpt lat="36.98718027727324" lon="15.004954006846619"><ele>451.0</ele><time>2026-04-11T14:42:19.001Z</time></trkpt><trkpt lat="36.9872562256097" lon="15.004871744103456"><ele>452.0</ele><time>2026-04-11T14:42:22.001Z</time></trkpt><trkpt lat="36.98730131922706" lon="15.004801337298241"><ele>453.0</ele><time>2026-04-11T14:42:26Z</time></trkpt><trkpt lat="36.98733420147524" lon="15.00473246986519"><ele>454.0</ele><time>2026-04-11T14:42:30Z</time></trkpt><trkpt lat="36.987402259506474" lon="15.004742387780068"><ele>455.0</ele><time>2026-04-11T14:42:33Z</time></trkpt><trkpt lat="36.98746201927867" lon="15.004694221098639"><ele>456.0</ele><time>2026-04-11T14:42:36Z</time></trkpt><trkpt lat="36.987435767051885" lon="15.004610126111352"><ele>457.0</ele><time>2026-04-11T14:42:39Z</time></trkpt><trkpt lat="36.98740664176287" lon="15.004520348056603"><ele>458.0</ele><time>2026-04-11T14:42:43Z</time></trkpt><trkpt lat="36.987381175124334" lon="15.004443549745993"><ele>458.0</ele><time>2026-04-11T14:42:45Z</time></trkpt><trkpt lat="36.987375845079484" lon="15.004356742482775"><ele>458.0</ele><time>2026-04-11T14:42:48Z</time></trkpt><trkpt lat="36.98731702317809" lon="15.00432138931087"><ele>458.0</ele><time>2026-04-11T14:43:00Z</time></trkpt><trkpt lat="36.98727794105975" lon="15.004247206949891"><ele>458.0</ele><time>2026-04-11T14:43:03Z</time></trkpt><trkpt lat="36.987272834912666" lon="15.004161164509158"><ele>458.0</ele><time>2026-04-11T14:43:05Z</time></trkpt><trkpt lat="36.987278448729825" lon="15.004081308654229"><ele>458.0</ele><time>2026-04-11T14:43:07Z</time></trkpt><trkpt lat="36.98724581032889" lon="15.003990534031896"><ele>458.0</ele><time>2026-04-11T14:43:12Z</time></trkpt><trkpt lat="36.98727048142552" lon="15.003914834130896"><ele>459.16666666666663</ele><time>2026-04-11T14:43:16Z</time></trkpt><trkpt lat="36.9873116384741" lon="15.003826062995858"><ele>460.3333333333333</ele><time>2026-04-11T14:44:40Z</time></trkpt><trkpt lat="36.987365110575944" lon="15.003729719483909"><ele>461.5</ele><time>2026-04-11T14:44:43Z</time></trkpt><trkpt lat="36.987369055500416" lon="15.003634827524696"><ele>462.66666666666663</ele><time>2026-04-11T14:44:46Z</time></trkpt><trkpt lat="36.98737704143661" lon="15.003548198818937"><ele>463.8333333333333</ele><time>2026-04-11T14:44:48Z</time></trkpt><trkpt lat="36.987380661511274" lon="15.003467725511722"><ele>465.0</ele><time>2026-04-11T14:44:50Z</time></trkpt><trkpt lat="36.987399261032" lon="15.003378252567272"><ele>466.0</ele><time>2026-04-11T14:44:52Z</time></trkpt><trkpt lat="36.987414363606106" lon="15.003275078111109"><ele>467.0</ele><time>2026-04-11T14:44:55Z</time></trkpt><trkpt lat="36.987428826144416" lon="15.003189810956071"><ele>468.0</ele><time>2026-04-11T14:44:58Z</time></trkpt><trkpt lat="36.98743801898844" lon="15.003079105956665"><ele>469.0</ele><time>2026-04-11T14:45:01Z</time></trkpt><trkpt lat="36.98744022002134" lon="15.002929045481785"><ele>470.0</ele><time>2026-04-11T14:45:04Z</time></trkpt><trkpt lat="36.987456516107486" lon="15.002813154383357"><ele>469.99999999999994</ele><time>2026-04-11T14:45:07Z</time></trkpt><trkpt lat="36.98747914033306" lon="15.002719327846634"><ele>470.0</ele><time>2026-04-11T14:45:09Z</time></trkpt><trkpt lat="36.987488715201735" lon="15.002609672644557"><ele>470.0</ele><time>2026-04-11T14:45:11Z</time></trkpt><trkpt lat="36.987504615423134" lon="15.002522562499854"><ele>470.0</ele><time>2026-04-11T14:45:13Z</time></trkpt><trkpt lat="36.9875036069978" lon="15.002421980229693"><ele>469.99999999999994</ele><time>2026-04-11T14:45:16Z</time></trkpt><trkpt lat="36.98752103546802" lon="15.002340039421286"><ele>470.0</ele><time>2026-04-11T14:45:18Z</time></trkpt><trkpt lat="36.98753606199978" lon="15.002244456006839"><ele>469.4</ele><time>2026-04-11T14:45:20Z</time></trkpt><trkpt lat="36.98755374647704" lon="15.002134560438376"><ele>468.8</ele><time>2026-04-11T14:45:22.001Z</time></trkpt><trkpt lat="36.987563058268584" lon="15.002046396217008"><ele>468.20000000000005</ele><time>2026-04-11T14:45:25.001Z</time></trkpt><trkpt lat="36.987571848279586" lon="15.001933180029159"><ele>467.6</ele><time>2026-04-11T14:45:28.001Z</time></trkpt><trkpt lat="36.98760217066906" lon="15.001818767108677"><ele>467.0</ele><time>2026-04-11T14:45:30.001Z</time></trkpt><trkpt lat="36.987685320075705" lon="15.001720922216215"><ele>467.8</ele><time>2026-04-11T14:45:31.001Z</time></trkpt><trkpt lat="36.98767781347469" lon="15.001595743764298"><ele>468.6</ele><time>2026-04-11T14:45:33.001Z</time></trkpt><trkpt lat="36.98769599023109" lon="15.00149411032145"><ele>469.40000000000003</ele><time>2026-04-11T14:45:35.001Z</time></trkpt><trkpt lat="36.98772823463249" lon="15.001384342022474"><ele>470.20000000000005</ele><time>2026-04-11T14:45:37.001Z</time></trkpt><trkpt lat="36.98775870627393" lon="15.001249642204423"><ele>471.0</ele><time>2026-04-11T14:45:39.001Z</time></trkpt><trkpt lat="36.987776131656105" lon="15.001157779254187"><ele>471.0</ele><time>2026-04-11T14:45:41.001Z</time></trkpt><trkpt lat="36.987794264064746" lon="15.001051125496089"><ele>471.0</ele><time>2026-04-11T14:45:42.001Z</time></trkpt><trkpt lat="36.98782678583184" lon="15.000931263111942"><ele>471.0</ele><time>2026-04-11T14:45:43.001Z</time></trkpt><trkpt lat="36.987859039877975" lon="15.000778014817408"><ele>471.0</ele><time>2026-04-11T14:45:45.001Z</time></trkpt><trkpt lat="36.98790043609297" lon="15.00063446932443"><ele>471.0</ele><time>2026-04-11T14:45:47.001Z</time></trkpt><trkpt lat="36.987953900090595" lon="15.000507146352804"><ele>472.3333333333333</ele><time>2026-04-11T14:45:49.001Z</time></trkpt><trkpt lat="36.9879943103903" lon="15.000432421107567"><ele>473.66666666666663</ele><time>2026-04-11T14:45:50.001Z</time></trkpt><trkpt lat="36.98799051021924" lon="15.000314763453838"><ele>475.0</ele><time>2026-04-11T14:45:51.001Z</time></trkpt><trkpt lat="36.98802266373633" lon="15.000246159829649"><ele>476.3333333333333</ele><time>2026-04-11T14:45:52.001Z</time></trkpt><trkpt lat="36.9880753868393" lon="15.000134267999636"><ele>477.66666666666663</ele><time>2026-04-11T14:45:54.001Z</time></trkpt><trkpt lat="36.98812175302899" lon="15.000040686388797"><ele>479.0</ele><time>2026-04-11T14:45:56.001Z</time></trkpt><trkpt lat="36.98816639762796" lon="14.999941696398723"><ele>479.0</ele><time>2026-04-11T14:45:58.001Z</time></trkpt><trkpt lat="36.98820586823258" lon="14.99984081602258"><ele>479.0</ele><time>2026-04-11T14:46:01.001Z</time></trkpt><trkpt lat="36.98826321426072" lon="14.999687972330992"><ele>479.0</ele><time>2026-04-11T14:46:03.001Z</time></trkpt><trkpt lat="36.988305361965544" lon="14.999598321330373"><ele>479.0</ele><time>2026-04-11T14:46:04.001Z</time></trkpt><trkpt lat="36.98835899063849" lon="14.999486728588142"><ele>479.0</ele><time>2026-04-11T14:46:06.001Z</time></trkpt><trkpt lat="36.98843515107929" lon="14.99935829166471"><ele>477.8333333333333</ele><time>2026-04-11T14:46:08.001Z</time></trkpt><trkpt lat="36.98848775430931" lon="14.99927901858685"><ele>476.66666666666663</ele><time>2026-04-11T14:46:09.001Z</time></trkpt><trkpt lat="36.98853104031077" lon="14.999209541590304"><ele>475.5</ele><time>2026-04-11T14:46:10.001Z</time></trkpt><trkpt lat="36.98858252058338" lon="14.99910153508675"><ele>474.33333333333337</ele><time>2026-04-11T14:46:12.001Z</time></trkpt><trkpt lat="36.988617183707916" lon="14.998981316119645"><ele>473.1666666666667</ele><time>2026-04-11T14:46:14.001Z</time></trkpt><trkpt lat="36.98862518651434" lon="14.998891509679895"><ele>472.0</ele><time>2026-04-11T14:46:15.001Z</time></trkpt><trkpt lat="36.988621417460664" lon="14.998808361179883"><ele>472.00000000000006</ele><time>2026-04-11T14:46:16.001Z</time></trkpt><trkpt lat="36.988612795955646" lon="14.998725605804612"><ele>472.0</ele><time>2026-04-11T14:46:17.001Z</time></trkpt><trkpt lat="36.988606088648964" lon="14.99863992924581"><ele>472.0</ele><time>2026-04-11T14:46:18.001Z</time></trkpt><trkpt lat="36.988596865912534" lon="14.998529511446236"><ele>472.0</ele><time>2026-04-11T14:46:19.001Z</time></trkpt><trkpt lat="36.988576002526045" lon="14.99841771104252"><ele>472.00000000000006</ele><time>2026-04-11T14:46:20.001Z</time></trkpt><trkpt lat="36.98855391469711" lon="14.998320300033269"><ele>472.0</ele><time>2026-04-11T14:46:21.001Z</time></trkpt><trkpt lat="36.988538902615545" lon="14.998223867123743"><ele>473.20000000000005</ele><time>2026-04-11T14:46:22.001Z</time></trkpt><trkpt lat="36.98853082593176" lon="14.998133350840183"><ele>474.40000000000003</ele><time>2026-04-11T14:46:23.001Z</time></trkpt><trkpt lat="36.98853046418437" lon="14.998052237204327"><ele>475.59999999999997</ele><time>2026-04-11T14:46:24.001Z</time></trkpt><trkpt lat="36.98853533077602" lon="14.997902165284144"><ele>476.79999999999995</ele><time>2026-04-11T14:46:26.001Z</time></trkpt><trkpt lat="36.98854110855306" lon="14.997812077795597"><ele>478.0</ele><time>2026-04-11T14:46:27.001Z</time></trkpt><trkpt lat="36.988575189090945" lon="14.997658266790824"><ele>478.0</ele><time>2026-04-11T14:46:29.001Z</time></trkpt><trkpt lat="36.98862306855302" lon="14.997504879090497"><ele>477.99999999999994</ele><time>2026-04-11T14:46:31.001Z</time></trkpt><trkpt lat="36.98864631945012" lon="14.997416858992763"><ele>477.99999999999994</ele><time>2026-04-11T14:46:32.001Z</time></trkpt><trkpt lat="36.98867249710293" lon="14.997339655351695"><ele>478.0</ele><time>2026-04-11T14:46:33.002Z</time></trkpt><trkpt lat="36.98873553713797" lon="14.997212835653622"><ele>478.0</ele><time>2026-04-11T14:46:35Z</time></trkpt><trkpt lat="36.98879185846943" lon="14.99713196344009"><ele>479.00000000000006</ele><time>2026-04-11T14:46:37Z</time></trkpt><trkpt lat="36.98874462841922" lon="14.997058283504076"><ele>480.0</ele><time>2026-04-11T14:46:52Z</time></trkpt><trkpt lat="36.9886806832153" lon="14.997003734777081"><ele>481.0</ele><time>2026-04-11T14:46:55Z</time></trkpt><trkpt lat="36.988592258175004" lon="14.996919416469188"><ele>482.0</ele><time>2026-04-11T14:46:57Z</time></trkpt><trkpt lat="36.98852490450089" lon="14.996863543219012"><ele>483.00000000000006</ele><time>2026-04-11T14:46:59Z</time></trkpt><trkpt lat="36.98846039231153" lon="14.996824935644236"><ele>484.0</ele><time>2026-04-11T14:47:04Z</time></trkpt><trkpt lat="36.9885703276004" lon="14.996924887893377"><ele>484.00000000000006</ele><time>2026-04-11T14:50:29.001Z</time></trkpt><trkpt lat="36.98863125399639" lon="14.99697519231824"><ele>484.0</ele><time>2026-04-11T14:50:30.001Z</time></trkpt><trkpt lat="36.988667233626366" lon="14.997046361139619"><ele>484.0</ele><time>2026-04-11T14:50:31.001Z</time></trkpt><trkpt lat="36.988745706926615" lon="14.997111765283957"><ele>484.0</ele><time>2026-04-11T14:50:33.001Z</time></trkpt><trkpt lat="36.98881917562556" lon="14.997147018387246"><ele>484.00000000000006</ele><time>2026-04-11T14:50:35.001Z</time></trkpt><trkpt lat="36.988907844600654" lon="14.99706287504063"><ele>484.0</ele><time>2026-04-11T14:50:37.001Z</time></trkpt><trkpt lat="36.98895169319718" lon="14.997003529481848"><ele>484.00000000000006</ele><time>2026-04-11T14:50:38.001Z</time></trkpt><trkpt lat="36.98899958013409" lon="14.996927790862495"><ele>484.0</ele><time>2026-04-11T14:50:39.001Z</time></trkpt><trkpt lat="36.989060749168786" lon="14.99684202620886"><ele>484.0</ele><time>2026-04-11T14:50:40.001Z</time></trkpt><trkpt lat="36.98912448518583" lon="14.996763181629394"><ele>484.0</ele><time>2026-04-11T14:50:41.001Z</time></trkpt><trkpt lat="36.98918867072366" lon="14.99668623173757"><ele>484.00000000000006</ele><time>2026-04-11T14:50:42.001Z</time></trkpt><trkpt lat="36.989250929644115" lon="14.996609528661876"><ele>484.0</ele><time>2026-04-11T14:50:43.001Z</time></trkpt><trkpt lat="36.98931352874072" lon="14.996532882929381"><ele>485.1666666666667</ele><time>2026-04-11T14:50:44.001Z</time></trkpt><trkpt lat="36.98937333633093" lon="14.99645502902649"><ele>486.33333333333337</ele><time>2026-04-11T14:50:45.001Z</time></trkpt><trkpt lat="36.98944716889876" lon="14.996391415526363"><ele>487.5</ele><time>2026-04-11T14:50:46.002Z</time></trkpt><trkpt lat="36.989510114771655" lon="14.996315679286111"><ele>488.66666666666663</ele><time>2026-04-11T14:50:47Z</time></trkpt><trkpt lat="36.98956322038557" lon="14.996249958339977"><ele>489.8333333333333</ele><time>2026-04-11T14:50:48Z</time></trkpt><trkpt lat="36.989608023216704" lon="14.996194512581477"><ele>491.0</ele><time>2026-04-11T14:50:49Z</time></trkpt><trkpt lat="36.98965438495109" lon="14.996137137515724"><ele>491.0</ele><time>2026-04-11T14:50:50Z</time></trkpt><trkpt lat="36.98969954006612" lon="14.996081255773557"><ele>491.0</ele><time>2026-04-11T14:50:51Z</time></trkpt><trkpt lat="36.98978251881876" lon="14.995978565277756"><ele>491.0</ele><time>2026-04-11T14:50:53Z</time></trkpt><trkpt lat="36.989871201746176" lon="14.995868815612958"><ele>491.0</ele><time>2026-04-11T14:50:55Z</time></trkpt><trkpt lat="36.98992788240857" lon="14.995798670198663"><ele>491.0</ele><time>2026-04-11T14:50:56Z</time></trkpt><trkpt lat="36.98998898242204" lon="14.99572305602524"><ele>492.99999999999994</ele><time>2026-04-11T14:50:57Z</time></trkpt><trkpt lat="36.99004868445906" lon="14.995649144303387"><ele>495.0</ele><time>2026-04-11T14:50:58Z</time></trkpt><trkpt lat="36.99010271299122" lon="14.995582099494692"><ele>497.0</ele><time>2026-04-11T14:50:59Z</time></trkpt><trkpt lat="36.99014837182591" lon="14.995500259927242"><ele>499.0</ele><time>2026-04-11T14:51:00Z</time></trkpt><trkpt lat="36.99020970585002" lon="14.995431093004742"><ele>500.99999999999994</ele><time>2026-04-11T14:51:01Z</time></trkpt><trkpt lat="36.990269031438" lon="14.995361442946189"><ele>503.0</ele><time>2026-04-11T14:51:02Z</time></trkpt><trkpt lat="36.99032529682443" lon="14.995291756049356"><ele>503.0</ele><time>2026-04-11T14:51:03Z</time></trkpt><trkpt lat="36.99038248555217" lon="14.995221488985004"><ele>502.99999999999994</ele><time>2026-04-11T14:51:04Z</time></trkpt><trkpt lat="36.99043342495395" lon="14.995158016484991"><ele>502.99999999999994</ele><time>2026-04-11T14:51:05Z</time></trkpt><trkpt lat="36.99050706259926" lon="14.995072428202269"><ele>503.0</ele><time>2026-04-11T14:51:07Z</time></trkpt><trkpt lat="36.990567062771085" lon="14.994982043288159"><ele>503.0</ele><time>2026-04-11T14:51:09Z</time></trkpt><trkpt lat="36.99058498008877" lon="14.994826666738156"><ele>503.8333333333333</ele><time>2026-04-11T14:51:11Z</time></trkpt><trkpt lat="36.99059243786847" lon="14.994729107904744"><ele>504.66666666666663</ele><time>2026-04-11T14:51:12Z</time></trkpt><trkpt lat="36.990613702006065" lon="14.994635422208301"><ele>505.5</ele><time>2026-04-11T14:51:13Z</time></trkpt><trkpt lat="36.990672891491215" lon="14.994556109198394"><ele>506.33333333333337</ele><time>2026-04-11T14:51:14Z</time></trkpt><trkpt lat="36.99071786965793" lon="14.994449734808459"><ele>507.1666666666667</ele><time>2026-04-11T14:51:15Z</time></trkpt><trkpt lat="36.99077679915374" lon="14.99435336044011"><ele>508.0</ele><time>2026-04-11T14:51:16Z</time></trkpt><trkpt lat="36.99082723731086" lon="14.994260962428678"><ele>508.59999999999997</ele><time>2026-04-11T14:51:17Z</time></trkpt><trkpt lat="36.990878362701814" lon="14.994169224497037"><ele>509.19999999999993</ele><time>2026-04-11T14:51:18Z</time></trkpt><trkpt lat="36.99093307761949" lon="14.994073919000371"><ele>509.8</ele><time>2026-04-11T14:51:19Z</time></trkpt><trkpt lat="36.990987467081716" lon="14.993973761728407"><ele>510.4</ele><time>2026-04-11T14:51:20Z</time></trkpt><trkpt lat="36.99104279547971" lon="14.993875242017923"><ele>511.0</ele><time>2026-04-11T14:51:21Z</time></trkpt><trkpt lat="36.99110186431215" lon="14.99377300613265"><ele>511.0</ele><time>2026-04-11T14:51:22Z</time></trkpt><trkpt lat="36.99116411793026" lon="14.993663736330372"><ele>511.0</ele><time>2026-04-11T14:51:23Z</time></trkpt><trkpt lat="36.99122523830463" lon="14.993545684681314"><ele>511.0</ele><time>2026-04-11T14:51:24Z</time></trkpt><trkpt lat="36.99128981424585" lon="14.993431560927656"><ele>511.0</ele><time>2026-04-11T14:51:25Z</time></trkpt><trkpt lat="36.9913476807001" lon="14.993328524269552"><ele>511.0</ele><time>2026-04-11T14:51:26Z</time></trkpt><trkpt lat="36.99141126882592" lon="14.993216687952097"><ele>511.25</ele><time>2026-04-11T14:51:27Z</time></trkpt><trkpt lat="36.991484167573454" lon="14.993085787218542"><ele>511.5</ele><time>2026-04-11T14:51:28Z</time></trkpt><trkpt lat="36.99156089281685" lon="14.992950675792427"><ele>511.75</ele><time>2026-04-11T14:51:29Z</time></trkpt><trkpt lat="36.99163512915211" lon="14.992820406328123"><ele>512.0</ele><time>2026-04-11T14:51:30Z</time></trkpt><trkpt lat="36.991703870307056" lon="14.992697201350357"><ele>512.0</ele><time>2026-04-11T14:51:31Z</time></trkpt><trkpt lat="36.991773976010386" lon="14.992573043084768"><ele>512.0</ele><time>2026-04-11T14:51:32Z</time></trkpt><trkpt lat="36.991847173445805" lon="14.992444324868503"><ele>512.0</ele><time>2026-04-11T14:51:33Z</time></trkpt><trkpt lat="36.99192127597081" lon="14.992314302376705"><ele>512.0</ele><time>2026-04-11T14:51:34Z</time></trkpt><trkpt lat="36.992001041335996" lon="14.992187198621187"><ele>512.5</ele><time>2026-04-11T14:51:35.001Z</time></trkpt><trkpt lat="36.99208515225819" lon="14.992062755082792"><ele>513.0</ele><time>2026-04-11T14:51:36.001Z</time></trkpt><trkpt lat="36.992167413942376" lon="14.991942750916639"><ele>513.5</ele><time>2026-04-11T14:51:37.001Z</time></trkpt><trkpt lat="36.992249770326254" lon="14.9918430318648"><ele>514.0</ele><time>2026-04-11T14:51:38.001Z</time></trkpt><trkpt lat="36.99232642913472" lon="14.99174666941048"><ele>513.75</ele><time>2026-04-11T14:51:39.001Z</time></trkpt><trkpt lat="36.99241061506915" lon="14.99164966839375"><ele>513.5</ele><time>2026-04-11T14:51:40.001Z</time></trkpt><trkpt lat="36.99251103303132" lon="14.991551417820306"><ele>513.25</ele><time>2026-04-11T14:51:41.001Z</time></trkpt><trkpt lat="36.992614075809676" lon="14.991458362501701"><ele>513.0</ele><time>2026-04-11T14:51:42.001Z</time></trkpt><trkpt lat="36.99270811072071" lon="14.991368115610845"><ele>513.0</ele><time>2026-04-11T14:51:43.001Z</time></trkpt><trkpt lat="36.992795065440625" lon="14.991288051210086"><ele>513.0</ele><time>2026-04-11T14:51:44.001Z</time></trkpt><trkpt lat="36.9928853272349" lon="14.991197265239904"><ele>513.0</ele><time>2026-04-11T14:51:45.001Z</time></trkpt><trkpt lat="36.99298786246328" lon="14.991100374067223"><ele>513.0</ele><time>2026-04-11T14:51:46.001Z</time></trkpt><trkpt lat="36.993092203462815" lon="14.991001398737792"><ele>513.0</ele><time>2026-04-11T14:51:47.001Z</time></trkpt><trkpt lat="36.99319506746682" lon="14.990901359230802"><ele>513.0</ele><time>2026-04-11T14:51:48.001Z</time></trkpt><trkpt lat="36.9932965502693" lon="14.990798734877343"><ele>513.0</ele><time>2026-04-11T14:51:49.001Z</time></trkpt><trkpt lat="36.993396923411986" lon="14.990700327822688"><ele>513.0</ele><time>2026-04-11T14:51:50.001Z</time></trkpt><trkpt lat="36.9934827791781" lon="14.990614394649182"><ele>513.8333333333334</ele><time>2026-04-11T14:51:51.001Z</time></trkpt><trkpt lat="36.99355732703421" lon="14.990542180600261"><ele>514.6666666666666</ele><time>2026-04-11T14:51:52.001Z</time></trkpt><trkpt lat="36.99362165982402" lon="14.990482593851128"><ele>515.5</ele><time>2026-04-11T14:51:53.001Z</time></trkpt><trkpt lat="36.99369483275838" lon="14.990469075713149"><ele>516.3333333333333</ele><time>2026-04-11T14:51:55.001Z</time></trkpt><trkpt lat="36.99377526413881" lon="14.990585357856224"><ele>517.1666666666666</ele><time>2026-04-11T14:51:57.001Z</time></trkpt><trkpt lat="36.99382779902222" lon="14.99065427319176"><ele>518.0</ele><time>2026-04-11T14:51:58.001Z</time></trkpt><trkpt lat="36.9938885577859" lon="14.990713016560411"><ele>518.0</ele><time>2026-04-11T14:51:59.001Z</time></trkpt><trkpt lat="36.99394831379555" lon="14.990754671374837"><ele>518.0</ele><time>2026-04-11T14:52:00.001Z</time></trkpt><trkpt lat="36.99402070988002" lon="14.990761995839327"><ele>518.0</ele><time>2026-04-11T14:52:01.001Z</time></trkpt><trkpt lat="36.99410285070523" lon="14.99073809476792"><ele>518.0</ele><time>2026-04-11T14:52:02.001Z</time></trkpt><trkpt lat="36.99417730709887" lon="14.990708725022502"><ele>518.0</ele><time>2026-04-11T14:52:03.001Z</time></trkpt><trkpt lat="36.99423300209246" lon="14.990663794197182"><ele>518.0</ele><time>2026-04-11T14:52:04.001Z</time></trkpt><trkpt lat="36.99427106777225" lon="14.990590671273852"><ele>518.0</ele><time>2026-04-11T14:52:05.001Z</time></trkpt><trkpt lat="36.99434287338875" lon="14.990490023522094"><ele>517.4</ele><time>2026-04-11T14:52:06.001Z</time></trkpt><trkpt lat="36.994417335029894" lon="14.990401190216843"><ele>516.8</ele><time>2026-04-11T14:52:07.001Z</time></trkpt><trkpt lat="36.99448877145341" lon="14.99033116497566"><ele>516.2</ele><time>2026-04-11T14:52:08.001Z</time></trkpt><trkpt lat="36.994540263867236" lon="14.99027042919607"><ele>515.6</ele><time>2026-04-11T14:52:09.001Z</time></trkpt><trkpt lat="36.99460030856247" lon="14.990212516571715"><ele>515.0</ele><time>2026-04-11T14:52:14.001Z</time></trkpt><trkpt lat="36.99458307372608" lon="14.990075132835333"><ele>516.0</ele><time>2026-04-11T14:52:16.001Z</time></trkpt><trkpt lat="36.9945458525377" lon="14.989995036185269"><ele>517.0</ele><time>2026-04-11T14:52:17.001Z</time></trkpt><trkpt lat="36.99451030998398" lon="14.9898995664604"><ele>518.0</ele><time>2026-04-11T14:52:18.001Z</time></trkpt><trkpt lat="36.99447687282586" lon="14.989793276458881"><ele>519.0</ele><time>2026-04-11T14:52:19.001Z</time></trkpt><trkpt lat="36.99444464123154" lon="14.989687955882722"><ele>520.0</ele><time>2026-04-11T14:52:20.001Z</time></trkpt><trkpt lat="36.99441381856331" lon="14.989585700714592"><ele>521.0</ele><time>2026-04-11T14:52:21.001Z</time></trkpt><trkpt lat="36.994394655798" lon="14.989490785945314"><ele>521.0</ele><time>2026-04-11T14:52:22.001Z</time></trkpt><trkpt lat="36.99436713414437" lon="14.9893911075412"><ele>521.0</ele><time>2026-04-11T14:52:23.001Z</time></trkpt><trkpt lat="36.99434597908366" lon="14.989264606624248"><ele>521.0</ele><time>2026-04-11T14:52:24.001Z</time></trkpt><trkpt lat="36.99431202642071" lon="14.989140858095116"><ele>521.0</ele><time>2026-04-11T14:52:25.001Z</time></trkpt><trkpt lat="36.99427949579724" lon="14.989009299808846"><ele>521.0</ele><time>2026-04-11T14:52:26.001Z</time></trkpt><trkpt lat="36.994250709655375" lon="14.98888955777706"><ele>521.4</ele><time>2026-04-11T14:52:27.001Z</time></trkpt><trkpt lat="36.99421863802588" lon="14.988786163098217"><ele>521.8</ele><time>2026-04-11T14:52:28.001Z</time></trkpt><trkpt lat="36.99418179389322" lon="14.988687046382562"><ele>522.1999999999999</ele><time>2026-04-11T14:52:29.001Z</time></trkpt><trkpt lat="36.99413757127746" lon="14.988588170941942"><ele>522.6</ele><time>2026-04-11T14:52:30.001Z</time></trkpt><trkpt lat="36.994083749369416" lon="14.988492757457411"><ele>523.0</ele><time>2026-04-11T14:52:31.001Z</time></trkpt><trkpt lat="36.994020501188274" lon="14.98839785682186"><ele>522.1999999999999</ele><time>2026-04-11T14:52:32.001Z</time></trkpt><trkpt lat="36.993953086433024" lon="14.988301139689595"><ele>521.4</ele><time>2026-04-11T14:52:33.001Z</time></trkpt><trkpt lat="36.99388892103841" lon="14.98819375732824"><ele>520.5999999999999</ele><time>2026-04-11T14:52:34.001Z</time></trkpt><trkpt lat="36.99382126570565" lon="14.988082845111508"><ele>519.8</ele><time>2026-04-11T14:52:35.001Z</time></trkpt><trkpt lat="36.993751326613676" lon="14.987979097478776"><ele>519.0</ele><time>2026-04-11T14:52:36.001Z</time></trkpt><trkpt lat="36.99367349634318" lon="14.987868995824796"><ele>519.0</ele><time>2026-04-11T14:52:37.001Z</time></trkpt><trkpt lat="36.99359733763455" lon="14.987753904839272"><ele>519.0</ele><time>2026-04-11T14:52:38.001Z</time></trkpt><trkpt lat="36.99352151475946" lon="14.98763655584827"><ele>519.0</ele><time>2026-04-11T14:52:39.001Z</time></trkpt><trkpt lat="36.99344867694011" lon="14.987517224084078"><ele>519.0</ele><time>2026-04-11T14:52:40.001Z</time></trkpt><trkpt lat="36.993375467329074" lon="14.987399936818441"><ele>519.25</ele><time>2026-04-11T14:52:41.001Z</time></trkpt><trkpt lat="36.993300019927624" lon="14.987281724098114"><ele>519.5</ele><time>2026-04-11T14:52:42.001Z</time></trkpt><trkpt lat="36.993220095772244" lon="14.987163459480467"><ele>519.75</ele><time>2026-04-11T14:52:43.001Z</time></trkpt><trkpt lat="36.99314583669655" lon="14.987048399159711"><ele>520.0</ele><time>2026-04-11T14:52:44.001Z</time></trkpt><trkpt lat="36.99306913326963" lon="14.986932020479836"><ele>520.0</ele><time>2026-04-11T14:52:45.001Z</time></trkpt><trkpt lat="36.992998465634784" lon="14.986815821128078"><ele>520.0</ele><time>2026-04-11T14:52:46.001Z</time></trkpt><trkpt lat="36.99294183356932" lon="14.986691901825038"><ele>520.0</ele><time>2026-04-11T14:52:47.001Z</time></trkpt><trkpt lat="36.99290607947304" lon="14.986548108753732"><ele>520.0</ele><time>2026-04-11T14:52:48.002Z</time></trkpt><trkpt lat="36.992898254509385" lon="14.986390701161332"><ele>517.6666666666667</ele><time>2026-04-11T14:52:49.002Z</time></trkpt><trkpt lat="36.99291795828659" lon="14.986214539379938"><ele>515.3333333333334</ele><time>2026-04-11T14:52:50.002Z</time></trkpt><trkpt lat="36.992950334737266" lon="14.986017589350839"><ele>513.0</ele><time>2026-04-11T14:52:51.002Z</time></trkpt><trkpt lat="36.99297441498213" lon="14.98583289802991"><ele>513.0</ele><time>2026-04-11T14:52:52.002Z</time></trkpt><trkpt lat="36.992986651274414" lon="14.985666084209647"><ele>513.0</ele><time>2026-04-11T14:52:53Z</time></trkpt><trkpt lat="36.9930068776474" lon="14.985519816410676"><ele>513.0</ele><time>2026-04-11T14:52:54Z</time></trkpt><trkpt lat="36.993003563986214" lon="14.985404003395125"><ele>513.0</ele><time>2026-04-11T14:52:55Z</time></trkpt><trkpt lat="36.99296596285019" lon="14.985312809932656"><ele>513.0</ele><time>2026-04-11T14:52:56Z</time></trkpt><trkpt lat="36.99288338254045" lon="14.985221669238372"><ele>513.0</ele><time>2026-04-11T14:52:57Z</time></trkpt><trkpt lat="36.99278574178748" lon="14.985155673098308"><ele>513.0</ele><time>2026-04-11T14:52:58Z</time></trkpt><trkpt lat="36.992708926672506" lon="14.985097965622698"><ele>513.0</ele><time>2026-04-11T14:52:59Z</time></trkpt><trkpt lat="36.99266453748301" lon="14.985038283749692"><ele>513.0</ele><time>2026-04-11T14:53:00Z</time></trkpt><trkpt lat="36.99266234205054" lon="14.984924502337613"><ele>513.0</ele><time>2026-04-11T14:53:02Z</time></trkpt><trkpt lat="36.99278402700236" lon="14.984831027302151"><ele>514.0</ele><time>2026-04-11T14:53:04Z</time></trkpt><trkpt lat="36.992874363930675" lon="14.984765890757501"><ele>515.0</ele><time>2026-04-11T14:53:05Z</time></trkpt><trkpt lat="36.99296473150479" lon="14.984690284976512"><ele>516.0</ele><time>2026-04-11T14:53:06Z</time></trkpt><trkpt lat="36.99305054697855" lon="14.984610201742"><ele>517.0</ele><time>2026-04-11T14:53:07Z</time></trkpt><trkpt lat="36.99314341203296" lon="14.98453043107269"><ele>518.0</ele><time>2026-04-11T14:53:08Z</time></trkpt><trkpt lat="36.993212016072405" lon="14.984470663343199"><ele>518.0</ele><time>2026-04-11T14:53:09Z</time></trkpt><trkpt lat="36.99323735843514" lon="14.984337686662057"><ele>518.0</ele><time>2026-04-11T14:53:11Z</time></trkpt><trkpt lat="36.99318730394889" lon="14.984289588237877"><ele>518.0</ele><time>2026-04-11T14:53:12Z</time></trkpt><trkpt lat="36.99310847728172" lon="14.984283259896634"><ele>518.0</ele><time>2026-04-11T14:53:13Z</time></trkpt><trkpt lat="36.99301519907002" lon="14.9843013420472"><ele>518.0</ele><time>2026-04-11T14:53:14Z</time></trkpt><trkpt lat="36.99291032738247" lon="14.984300393450008"><ele>518.0</ele><time>2026-04-11T14:53:15Z</time></trkpt><trkpt lat="36.99282089737402" lon="14.984264538719962"><ele>518.0</ele><time>2026-04-11T14:53:16Z</time></trkpt><trkpt lat="36.99275599429824" lon="14.984209964346885"><ele>518.0</ele><time>2026-04-11T14:53:17Z</time></trkpt><trkpt lat="36.992710585120385" lon="14.984103228853641"><ele>518.0</ele><time>2026-04-11T14:53:18Z</time></trkpt><trkpt lat="36.9926765738727" lon="14.983960859111294"><ele>518.0</ele><time>2026-04-11T14:53:19Z</time></trkpt><trkpt lat="36.992628733860954" lon="14.983809317873188"><ele>520.6666666666666</ele><time>2026-04-11T14:53:20Z</time></trkpt><trkpt lat="36.99256797090037" lon="14.983644052548552"><ele>523.3333333333334</ele><time>2026-04-11T14:53:21Z</time></trkpt><trkpt lat="36.99250805802177" lon="14.98346540003387"><ele>526.0</ele><time>2026-04-11T14:53:22Z</time></trkpt><trkpt lat="36.99244500300551" lon="14.983280220320616"><ele>527.3333333333334</ele><time>2026-04-11T14:53:23Z</time></trkpt><trkpt lat="36.99237546551692" lon="14.98308483785651"><ele>528.6666666666666</ele><time>2026-04-11T14:53:24Z</time></trkpt><trkpt lat="36.99230630541497" lon="14.982882086585633"><ele>530.0</ele><time>2026-04-11T14:53:25Z</time></trkpt><trkpt lat="36.99223425493765" lon="14.982686801976552"><ele>531.0</ele><time>2026-04-11T14:53:26Z</time></trkpt><trkpt lat="36.99217104368206" lon="14.98250570058365"><ele>532.0</ele><time>2026-04-11T14:53:27Z</time></trkpt><trkpt lat="36.99211241506913" lon="14.98232829545209"><ele>533.0</ele><time>2026-04-11T14:53:28Z</time></trkpt><trkpt lat="36.99205178570071" lon="14.982153722221685"><ele>533.0</ele><time>2026-04-11T14:53:29Z</time></trkpt><trkpt lat="36.99199654776493" lon="14.981976055955672"><ele>533.0</ele><time>2026-04-11T14:53:30Z</time></trkpt><trkpt lat="36.99193440867705" lon="14.98180076548023"><ele>533.0</ele><time>2026-04-11T14:53:31Z</time></trkpt><trkpt lat="36.99186524833261" lon="14.98161470436722"><ele>534.25</ele><time>2026-04-11T14:53:32Z</time></trkpt><trkpt lat="36.99179960429286" lon="14.981433829715286"><ele>535.5</ele><time>2026-04-11T14:53:33Z</time></trkpt><trkpt lat="36.991737626140065" lon="14.98126788236571"><ele>536.75</ele><time>2026-04-11T14:53:34Z</time></trkpt><trkpt lat="36.99167053126906" lon="14.981110453888094"><ele>538.0</ele><time>2026-04-11T14:53:35Z</time></trkpt><trkpt lat="36.99158730151559" lon="14.9809694750065"><ele>539.0</ele><time>2026-04-11T14:53:36Z</time></trkpt><trkpt lat="36.99148748434105" lon="14.980848704915012"><ele>540.0</ele><time>2026-04-11T14:53:37Z</time></trkpt><trkpt lat="36.99136820693735" lon="14.9807407565617"><ele>541.0</ele><time>2026-04-11T14:53:38Z</time></trkpt><trkpt lat="36.991250774024415" lon="14.98061673825884"><ele>542.0</ele><time>2026-04-11T14:53:39Z</time></trkpt><trkpt lat="36.99111660948264" lon="14.980507326402549"><ele>542.0</ele><time>2026-04-11T14:53:40Z</time></trkpt><trkpt lat="36.99098512077231" lon="14.980376236639275"><ele>542.0</ele><time>2026-04-11T14:53:41Z</time></trkpt><trkpt lat="36.9908487864069" lon="14.98023972151326"><ele>542.0</ele><time>2026-04-11T14:53:42.001Z</time></trkpt><trkpt lat="36.99071414699273" lon="14.980104834566513"><ele>542.0</ele><time>2026-04-11T14:53:43.001Z</time></trkpt><trkpt lat="36.99058751723427" lon="14.979981115159738"><ele>542.0</ele><time>2026-04-11T14:53:44.001Z</time></trkpt><trkpt lat="36.99045991912831" lon="14.979867676351478"><ele>542.0</ele><time>2026-04-11T14:53:45.001Z</time></trkpt><trkpt lat="36.99034169531237" lon="14.979754725880179"><ele>542.0</ele><time>2026-04-11T14:53:46.001Z</time></trkpt><trkpt lat="36.99022284690931" lon="14.979635905237595"><ele>542.0</ele><time>2026-04-11T14:53:47.001Z</time></trkpt><trkpt lat="36.99011013073357" lon="14.979524465577086"><ele>542.0</ele><time>2026-04-11T14:53:48.001Z</time></trkpt><trkpt lat="36.990003751920696" lon="14.979422471320348"><ele>542.0</ele><time>2026-04-11T14:53:49.001Z</time></trkpt><trkpt lat="36.989898302086814" lon="14.979322445445792"><ele>542.0</ele><time>2026-04-11T14:53:50.001Z</time></trkpt><trkpt lat="36.98979898993598" lon="14.979228058560984"><ele>542.0</ele><time>2026-04-11T14:53:51.001Z</time></trkpt><trkpt lat="36.98973351964036" lon="14.979104141987353"><ele>542.0</ele><time>2026-04-11T14:53:52.001Z</time></trkpt><trkpt lat="36.989620593805405" lon="14.979019717246997"><ele>542.0</ele><time>2026-04-11T14:53:53.001Z</time></trkpt><trkpt lat="36.9894978465924" lon="14.978926323769302"><ele>542.0</ele><time>2026-04-11T14:53:54.001Z</time></trkpt><trkpt lat="36.989369453230864" lon="14.978800874375754"><ele>542.0</ele><time>2026-04-11T14:53:55.001Z</time></trkpt><trkpt lat="36.9892566551374" lon="14.978691180592664"><ele>542.0</ele><time>2026-04-11T14:53:56.001Z</time></trkpt><trkpt lat="36.98916230933062" lon="14.978596460615323"><ele>542.0</ele><time>2026-04-11T14:53:57.001Z</time></trkpt><trkpt lat="36.98907419454371" lon="14.978503651715243"><ele>542.5</ele><time>2026-04-11T14:53:58.001Z</time></trkpt><trkpt lat="36.98897800627826" lon="14.978422599566374"><ele>543.0</ele><time>2026-04-11T14:53:59.001Z</time></trkpt><trkpt lat="36.98886690809837" lon="14.978343767101515"><ele>543.5</ele><time>2026-04-11T14:54:00.001Z</time></trkpt><trkpt lat="36.98876697073636" lon="14.978290197823101"><ele>544.0</ele><time>2026-04-11T14:54:01.001Z</time></trkpt><trkpt lat="36.98866866558418" lon="14.97824957827138"><ele>544.2</ele><time>2026-04-11T14:54:02.001Z</time></trkpt><trkpt lat="36.98858828710529" lon="14.978194820423564"><ele>544.4</ele><time>2026-04-11T14:54:03.001Z</time></trkpt><trkpt lat="36.98850341782019" lon="14.978152442003143"><ele>544.6</ele><time>2026-04-11T14:54:04.001Z</time></trkpt><trkpt lat="36.98840868745516" lon="14.978104709416028"><ele>544.8</ele><time>2026-04-11T14:54:05.001Z</time></trkpt><trkpt lat="36.98830334371834" lon="14.978050949373197"><ele>545.0</ele><time>2026-04-11T14:54:06.001Z</time></trkpt><trkpt lat="36.98820930356164" lon="14.9780027833092"><ele>545.0</ele><time>2026-04-11T14:54:07.001Z</time></trkpt><trkpt lat="36.98811990544193" lon="14.97795653790943"><ele>545.0</ele><time>2026-04-11T14:54:08.001Z</time></trkpt><trkpt lat="36.98802822059229" lon="14.977904957030091"><ele>545.0</ele><time>2026-04-11T14:54:09.001Z</time></trkpt><trkpt lat="36.98791843723509" lon="14.977851774512411"><ele>545.0</ele><time>2026-04-11T14:54:10.001Z</time></trkpt><trkpt lat="36.9878198019686" lon="14.977805544336622"><ele>545.0</ele><time>2026-04-11T14:54:11.001Z</time></trkpt><trkpt lat="36.98774902280958" lon="14.977772370349323"><ele>545.0</ele><time>2026-04-11T14:54:12.001Z</time></trkpt><trkpt lat="36.987644726500626" lon="14.977723486947262"><ele>545.0</ele><time>2026-04-11T14:54:14.001Z</time></trkpt><trkpt lat="36.98750462265947" lon="14.977945634807051"><ele>545.0</ele><time>2026-04-11T14:54:17.001Z</time></trkpt><trkpt lat="36.98748260675869" lon="14.97806441662346"><ele>545.0</ele><time>2026-04-11T14:54:18.001Z</time></trkpt><trkpt lat="36.98748685045299" lon="14.97819898194178"><ele>544.0</ele><time>2026-04-11T14:54:19.001Z</time></trkpt><trkpt lat="36.9874738949283" lon="14.978335338798518"><ele>543.0</ele><time>2026-04-11T14:54:20.001Z</time></trkpt><trkpt lat="36.98744167995531" lon="14.97848027443926"><ele>542.0</ele><time>2026-04-11T14:54:21.001Z</time></trkpt><trkpt lat="36.98742147753922" lon="14.9786295532259"><ele>541.0</ele><time>2026-04-11T14:54:22.001Z</time></trkpt><trkpt lat="36.987396264431425" lon="14.978777005757586"><ele>540.4</ele><time>2026-04-11T14:54:23.001Z</time></trkpt><trkpt lat="36.98737273050898" lon="14.978912457253593"><ele>539.8</ele><time>2026-04-11T14:54:24.001Z</time></trkpt><trkpt lat="36.98734893571643" lon="14.979045460635627"><ele>539.1999999999999</ele><time>2026-04-11T14:54:25.001Z</time></trkpt><trkpt lat="36.987326149446524" lon="14.979163203566584"><ele>538.6</ele><time>2026-04-11T14:54:26.001Z</time></trkpt><trkpt lat="36.987279707638756" lon="14.979269445248534"><ele>538.0</ele><time>2026-04-11T14:54:27.001Z</time></trkpt><trkpt lat="36.98724914129157" lon="14.979393238068182"><ele>537.6</ele><time>2026-04-11T14:54:28.001Z</time></trkpt><trkpt lat="36.98723514139966" lon="14.979525411623035"><ele>537.1999999999999</ele><time>2026-04-11T14:54:29.001Z</time></trkpt><trkpt lat="36.98718227064319" lon="14.979641720791967"><ele>536.8</ele><time>2026-04-11T14:54:30.001Z</time></trkpt><trkpt lat="36.98714394664631" lon="14.979757430749041"><ele>536.4</ele><time>2026-04-11T14:54:31.001Z</time></trkpt><trkpt lat="36.98711299885873" lon="14.979871997757517"><ele>536.0</ele><time>2026-04-11T14:54:32.001Z</time></trkpt><trkpt lat="36.98708728603267" lon="14.97997286645155"><ele>536.4</ele><time>2026-04-11T14:54:33.001Z</time></trkpt><trkpt lat="36.98705056221467" lon="14.980059751714041"><ele>536.8</ele><time>2026-04-11T14:54:34.001Z</time></trkpt><trkpt lat="36.986990662576254" lon="14.980126630722484"><ele>537.1999999999999</ele><time>2026-04-11T14:54:35.001Z</time></trkpt><trkpt lat="36.98691070206038" lon="14.980203380060257"><ele>537.6</ele><time>2026-04-11T14:54:36.001Z</time></trkpt><trkpt lat="36.986829352399425" lon="14.98027714343736"><ele>538.0</ele><time>2026-04-11T14:54:37.001Z</time></trkpt><trkpt lat="36.986741924390046" lon="14.980368949954"><ele>537.3333333333334</ele><time>2026-04-11T14:54:38.001Z</time></trkpt><trkpt lat="36.986658083796826" lon="14.980444908888966"><ele>536.6666666666667</ele><time>2026-04-11T14:54:39.001Z</time></trkpt><trkpt lat="36.98658274280742" lon="14.98052285414658"><ele>536.0</ele><time>2026-04-11T14:54:40.001Z</time></trkpt><trkpt lat="36.986506977195546" lon="14.980599160953352"><ele>535.3333333333334</ele><time>2026-04-11T14:54:41.001Z</time></trkpt><trkpt lat="36.98644341889044" lon="14.980662975405675"><ele>534.6666666666666</ele><time>2026-04-11T14:54:42.001Z</time></trkpt><trkpt lat="36.9864098495428" lon="14.980736282264257"><ele>534.0</ele><time>2026-04-11T14:54:43.001Z</time></trkpt><trkpt lat="36.986363549071775" lon="14.980795478366415"><ele>534.2</ele><time>2026-04-11T14:54:44.001Z</time></trkpt><trkpt lat="36.98633945346199" lon="14.980880902045383"><ele>534.4</ele><time>2026-04-11T14:54:45.001Z</time></trkpt><trkpt lat="36.98635387620712" lon="14.980984095327363"><ele>534.6</ele><time>2026-04-11T14:54:46.001Z</time></trkpt><trkpt lat="36.98635391334873" lon="14.981108015351106"><ele>534.8</ele><time>2026-04-11T14:54:47.001Z</time></trkpt><trkpt lat="36.98633832196817" lon="14.981225976948897"><ele>535.0</ele><time>2026-04-11T14:54:48.001Z</time></trkpt><trkpt lat="36.986329931332605" lon="14.981358010910347"><ele>535.0</ele><time>2026-04-11T14:54:49.001Z</time></trkpt><trkpt lat="36.986323039354566" lon="14.981474205031978"><ele>535.0</ele><time>2026-04-11T14:54:50.001Z</time></trkpt><trkpt lat="36.98629845382926" lon="14.981589216430939"><ele>535.0</ele><time>2026-04-11T14:54:51.001Z</time></trkpt><trkpt lat="36.986264331164485" lon="14.981733242081006"><ele>535.0</ele><time>2026-04-11T14:54:52.001Z</time></trkpt><trkpt lat="36.986235012970454" lon="14.981870037397062"><ele>535.0</ele><time>2026-04-11T14:54:53.002Z</time></trkpt><trkpt lat="36.986232431346224" lon="14.981983681095631"><ele>534.6</ele><time>2026-04-11T14:54:54.002Z</time></trkpt><trkpt lat="36.9862542123064" lon="14.982118111829884"><ele>534.2</ele><time>2026-04-11T14:54:55.002Z</time></trkpt><trkpt lat="36.986281426203526" lon="14.98224317442243"><ele>533.8</ele><time>2026-04-11T14:54:56.002Z</time></trkpt><trkpt lat="36.986282094498556" lon="14.982334410288127"><ele>533.4</ele><time>2026-04-11T14:54:57.002Z</time></trkpt><trkpt lat="36.986263874264935" lon="14.982428545511343"><ele>533.0</ele><time>2026-04-11T14:54:58.002Z</time></trkpt><trkpt lat="36.98622430212778" lon="14.982534556276738"><ele>533.0</ele><time>2026-04-11T14:54:59Z</time></trkpt><trkpt lat="36.98618506697866" lon="14.982602765836244"><ele>533.0</ele><time>2026-04-11T14:55:00Z</time></trkpt><trkpt lat="36.98613078302242" lon="14.982657723917763"><ele>533.0</ele><time>2026-04-11T14:55:01Z</time></trkpt><trkpt lat="36.98605055933564" lon="14.982716418823314"><ele>533.0</ele><time>2026-04-11T14:55:02Z</time></trkpt><trkpt lat="36.98598881356285" lon="14.98279530946822"><ele>533.0</ele><time>2026-04-11T14:55:03Z</time></trkpt><trkpt lat="36.985953687211506" lon="14.982923762787815"><ele>533.0</ele><time>2026-04-11T14:55:04Z</time></trkpt><trkpt lat="36.985901950222846" lon="14.983061524996314"><ele>533.0</ele><time>2026-04-11T14:55:05Z</time></trkpt><trkpt lat="36.98585549891072" lon="14.983181599944578"><ele>533.0</ele><time>2026-04-11T14:55:06Z</time></trkpt><trkpt lat="36.98581002750109" lon="14.9832975216668"><ele>533.0</ele><time>2026-04-11T14:55:07Z</time></trkpt><trkpt lat="36.98576887525265" lon="14.983409501515112"><ele>533.0</ele><time>2026-04-11T14:55:08Z</time></trkpt><trkpt lat="36.98572946646533" lon="14.983528487652471"><ele>533.0</ele><time>2026-04-11T14:55:09Z</time></trkpt><trkpt lat="36.98569065787064" lon="14.983652541651603"><ele>533.4</ele><time>2026-04-11T14:55:10Z</time></trkpt><trkpt lat="36.98565370225277" lon="14.983774863014435"><ele>533.8</ele><time>2026-04-11T14:55:11Z</time></trkpt><trkpt lat="36.98562058804174" lon="14.98388923229216"><ele>534.2</ele><time>2026-04-11T14:55:12Z</time></trkpt><trkpt lat="36.98560098588847" lon="14.98401231033143"><ele>534.6</ele><time>2026-04-11T14:55:13Z</time></trkpt><trkpt lat="36.98555273251234" lon="14.984123590632928"><ele>535.0</ele><time>2026-04-11T14:55:14Z</time></trkpt><trkpt lat="36.98553648314376" lon="14.98423806096223"><ele>535.0</ele><time>2026-04-11T14:55:15Z</time></trkpt><trkpt lat="36.98550615290587" lon="14.984338955487702"><ele>535.0</ele><time>2026-04-11T14:55:16Z</time></trkpt><trkpt lat="36.985474989304464" lon="14.984448772549555"><ele>535.0</ele><time>2026-04-11T14:55:17Z</time></trkpt><trkpt lat="36.98543614642964" lon="14.984577448863998"><ele>535.0</ele><time>2026-04-11T14:55:18Z</time></trkpt><trkpt lat="36.9853901652725" lon="14.984722663027208"><ele>535.0</ele><time>2026-04-11T14:55:19Z</time></trkpt><trkpt lat="36.98534932028898" lon="14.984851988422841"><ele>535.0</ele><time>2026-04-11T14:55:20Z</time></trkpt><trkpt lat="36.985296246844754" lon="14.984962925617765"><ele>535.0</ele><time>2026-04-11T14:55:21Z</time></trkpt><trkpt lat="36.98525865325134" lon="14.985083951673102"><ele>535.0</ele><time>2026-04-11T14:55:22Z</time></trkpt><trkpt lat="36.985222161739244" lon="14.985201429706832"><ele>535.0</ele><time>2026-04-11T14:55:23Z</time></trkpt><trkpt lat="36.985185574731204" lon="14.985319217549367"><ele>535.0</ele><time>2026-04-11T14:55:24Z</time></trkpt><trkpt lat="36.98515109538914" lon="14.985430923141081"><ele>535.1666666666667</ele><time>2026-04-11T14:55:25Z</time></trkpt><trkpt lat="36.98511536025367" lon="14.98554516037508"><ele>535.3333333333334</ele><time>2026-04-11T14:55:26Z</time></trkpt><trkpt lat="36.985081401128255" lon="14.98565372016866"><ele>535.5</ele><time>2026-04-11T14:55:27Z</time></trkpt><trkpt lat="36.98504797055192" lon="14.985759652638436"><ele>535.6666666666666</ele><time>2026-04-11T14:55:28Z</time></trkpt><trkpt lat="36.985018969929385" lon="14.985850172593379"><ele>535.8333333333333</ele><time>2026-04-11T14:55:29Z</time></trkpt><trkpt lat="36.984991687296564" lon="14.98593840503067"><ele>536.0</ele><time>2026-04-11T14:55:30Z</time></trkpt><trkpt lat="36.98496643134734" lon="14.986027642184037"><ele>536.0</ele><time>2026-04-11T14:55:31Z</time></trkpt><trkpt lat="36.984924582400005" lon="14.986098535956286"><ele>536.0</ele><time>2026-04-11T14:55:32Z</time></trkpt><trkpt lat="36.984858838672864" lon="14.98623064185186"><ele>536.0</ele><time>2026-04-11T14:55:34Z</time></trkpt><trkpt lat="36.98479235143906" lon="14.986184432192688"><ele>536.0</ele><time>2026-04-11T14:55:35Z</time></trkpt><trkpt lat="36.98485819507322" lon="14.986389488712044"><ele>536.0</ele><time>2026-04-11T14:55:37Z</time></trkpt><trkpt lat="36.984825007393134" lon="14.986490014939015"><ele>536.0</ele><time>2026-04-11T14:55:40Z</time></trkpt><trkpt lat="36.98479412998774" lon="14.986584706373748"><ele>536.0</ele><time>2026-04-11T14:55:43Z</time></trkpt><trkpt lat="36.98476327871172" lon="14.986683602658406"><ele>536.0</ele><time>2026-04-11T14:55:46Z</time></trkpt><trkpt lat="36.98472909212623" lon="14.9867664495671"><ele>536.0</ele><time>2026-04-11T14:55:50Z</time></trkpt><trkpt lat="36.98473774992254" lon="14.986847098648592"><ele>536.0</ele><time>2026-04-11T14:56:11.001Z</time></trkpt><trkpt lat="36.98480669717211" lon="14.986887193611924"><ele>536.0</ele><time>2026-04-11T14:56:18.001Z</time></trkpt><trkpt lat="36.98487773470166" lon="14.986873611536575"><ele>535.5</ele><time>2026-04-11T14:56:22.001Z</time></trkpt><trkpt lat="36.984936537514535" lon="14.98692242003799"><ele>535.0</ele><time>2026-04-11T14:56:34.001Z</time></trkpt><trkpt lat="36.984994183739886" lon="14.986973781546636"><ele>534.5</ele><time>2026-04-11T14:56:39.001Z</time></trkpt><trkpt lat="36.985075838456936" lon="14.987017251063783"><ele>534.0</ele><time>2026-04-11T14:56:42.001Z</time></trkpt><trkpt lat="36.98513755901629" lon="14.987089432416315"><ele>533.5</ele><time>2026-04-11T14:56:46.001Z</time></trkpt><trkpt lat="36.98519219342532" lon="14.98715198768393"><ele>533.0</ele><time>2026-04-11T14:56:49.001Z</time></trkpt><trkpt lat="36.98523802218579" lon="14.98722830141265"><ele>533.0</ele><time>2026-04-11T14:56:51.001Z</time></trkpt><trkpt lat="36.985272146453696" lon="14.987298969156422"><ele>533.0</ele><time>2026-04-11T14:56:54.001Z</time></trkpt><trkpt lat="36.98531382994856" lon="14.987393654908857"><ele>533.0</ele><time>2026-04-11T14:56:57.001Z</time></trkpt><trkpt lat="36.98532771915509" lon="14.98747597152728"><ele>533.0</ele><time>2026-04-11T14:56:59.001Z</time></trkpt><trkpt lat="36.98533782369183" lon="14.98757034791892"><ele>533.0</ele><time>2026-04-11T14:57:00.002Z</time></trkpt><trkpt lat="36.98535561853515" lon="14.987655021279013"><ele>533.0</ele><time>2026-04-11T14:57:02.002Z</time></trkpt><trkpt lat="36.98537963141297" lon="14.987737072538897"><ele>533.0</ele><time>2026-04-11T14:57:05Z</time></trkpt><trkpt lat="36.98540633025715" lon="14.987824269558669"><ele>532.8333333333333</ele><time>2026-04-11T14:57:08Z</time></trkpt><trkpt lat="36.98542603845308" lon="14.987929536090252"><ele>532.6666666666666</ele><time>2026-04-11T14:57:10Z</time></trkpt><trkpt lat="36.985450536571655" lon="14.988021089456925"><ele>532.5</ele><time>2026-04-11T14:57:12Z</time></trkpt><trkpt lat="36.98545863381597" lon="14.988115267708396"><ele>532.3333333333334</ele><time>2026-04-11T14:57:14Z</time></trkpt><trkpt lat="36.985445094114134" lon="14.98821242570392"><ele>532.1666666666667</ele><time>2026-04-11T14:57:16Z</time></trkpt><trkpt lat="36.985432955240555" lon="14.988302045356185"><ele>532.0</ele><time>2026-04-11T14:57:18Z</time></trkpt><trkpt lat="36.98542795166343" lon="14.988390324077114"><ele>530.5714285714286</ele><time>2026-04-11T14:57:20Z</time></trkpt><trkpt lat="36.98544413452491" lon="14.98848504441525"><ele>529.1428571428571</ele><time>2026-04-11T14:57:23Z</time></trkpt><trkpt lat="36.98548271975266" lon="14.988568059001473"><ele>527.7142857142858</ele><time>2026-04-11T14:57:26Z</time></trkpt><trkpt lat="36.9854836042765" lon="14.988648097822807"><ele>526.2857142857142</ele><time>2026-04-11T14:57:33Z</time></trkpt><trkpt lat="36.985507427152555" lon="14.988742150854211"><ele>524.8571428571429</ele><time>2026-04-11T14:57:36Z</time></trkpt><trkpt lat="36.985525577179516" lon="14.98881976342061"><ele>523.4285714285714</ele><time>2026-04-11T14:57:39Z</time></trkpt><trkpt lat="36.98554789549524" lon="14.988912663703715"><ele>522.0</ele><time>2026-04-11T14:57:44Z</time></trkpt><trkpt lat="36.98558376533067" lon="14.988992046322695"><ele>522.0</ele><time>2026-04-11T14:57:47Z</time></trkpt><trkpt lat="36.98565078099129" lon="14.98908503545018"><ele>522.0</ele><time>2026-04-11T14:57:50Z</time></trkpt><trkpt lat="36.98569407470272" lon="14.989145359081347"><ele>522.0</ele><time>2026-04-11T14:57:53Z</time></trkpt><trkpt lat="36.98575076934039" lon="14.989185642487724"><ele>522.0</ele><time>2026-04-11T14:57:55.001Z</time></trkpt><trkpt lat="36.98583246716971" lon="14.98920228792532"><ele>522.0</ele><time>2026-04-11T14:57:57.001Z</time></trkpt><trkpt lat="36.985900433987275" lon="14.989212521921843"><ele>522.0</ele><time>2026-04-11T14:58:17.001Z</time></trkpt><trkpt lat="36.9858691539812" lon="14.989373762681852"><ele>521.3333333333334</ele><time>2026-04-11T15:00:45.001Z</time></trkpt><trkpt lat="36.9858287279835" lon="14.98944014584017"><ele>520.6666666666666</ele><time>2026-04-11T15:00:53.001Z</time></trkpt><trkpt lat="36.98587942824381" lon="14.989516334505009"><ele>520.0</ele><time>2026-04-11T15:01:03.001Z</time></trkpt><trkpt lat="36.98594933122143" lon="14.989554150226425"><ele>519.3333333333333</ele><time>2026-04-11T15:01:07.002Z</time></trkpt><trkpt lat="36.98600157532311" lon="14.989607257436978"><ele>518.6666666666666</ele><time>2026-04-11T15:01:10.002Z</time></trkpt><trkpt lat="36.98606969235209" lon="14.989675963834596"><ele>518.0</ele><time>2026-04-11T15:01:14.002Z</time></trkpt><trkpt lat="36.98613133790847" lon="14.989735984025657"><ele>518.0</ele><time>2026-04-11T15:01:18Z</time></trkpt><trkpt lat="36.98622355924284" lon="14.989816916113103"><ele>518.0</ele><time>2026-04-11T15:01:21Z</time></trkpt><trkpt lat="36.986281028940205" lon="14.989889731181824"><ele>518.0</ele><time>2026-04-11T15:01:24Z</time></trkpt><trkpt lat="36.98635735936999" lon="14.989939507886264"><ele>518.0</ele><time>2026-04-11T15:01:26Z</time></trkpt><trkpt lat="36.986427450109524" lon="14.989992980819133"><ele>518.0</ele><time>2026-04-11T15:01:28Z</time></trkpt><trkpt lat="36.98648653498166" lon="14.990036878055074"><ele>518.0</ele><time>2026-04-11T15:01:30Z</time></trkpt><trkpt lat="36.98653649962798" lon="14.990107589992308"><ele>517.8333333333333</ele><time>2026-04-11T15:01:32Z</time></trkpt><trkpt lat="36.986579623671815" lon="14.990169598316745"><ele>517.6666666666666</ele><time>2026-04-11T15:01:34Z</time></trkpt><trkpt lat="36.98665074080811" lon="14.990216494848767"><ele>517.5</ele><time>2026-04-11T15:01:37Z</time></trkpt><trkpt lat="36.98669625314274" lon="14.990278872788286"><ele>517.3333333333334</ele><time>2026-04-11T15:01:39Z</time></trkpt><trkpt lat="36.9867370927502" lon="14.99036574712777"><ele>517.1666666666667</ele><time>2026-04-11T15:01:41Z</time></trkpt><trkpt lat="36.98682418442335" lon="14.990424784824059"><ele>517.0</ele><time>2026-04-11T15:01:44Z</time></trkpt><trkpt lat="36.986905561584564" lon="14.990438875040923"><ele>517.0</ele><time>2026-04-11T15:01:46Z</time></trkpt><trkpt lat="36.9869768701436" lon="14.990469917158926"><ele>517.0</ele><time>2026-04-11T15:01:48Z</time></trkpt><trkpt lat="36.98704304328644" lon="14.990517116957433"><ele>517.0</ele><time>2026-04-11T15:01:50Z</time></trkpt><trkpt lat="36.98709226256713" lon="14.990572161988515"><ele>517.0</ele><time>2026-04-11T15:01:52Z</time></trkpt><trkpt lat="36.98716692541897" lon="14.99059750947015"><ele>517.0</ele><time>2026-04-11T15:01:54Z</time></trkpt><trkpt lat="36.98722914510466" lon="14.99062064544401"><ele>517.0</ele><time>2026-04-11T15:01:56Z</time></trkpt><trkpt lat="36.987292955601355" lon="14.99067048158216"><ele>517.0</ele><time>2026-04-11T15:01:58Z</time></trkpt><trkpt lat="36.98736709989082" lon="14.990723792329044"><ele>517.0</ele><time>2026-04-11T15:02:02.001Z</time></trkpt><trkpt lat="36.98739023768056" lon="14.990817092327847"><ele>517.0</ele><time>2026-04-11T15:02:05.001Z</time></trkpt><trkpt lat="36.98743390402325" lon="14.990889277056604"><ele>517.0</ele><time>2026-04-11T15:02:08.001Z</time></trkpt><trkpt lat="36.9875065355665" lon="14.990957694618421"><ele>517.0</ele><time>2026-04-11T15:02:10.001Z</time></trkpt><trkpt lat="36.98756720278092" lon="14.990981282754731"><ele>517.0</ele><time>2026-04-11T15:02:13.001Z</time></trkpt><trkpt lat="36.98764441420642" lon="14.990998037951663"><ele>517.0</ele><time>2026-04-11T15:02:16.001Z</time></trkpt><trkpt lat="36.98772086770498" lon="14.991019653971403"><ele>514.0</ele><time>2026-04-11T15:02:19.001Z</time></trkpt><trkpt lat="36.987795929073705" lon="14.991069470329768"><ele>511.00000000000006</ele><time>2026-04-11T15:02:22.001Z</time></trkpt><trkpt lat="36.98785281645001" lon="14.991146734706657"><ele>508.0</ele><time>2026-04-11T15:02:24.001Z</time></trkpt><trkpt lat="36.987882893086315" lon="14.991217385534517"><ele>505.0</ele><time>2026-04-11T15:02:27.001Z</time></trkpt><trkpt lat="36.98790830288964" lon="14.991310590532244"><ele>502.00000000000006</ele><time>2026-04-11T15:02:30.001Z</time></trkpt><trkpt lat="36.98792534923058" lon="14.991393253435962"><ele>499.0</ele><time>2026-04-11T15:02:47.001Z</time></trkpt><trkpt lat="36.98793340215707" lon="14.991475640083479"><ele>496.0</ele><time>2026-04-11T15:02:56.001Z</time></trkpt><trkpt lat="36.987925380571966" lon="14.991556771391878"><ele>496.0</ele><time>2026-04-11T15:02:59.001Z</time></trkpt><trkpt lat="36.987935459618086" lon="14.991643775697824"><ele>496.00000000000006</ele><time>2026-04-11T15:03:07.001Z</time></trkpt><trkpt lat="36.98795439727241" lon="14.991723951773428"><ele>496.0</ele><time>2026-04-11T15:03:12.001Z</time></trkpt><trkpt lat="36.98799636816008" lon="14.991806065277292"><ele>496.0</ele><time>2026-04-11T15:03:26Z</time></trkpt><trkpt lat="36.98802797550531" lon="14.99189821601993"><ele>496.00000000000006</ele><time>2026-04-11T15:03:31Z</time></trkpt><trkpt lat="36.988069818217866" lon="14.991974377814573"><ele>496.0</ele><time>2026-04-11T15:03:34Z</time></trkpt><trkpt lat="36.98809731014403" lon="14.99204631065929"><ele>496.0</ele><time>2026-04-11T15:03:51Z</time></trkpt><trkpt lat="36.98804758976365" lon="14.992095300239045"><ele>495.42857142857144</ele><time>2026-04-11T15:03:58Z</time></trkpt><trkpt lat="36.98803819080416" lon="14.992179196848701"><ele>494.8571428571429</ele><time>2026-04-11T15:05:30Z</time></trkpt><trkpt lat="36.987986479850676" lon="14.992239071272548"><ele>494.28571428571433</ele><time>2026-04-11T15:05:41Z</time></trkpt><trkpt lat="36.98795254055198" lon="14.992306512364868"><ele>493.7142857142858</ele><time>2026-04-11T15:05:53Z</time></trkpt><trkpt lat="36.98796370688763" lon="14.99238887843592"><ele>493.14285714285717</ele><time>2026-04-11T15:07:32.001Z</time></trkpt><trkpt lat="36.98802476879944" lon="14.992422076664749"><ele>492.57142857142867</ele><time>2026-04-11T15:07:47.999Z</time></trkpt><trkpt lat="36.98806772570441" lon="14.992492941134453"><ele>492.00000000000006</ele><time>2026-04-11T15:07:58Z</time></trkpt><trkpt lat="36.98810187596574" lon="14.992579959795966"><ele>491.7142857142858</ele><time>2026-04-11T15:08:01Z</time></trkpt><trkpt lat="36.98813456312864" lon="14.99265216480833"><ele>491.42857142857144</ele><time>2026-04-11T15:08:41Z</time></trkpt><trkpt lat="36.98813611921408" lon="14.992754080471464"><ele>491.14285714285717</ele><time>2026-04-11T15:08:55.001Z</time></trkpt><trkpt lat="36.98808023136991" lon="14.99281356228605"><ele>490.8571428571429</ele><time>2026-04-11T15:09:14.001Z</time></trkpt><trkpt lat="36.98803053328324" lon="14.992868385105293"><ele>490.57142857142856</ele><time>2026-04-11T15:09:22.001Z</time></trkpt><trkpt lat="36.98808842953254" lon="14.99280396275974"><ele>490.2857142857143</ele><time>2026-04-11T15:11:39.001Z</time></trkpt><trkpt lat="36.988127745966764" lon="14.992737788445462"><ele>490.0</ele><time>2026-04-11T15:11:45.001Z</time></trkpt><trkpt lat="36.98815415571334" lon="14.992662123261786"><ele>490.0</ele><time>2026-04-11T15:11:50.999Z</time></trkpt><trkpt lat="36.988118238520045" lon="14.992580963200892"><ele>490.0</ele><time>2026-04-11T15:12:35Z</time></trkpt><trkpt lat="36.98808549475891" lon="14.992513046773078"><ele>490.0</ele><time>2026-04-11T15:12:44.001Z</time></trkpt><trkpt lat="36.98804671374819" lon="14.992445132049033"><ele>490.0</ele><time>2026-04-11T15:12:54.001Z</time></trkpt><trkpt lat="36.98800729119979" lon="14.992378944076286"><ele>490.0</ele><time>2026-04-11T15:13:13.001Z</time></trkpt><trkpt lat="36.987980132713936" lon="14.992304509272039"><ele>490.0</ele><time>2026-04-11T15:13:26.002Z</time></trkpt><trkpt lat="36.98803120245999" lon="14.992247487643994"><ele>490.0</ele><time>2026-04-11T15:18:01.002Z</time></trkpt><trkpt lat="36.98806841797551" lon="14.992179034183005"><ele>490.2857142857143</ele><time>2026-04-11T15:18:16.001Z</time></trkpt><trkpt lat="36.98809540278867" lon="14.992096380590777"><ele>490.57142857142856</ele><time>2026-04-11T15:19:46.002Z</time></trkpt><trkpt lat="36.98811156317099" lon="14.992009588659485"><ele>490.8571428571429</ele><time>2026-04-11T15:19:50.002Z</time></trkpt><trkpt lat="36.988062698591854" lon="14.991937863287594"><ele>491.14285714285717</ele><time>2026-04-11T15:21:01.001Z</time></trkpt><trkpt lat="36.98803493091833" lon="14.991864597064612"><ele>491.42857142857144</ele><time>2026-04-11T15:21:03.001Z</time></trkpt><trkpt lat="36.98801175746325" lon="14.991781433584352"><ele>491.7142857142858</ele><time>2026-04-11T15:21:05.001Z</time></trkpt><trkpt lat="36.98796468180653" lon="14.991728741857488"><ele>492.00000000000006</ele><time>2026-04-11T15:21:07.001Z</time></trkpt><trkpt lat="36.9879454088307" lon="14.99162665101156"><ele>492.6666666666667</ele><time>2026-04-11T15:21:20.001Z</time></trkpt><trkpt lat="36.98793482829556" lon="14.99152997361983"><ele>493.33333333333337</ele><time>2026-04-11T15:21:23.001Z</time></trkpt><trkpt lat="36.98794981677449" lon="14.991445208909935"><ele>494.0</ele><time>2026-04-11T15:21:28.001Z</time></trkpt><trkpt lat="36.98794030121755" lon="14.991340494420657"><ele>494.6666666666667</ele><time>2026-04-11T15:21:43.001Z</time></trkpt><trkpt lat="36.98791394105395" lon="14.991233501389802"><ele>495.33333333333337</ele><time>2026-04-11T15:21:46.001Z</time></trkpt><trkpt lat="36.98788162182091" lon="14.99116170443454"><ele>496.0</ele><time>2026-04-11T15:21:54.001Z</time></trkpt><trkpt lat="36.98782953392645" lon="14.991079961364589"><ele>496.00000000000006</ele><time>2026-04-11T15:21:57.001Z</time></trkpt><trkpt lat="36.98772736214214" lon="14.991014563423159"><ele>496.0</ele><time>2026-04-11T15:22:00.001Z</time></trkpt><trkpt lat="36.98766243362603" lon="14.991015049841915"><ele>496.0</ele><time>2026-04-11T15:22:02.002Z</time></trkpt><trkpt lat="36.987591115012435" lon="14.991006156654562"><ele>496.0</ele><time>2026-04-11T15:22:04.002Z</time></trkpt><trkpt lat="36.987531189406056" lon="14.990980014818758"><ele>496.00000000000006</ele><time>2026-04-11T15:22:06.002Z</time></trkpt><trkpt lat="36.987459075365344" lon="14.99091709699541"><ele>496.0</ele><time>2026-04-11T15:22:09.002Z</time></trkpt><trkpt lat="36.98741003217567" lon="14.990857292735866"><ele>499.50000000000006</ele><time>2026-04-11T15:22:11.002Z</time></trkpt><trkpt lat="36.98739359092342" lon="14.99077419985945"><ele>503.0</ele><time>2026-04-11T15:22:13.002Z</time></trkpt><trkpt lat="36.98735616745312" lon="14.990677876947881"><ele>506.5</ele><time>2026-04-11T15:22:16.002Z</time></trkpt><trkpt lat="36.987285780412996" lon="14.990662628648874"><ele>510.0</ele><time>2026-04-11T15:22:18.001Z</time></trkpt><trkpt lat="36.98721687183135" lon="14.990621259679942"><ele>513.5</ele><time>2026-04-11T15:22:20.001Z</time></trkpt><trkpt lat="36.98713985621632" lon="14.990587951508292"><ele>517.0</ele><time>2026-04-11T15:22:22.001Z</time></trkpt><trkpt lat="36.98704966363042" lon="14.990543308297573"><ele>517.0</ele><time>2026-04-11T15:22:24.001Z</time></trkpt><trkpt lat="36.986992487780604" lon="14.990478740740954"><ele>517.0</ele><time>2026-04-11T15:22:26.001Z</time></trkpt><trkpt lat="36.98691259050516" lon="14.990443708939617"><ele>517.0</ele><time>2026-04-11T15:22:28.001Z</time></trkpt><trkpt lat="36.9868360746364" lon="14.990425532832871"><ele>517.0</ele><time>2026-04-11T15:22:31.001Z</time></trkpt><trkpt lat="36.986768526174934" lon="14.990390315943333"><ele>517.0</ele><time>2026-04-11T15:22:34.001Z</time></trkpt><trkpt lat="36.98670813739351" lon="14.990284772618892"><ele>517.0</ele><time>2026-04-11T15:22:37.001Z</time></trkpt><trkpt lat="36.986644528873704" lon="14.990209500143495"><ele>517.1666666666667</ele><time>2026-04-11T15:22:40.001Z</time></trkpt><trkpt lat="36.98658479843762" lon="14.9901595431947"><ele>517.3333333333334</ele><time>2026-04-11T15:22:43.001Z</time></trkpt><trkpt lat="36.986531322082016" lon="14.99008330088506"><ele>517.5</ele><time>2026-04-11T15:22:46.001Z</time></trkpt><trkpt lat="36.98647848989128" lon="14.990021658936584"><ele>517.6666666666666</ele><time>2026-04-11T15:22:48.001Z</time></trkpt><trkpt lat="36.98638204965516" lon="14.989951739549383"><ele>517.8333333333333</ele><time>2026-04-11T15:22:50.001Z</time></trkpt><trkpt lat="36.98629596524839" lon="14.989895015609699"><ele>518.0</ele><time>2026-04-11T15:22:52.001Z</time></trkpt><trkpt lat="36.98622470774716" lon="14.989807318075973"><ele>518.0</ele><time>2026-04-11T15:22:54.001Z</time></trkpt><trkpt lat="36.98615517934503" lon="14.989738194903952"><ele>518.0</ele><time>2026-04-11T15:22:56.001Z</time></trkpt><trkpt lat="36.98608152111562" lon="14.989694720998692"><ele>518.0</ele><time>2026-04-11T15:22:58.001Z</time></trkpt><trkpt lat="36.986025536434866" lon="14.989613134337011"><ele>518.0</ele><time>2026-04-11T15:23:01.001Z</time></trkpt><trkpt lat="36.9859569769818" lon="14.989556533113596"><ele>518.0</ele><time>2026-04-11T15:23:04.001Z</time></trkpt><trkpt lat="36.98589745694587" lon="14.989507128327796"><ele>518.0</ele><time>2026-04-11T15:23:06.001Z</time></trkpt><trkpt lat="36.98583044910137" lon="14.989464104040637"><ele>518.0</ele><time>2026-04-11T15:23:09.001Z</time></trkpt><trkpt lat="36.98587378203213" lon="14.989384276646083"><ele>518.0</ele><time>2026-04-11T15:23:26.001Z</time></trkpt><trkpt lat="36.98591202463797" lon="14.989308100325164"><ele>518.0</ele><time>2026-04-11T15:23:37.001Z</time></trkpt><trkpt lat="36.985931406541525" lon="14.989229122001346"><ele>518.0</ele><time>2026-04-11T15:23:55.001Z</time></trkpt><trkpt lat="36.98585287724948" lon="14.989212861184381"><ele>518.0</ele><time>2026-04-11T15:24:00.001Z</time></trkpt><trkpt lat="36.98576400162418" lon="14.989202190335648"><ele>518.0</ele><time>2026-04-11T15:27:36Z</time></trkpt><trkpt lat="36.98569925212565" lon="14.98913795890735"><ele>518.6666666666666</ele><time>2026-04-11T15:27:39Z</time></trkpt><trkpt lat="36.985624903636975" lon="14.989045933083117"><ele>519.3333333333333</ele><time>2026-04-11T15:27:43.001Z</time></trkpt><trkpt lat="36.98559389362717" lon="14.988970980797415"><ele>520.0</ele><time>2026-04-11T15:27:45.001Z</time></trkpt><trkpt lat="36.98557487200434" lon="14.98888090075303"><ele>520.6666666666666</ele><time>2026-04-11T15:27:47.001Z</time></trkpt><trkpt lat="36.98555317226931" lon="14.988786180451077"><ele>521.3333333333334</ele><time>2026-04-11T15:27:50.001Z</time></trkpt><trkpt lat="36.98551401077493" lon="14.988707375557007"><ele>522.0</ele><time>2026-04-11T15:27:58.001Z</time></trkpt><trkpt lat="36.985504003844646" lon="14.988619735753275"><ele>522.0</ele><time>2026-04-11T15:28:04.001Z</time></trkpt><trkpt lat="36.98548312294879" lon="14.988541600273848"><ele>522.0</ele><time>2026-04-11T15:28:08.001Z</time></trkpt><trkpt lat="36.985459880649046" lon="14.988455568441172"><ele>522.0</ele><time>2026-04-11T15:28:11.001Z</time></trkpt><trkpt lat="36.98545315053557" lon="14.988353381235578"><ele>522.0</ele><time>2026-04-11T15:28:14.001Z</time></trkpt><trkpt lat="36.98546079133998" lon="14.988275123994587"><ele>522.0</ele><time>2026-04-11T15:28:16.001Z</time></trkpt><trkpt lat="36.98546819534189" lon="14.988190443099983"><ele>522.0</ele><time>2026-04-11T15:28:17.001Z</time></trkpt><trkpt lat="36.98547842995923" lon="14.988094325487074"><ele>522.0</ele><time>2026-04-11T15:28:19.001Z</time></trkpt><trkpt lat="36.98547811780177" lon="14.987987738663293"><ele>523.4285714285714</ele><time>2026-04-11T15:28:22.001Z</time></trkpt><trkpt lat="36.98544118811683" lon="14.987905927154317"><ele>524.8571428571429</ele><time>2026-04-11T15:28:25.001Z</time></trkpt><trkpt lat="36.985426254046814" lon="14.987819478045067"><ele>526.2857142857142</ele><time>2026-04-11T15:28:28.001Z</time></trkpt><trkpt lat="36.98540461056466" lon="14.98773480815383"><ele>527.7142857142858</ele><time>2026-04-11T15:28:30.001Z</time></trkpt><trkpt lat="36.98537645670537" lon="14.987650971764255"><ele>529.1428571428571</ele><time>2026-04-11T15:28:32.001Z</time></trkpt><trkpt lat="36.98536065508416" lon="14.987552269903611"><ele>530.5714285714286</ele><time>2026-04-11T15:28:34.001Z</time></trkpt><trkpt lat="36.98535211823756" lon="14.987453732839732"><ele>532.0</ele><time>2026-04-11T15:28:36Z</time></trkpt><trkpt lat="36.98533041223967" lon="14.987373560838163"><ele>532.1428571428571</ele><time>2026-04-11T15:28:38Z</time></trkpt><trkpt lat="36.98529543453303" lon="14.98730495354176"><ele>532.2857142857142</ele><time>2026-04-11T15:28:40Z</time></trkpt><trkpt lat="36.985251607240336" lon="14.987219403947794"><ele>532.4285714285714</ele><time>2026-04-11T15:28:43Z</time></trkpt><trkpt lat="36.98521032455808" lon="14.987154376108851"><ele>532.5714285714286</ele><time>2026-04-11T15:28:45Z</time></trkpt><trkpt lat="36.985154092518385" lon="14.987089954632841"><ele>532.7142857142857</ele><time>2026-04-11T15:28:47Z</time></trkpt><trkpt lat="36.98509939513941" lon="14.9870375971433"><ele>532.8571428571429</ele><time>2026-04-11T15:28:49Z</time></trkpt><trkpt lat="36.98504126940358" lon="14.986990786013312"><ele>533.0</ele><time>2026-04-11T15:28:52Z</time></trkpt><trkpt lat="36.98496557349633" lon="14.986957738361017"><ele>533.4285714285714</ele><time>2026-04-11T15:28:55Z</time></trkpt><trkpt lat="36.98492023122891" lon="14.986884906379098"><ele>533.8571428571428</ele><time>2026-04-11T15:28:59Z</time></trkpt><trkpt lat="36.984842321352396" lon="14.986887040101326"><ele>534.2857142857142</ele><time>2026-04-11T15:29:06Z</time></trkpt><trkpt lat="36.98477185954685" lon="14.986874972376857"><ele>534.7142857142857</ele><time>2026-04-11T15:29:17Z</time></trkpt><trkpt lat="36.98474673095434" lon="14.986787622726073"><ele>535.1428571428571</ele><time>2026-04-11T15:29:21Z</time></trkpt><trkpt lat="36.984760171359405" lon="14.986705384496743"><ele>535.5714285714286</ele><time>2026-04-11T15:29:24Z</time></trkpt><trkpt lat="36.98480385632545" lon="14.986631552758599"><ele>536.0</ele><time>2026-04-11T15:31:36Z</time></trkpt><trkpt lat="36.98482603434409" lon="14.98654454056356"><ele>536.0</ele><time>2026-04-11T15:31:39Z</time></trkpt><trkpt lat="36.98486556308735" lon="14.986439165896282"><ele>536.0</ele><time>2026-04-11T15:31:42Z</time></trkpt><trkpt lat="36.98489977305933" lon="14.986333131103475"><ele>536.0</ele><time>2026-04-11T15:31:45Z</time></trkpt><trkpt lat="36.984956126960164" lon="14.986202411299534"><ele>536.0</ele><time>2026-04-11T15:31:47Z</time></trkpt><trkpt lat="36.98500770197372" lon="14.986071646058974"><ele>536.0</ele><time>2026-04-11T15:31:49Z</time></trkpt><trkpt lat="36.9850354676139" lon="14.985978866551266"><ele>535.2</ele><time>2026-04-11T15:31:50Z</time></trkpt><trkpt lat="36.98507415224001" lon="14.985836388457667"><ele>534.4000000000001</ele><time>2026-04-11T15:31:51Z</time></trkpt><trkpt lat="36.98511815172185" lon="14.985682679331843"><ele>533.6</ele><time>2026-04-11T15:31:52Z</time></trkpt><trkpt lat="36.9851498318045" lon="14.985561394009348"><ele>532.8000000000001</ele><time>2026-04-11T15:31:53Z</time></trkpt><trkpt lat="36.98518304885976" lon="14.985453568082413"><ele>532.0</ele><time>2026-04-11T15:31:54Z</time></trkpt><trkpt lat="36.98521469808702" lon="14.985344182148346"><ele>532.0</ele><time>2026-04-11T15:31:55Z</time></trkpt><trkpt lat="36.985252136307345" lon="14.985238617531621"><ele>532.0</ele><time>2026-04-11T15:31:56Z</time></trkpt><trkpt lat="36.98529629855195" lon="14.985133547661798"><ele>532.0</ele><time>2026-04-11T15:31:57Z</time></trkpt><trkpt lat="36.985313889038494" lon="14.985021218305397"><ele>532.0</ele><time>2026-04-11T15:31:58Z</time></trkpt><trkpt lat="36.985346932374725" lon="14.984916164329107"><ele>532.0</ele><time>2026-04-11T15:31:59Z</time></trkpt><trkpt lat="36.98539186430814" lon="14.984816388049506"><ele>532.5</ele><time>2026-04-11T15:32:00Z</time></trkpt><trkpt lat="36.9854225760012" lon="14.984719030686861"><ele>533.0</ele><time>2026-04-11T15:32:01Z</time></trkpt><trkpt lat="36.98545704039187" lon="14.984615114885278"><ele>533.5</ele><time>2026-04-11T15:32:02Z</time></trkpt><trkpt lat="36.98548584279643" lon="14.98450840841904"><ele>534.0</ele><time>2026-04-11T15:32:03Z</time></trkpt><trkpt lat="36.985518475051514" lon="14.984407263746482"><ele>534.5</ele><time>2026-04-11T15:32:04Z</time></trkpt><trkpt lat="36.985549680953525" lon="14.98431042848558"><ele>535.0</ele><time>2026-04-11T15:32:05.001Z</time></trkpt><trkpt lat="36.98557133325434" lon="14.984226426197575"><ele>535.6</ele><time>2026-04-11T15:32:06.001Z</time></trkpt><trkpt lat="36.98560233663069" lon="14.984131733186363"><ele>536.2</ele><time>2026-04-11T15:32:07.001Z</time></trkpt><trkpt lat="36.985632111357" lon="14.984009555702544"><ele>536.8</ele><time>2026-04-11T15:32:08.001Z</time></trkpt><trkpt lat="36.98567221716746" lon="14.98387002996164"><ele>537.4</ele><time>2026-04-11T15:32:09.001Z</time></trkpt><trkpt lat="36.9857144650798" lon="14.983708858386496"><ele>538.0</ele><time>2026-04-11T15:32:10.001Z</time></trkpt><trkpt lat="36.98574509498581" lon="14.983575280023544"><ele>538.0</ele><time>2026-04-11T15:32:11.001Z</time></trkpt><trkpt lat="36.98577919870045" lon="14.983468355496342"><ele>538.0</ele><time>2026-04-11T15:32:12.001Z</time></trkpt><trkpt lat="36.98581758981592" lon="14.983352907382802"><ele>538.0</ele><time>2026-04-11T15:32:13.001Z</time></trkpt><trkpt lat="36.985870699479676" lon="14.983220133113347"><ele>538.0</ele><time>2026-04-11T15:32:14.001Z</time></trkpt><trkpt lat="36.985930634781695" lon="14.983071632312981"><ele>538.0</ele><time>2026-04-11T15:32:15.001Z</time></trkpt><trkpt lat="36.985979386473986" lon="14.98296212728861"><ele>537.1666666666667</ele><time>2026-04-11T15:32:16.001Z</time></trkpt><trkpt lat="36.986014461450054" lon="14.982866264180284"><ele>536.3333333333334</ele><time>2026-04-11T15:32:17.001Z</time></trkpt><trkpt lat="36.98606495568984" lon="14.982748680843072"><ele>535.5</ele><time>2026-04-11T15:32:19.001Z</time></trkpt><trkpt lat="36.98616395412946" lon="14.98267637844527"><ele>534.6666666666666</ele><time>2026-04-11T15:32:21.001Z</time></trkpt><trkpt lat="36.98621310400281" lon="14.982613220545407"><ele>533.8333333333333</ele><time>2026-04-11T15:32:22.001Z</time></trkpt><trkpt lat="36.98626963272561" lon="14.982554938054875"><ele>533.0</ele><time>2026-04-11T15:32:23.001Z</time></trkpt><trkpt lat="36.9863113064218" lon="14.98244598835257"><ele>533.0</ele><time>2026-04-11T15:32:24.001Z</time></trkpt><trkpt lat="36.986318447785955" lon="14.98232391595834"><ele>533.0</ele><time>2026-04-11T15:32:25.001Z</time></trkpt><trkpt lat="36.98631514716399" lon="14.982214411237841"><ele>533.0</ele><time>2026-04-11T15:32:26.001Z</time></trkpt><trkpt lat="36.98628254117761" lon="14.98208345138278"><ele>533.0</ele><time>2026-04-11T15:32:27.001Z</time></trkpt><trkpt lat="36.986276078392116" lon="14.981967560300003"><ele>533.0</ele><time>2026-04-11T15:32:28.001Z</time></trkpt><trkpt lat="36.986261983802486" lon="14.981870662094003"><ele>533.0</ele><time>2026-04-11T15:32:29.001Z</time></trkpt><trkpt lat="36.986279992693234" lon="14.981760669064148"><ele>533.0</ele><time>2026-04-11T15:32:30.001Z</time></trkpt><trkpt lat="36.986322835225835" lon="14.981638483668961"><ele>533.0</ele><time>2026-04-11T15:32:31.001Z</time></trkpt><trkpt lat="36.98634715057659" lon="14.981523431654688"><ele>533.0</ele><time>2026-04-11T15:32:32.001Z</time></trkpt><trkpt lat="36.98637810827995" lon="14.981413443983836"><ele>533.0</ele><time>2026-04-11T15:32:33.001Z</time></trkpt><trkpt lat="36.98638238503781" lon="14.981264643204335"><ele>533.25</ele><time>2026-04-11T15:32:34.001Z</time></trkpt><trkpt lat="36.98638994401854" lon="14.981113871527377"><ele>533.5</ele><time>2026-04-11T15:32:35.001Z</time></trkpt><trkpt lat="36.98639146808235" lon="14.980969203485628"><ele>533.75</ele><time>2026-04-11T15:32:36.001Z</time></trkpt><trkpt lat="36.98638384172475" lon="14.980852103322514"><ele>534.0</ele><time>2026-04-11T15:32:37.001Z</time></trkpt><trkpt lat="36.98644703074328" lon="14.980716649775722"><ele>534.0</ele><time>2026-04-11T15:32:39.001Z</time></trkpt><trkpt lat="36.986522665106904" lon="14.980626713852843"><ele>534.0</ele><time>2026-04-11T15:32:40.001Z</time></trkpt><trkpt lat="36.986620082245516" lon="14.980522607031695"><ele>534.0</ele><time>2026-04-11T15:32:41.001Z</time></trkpt><trkpt lat="36.986739389509005" lon="14.980410147002852"><ele>534.0</ele><time>2026-04-11T15:32:42.001Z</time></trkpt><trkpt lat="36.9868670949001" lon="14.980278546251528"><ele>534.4</ele><time>2026-04-11T15:32:43.001Z</time></trkpt><trkpt lat="36.98697673265918" lon="14.980189020880077"><ele>534.8</ele><time>2026-04-11T15:32:44.001Z</time></trkpt><trkpt lat="36.98705927031329" lon="14.980109994142715"><ele>535.2</ele><time>2026-04-11T15:32:45.001Z</time></trkpt><trkpt lat="36.98712330933909" lon="14.980026705727576"><ele>535.6</ele><time>2026-04-11T15:32:46.001Z</time></trkpt><trkpt lat="36.98716083549121" lon="14.979937337983554"><ele>536.0</ele><time>2026-04-11T15:32:47Z</time></trkpt><trkpt lat="36.987160469433405" lon="14.979820866467891"><ele>536.0</ele><time>2026-04-11T15:32:48Z</time></trkpt><trkpt lat="36.98721079395168" lon="14.979679850520995"><ele>536.0</ele><time>2026-04-11T15:32:49Z</time></trkpt><trkpt lat="36.98726059070737" lon="14.979525572112573"><ele>536.0</ele><time>2026-04-11T15:32:50Z</time></trkpt><trkpt lat="36.98730598721516" lon="14.979341527282907"><ele>536.0</ele><time>2026-04-11T15:32:51Z</time></trkpt><trkpt lat="36.987342943913184" lon="14.979182713570493"><ele>536.5</ele><time>2026-04-11T15:32:52Z</time></trkpt><trkpt lat="36.98738146675901" lon="14.979038613935963"><ele>537.0</ele><time>2026-04-11T15:32:53Z</time></trkpt><trkpt lat="36.98741773210463" lon="14.978866603828168"><ele>537.5</ele><time>2026-04-11T15:32:54Z</time></trkpt><trkpt lat="36.98744932921989" lon="14.978680756278592"><ele>538.0</ele><time>2026-04-11T15:32:55Z</time></trkpt><trkpt lat="36.987474511176664" lon="14.978504975474614"><ele>538.75</ele><time>2026-04-11T15:32:56Z</time></trkpt><trkpt lat="36.98749938727591" lon="14.97833923858709"><ele>539.5</ele><time>2026-04-11T15:32:57Z</time></trkpt><trkpt lat="36.9875143868921" lon="14.97817826023697"><ele>540.25</ele><time>2026-04-11T15:32:58Z</time></trkpt><trkpt lat="36.98752749397907" lon="14.978045936953123"><ele>541.0</ele><time>2026-04-11T15:32:59Z</time></trkpt><trkpt lat="36.98754539917389" lon="14.97792681260007"><ele>541.0</ele><time>2026-04-11T15:33:00Z</time></trkpt><trkpt lat="36.98757673433968" lon="14.977824936524964"><ele>541.0</ele><time>2026-04-11T15:33:01Z</time></trkpt><trkpt lat="36.98761584626507" lon="14.977731291135827"><ele>541.0</ele><time>2026-04-11T15:33:03Z</time></trkpt><trkpt lat="36.987551963072995" lon="14.977681596700764"><ele>541.0</ele><time>2026-04-11T15:33:05Z</time></trkpt><trkpt lat="36.987486694343986" lon="14.977660656174267"><ele>541.0</ele><time>2026-04-11T15:33:06Z</time></trkpt><trkpt lat="36.98739071109702" lon="14.97761960473423"><ele>541.0</ele><time>2026-04-11T15:33:07Z</time></trkpt><trkpt lat="36.987288003260495" lon="14.977563429914309"><ele>541.0</ele><time>2026-04-11T15:33:08Z</time></trkpt><trkpt lat="36.98719747181283" lon="14.977515397566535"><ele>541.0</ele><time>2026-04-11T15:33:09Z</time></trkpt><trkpt lat="36.98712012670566" lon="14.97748212295834"><ele>541.0</ele><time>2026-04-11T15:33:10Z</time></trkpt><trkpt lat="36.987038501366385" lon="14.977440893245031"><ele>541.0</ele><time>2026-04-11T15:33:11Z</time></trkpt><trkpt lat="36.98693656222144" lon="14.977486888234719"><ele>541.0</ele><time>2026-04-11T15:33:12Z</time></trkpt><trkpt lat="36.986831918921744" lon="14.977541489658993"><ele>541.0</ele><time>2026-04-11T15:33:13Z</time></trkpt><trkpt lat="36.98672622664239" lon="14.977599559295351"><ele>541.0</ele><time>2026-04-11T15:33:14Z</time></trkpt><trkpt lat="36.9866351398643" lon="14.97764620829671"><ele>541.0</ele><time>2026-04-11T15:33:15Z</time></trkpt><trkpt lat="36.98653988844694" lon="14.97769281062969"><ele>541.0</ele><time>2026-04-11T15:33:16Z</time></trkpt><trkpt lat="36.98644876948844" lon="14.977734707475934"><ele>541.0</ele><time>2026-04-11T15:33:17Z</time></trkpt><trkpt lat="36.98636132421791" lon="14.977769235003661"><ele>542.4</ele><time>2026-04-11T15:33:18Z</time></trkpt><trkpt lat="36.9862847955341" lon="14.977781947732979"><ele>543.8</ele><time>2026-04-11T15:33:19Z</time></trkpt><trkpt lat="36.98620438423529" lon="14.977792615934685"><ele>545.1999999999999</ele><time>2026-04-11T15:33:20Z</time></trkpt><trkpt lat="36.986098935107485" lon="14.977802119759641"><ele>546.6</ele><time>2026-04-11T15:33:21Z</time></trkpt><trkpt lat="36.98597827439781" lon="14.97781106001411"><ele>548.0</ele><time>2026-04-11T15:33:22Z</time></trkpt><trkpt lat="36.98586972121043" lon="14.977816678237073"><ele>548.4</ele><time>2026-04-11T15:33:23Z</time></trkpt><trkpt lat="36.98576599527387" lon="14.977815621247249"><ele>548.8</ele><time>2026-04-11T15:33:24Z</time></trkpt><trkpt lat="36.9856601435289" lon="14.977807641112992"><ele>549.2</ele><time>2026-04-11T15:33:25Z</time></trkpt><trkpt lat="36.98555471646288" lon="14.977794050138115"><ele>549.6</ele><time>2026-04-11T15:33:26Z</time></trkpt><trkpt lat="36.985443028554926" lon="14.977778306830054"><ele>550.0</ele><time>2026-04-11T15:33:27Z</time></trkpt><trkpt lat="36.985339317153134" lon="14.977763687829553"><ele>550.0</ele><time>2026-04-11T15:33:28Z</time></trkpt><trkpt lat="36.985240367740126" lon="14.977752153411542"><ele>550.0</ele><time>2026-04-11T15:33:29Z</time></trkpt><trkpt lat="36.98513729152367" lon="14.977741246224735"><ele>550.0</ele><time>2026-04-11T15:33:30Z</time></trkpt><trkpt lat="36.98502834957535" lon="14.977729718359825"><ele>550.0</ele><time>2026-04-11T15:33:31Z</time></trkpt><trkpt lat="36.98492538434818" lon="14.977714250100561"><ele>550.0</ele><time>2026-04-11T15:33:32Z</time></trkpt><trkpt lat="36.98482769977755" lon="14.9776917503794"><ele>548.25</ele><time>2026-04-11T15:33:33Z</time></trkpt><trkpt lat="36.9847192536769" lon="14.97766055107547"><ele>546.5</ele><time>2026-04-11T15:33:34Z</time></trkpt><trkpt lat="36.98460040159442" lon="14.97762368298385"><ele>544.75</ele><time>2026-04-11T15:33:35Z</time></trkpt><trkpt lat="36.984479050662664" lon="14.977591935539074"><ele>543.0</ele><time>2026-04-11T15:33:36Z</time></trkpt><trkpt lat="36.98435950645939" lon="14.97756066081324"><ele>543.0</ele><time>2026-04-11T15:33:37Z</time></trkpt><trkpt lat="36.984239319780364" lon="14.977552016816361"><ele>543.0</ele><time>2026-04-11T15:33:38Z</time></trkpt><trkpt lat="36.98414173163824" lon="14.97752786593131"><ele>543.0</ele><time>2026-04-11T15:33:39Z</time></trkpt><trkpt lat="36.984056790928136" lon="14.977502546944812"><ele>543.0</ele><time>2026-04-11T15:33:40Z</time></trkpt><trkpt lat="36.983981832087494" lon="14.977482180749405"><ele>543.0</ele><time>2026-04-11T15:33:41Z</time></trkpt><trkpt lat="36.983913855544756" lon="14.977443853664957"><ele>543.6666666666666</ele><time>2026-04-11T15:33:42Z</time></trkpt><trkpt lat="36.983844506350465" lon="14.977436402374652"><ele>544.3333333333334</ele><time>2026-04-11T15:33:43Z</time></trkpt><trkpt lat="36.98377845001728" lon="14.977431878231082"><ele>545.0</ele><time>2026-04-11T15:33:44Z</time></trkpt><trkpt lat="36.983708661798026" lon="14.977427929810142"><ele>545.6666666666667</ele><time>2026-04-11T15:33:45Z</time></trkpt><trkpt lat="36.983617554503965" lon="14.977429026769565"><ele>546.3333333333334</ele><time>2026-04-11T15:33:46Z</time></trkpt><trkpt lat="36.983500006573486" lon="14.977439615078067"><ele>547.0</ele><time>2026-04-11T15:33:47Z</time></trkpt><trkpt lat="36.983348302609805" lon="14.977474204518513"><ele>548.0</ele><time>2026-04-11T15:33:48Z</time></trkpt><trkpt lat="36.9832032393917" lon="14.977498115521668"><ele>549.0</ele><time>2026-04-11T15:33:49Z</time></trkpt><trkpt lat="36.983075358785385" lon="14.977509963668835"><ele>550.0</ele><time>2026-04-11T15:33:50Z</time></trkpt><trkpt lat="36.98297107247697" lon="14.977511665370523"><ele>551.0</ele><time>2026-04-11T15:33:51Z</time></trkpt><trkpt lat="36.98288198203869" lon="14.977505200645576"><ele>551.0</ele><time>2026-04-11T15:33:52Z</time></trkpt><trkpt lat="36.982782999260046" lon="14.97748441563815"><ele>551.0</ele><time>2026-04-11T15:33:53Z</time></trkpt><trkpt lat="36.982682298491476" lon="14.977449380070807"><ele>551.0</ele><time>2026-04-11T15:33:54Z</time></trkpt><trkpt lat="36.98259451627026" lon="14.977416920281353"><ele>551.0</ele><time>2026-04-11T15:33:55Z</time></trkpt><trkpt lat="36.98250794058706" lon="14.977380188731345"><ele>551.0</ele><time>2026-04-11T15:33:56Z</time></trkpt><trkpt lat="36.98241963633706" lon="14.977342497364514"><ele>552.6</ele><time>2026-04-11T15:33:57Z</time></trkpt><trkpt lat="36.98232463929747" lon="14.977300420452382"><ele>554.2</ele><time>2026-04-11T15:33:58Z</time></trkpt><trkpt lat="36.982220914795725" lon="14.97727244478677"><ele>555.8</ele><time>2026-04-11T15:33:59.001Z</time></trkpt><trkpt lat="36.9821381937117" lon="14.977207296335553"><ele>557.4</ele><time>2026-04-11T15:34:00.001Z</time></trkpt><trkpt lat="36.98204595223138" lon="14.977151913327535"><ele>559.0</ele><time>2026-04-11T15:34:01.001Z</time></trkpt><trkpt lat="36.98196033243609" lon="14.977092860955645"><ele>559.0</ele><time>2026-04-11T15:34:02.001Z</time></trkpt><trkpt lat="36.98187565313187" lon="14.977038887989394"><ele>559.0</ele><time>2026-04-11T15:34:03.001Z</time></trkpt><trkpt lat="36.98179909841587" lon="14.976966290082768"><ele>559.0</ele><time>2026-04-11T15:34:04.001Z</time></trkpt><trkpt lat="36.98173405601529" lon="14.976909336995629"><ele>559.0</ele><time>2026-04-11T15:34:05.001Z</time></trkpt><trkpt lat="36.98167128617726" lon="14.976846590301287"><ele>559.0</ele><time>2026-04-11T15:34:06.001Z</time></trkpt><trkpt lat="36.98162330700462" lon="14.976783942794572"><ele>559.0</ele><time>2026-04-11T15:34:07.001Z</time></trkpt><trkpt lat="36.9815841221617" lon="14.97671388667831"><ele>560.6666666666667</ele><time>2026-04-11T15:34:08.001Z</time></trkpt><trkpt lat="36.98154384274549" lon="14.976636689597052"><ele>562.3333333333334</ele><time>2026-04-11T15:34:09.001Z</time></trkpt><trkpt lat="36.9815015186123" lon="14.97655082978057"><ele>564.0</ele><time>2026-04-11T15:34:10.001Z</time></trkpt><trkpt lat="36.98145864226155" lon="14.976455187975358"><ele>565.6666666666666</ele><time>2026-04-11T15:34:11.001Z</time></trkpt><trkpt lat="36.98142006593634" lon="14.976342802220893"><ele>567.3333333333333</ele><time>2026-04-11T15:34:12.001Z</time></trkpt><trkpt lat="36.981387725439824" lon="14.976218727812737"><ele>569.0</ele><time>2026-04-11T15:34:13.001Z</time></trkpt><trkpt lat="36.98136370826089" lon="14.976105360309226"><ele>569.0</ele><time>2026-04-11T15:34:14.001Z</time></trkpt><trkpt lat="36.98134220435926" lon="14.976013564234488"><ele>569.0</ele><time>2026-04-11T15:34:15.001Z</time></trkpt><trkpt lat="36.98130322708666" lon="14.975919540716124"><ele>569.0</ele><time>2026-04-11T15:34:16.001Z</time></trkpt><trkpt lat="36.98124484995154" lon="14.975829123234538"><ele>569.0</ele><time>2026-04-11T15:34:17.001Z</time></trkpt><trkpt lat="36.98118429564485" lon="14.975739585233413"><ele>569.0</ele><time>2026-04-11T15:34:18.001Z</time></trkpt><trkpt lat="36.981131139113046" lon="14.975669141350433"><ele>569.0</ele><time>2026-04-11T15:34:19.001Z</time></trkpt><trkpt lat="36.98106499435291" lon="14.975567829058164"><ele>570.0</ele><time>2026-04-11T15:34:21.001Z</time></trkpt><trkpt lat="36.98095679447899" lon="14.97548734839177"><ele>571.0</ele><time>2026-04-11T15:34:23.001Z</time></trkpt><trkpt lat="36.980895843383486" lon="14.975449472403364"><ele>572.0</ele><time>2026-04-11T15:34:24.001Z</time></trkpt><trkpt lat="36.98078979206257" lon="14.975392523269793"><ele>573.0</ele><time>2026-04-11T15:34:26.001Z</time></trkpt><trkpt lat="36.98066854914819" lon="14.975416497989368"><ele>574.0</ele><time>2026-04-11T15:34:28.001Z</time></trkpt><trkpt lat="36.98060097618137" lon="14.975449361439658"><ele>574.0</ele><time>2026-04-11T15:34:29.001Z</time></trkpt><trkpt lat="36.98049888255124" lon="14.975511036915083"><ele>574.0</ele><time>2026-04-11T15:34:31.001Z</time></trkpt><trkpt lat="36.98040054027648" lon="14.975554835230096"><ele>574.0</ele><time>2026-04-11T15:34:33.001Z</time></trkpt><trkpt lat="36.98028897458899" lon="14.97556248958749"><ele>574.0</ele><time>2026-04-11T15:34:35.001Z</time></trkpt><trkpt lat="36.98021336268163" lon="14.975551747071373"><ele>574.0</ele><time>2026-04-11T15:34:36.001Z</time></trkpt><trkpt lat="36.98010856500932" lon="14.975506093345127"><ele>574.1666666666667</ele><time>2026-04-11T15:34:38.001Z</time></trkpt><trkpt lat="36.98000484819668" lon="14.975448515450866"><ele>574.3333333333334</ele><time>2026-04-11T15:34:40.001Z</time></trkpt><trkpt lat="36.97993997819523" lon="14.975424436842994"><ele>574.5</ele><time>2026-04-11T15:34:42.001Z</time></trkpt><trkpt lat="36.979899667454944" lon="14.975338184460872"><ele>574.6666666666666</ele><time>2026-04-11T15:34:45.001Z</time></trkpt><trkpt lat="36.979869311772276" lon="14.975244839115149"><ele>574.8333333333333</ele><time>2026-04-11T15:34:49.001Z</time></trkpt><trkpt lat="36.979823923311045" lon="14.975152271259178"><ele>575.0</ele><time>2026-04-11T15:34:53Z</time></trkpt><trkpt lat="36.97976778508851" lon="14.975062980004761"><ele>575.4285714285714</ele><time>2026-04-11T15:34:57Z</time></trkpt><trkpt lat="36.979739053498086" lon="14.974992266970398"><ele>575.8571428571428</ele><time>2026-04-11T15:35:00Z</time></trkpt><trkpt lat="36.97970828456991" lon="14.974898814582406"><ele>576.2857142857142</ele><time>2026-04-11T15:35:20Z</time></trkpt><trkpt lat="36.97968895864351" lon="14.97482057788361"><ele>576.7142857142857</ele><time>2026-04-11T15:35:22Z</time></trkpt><trkpt lat="36.97966800829768" lon="14.97474600440046"><ele>577.1428571428571</ele><time>2026-04-11T15:35:24Z</time></trkpt><trkpt lat="36.979648263513226" lon="14.974625864826118"><ele>577.5714285714286</ele><time>2026-04-11T15:35:27Z</time></trkpt><trkpt lat="36.97964057854722" lon="14.974536963142707"><ele>578.0</ele><time>2026-04-11T15:35:29Z</time></trkpt><trkpt lat="36.9796214446362" lon="14.974451287675091"><ele>578.0</ele><time>2026-04-11T15:35:31Z</time></trkpt><trkpt lat="36.9795891770494" lon="14.97437079047541"><ele>578.0</ele><time>2026-04-11T15:35:33Z</time></trkpt><trkpt lat="36.9795184463845" lon="14.974249619962496"><ele>578.0</ele><time>2026-04-11T15:35:35Z</time></trkpt><trkpt lat="36.979476855602314" lon="14.974171632273563"><ele>578.0</ele><time>2026-04-11T15:35:36Z</time></trkpt><trkpt lat="36.97943845310231" lon="14.974082114741526"><ele>578.0</ele><time>2026-04-11T15:35:37Z</time></trkpt><trkpt lat="36.97940218779665" lon="14.973998181617445"><ele>578.0</ele><time>2026-04-11T15:35:38Z</time></trkpt><trkpt lat="36.979356393039275" lon="14.973940465713207"><ele>579.8333333333333</ele><time>2026-04-11T15:35:39Z</time></trkpt><trkpt lat="36.97926982152359" lon="14.973854625395356"><ele>581.6666666666666</ele><time>2026-04-11T15:35:41Z</time></trkpt><trkpt lat="36.979171812348824" lon="14.973745543641535"><ele>583.5</ele><time>2026-04-11T15:35:43Z</time></trkpt><trkpt lat="36.979131340414874" lon="14.97368070511754"><ele>585.3333333333334</ele><time>2026-04-11T15:35:44Z</time></trkpt><trkpt lat="36.97909222486291" lon="14.973613670248879"><ele>587.1666666666667</ele><time>2026-04-11T15:35:45Z</time></trkpt><trkpt lat="36.97905264116631" lon="14.973549297930976"><ele>589.0</ele><time>2026-04-11T15:35:46Z</time></trkpt><trkpt lat="36.97897739706281" lon="14.973457567792659"><ele>589.0</ele><time>2026-04-11T15:35:48Z</time></trkpt><trkpt lat="36.97888836956181" lon="14.973377380783273"><ele>589.0</ele><time>2026-04-11T15:35:50Z</time></trkpt><trkpt lat="36.978795701099486" lon="14.973273820458408"><ele>589.0</ele><time>2026-04-11T15:35:52Z</time></trkpt><trkpt lat="36.97871157954862" lon="14.9731847641826"><ele>589.0</ele><time>2026-04-11T15:35:53Z</time></trkpt><trkpt lat="36.978645207559076" lon="14.973105890829164"><ele>589.0</ele><time>2026-04-11T15:35:54Z</time></trkpt><trkpt lat="36.9785900259468" lon="14.973048958304528"><ele>589.1666666666667</ele><time>2026-04-11T15:35:55Z</time></trkpt><trkpt lat="36.97854299216969" lon="14.972986078287635"><ele>589.3333333333334</ele><time>2026-04-11T15:35:56Z</time></trkpt><trkpt lat="36.978487985875844" lon="14.972921217699154"><ele>589.5</ele><time>2026-04-11T15:35:57Z</time></trkpt><trkpt lat="36.978424803390496" lon="14.972857786894329"><ele>589.6666666666666</ele><time>2026-04-11T15:35:58Z</time></trkpt><trkpt lat="36.978373048925285" lon="14.972811466721588"><ele>589.8333333333333</ele><time>2026-04-11T15:35:59Z</time></trkpt><trkpt lat="36.97829199771203" lon="14.972755128821532"><ele>590.0</ele><time>2026-04-11T15:36:01Z</time></trkpt><trkpt lat="36.97821520745179" lon="14.972693638188472"><ele>590.2857142857143</ele><time>2026-04-11T15:36:04Z</time></trkpt><trkpt lat="36.97814753188579" lon="14.972651767376215"><ele>590.5714285714286</ele><time>2026-04-11T15:36:08.001Z</time></trkpt><trkpt lat="36.97807703481357" lon="14.972687828826588"><ele>590.8571428571429</ele><time>2026-04-11T15:36:11.001Z</time></trkpt><trkpt lat="36.97799964775076" lon="14.972683567027891"><ele>591.1428571428571</ele><time>2026-04-11T15:36:15.001Z</time></trkpt><trkpt lat="36.97793157731743" lon="14.972673469065015"><ele>591.4285714285714</ele><time>2026-04-11T15:36:19.001Z</time></trkpt><trkpt lat="36.977887792036775" lon="14.972738025457417"><ele>591.7142857142858</ele><time>2026-04-11T15:36:22.001Z</time></trkpt><trkpt lat="36.97783123584838" lon="14.972804775701826"><ele>592.0</ele><time>2026-04-11T15:36:25.001Z</time></trkpt><trkpt lat="36.977755291346135" lon="14.972806661990253"><ele>592.0</ele><time>2026-04-11T15:37:07Z</time></trkpt><trkpt lat="36.97768298310553" lon="14.972828668603537"><ele>592.0</ele><time>2026-04-11T15:37:13Z</time></trkpt><trkpt lat="36.97761179751501" lon="14.972821844788314"><ele>592.0</ele><time>2026-04-11T15:37:37Z</time></trkpt><trkpt lat="36.977553234283285" lon="14.972854791686386"><ele>592.0</ele><time>2026-04-11T15:37:41Z</time></trkpt><trkpt lat="36.97750817142907" lon="14.972914930881965"><ele>592.0</ele><time>2026-04-11T15:38:05.001Z</time></trkpt><trkpt lat="36.97751537273332" lon="14.97299842365887"><ele>592.0</ele><time>2026-04-11T15:38:13.001Z</time></trkpt><trkpt lat="36.977558653344374" lon="14.973079362128978"><ele>592.0</ele><time>2026-04-11T15:38:22.001Z</time></trkpt><trkpt lat="36.97761303857726" lon="14.973143762293406"><ele>592.0</ele><time>2026-04-11T15:38:25.001Z</time></trkpt><trkpt lat="36.977652686055336" lon="14.9732213714295"><ele>592.0</ele><time>2026-04-11T15:38:31.001Z</time></trkpt><trkpt lat="36.97768266942743" lon="14.97332092983423"><ele>592.0</ele><time>2026-04-11T15:38:37.001Z</time></trkpt><trkpt lat="36.97766210870259" lon="14.973396917278894"><ele>592.0</ele><time>2026-04-11T15:39:03.001Z</time></trkpt><trkpt lat="36.97762765509332" lon="14.97347031588258"><ele>592.0</ele><time>2026-04-11T15:39:22Z</time></trkpt><trkpt lat="36.97756830276126" lon="14.973526683207577"><ele>592.0</ele><time>2026-04-11T15:39:30Z</time></trkpt><trkpt lat="36.97751260981139" lon="14.973588518227649"><ele>592.0</ele><time>2026-04-11T15:39:32Z</time></trkpt><trkpt lat="36.977476170516326" lon="14.973681157369665"><ele>594.5</ele><time>2026-04-11T15:39:35Z</time></trkpt><trkpt lat="36.97746422895067" lon="14.973792758240313"><ele>597.0</ele><time>2026-04-11T15:39:38Z</time></trkpt><trkpt lat="36.97741468318608" lon="14.973870743070167"><ele>599.5</ele><time>2026-04-11T15:39:40Z</time></trkpt><trkpt lat="36.977376308720544" lon="14.973952842051169"><ele>602.0</ele><time>2026-04-11T15:39:42Z</time></trkpt><trkpt lat="36.97732998911851" lon="14.974027174996136"><ele>604.5</ele><time>2026-04-11T15:39:44Z</time></trkpt><trkpt lat="36.9772961626424" lon="14.974103146820463"><ele>607.0</ele><time>2026-04-11T15:39:46Z</time></trkpt><trkpt lat="36.977240982902394" lon="14.974182719667557"><ele>606.8333333333334</ele><time>2026-04-11T15:39:48Z</time></trkpt><trkpt lat="36.97719573225107" lon="14.974258791052751"><ele>606.6666666666667</ele><time>2026-04-11T15:39:51Z</time></trkpt><trkpt lat="36.97711371380839" lon="14.9743383333091"><ele>606.5</ele><time>2026-04-11T15:39:53Z</time></trkpt><trkpt lat="36.9770187305105" lon="14.974380999461257"><ele>606.3333333333334</ele><time>2026-04-11T15:39:55Z</time></trkpt><trkpt lat="36.97696217569012" lon="14.97443675603288"><ele>606.1666666666666</ele><time>2026-04-11T15:39:58Z</time></trkpt><trkpt lat="36.97691664675674" lon="14.974514522051464"><ele>606.0</ele><time>2026-04-11T15:40:01Z</time></trkpt><trkpt lat="36.97683225709093" lon="14.97460491258829"><ele>606.0</ele><time>2026-04-11T15:40:03Z</time></trkpt><trkpt lat="36.97675232093698" lon="14.974703215237088"><ele>606.0</ele><time>2026-04-11T15:40:05Z</time></trkpt><trkpt lat="36.976678830672824" lon="14.974766929372716"><ele>606.0</ele><time>2026-04-11T15:40:06Z</time></trkpt><trkpt lat="36.97662819605971" lon="14.974822972011262"><ele>606.0</ele><time>2026-04-11T15:40:07Z</time></trkpt><trkpt lat="36.97657220557203" lon="14.97488994088966"><ele>606.0</ele><time>2026-04-11T15:40:08Z</time></trkpt><trkpt lat="36.97652148779558" lon="14.974944715550494"><ele>606.0</ele><time>2026-04-11T15:40:09Z</time></trkpt><trkpt lat="36.97646977970344" lon="14.975007873344088"><ele>605.5</ele><time>2026-04-11T15:40:10Z</time></trkpt><trkpt lat="36.97639997447077" lon="14.975081927881797"><ele>605.0</ele><time>2026-04-11T15:40:11Z</time></trkpt><trkpt lat="36.9763471458348" lon="14.975141795171831"><ele>604.5</ele><time>2026-04-11T15:40:12Z</time></trkpt><trkpt lat="36.9762907569275" lon="14.975202101640484"><ele>604.0</ele><time>2026-04-11T15:40:13Z</time></trkpt><trkpt lat="36.976237683791496" lon="14.975247209804213"><ele>603.5</ele><time>2026-04-11T15:40:14Z</time></trkpt><trkpt lat="36.976186896359046" lon="14.975304196413637"><ele>603.0</ele><time>2026-04-11T15:40:15.001Z</time></trkpt><trkpt lat="36.976126355128876" lon="14.975436050826785"><ele>603.0</ele><time>2026-04-11T15:40:17.001Z</time></trkpt><trkpt lat="36.97608577162259" lon="14.97556820081771"><ele>603.0</ele><time>2026-04-11T15:40:19.001Z</time></trkpt><trkpt lat="36.97603718438764" lon="14.975682412831262"><ele>603.0</ele><time>2026-04-11T15:40:21.001Z</time></trkpt><trkpt lat="36.975943000880456" lon="14.97580145756049"><ele>603.0</ele><time>2026-04-11T15:40:23.001Z</time></trkpt><trkpt lat="36.97590526026041" lon="14.9758694016775"><ele>603.0</ele><time>2026-04-11T15:40:24.001Z</time></trkpt><trkpt lat="36.97585328007452" lon="14.975927022266694"><ele>603.1666666666666</ele><time>2026-04-11T15:40:25.001Z</time></trkpt><trkpt lat="36.97578548399138" lon="14.976010038470239"><ele>603.3333333333334</ele><time>2026-04-11T15:40:26.001Z</time></trkpt><trkpt lat="36.97571806362902" lon="14.976099883929377"><ele>603.5</ele><time>2026-04-11T15:40:27.001Z</time></trkpt><trkpt lat="36.975662925799625" lon="14.976177761049845"><ele>603.6666666666667</ele><time>2026-04-11T15:40:28.001Z</time></trkpt><trkpt lat="36.975618091046634" lon="14.976254653531146"><ele>603.8333333333334</ele><time>2026-04-11T15:40:29.001Z</time></trkpt><trkpt lat="36.975567028636384" lon="14.976344344709222"><ele>604.0</ele><time>2026-04-11T15:40:30.001Z</time></trkpt><trkpt lat="36.975518342220816" lon="14.976431406373832"><ele>604.0</ele><time>2026-04-11T15:40:31.001Z</time></trkpt><trkpt lat="36.97546895215547" lon="14.976509303770497"><ele>604.0</ele><time>2026-04-11T15:40:32.001Z</time></trkpt><trkpt lat="36.97539674341751" lon="14.976601516010064"><ele>604.0</ele><time>2026-04-11T15:40:34.001Z</time></trkpt><trkpt lat="36.9753440192507" lon="14.976661041307862"><ele>604.0</ele><time>2026-04-11T15:40:35.001Z</time></trkpt><trkpt lat="36.97528458356951" lon="14.976766071270893"><ele>604.0</ele><time>2026-04-11T15:40:37.001Z</time></trkpt><trkpt lat="36.9752512608823" lon="14.97687990896558"><ele>604.0</ele><time>2026-04-11T15:40:40.001Z</time></trkpt><trkpt lat="36.97522925163888" lon="14.97697980837481"><ele>604.0</ele><time>2026-04-11T15:40:43.001Z</time></trkpt><trkpt lat="36.975157498271074" lon="14.977051153242789"><ele>604.0</ele><time>2026-04-11T15:40:46.001Z</time></trkpt><trkpt lat="36.97509978683348" lon="14.97712270660643"><ele>604.0</ele><time>2026-04-11T15:40:48.001Z</time></trkpt><trkpt lat="36.97505265676468" lon="14.977195145705519"><ele>604.0</ele><time>2026-04-11T15:40:50.001Z</time></trkpt><trkpt lat="36.97499852072562" lon="14.977286267480647"><ele>604.0</ele><time>2026-04-11T15:40:52.001Z</time></trkpt><trkpt lat="36.974928366468546" lon="14.977389828771742"><ele>603.6666666666667</ele><time>2026-04-11T15:40:54.001Z</time></trkpt><trkpt lat="36.97487357002952" lon="14.977498890355555"><ele>603.3333333333334</ele><time>2026-04-11T15:40:56.001Z</time></trkpt><trkpt lat="36.974807750823295" lon="14.977576712281708"><ele>603.0</ele><time>2026-04-11T15:40:58.001Z</time></trkpt><trkpt lat="36.97474709799524" lon="14.977650904730154"><ele>602.6666666666666</ele><time>2026-04-11T15:41:00.001Z</time></trkpt><trkpt lat="36.97468229992394" lon="14.977714136847599"><ele>602.3333333333333</ele><time>2026-04-11T15:41:02.001Z</time></trkpt><trkpt lat="36.97461645651016" lon="14.977774760676745"><ele>602.0</ele><time>2026-04-11T15:41:04.001Z</time></trkpt><trkpt lat="36.97455464177434" lon="14.977907803554096"><ele>601.4</ele><time>2026-04-11T15:41:06.001Z</time></trkpt><trkpt lat="36.97451892389174" lon="14.977976732484077"><ele>600.8000000000001</ele><time>2026-04-11T15:41:07.001Z</time></trkpt><trkpt lat="36.97446390178801" lon="14.978114587927388"><ele>600.2</ele><time>2026-04-11T15:41:09.001Z</time></trkpt><trkpt lat="36.97440924888132" lon="14.978256775800961"><ele>599.6</ele><time>2026-04-11T15:41:11Z</time></trkpt><trkpt lat="36.9743653797686" lon="14.978332722694049"><ele>599.0</ele><time>2026-04-11T15:41:12Z</time></trkpt><trkpt lat="36.97432461652481" lon="14.978399819453971"><ele>598.0</ele><time>2026-04-11T15:41:13Z</time></trkpt><trkpt lat="36.97429489233672" lon="14.978470229510858"><ele>597.0</ele><time>2026-04-11T15:41:14Z</time></trkpt><trkpt lat="36.97423559828923" lon="14.97860002113839"><ele>596.0</ele><time>2026-04-11T15:41:16Z</time></trkpt><trkpt lat="36.97417259705508" lon="14.978711592577156"><ele>595.0</ele><time>2026-04-11T15:41:18Z</time></trkpt><trkpt lat="36.97410771162859" lon="14.978821195782512"><ele>594.0</ele><time>2026-04-11T15:41:20Z</time></trkpt><trkpt lat="36.97405232769248" lon="14.978956841648746"><ele>593.5</ele><time>2026-04-11T15:41:22Z</time></trkpt><trkpt lat="36.9740263032628" lon="14.979030796529269"><ele>593.0</ele><time>2026-04-11T15:41:23Z</time></trkpt><trkpt lat="36.97399119764273" lon="14.97910425554165"><ele>592.5</ele><time>2026-04-11T15:41:24Z</time></trkpt><trkpt lat="36.97392420874624" lon="14.979217135664317"><ele>592.0</ele><time>2026-04-11T15:41:26Z</time></trkpt><trkpt lat="36.97384696265973" lon="14.97933571184031"><ele>591.5</ele><time>2026-04-11T15:41:28Z</time></trkpt><trkpt lat="36.97380301588708" lon="14.979398059854542"><ele>591.0</ele><time>2026-04-11T15:41:29Z</time></trkpt><trkpt lat="36.973757196709414" lon="14.979459878153932"><ele>590.8</ele><time>2026-04-11T15:41:30Z</time></trkpt><trkpt lat="36.973693403093776" lon="14.979571982236342"><ele>590.6</ele><time>2026-04-11T15:41:32Z</time></trkpt><trkpt lat="36.97363839163643" lon="14.979670112857285"><ele>590.4</ele><time>2026-04-11T15:41:34Z</time></trkpt><trkpt lat="36.973599208908176" lon="14.979746747421506"><ele>590.2</ele><time>2026-04-11T15:41:35Z</time></trkpt><trkpt lat="36.97354415921593" lon="14.979864760824379"><ele>590.0</ele><time>2026-04-11T15:41:36Z</time></trkpt><trkpt lat="36.973502028407424" lon="14.97996711260716"><ele>590.0</ele><time>2026-04-11T15:41:37Z</time></trkpt><trkpt lat="36.973466664264016" lon="14.98003522037557"><ele>590.0</ele><time>2026-04-11T15:41:38Z</time></trkpt><trkpt lat="36.973446155449636" lon="14.980114964362333"><ele>590.0</ele><time>2026-04-11T15:41:42Z</time></trkpt><trkpt lat="36.9734578867136" lon="14.980201466506344"><ele>590.0</ele><time>2026-04-11T15:41:44Z</time></trkpt><trkpt lat="36.973478171175046" lon="14.980067478442907"><ele>590.0</ele><time>2026-04-11T15:41:51Z</time></trkpt><trkpt lat="36.97337513883679" lon="14.9800426739983"><ele>590.0</ele><time>2026-04-11T15:41:59Z</time></trkpt><trkpt lat="36.97330594181137" lon="14.98003164142817"><ele>589.75</ele><time>2026-04-11T15:42:00Z</time></trkpt><trkpt lat="36.97319196314776" lon="14.980001291978299"><ele>589.5</ele><time>2026-04-11T15:42:01Z</time></trkpt><trkpt lat="36.97306437342157" lon="14.979969543523795"><ele>589.25</ele><time>2026-04-11T15:42:02Z</time></trkpt><trkpt lat="36.97294682147881" lon="14.979912954748952"><ele>589.0</ele><time>2026-04-11T15:42:03Z</time></trkpt><trkpt lat="36.972797122295205" lon="14.979849602149697"><ele>589.0</ele><time>2026-04-11T15:42:04Z</time></trkpt><trkpt lat="36.97259757420395" lon="14.979771836274567"><ele>589.0</ele><time>2026-04-11T15:42:05Z</time></trkpt><trkpt lat="36.97237903338121" lon="14.979714528421173"><ele>589.0</ele><time>2026-04-11T15:42:06Z</time></trkpt><trkpt lat="36.97220598785412" lon="14.979639217867827"><ele>588.3333333333334</ele><time>2026-04-11T15:42:07Z</time></trkpt><trkpt lat="36.97206349164884" lon="14.979596626016"><ele>587.6666666666667</ele><time>2026-04-11T15:42:08Z</time></trkpt><trkpt lat="36.97196592451963" lon="14.97956194162038"><ele>587.0</ele><time>2026-04-11T15:42:09Z</time></trkpt><trkpt lat="36.97190294336881" lon="14.979572377500595"><ele>586.3333333333334</ele><time>2026-04-11T15:42:12Z</time></trkpt><trkpt lat="36.97184238621264" lon="14.979544837682365"><ele>585.6666666666666</ele><time>2026-04-11T15:42:15Z</time></trkpt><trkpt lat="36.9717920618511" lon="14.979599319517543"><ele>585.0</ele><time>2026-04-11T15:42:21.001Z</time></trkpt><trkpt lat="36.97155516842533" lon="14.979738591919725"><ele>584.75</ele><time>2026-04-11T15:42:24.001Z</time></trkpt><trkpt lat="36.971448241539214" lon="14.97966308875355"><ele>584.5</ele><time>2026-04-11T15:42:26.001Z</time></trkpt><trkpt lat="36.971368743165016" lon="14.979545409195943"><ele>584.25</ele><time>2026-04-11T15:42:27.001Z</time></trkpt><trkpt lat="36.971345134468315" lon="14.97936120672231"><ele>584.0</ele><time>2026-04-11T15:42:28.001Z</time></trkpt><trkpt lat="36.97159936154605" lon="14.979213883370669"><ele>584.4</ele><time>2026-04-11T15:42:30.001Z</time></trkpt><trkpt lat="36.97157602977342" lon="14.97913753262564"><ele>584.8</ele><time>2026-04-11T15:42:32.001Z</time></trkpt><trkpt lat="36.97156126125448" lon="14.979053687861803"><ele>585.2</ele><time>2026-04-11T15:42:34.001Z</time></trkpt><trkpt lat="36.971479337140096" lon="14.978933055837988"><ele>585.6</ele><time>2026-04-11T15:42:36.001Z</time></trkpt><trkpt lat="36.97142598464937" lon="14.978850573498853"><ele>586.0</ele><time>2026-04-11T15:42:38.001Z</time></trkpt><trkpt lat="36.9713381831619" lon="14.978751734807652"><ele>586.0</ele><time>2026-04-11T15:43:10.001Z</time></trkpt><trkpt lat="36.97126240542519" lon="14.97866221766998"><ele>586.0</ele><time>2026-04-11T15:43:11.001Z</time></trkpt><trkpt lat="36.97116618826127" lon="14.978560172307946"><ele>586.0</ele><time>2026-04-11T15:43:12.001Z</time></trkpt><trkpt lat="36.97105410615923" lon="14.978468605658815"><ele>586.0</ele><time>2026-04-11T15:43:13.001Z</time></trkpt><trkpt lat="36.97095062848628" lon="14.978399403458516"><ele>586.0</ele><time>2026-04-11T15:43:14.001Z</time></trkpt><trkpt lat="36.97087209317338" lon="14.978338753361754"><ele>586.0</ele><time>2026-04-11T15:43:15.001Z</time></trkpt><trkpt lat="36.97085736241067" lon="14.978220022964296"><ele>586.0</ele><time>2026-04-11T15:43:17Z</time></trkpt><trkpt lat="36.970893947646054" lon="14.978131275836837"><ele>586.0</ele><time>2026-04-11T15:43:18Z</time></trkpt><trkpt lat="36.970949444726486" lon="14.97801367303763"><ele>586.0</ele><time>2026-04-11T15:43:19Z</time></trkpt><trkpt lat="36.97099346720976" lon="14.977898358999203"><ele>586.0</ele><time>2026-04-11T15:43:20Z</time></trkpt><trkpt lat="36.9709950866346" lon="14.97779878879546"><ele>586.0</ele><time>2026-04-11T15:43:21Z</time></trkpt><trkpt lat="36.9708993573878" lon="14.977701318871995"><ele>586.0</ele><time>2026-04-11T15:43:23Z</time></trkpt><trkpt lat="36.97080889632473" lon="14.977677020501035"><ele>586.0</ele><time>2026-04-11T15:43:24Z</time></trkpt><trkpt lat="36.970720902526956" lon="14.977632195293207"><ele>586.0</ele><time>2026-04-11T15:43:25Z</time></trkpt><trkpt lat="36.97064025607837" lon="14.977551081769457"><ele>586.25</ele><time>2026-04-11T15:43:26Z</time></trkpt><trkpt lat="36.970564108704586" lon="14.977439248167817"><ele>586.5</ele><time>2026-04-11T15:43:27Z</time></trkpt><trkpt lat="36.97048900124515" lon="14.977322276047389"><ele>586.75</ele><time>2026-04-11T15:43:28Z</time></trkpt><trkpt lat="36.970413110087115" lon="14.977215099254924"><ele>587.0</ele><time>2026-04-11T15:43:29Z</time></trkpt><trkpt lat="36.970343331149856" lon="14.977109329110565"><ele>587.0</ele><time>2026-04-11T15:43:30Z</time></trkpt><trkpt lat="36.97027598392142" lon="14.977006597484031"><ele>587.0</ele><time>2026-04-11T15:43:31Z</time></trkpt><trkpt lat="36.97021002818421" lon="14.976910987343004"><ele>587.0</ele><time>2026-04-11T15:43:32Z</time></trkpt><trkpt lat="36.97015213974919" lon="14.976814821539943"><ele>587.0</ele><time>2026-04-11T15:43:33Z</time></trkpt><trkpt lat="36.970102174960196" lon="14.976722618371529"><ele>587.0</ele><time>2026-04-11T15:43:34Z</time></trkpt><trkpt lat="36.97005101900639" lon="14.976654085676845"><ele>588.0</ele><time>2026-04-11T15:43:35Z</time></trkpt><trkpt lat="36.969990783556284" lon="14.976622678998199"><ele>589.0</ele><time>2026-04-11T15:43:36Z</time></trkpt><trkpt lat="36.96985680451754" lon="14.97663642730084"><ele>590.0</ele><time>2026-04-11T15:43:38Z</time></trkpt><trkpt lat="36.96977583603456" lon="14.976648231769946"><ele>591.0</ele><time>2026-04-11T15:43:39Z</time></trkpt><trkpt lat="36.969688312788456" lon="14.97663263991557"><ele>592.0</ele><time>2026-04-11T15:43:40Z</time></trkpt><trkpt lat="36.9695925309857" lon="14.97664398656135"><ele>592.0</ele><time>2026-04-11T15:43:41Z</time></trkpt><trkpt lat="36.96949972589762" lon="14.976683551107962"><ele>592.0</ele><time>2026-04-11T15:43:42Z</time></trkpt><trkpt lat="36.96941137421687" lon="14.976747669966052"><ele>592.0</ele><time>2026-04-11T15:43:43Z</time></trkpt><trkpt lat="36.96932919162671" lon="14.976817208476785"><ele>592.0</ele><time>2026-04-11T15:43:44Z</time></trkpt><trkpt lat="36.969255825238285" lon="14.976845455803792"><ele>592.0</ele><time>2026-04-11T15:43:45Z</time></trkpt><trkpt lat="36.969182212271306" lon="14.97683584782319"><ele>591.0</ele><time>2026-04-11T15:43:46Z</time></trkpt><trkpt lat="36.969081718615094" lon="14.976828903983145"><ele>590.0</ele><time>2026-04-11T15:43:47Z</time></trkpt><trkpt lat="36.96896026087905" lon="14.976836401789745"><ele>589.0</ele><time>2026-04-11T15:43:48Z</time></trkpt><trkpt lat="36.96882624962708" lon="14.976802921757509"><ele>588.0</ele><time>2026-04-11T15:43:49Z</time></trkpt><trkpt lat="36.96868181974363" lon="14.97678894311902"><ele>588.0</ele><time>2026-04-11T15:43:50Z</time></trkpt><trkpt lat="36.96852400093302" lon="14.976790958652865"><ele>588.0</ele><time>2026-04-11T15:43:51Z</time></trkpt><trkpt lat="36.96838773117777" lon="14.976807624581268"><ele>588.0</ele><time>2026-04-11T15:43:52Z</time></trkpt><trkpt lat="36.96827080885817" lon="14.976821383105765"><ele>588.0</ele><time>2026-04-11T15:43:53Z</time></trkpt><trkpt lat="36.968159324117366" lon="14.976833040058263"><ele>589.25</ele><time>2026-04-11T15:43:54Z</time></trkpt><trkpt lat="36.96804728497666" lon="14.97684181646397"><ele>590.5</ele><time>2026-04-11T15:43:55Z</time></trkpt><trkpt lat="36.967913057420205" lon="14.976840240916472"><ele>591.75</ele><time>2026-04-11T15:43:56Z</time></trkpt><trkpt lat="36.96776622976028" lon="14.976822985199203"><ele>593.0</ele><time>2026-04-11T15:43:57Z</time></trkpt><trkpt lat="36.967636968910135" lon="14.976802448816686"><ele>593.0</ele><time>2026-04-11T15:43:58Z</time></trkpt><trkpt lat="36.967535739152105" lon="14.97679238742564"><ele>593.0</ele><time>2026-04-11T15:43:59Z</time></trkpt><trkpt lat="36.967451963732906" lon="14.976796481368819"><ele>593.0</ele><time>2026-04-11T15:44:00Z</time></trkpt><trkpt lat="36.967394820746904" lon="14.97675835127404"><ele>593.0</ele><time>2026-04-11T15:44:01Z</time></trkpt><trkpt lat="36.96735838818892" lon="14.976684827946244"><ele>593.0</ele><time>2026-04-11T15:44:02Z</time></trkpt><trkpt lat="36.96732583606007" lon="14.976593940961806"><ele>593.0</ele><time>2026-04-11T15:44:03Z</time></trkpt><trkpt lat="36.96730484092782" lon="14.976477661319066"><ele>592.25</ele><time>2026-04-11T15:44:04Z</time></trkpt><trkpt lat="36.967305553716955" lon="14.976338889413745"><ele>591.5</ele><time>2026-04-11T15:44:05Z</time></trkpt><trkpt lat="36.96733244600152" lon="14.976184884817686"><ele>590.75</ele><time>2026-04-11T15:44:06Z</time></trkpt><trkpt lat="36.967379784223816" lon="14.976031508765063"><ele>590.0</ele><time>2026-04-11T15:44:07Z</time></trkpt><trkpt lat="36.967415444322995" lon="14.975895281012816"><ele>589.25</ele><time>2026-04-11T15:44:08Z</time></trkpt><trkpt lat="36.96742169092046" lon="14.975748490621678"><ele>588.5</ele><time>2026-04-11T15:44:09Z</time></trkpt><trkpt lat="36.96740513144135" lon="14.97558844956198"><ele>587.75</ele><time>2026-04-11T15:44:10Z</time></trkpt><trkpt lat="36.967381109402396" lon="14.975420726995315"><ele>587.0</ele><time>2026-04-11T15:44:11Z</time></trkpt><trkpt lat="36.967364973902754" lon="14.97525447965081"><ele>587.0</ele><time>2026-04-11T15:44:12Z</time></trkpt><trkpt lat="36.96735770826066" lon="14.975104906742157"><ele>587.0</ele><time>2026-04-11T15:44:13Z</time></trkpt><trkpt lat="36.96737460366731" lon="14.974962107567743"><ele>587.0</ele><time>2026-04-11T15:44:14Z</time></trkpt><trkpt lat="36.96740560098225" lon="14.974840563132435"><ele>587.0</ele><time>2026-04-11T15:44:15Z</time></trkpt><trkpt lat="36.967449301355956" lon="14.974720410954658"><ele>587.0</ele><time>2026-04-11T15:44:16Z</time></trkpt><trkpt lat="36.96749983099394" lon="14.974583790948687"><ele>587.0</ele><time>2026-04-11T15:44:17Z</time></trkpt><trkpt lat="36.967558835300096" lon="14.974442208839859"><ele>587.0</ele><time>2026-04-11T15:44:18Z</time></trkpt><trkpt lat="36.967619896760624" lon="14.974309455834607"><ele>587.0</ele><time>2026-04-11T15:44:19Z</time></trkpt><trkpt lat="36.96767350684548" lon="14.974182382652632"><ele>587.0</ele><time>2026-04-11T15:44:20Z</time></trkpt><trkpt lat="36.96772231558239" lon="14.974062641018682"><ele>586.2</ele><time>2026-04-11T15:44:21Z</time></trkpt><trkpt lat="36.967750352876465" lon="14.973939324840858"><ele>585.4000000000001</ele><time>2026-04-11T15:44:22Z</time></trkpt><trkpt lat="36.96775186842193" lon="14.97382454455781"><ele>584.5999999999999</ele><time>2026-04-11T15:44:23Z</time></trkpt><trkpt lat="36.967737802985795" lon="14.973732001426395"><ele>583.8</ele><time>2026-04-11T15:44:24Z</time></trkpt><trkpt lat="36.967729646071824" lon="14.97362941015792"><ele>583.0</ele><time>2026-04-11T15:44:26Z</time></trkpt><trkpt lat="36.967596490571644" lon="14.97356612698639"><ele>583.25</ele><time>2026-04-11T15:44:27Z</time></trkpt><trkpt lat="36.967492705066284" lon="14.973507646800508"><ele>583.5</ele><time>2026-04-11T15:44:28Z</time></trkpt><trkpt lat="36.967367413049004" lon="14.973437761567684"><ele>583.75</ele><time>2026-04-11T15:44:29Z</time></trkpt><trkpt lat="36.967232381155036" lon="14.97337186791999"><ele>584.0</ele><time>2026-04-11T15:44:30.001Z</time></trkpt><trkpt lat="36.9670968499955" lon="14.973328573650372"><ele>583.5</ele><time>2026-04-11T15:44:31.001Z</time></trkpt><trkpt lat="36.96696103520616" lon="14.973307435652272"><ele>583.0</ele><time>2026-04-11T15:44:32.001Z</time></trkpt><trkpt lat="36.96682524119358" lon="14.973300166856598"><ele>582.5</ele><time>2026-04-11T15:44:33.001Z</time></trkpt><trkpt lat="36.96668474334688" lon="14.973302256464871"><ele>582.0</ele><time>2026-04-11T15:44:34.001Z</time></trkpt><trkpt lat="36.966551948972814" lon="14.9733001039884"><ele>581.8000000000001</ele><time>2026-04-11T15:44:35.001Z</time></trkpt><trkpt lat="36.966431021344086" lon="14.973296578565634"><ele>581.6</ele><time>2026-04-11T15:44:36.001Z</time></trkpt><trkpt lat="36.96632157125827" lon="14.973298268066904"><ele>581.4000000000001</ele><time>2026-04-11T15:44:37.001Z</time></trkpt><trkpt lat="36.96621967192884" lon="14.973330354007977"><ele>581.2</ele><time>2026-04-11T15:44:38.001Z</time></trkpt><trkpt lat="36.966114808889685" lon="14.973344777341799"><ele>581.0</ele><time>2026-04-11T15:44:39.001Z</time></trkpt><trkpt lat="36.96601517158051" lon="14.973467355392973"><ele>581.25</ele><time>2026-04-11T15:44:40.001Z</time></trkpt><trkpt lat="36.965926515991676" lon="14.973594949743854"><ele>581.5</ele><time>2026-04-11T15:44:41.001Z</time></trkpt><trkpt lat="36.9658581172437" lon="14.97375249176905"><ele>581.75</ele><time>2026-04-11T15:44:42.001Z</time></trkpt><trkpt lat="36.965761157834834" lon="14.973884121362612"><ele>582.0</ele><time>2026-04-11T15:44:43.001Z</time></trkpt><trkpt lat="36.96566071697603" lon="14.973995384765363"><ele>582.0</ele><time>2026-04-11T15:44:44.001Z</time></trkpt><trkpt lat="36.96556153904134" lon="14.9741011689358"><ele>582.0</ele><time>2026-04-11T15:44:45.001Z</time></trkpt><trkpt lat="36.965440462767056" lon="14.974173423288258"><ele>582.0</ele><time>2026-04-11T15:44:46.001Z</time></trkpt><trkpt lat="36.96533861470054" lon="14.97429340647385"><ele>582.0</ele><time>2026-04-11T15:44:47.001Z</time></trkpt><trkpt lat="36.9652160646821" lon="14.974381506564544"><ele>581.75</ele><time>2026-04-11T15:44:48.001Z</time></trkpt><trkpt lat="36.965105066056346" lon="14.974487404117365"><ele>581.5</ele><time>2026-04-11T15:44:49.001Z</time></trkpt><trkpt lat="36.965009501404" lon="14.974579557352248"><ele>581.25</ele><time>2026-04-11T15:44:50.001Z</time></trkpt><trkpt lat="36.964921104429884" lon="14.97466287845328"><ele>581.0</ele><time>2026-04-11T15:44:51.001Z</time></trkpt><trkpt lat="36.964829188678195" lon="14.97474814547306"><ele>581.5</ele><time>2026-04-11T15:44:52.001Z</time></trkpt><trkpt lat="36.964736339691406" lon="14.97482688405452"><ele>582.0</ele><time>2026-04-11T15:44:53.001Z</time></trkpt><trkpt lat="36.964635704067" lon="14.974894604352636"><ele>582.5</ele><time>2026-04-11T15:44:54.001Z</time></trkpt><trkpt lat="36.96452385637267" lon="14.974956660219176"><ele>583.0</ele><time>2026-04-11T15:44:55.001Z</time></trkpt><trkpt lat="36.96440815995196" lon="14.975013772530886"><ele>583.75</ele><time>2026-04-11T15:44:56.001Z</time></trkpt><trkpt lat="36.964301758990864" lon="14.975065928532446"><ele>584.5</ele><time>2026-04-11T15:44:57.001Z</time></trkpt><trkpt lat="36.96420518287095" lon="14.975134718989393"><ele>585.25</ele><time>2026-04-11T15:44:58.001Z</time></trkpt><trkpt lat="36.9641023616234" lon="14.975183137712817"><ele>586.0</ele><time>2026-04-11T15:44:59.001Z</time></trkpt><trkpt lat="36.96398967233407" lon="14.975218757765566"><ele>586.0</ele><time>2026-04-11T15:45:00.001Z</time></trkpt><trkpt lat="36.96387878603969" lon="14.97522864385287"><ele>586.0</ele><time>2026-04-11T15:45:01.001Z</time></trkpt><trkpt lat="36.963783019465666" lon="14.97524259280761"><ele>586.0</ele><time>2026-04-11T15:45:02.001Z</time></trkpt><trkpt lat="36.96369386036487" lon="14.975271652413582"><ele>586.0</ele><time>2026-04-11T15:45:03.001Z</time></trkpt><trkpt lat="36.96360556542524" lon="14.975260772378093"><ele>586.0</ele><time>2026-04-11T15:45:04.001Z</time></trkpt><trkpt lat="36.96351441179764" lon="14.975274227670123"><ele>586.0</ele><time>2026-04-11T15:45:05.001Z</time></trkpt><trkpt lat="36.96342229759566" lon="14.975290879391816"><ele>586.0</ele><time>2026-04-11T15:45:06.001Z</time></trkpt><trkpt lat="36.96334659973486" lon="14.975327032753567"><ele>586.0</ele><time>2026-04-11T15:45:07.001Z</time></trkpt><trkpt lat="36.963274693402575" lon="14.975342232211748"><ele>586.0</ele><time>2026-04-11T15:45:08.001Z</time></trkpt><trkpt lat="36.963212833141476" lon="14.97535700807263"><ele>586.0</ele><time>2026-04-11T15:45:09.001Z</time></trkpt><trkpt lat="36.963107884797374" lon="14.975381576398814"><ele>586.0</ele><time>2026-04-11T15:45:11.001Z</time></trkpt><trkpt lat="36.962998955804" lon="14.975410618538362"><ele>586.5</ele><time>2026-04-11T15:45:13.001Z</time></trkpt><trkpt lat="36.962937479453274" lon="14.975428684796626"><ele>587.0</ele><time>2026-04-11T15:45:14.001Z</time></trkpt><trkpt lat="36.96286959918136" lon="14.975421309199993"><ele>587.5</ele><time>2026-04-11T15:45:15.001Z</time></trkpt><trkpt lat="36.96275469232955" lon="14.975427120135674"><ele>588.0</ele><time>2026-04-11T15:45:17.001Z</time></trkpt><trkpt lat="36.962667762508005" lon="14.9754249623303"><ele>588.5</ele><time>2026-04-11T15:45:19.001Z</time></trkpt><trkpt lat="36.96256788949743" lon="14.97541957679584"><ele>589.0</ele><time>2026-04-11T15:45:21.001Z</time></trkpt><trkpt lat="36.96247833958118" lon="14.975407928772828"><ele>589.5</ele><time>2026-04-11T15:45:23Z</time></trkpt><trkpt lat="36.96236299017754" lon="14.975547785638849"><ele>590.0</ele><time>2026-04-11T15:45:26Z</time></trkpt><trkpt lat="36.962326814222095" lon="14.975682910395149"><ele>590.5</ele><time>2026-04-11T15:45:28Z</time></trkpt><trkpt lat="36.96229118179753" lon="14.975802467848029"><ele>591.0</ele><time>2026-04-11T15:45:30Z</time></trkpt><trkpt lat="36.962255561317576" lon="14.975912342503156"><ele>591.0</ele><time>2026-04-11T15:45:32Z</time></trkpt><trkpt lat="36.96221970182484" lon="14.976012247711358"><ele>591.0</ele><time>2026-04-11T15:45:34Z</time></trkpt><trkpt lat="36.962183479662826" lon="14.976102129858765"><ele>591.0</ele><time>2026-04-11T15:45:36Z</time></trkpt><trkpt lat="36.9621419415865" lon="14.976204784573715"><ele>591.0</ele><time>2026-04-11T15:45:38Z</time></trkpt><trkpt lat="36.962092910345824" lon="14.97632595754145"><ele>591.0</ele><time>2026-04-11T15:45:40Z</time></trkpt><trkpt lat="36.962041397947054" lon="14.976453262187196"><ele>591.0</ele><time>2026-04-11T15:45:42Z</time></trkpt><trkpt lat="36.96201291869884" lon="14.976523644059485"><ele>591.0</ele><time>2026-04-11T15:45:43Z</time></trkpt><trkpt lat="36.9619827251476" lon="14.976596651918987"><ele>591.0</ele><time>2026-04-11T15:45:44Z</time></trkpt><trkpt lat="36.961950781525566" lon="14.97667353180866"><ele>591.0</ele><time>2026-04-11T15:45:45Z</time></trkpt><trkpt lat="36.96191677920429" lon="14.976755366407607"><ele>591.0</ele><time>2026-04-11T15:45:46Z</time></trkpt><trkpt lat="36.961877712713004" lon="14.9768493891186"><ele>591.0</ele><time>2026-04-11T15:45:47Z</time></trkpt><trkpt lat="36.96183610332524" lon="14.976949530980212"><ele>591.0</ele><time>2026-04-11T15:45:48Z</time></trkpt><trkpt lat="36.961791526772316" lon="14.977052190075353"><ele>591.0</ele><time>2026-04-11T15:45:49Z</time></trkpt><trkpt lat="36.96174606302239" lon="14.977158207455524"><ele>591.0</ele><time>2026-04-11T15:45:50Z</time></trkpt><trkpt lat="36.961697996205075" lon="14.977270294899844"><ele>591.0</ele><time>2026-04-11T15:45:51Z</time></trkpt><trkpt lat="36.961649611084425" lon="14.977385981411059"><ele>591.0</ele><time>2026-04-11T15:45:52Z</time></trkpt><trkpt lat="36.961598285369234" lon="14.977509348826363"><ele>591.0</ele><time>2026-04-11T15:45:53Z</time></trkpt><trkpt lat="36.9615467666838" lon="14.977633180064664"><ele>590.6</ele><time>2026-04-11T15:45:54Z</time></trkpt><trkpt lat="36.96149793857132" lon="14.977752343462313"><ele>590.2</ele><time>2026-04-11T15:45:55Z</time></trkpt><trkpt lat="36.96145207843223" lon="14.977868269691472"><ele>589.8</ele><time>2026-04-11T15:45:56Z</time></trkpt><trkpt lat="36.96141197158388" lon="14.977993315411428"><ele>589.4</ele><time>2026-04-11T15:45:57Z</time></trkpt><trkpt lat="36.96138008845383" lon="14.978124958441024"><ele>589.0</ele><time>2026-04-11T15:45:58Z</time></trkpt><trkpt lat="36.961349856434325" lon="14.978259608507663"><ele>588.25</ele><time>2026-04-11T15:45:59Z</time></trkpt><trkpt lat="36.961323110184026" lon="14.978395915449841"><ele>587.5</ele><time>2026-04-11T15:46:00Z</time></trkpt><trkpt lat="36.961296270251104" lon="14.978533017629196"><ele>586.75</ele><time>2026-04-11T15:46:01Z</time></trkpt><trkpt lat="36.96126992967218" lon="14.978670858149462"><ele>586.0</ele><time>2026-04-11T15:46:02Z</time></trkpt><trkpt lat="36.96124376219735" lon="14.978806635881353"><ele>586.0</ele><time>2026-04-11T15:46:03Z</time></trkpt><trkpt lat="36.96121756888045" lon="14.978942547654846"><ele>586.0</ele><time>2026-04-11T15:46:04Z</time></trkpt><trkpt lat="36.96119144587819" lon="14.979078913317073"><ele>586.0</ele><time>2026-04-11T15:46:05Z</time></trkpt><trkpt lat="36.961165693860764" lon="14.979213458286093"><ele>586.0</ele><time>2026-04-11T15:46:06Z</time></trkpt><trkpt lat="36.96114012669636" lon="14.97934703744236"><ele>586.0</ele><time>2026-04-11T15:46:07Z</time></trkpt><trkpt lat="36.9611146731495" lon="14.979480023009133"><ele>586.0</ele><time>2026-04-11T15:46:08Z</time></trkpt><trkpt lat="36.961088768594195" lon="14.979612085767364"><ele>586.0</ele><time>2026-04-11T15:46:09Z</time></trkpt><trkpt lat="36.9610620957481" lon="14.97974456541541"><ele>586.0</ele><time>2026-04-11T15:46:10Z</time></trkpt><trkpt lat="36.96104231844782" lon="14.979878502962137"><ele>586.0</ele><time>2026-04-11T15:46:11Z</time></trkpt><trkpt lat="36.960985437848876" lon="14.97999157562919"><ele>586.0</ele><time>2026-04-11T15:46:12Z</time></trkpt><trkpt lat="36.96092987415194" lon="14.980106680450278"><ele>586.0</ele><time>2026-04-11T15:46:13Z</time></trkpt><trkpt lat="36.960868351510214" lon="14.980212252691585"><ele>586.0</ele><time>2026-04-11T15:46:14Z</time></trkpt><trkpt lat="36.96082106020904" lon="14.980339128352504"><ele>586.0</ele><time>2026-04-11T15:46:15Z</time></trkpt><trkpt lat="36.960747984387616" lon="14.980452630340192"><ele>586.0</ele><time>2026-04-11T15:46:16Z</time></trkpt><trkpt lat="36.9606681638901" lon="14.980572301276506"><ele>586.25</ele><time>2026-04-11T15:46:17Z</time></trkpt><trkpt lat="36.96058566062878" lon="14.98069568187618"><ele>586.5</ele><time>2026-04-11T15:46:18Z</time></trkpt><trkpt lat="36.96050263733006" lon="14.980824128209955"><ele>586.75</ele><time>2026-04-11T15:46:19Z</time></trkpt><trkpt lat="36.960420092067686" lon="14.980953072649712"><ele>587.0</ele><time>2026-04-11T15:46:20Z</time></trkpt><trkpt lat="36.96034523949979" lon="14.981074752474704"><ele>586.25</ele><time>2026-04-11T15:46:21Z</time></trkpt><trkpt lat="36.9602896657774" lon="14.981195118417736"><ele>585.5</ele><time>2026-04-11T15:46:22Z</time></trkpt><trkpt lat="36.960229862361714" lon="14.981307780633303"><ele>584.75</ele><time>2026-04-11T15:46:23Z</time></trkpt><trkpt lat="36.960193692345264" lon="14.981453483837072"><ele>584.0</ele><time>2026-04-11T15:46:24Z</time></trkpt><trkpt lat="36.96013817040901" lon="14.981578722969534"><ele>582.5</ele><time>2026-04-11T15:46:25Z</time></trkpt><trkpt lat="36.96006798874128" lon="14.981698158191636"><ele>581.0</ele><time>2026-04-11T15:46:26Z</time></trkpt><trkpt lat="36.95999494302156" lon="14.981819287671467"><ele>579.5</ele><time>2026-04-11T15:46:27Z</time></trkpt><trkpt lat="36.95992229494638" lon="14.981939757799454"><ele>578.0</ele><time>2026-04-11T15:46:28Z</time></trkpt><trkpt lat="36.95984992976995" lon="14.9820619256768"><ele>578.0</ele><time>2026-04-11T15:46:29Z</time></trkpt><trkpt lat="36.95977592432732" lon="14.982187157381153"><ele>578.0</ele><time>2026-04-11T15:46:30Z</time></trkpt><trkpt lat="36.95971466250672" lon="14.982333860193512"><ele>578.0</ele><time>2026-04-11T15:46:31Z</time></trkpt><trkpt lat="36.959629993947026" lon="14.982472975741308"><ele>578.0</ele><time>2026-04-11T15:46:32Z</time></trkpt><trkpt lat="36.959565124637955" lon="14.982631803433021"><ele>577.75</ele><time>2026-04-11T15:46:33Z</time></trkpt><trkpt lat="36.95950238094765" lon="14.98279501874026"><ele>577.5</ele><time>2026-04-11T15:46:34Z</time></trkpt><trkpt lat="36.95943863841641" lon="14.98296083237114"><ele>577.25</ele><time>2026-04-11T15:46:35.001Z</time></trkpt><trkpt lat="36.95937440046973" lon="14.983124341592571"><ele>577.0</ele><time>2026-04-11T15:46:36.001Z</time></trkpt><trkpt lat="36.959314464806894" lon="14.983276520216197"><ele>576.8000000000001</ele><time>2026-04-11T15:46:37.001Z</time></trkpt><trkpt lat="36.959257247860336" lon="14.983421795806494"><ele>576.6</ele><time>2026-04-11T15:46:38.001Z</time></trkpt><trkpt lat="36.9592046210211" lon="14.983555417027945"><ele>576.4000000000001</ele><time>2026-04-11T15:46:39.001Z</time></trkpt><trkpt lat="36.95916251159167" lon="14.983663270148627"><ele>576.2</ele><time>2026-04-11T15:46:40.001Z</time></trkpt><trkpt lat="36.9591314367345" lon="14.98374434291118"><ele>576.0</ele><time>2026-04-11T15:46:41.001Z</time></trkpt><trkpt lat="36.95909647330326" lon="14.983839579055674"><ele>575.4</ele><time>2026-04-11T15:46:43.001Z</time></trkpt><trkpt lat="36.958998035973245" lon="14.98380093727575"><ele>574.8</ele><time>2026-04-11T15:46:47.001Z</time></trkpt><trkpt lat="36.95895834372727" lon="14.983651434135151"><ele>574.1999999999999</ele><time>2026-04-11T15:46:49.001Z</time></trkpt><trkpt lat="36.95893056788252" lon="14.98355693597183"><ele>573.6</ele><time>2026-04-11T15:46:50.001Z</time></trkpt><trkpt lat="36.95888984070078" lon="14.983450516437017"><ele>573.0</ele><time>2026-04-11T15:46:51.001Z</time></trkpt><trkpt lat="36.95885461977193" lon="14.98335112093848"><ele>573.3333333333334</ele><time>2026-04-11T15:46:52.001Z</time></trkpt><trkpt lat="36.958813234580795" lon="14.983285383042977"><ele>573.6666666666666</ele><time>2026-04-11T15:46:53.001Z</time></trkpt><trkpt lat="36.958776316893186" lon="14.98316718609062"><ele>574.0</ele><time>2026-04-11T15:46:55.001Z</time></trkpt><trkpt lat="36.958740609415" lon="14.983079661031597"><ele>574.3333333333333</ele><time>2026-04-11T15:46:58.001Z</time></trkpt><trkpt lat="36.958797361224576" lon="14.983010937539294"><ele>574.6666666666666</ele><time>2026-04-11T15:46:59.001Z</time></trkpt><trkpt lat="36.95877907669722" lon="14.98293104782262"><ele>575.0</ele><time>2026-04-11T15:47:02.001Z</time></trkpt><trkpt lat="36.95874709665876" lon="14.982855141060243"><ele>575.0</ele><time>2026-04-11T15:47:05.001Z</time></trkpt><trkpt lat="36.958735089928695" lon="14.982771320934532"><ele>575.0</ele><time>2026-04-11T15:47:08.001Z</time></trkpt><trkpt lat="36.95875720553658" lon="14.982694716805629"><ele>575.0</ele><time>2026-04-11T15:47:11.001Z</time></trkpt><trkpt lat="36.958771571790365" lon="14.982588282385956"><ele>575.0</ele><time>2026-04-11T15:47:16.001Z</time></trkpt><trkpt lat="36.95879518702573" lon="14.982495901477412"><ele>575.0</ele><time>2026-04-11T15:47:19.001Z</time></trkpt><trkpt lat="36.95880615062325" lon="14.982386313139543"><ele>575.0</ele><time>2026-04-11T15:47:22.001Z</time></trkpt><trkpt lat="36.95882618378964" lon="14.982280399071694"><ele>575.0</ele><time>2026-04-11T15:47:24.001Z</time></trkpt><trkpt lat="36.95883487008804" lon="14.982194950081597"><ele>575.0</ele><time>2026-04-11T15:47:26.001Z</time></trkpt><trkpt lat="36.95882784646715" lon="14.982081693286162"><ele>575.0</ele><time>2026-04-11T15:47:28.001Z</time></trkpt><trkpt lat="36.95880749020211" lon="14.981999864119883"><ele>575.0</ele><time>2026-04-11T15:47:33Z</time></trkpt><trkpt lat="36.95879548749313" lon="14.981903398351662"><ele>575.0</ele><time>2026-04-11T15:47:38Z</time></trkpt><trkpt lat="36.95880972659718" lon="14.981814785109924"><ele>575.0</ele><time>2026-04-11T15:47:41Z</time></trkpt><trkpt lat="36.958823206811324" lon="14.981726289615008"><ele>575.0</ele><time>2026-04-11T15:47:44Z</time></trkpt><trkpt lat="36.95883753320535" lon="14.981633224686071"><ele>575.0</ele><time>2026-04-11T15:47:47Z</time></trkpt><trkpt lat="36.9588629190263" lon="14.981462758650387"><ele>575.0</ele><time>2026-04-11T15:47:48Z</time></trkpt><trkpt lat="36.958879891304946" lon="14.981365312147487"><ele>575.0</ele><time>2026-04-11T15:47:50Z</time></trkpt><trkpt lat="36.95889460847747" lon="14.981259607113563"><ele>575.0</ele><time>2026-04-11T15:47:53Z</time></trkpt><trkpt lat="36.95890177720082" lon="14.981150550614025"><ele>575.0</ele><time>2026-04-11T15:47:56Z</time></trkpt><trkpt lat="36.95889988125382" lon="14.981071045239489"><ele>575.0</ele><time>2026-04-11T15:48:07Z</time></trkpt><trkpt lat="36.95889232934926" lon="14.980992094885275"><ele>575.0</ele><time>2026-04-11T15:48:09Z</time></trkpt><trkpt lat="36.958917526027975" lon="14.980916506411965"><ele>575.0</ele><time>2026-04-11T15:48:12Z</time></trkpt><trkpt lat="36.95892465906853" lon="14.980832385671437"><ele>575.0</ele><time>2026-04-11T15:48:36Z</time></trkpt><trkpt lat="36.95884572509271" lon="14.980812463636127"><ele>575.0</ele><time>2026-04-11T15:48:40Z</time></trkpt><trkpt lat="36.95878164258993" lon="14.980804087654771"><ele>575.0</ele><time>2026-04-11T15:48:48.001Z</time></trkpt><trkpt lat="36.95874070867245" lon="14.980733059143873"><ele>574.7142857142857</ele><time>2026-04-11T15:48:55.001Z</time></trkpt><trkpt lat="36.95866774966533" lon="14.980742779077412"><ele>574.4285714285713</ele><time>2026-04-11T15:49:13.001Z</time></trkpt><trkpt lat="36.95864610467336" lon="14.980666167915835"><ele>574.1428571428571</ele><time>2026-04-11T15:50:57.001Z</time></trkpt><trkpt lat="36.95860291158987" lon="14.980595602783554"><ele>573.8571428571429</ele><time>2026-04-11T15:51:03.001Z</time></trkpt><trkpt lat="36.95855461191712" lon="14.980523527509193"><ele>573.5714285714287</ele><time>2026-04-11T15:51:08.001Z</time></trkpt><trkpt lat="36.95853756877088" lon="14.980441454918235"><ele>573.2857142857143</ele><time>2026-04-11T15:51:11.001Z</time></trkpt><trkpt lat="36.95851058777373" lon="14.980344697593887"><ele>573.0</ele><time>2026-04-11T15:51:14.001Z</time></trkpt><trkpt lat="36.958475776349616" lon="14.980265173148492"><ele>573.0</ele><time>2026-04-11T15:51:17.001Z</time></trkpt><trkpt lat="36.95838562744571" lon="14.980216357037015"><ele>573.0</ele><time>2026-04-11T15:51:20.001Z</time></trkpt><trkpt lat="36.958322221755886" lon="14.980160481863079"><ele>573.0</ele><time>2026-04-11T15:51:23.001Z</time></trkpt><trkpt lat="36.95827480123635" lon="14.980098534895145"><ele>573.0</ele><time>2026-04-11T15:51:27.001Z</time></trkpt><trkpt lat="36.95821201435681" lon="14.980060582947871"><ele>573.0</ele><time>2026-04-11T15:51:33.001Z</time></trkpt><trkpt lat="36.95814819774433" lon="14.980020391152385"><ele>573.0</ele><time>2026-04-11T15:51:39.001Z</time></trkpt><trkpt lat="36.95810570515761" lon="14.97995229113619"><ele>573.6666666666666</ele><time>2026-04-11T15:51:43Z</time></trkpt><trkpt lat="36.95805200502615" lon="14.979904718650833"><ele>574.3333333333334</ele><time>2026-04-11T15:51:47Z</time></trkpt><trkpt lat="36.95798418040049" lon="14.97986435726721"><ele>575.0</ele><time>2026-04-11T15:51:52Z</time></trkpt><trkpt lat="36.95793012092876" lon="14.979811357648105"><ele>575.6666666666667</ele><time>2026-04-11T15:51:56Z</time></trkpt><trkpt lat="36.95787309203731" lon="14.979737650459516"><ele>576.3333333333334</ele><time>2026-04-11T15:52:00Z</time></trkpt><trkpt lat="36.95779765976602" lon="14.97964459868978"><ele>577.0</ele><time>2026-04-11T15:52:03Z</time></trkpt><trkpt lat="36.957721856554684" lon="14.979585491070187"><ele>577.0</ele><time>2026-04-11T15:52:07Z</time></trkpt><trkpt lat="36.957658551232214" lon="14.979517488882385"><ele>577.0</ele><time>2026-04-11T15:52:09Z</time></trkpt><trkpt lat="36.957601975947185" lon="14.979476431400744"><ele>577.0</ele><time>2026-04-11T15:52:12Z</time></trkpt><trkpt lat="36.95752867676129" lon="14.979455733894557"><ele>577.0</ele><time>2026-04-11T15:52:14Z</time></trkpt><trkpt lat="36.957446875059176" lon="14.979429863542972"><ele>577.0</ele><time>2026-04-11T15:52:17Z</time></trkpt><trkpt lat="36.957380825958204" lon="14.979460917905026"><ele>577.0</ele><time>2026-04-11T15:52:21Z</time></trkpt><trkpt lat="36.95729485408785" lon="14.979468208010381"><ele>577.7142857142857</ele><time>2026-04-11T15:52:24Z</time></trkpt><trkpt lat="36.957225195659774" lon="14.979498890865717"><ele>578.4285714285714</ele><time>2026-04-11T15:52:27Z</time></trkpt><trkpt lat="36.95716638799273" lon="14.979468002196263"><ele>579.1428571428571</ele><time>2026-04-11T15:52:30Z</time></trkpt><trkpt lat="36.957093443739346" lon="14.979500747248471"><ele>579.8571428571429</ele><time>2026-04-11T15:52:32Z</time></trkpt><trkpt lat="36.95701475181494" lon="14.979497271924165"><ele>580.5714285714286</ele><time>2026-04-11T15:52:35Z</time></trkpt><trkpt lat="36.95693527602902" lon="14.979504606276432"><ele>581.2857142857142</ele><time>2026-04-11T15:52:38Z</time></trkpt><trkpt lat="36.95686327397254" lon="14.979517970992177"><ele>582.0</ele><time>2026-04-11T15:52:41Z</time></trkpt><trkpt lat="36.95679967053352" lon="14.979529010485889"><ele>581.6</ele><time>2026-04-11T15:52:43Z</time></trkpt><trkpt lat="36.95668294978417" lon="14.979563497228943"><ele>581.2</ele><time>2026-04-11T15:52:45.001Z</time></trkpt><trkpt lat="36.95659429788752" lon="14.979538966083535"><ele>580.8</ele><time>2026-04-11T15:52:47.001Z</time></trkpt><trkpt lat="36.95652111987939" lon="14.979516480669087"><ele>580.4</ele><time>2026-04-11T15:52:48.001Z</time></trkpt><trkpt lat="36.95640971839189" lon="14.97945906755089"><ele>580.0</ele><time>2026-04-11T15:52:50.001Z</time></trkpt><trkpt lat="36.95633652268448" lon="14.979412065533813"><ele>580.0</ele><time>2026-04-11T15:52:51.001Z</time></trkpt><trkpt lat="36.95626627444488" lon="14.979363545601908"><ele>580.0</ele><time>2026-04-11T15:52:52.001Z</time></trkpt><trkpt lat="36.95619085282059" lon="14.97929760622178"><ele>580.0</ele><time>2026-04-11T15:52:53.001Z</time></trkpt><trkpt lat="36.956115905238576" lon="14.979254753013619"><ele>580.0</ele><time>2026-04-11T15:52:54.001Z</time></trkpt><trkpt lat="36.95605512298285" lon="14.979216563292237"><ele>580.0</ele><time>2026-04-11T15:52:55.001Z</time></trkpt><trkpt lat="36.955999391083225" lon="14.979175833486275"><ele>580.0</ele><time>2026-04-11T15:52:56.001Z</time></trkpt><trkpt lat="36.955939091603724" lon="14.979136709966113"><ele>580.1428571428571</ele><time>2026-04-11T15:52:57.001Z</time></trkpt><trkpt lat="36.95587837400141" lon="14.979108454743066"><ele>580.2857142857143</ele><time>2026-04-11T15:52:58.001Z</time></trkpt><trkpt lat="36.95581940506446" lon="14.979073320655056"><ele>580.4285714285714</ele><time>2026-04-11T15:52:59.001Z</time></trkpt><trkpt lat="36.955755753926496" lon="14.979035660540609"><ele>580.5714285714286</ele><time>2026-04-11T15:53:00.001Z</time></trkpt><trkpt lat="36.955690067102154" lon="14.978993488085273"><ele>580.7142857142858</ele><time>2026-04-11T15:53:01.001Z</time></trkpt><trkpt lat="36.955624277557654" lon="14.97894853249219"><ele>580.8571428571429</ele><time>2026-04-11T15:53:02.001Z</time></trkpt><trkpt lat="36.9555570707744" lon="14.978897796515277"><ele>581.0</ele><time>2026-04-11T15:53:03.001Z</time></trkpt><trkpt lat="36.955484864004035" lon="14.978850976294424"><ele>581.4285714285714</ele><time>2026-04-11T15:53:04.001Z</time></trkpt><trkpt lat="36.95541540965125" lon="14.978813441169955"><ele>581.8571428571429</ele><time>2026-04-11T15:53:05.001Z</time></trkpt><trkpt lat="36.955343989800895" lon="14.97877400920199"><ele>582.2857142857142</ele><time>2026-04-11T15:53:06.001Z</time></trkpt><trkpt lat="36.95528003388732" lon="14.978738765414192"><ele>582.7142857142858</ele><time>2026-04-11T15:53:07.001Z</time></trkpt><trkpt lat="36.95522023248039" lon="14.97869844324792"><ele>583.1428571428571</ele><time>2026-04-11T15:53:08.001Z</time></trkpt><trkpt lat="36.95515223125155" lon="14.978651968127897"><ele>583.5714285714286</ele><time>2026-04-11T15:53:09.001Z</time></trkpt><trkpt lat="36.95508612514804" lon="14.978607891541198"><ele>584.0</ele><time>2026-04-11T15:53:10.001Z</time></trkpt><trkpt lat="36.955012133899444" lon="14.978574523284191"><ele>584.0</ele><time>2026-04-11T15:53:11.001Z</time></trkpt><trkpt lat="36.954930178649406" lon="14.978537287304666"><ele>584.0</ele><time>2026-04-11T15:53:12.001Z</time></trkpt><trkpt lat="36.95483677141786" lon="14.978499273177947"><ele>584.0</ele><time>2026-04-11T15:53:13.001Z</time></trkpt><trkpt lat="36.954733228606116" lon="14.978459936044597"><ele>584.0</ele><time>2026-04-11T15:53:14.001Z</time></trkpt><trkpt lat="36.95461714810586" lon="14.978420428917092"><ele>584.0</ele><time>2026-04-11T15:53:15.001Z</time></trkpt><trkpt lat="36.9544910751669" lon="14.978378887067333"><ele>584.4</ele><time>2026-04-11T15:53:16.001Z</time></trkpt><trkpt lat="36.95438159218259" lon="14.978329000251653"><ele>584.8</ele><time>2026-04-11T15:53:17.001Z</time></trkpt><trkpt lat="36.9542905681368" lon="14.978287233456472"><ele>585.2</ele><time>2026-04-11T15:53:18.001Z</time></trkpt><trkpt lat="36.95420156324587" lon="14.978250562185929"><ele>585.6</ele><time>2026-04-11T15:53:19.001Z</time></trkpt><trkpt lat="36.95410007027367" lon="14.97820870888011"><ele>586.0</ele><time>2026-04-11T15:53:20.001Z</time></trkpt><trkpt lat="36.953997431247025" lon="14.978165729335789"><ele>586.3333333333334</ele><time>2026-04-11T15:53:21.001Z</time></trkpt><trkpt lat="36.953899568488296" lon="14.97812431511193"><ele>586.6666666666667</ele><time>2026-04-11T15:53:22.001Z</time></trkpt><trkpt lat="36.953810777623104" lon="14.978087897053314"><ele>587.0</ele><time>2026-04-11T15:53:23.001Z</time></trkpt><trkpt lat="36.95373466866035" lon="14.978061476753327"><ele>587.3333333333334</ele><time>2026-04-11T15:53:24.001Z</time></trkpt><trkpt lat="36.95365365544395" lon="14.978040671505012"><ele>587.6666666666666</ele><time>2026-04-11T15:53:25.001Z</time></trkpt><trkpt lat="36.95356508113802" lon="14.978026210543916"><ele>588.0</ele><time>2026-04-11T15:53:26.001Z</time></trkpt><trkpt lat="36.95347320572128" lon="14.977990464177081"><ele>588.5</ele><time>2026-04-11T15:53:27.001Z</time></trkpt><trkpt lat="36.95335568845796" lon="14.9779725837975"><ele>589.0</ele><time>2026-04-11T15:53:28.001Z</time></trkpt><trkpt lat="36.95320035117524" lon="14.977949254218744"><ele>589.5</ele><time>2026-04-11T15:53:29.001Z</time></trkpt><trkpt lat="36.9530370224294" lon="14.977942977478339"><ele>590.0</ele><time>2026-04-11T15:53:30.001Z</time></trkpt><trkpt lat="36.952900137681645" lon="14.977917629192875"><ele>590.0</ele><time>2026-04-11T15:53:31.001Z</time></trkpt><trkpt lat="36.95279087984748" lon="14.977891177521338"><ele>590.0</ele><time>2026-04-11T15:53:32.001Z</time></trkpt><trkpt lat="36.95271438979408" lon="14.977866412495024"><ele>590.0</ele><time>2026-04-11T15:53:33.001Z</time></trkpt><trkpt lat="36.95262203734198" lon="14.977785286327729"><ele>590.0</ele><time>2026-04-11T15:53:35.001Z</time></trkpt><trkpt lat="36.95257834364682" lon="14.977671266232036"><ele>590.0</ele><time>2026-04-11T15:53:36.001Z</time></trkpt><trkpt lat="36.952522713873506" lon="14.977533643711327"><ele>589.5</ele><time>2026-04-11T15:53:37.001Z</time></trkpt><trkpt lat="36.95245565306268" lon="14.97739356100285"><ele>589.0</ele><time>2026-04-11T15:53:38.001Z</time></trkpt><trkpt lat="36.95239547323129" lon="14.97725427262878"><ele>588.5</ele><time>2026-04-11T15:53:39.001Z</time></trkpt><trkpt lat="36.95235062146387" lon="14.97713363983194"><ele>588.0</ele><time>2026-04-11T15:53:40.001Z</time></trkpt><trkpt lat="36.952304924086306" lon="14.977033412319473"><ele>588.0</ele><time>2026-04-11T15:53:41.001Z</time></trkpt><trkpt lat="36.9522654570394" lon="14.976958815833495"><ele>588.0</ele><time>2026-04-11T15:53:42.001Z</time></trkpt><trkpt lat="36.95222482459122" lon="14.976866710293"><ele>588.0</ele><time>2026-04-11T15:53:46.001Z</time></trkpt><trkpt lat="36.952128753341576" lon="14.976937573303152"><ele>588.0</ele><time>2026-04-11T15:53:47Z</time></trkpt><trkpt lat="36.95206449048845" lon="14.977012212096556"><ele>588.0</ele><time>2026-04-11T15:53:48Z</time></trkpt><trkpt lat="36.95199421771831" lon="14.977102876302098"><ele>588.0</ele><time>2026-04-11T15:53:49Z</time></trkpt><trkpt lat="36.95191208882394" lon="14.977197612158763"><ele>588.0</ele><time>2026-04-11T15:53:50Z</time></trkpt><trkpt lat="36.951826521159255" lon="14.977296273622688"><ele>588.0</ele><time>2026-04-11T15:53:51Z</time></trkpt><trkpt lat="36.951721252312836" lon="14.977366322444102"><ele>588.0</ele><time>2026-04-11T15:53:52Z</time></trkpt><trkpt lat="36.951623665013415" lon="14.977448364076782"><ele>587.5</ele><time>2026-04-11T15:53:53Z</time></trkpt><trkpt lat="36.95153085906743" lon="14.97754534385837"><ele>587.0</ele><time>2026-04-11T15:53:54Z</time></trkpt><trkpt lat="36.9514229636115" lon="14.977623619270108"><ele>586.5</ele><time>2026-04-11T15:53:55Z</time></trkpt><trkpt lat="36.95131190217173" lon="14.977703469728336"><ele>586.0</ele><time>2026-04-11T15:53:56Z</time></trkpt><trkpt lat="36.95119417365601" lon="14.977773676626068"><ele>586.0</ele><time>2026-04-11T15:53:57Z</time></trkpt><trkpt lat="36.95106947962158" lon="14.977838598340384"><ele>586.0</ele><time>2026-04-11T15:53:58Z</time></trkpt><trkpt lat="36.95092850323855" lon="14.977872724856503"><ele>586.0</ele><time>2026-04-11T15:53:59Z</time></trkpt><trkpt lat="36.950787297002265" lon="14.977921770139252"><ele>586.0</ele><time>2026-04-11T15:54:00Z</time></trkpt><trkpt lat="36.950644175431464" lon="14.977973569166151"><ele>585.3333333333334</ele><time>2026-04-11T15:54:01Z</time></trkpt><trkpt lat="36.950492104436364" lon="14.978033557073156"><ele>584.6666666666666</ele><time>2026-04-11T15:54:02Z</time></trkpt><trkpt lat="36.95033537806718" lon="14.978113048973368"><ele>584.0</ele><time>2026-04-11T15:54:03Z</time></trkpt><trkpt lat="36.95018314265742" lon="14.97819981301829"><ele>583.3333333333333</ele><time>2026-04-11T15:54:04Z</time></trkpt><trkpt lat="36.950037797316064" lon="14.978282163856592"><ele>582.6666666666666</ele><time>2026-04-11T15:54:05Z</time></trkpt><trkpt lat="36.94989232983279" lon="14.978364584056955"><ele>582.0</ele><time>2026-04-11T15:54:06Z</time></trkpt><trkpt lat="36.94974585537932" lon="14.978444576396347"><ele>582.0</ele><time>2026-04-11T15:54:07Z</time></trkpt><trkpt lat="36.949599488669314" lon="14.978524352331073"><ele>582.0</ele><time>2026-04-11T15:54:08Z</time></trkpt><trkpt lat="36.949450594329015" lon="14.97860550775201"><ele>582.0</ele><time>2026-04-11T15:54:09Z</time></trkpt><trkpt lat="36.94929938507428" lon="14.978669561119395"><ele>581.0</ele><time>2026-04-11T15:54:10Z</time></trkpt><trkpt lat="36.94913155702883" lon="14.978730094553143"><ele>580.0</ele><time>2026-04-11T15:54:11Z</time></trkpt><trkpt lat="36.94895535799024" lon="14.978777390633345"><ele>579.0</ele><time>2026-04-11T15:54:12Z</time></trkpt><trkpt lat="36.94878553806603" lon="14.978812020124067"><ele>579.0</ele><time>2026-04-11T15:54:13Z</time></trkpt><trkpt lat="36.94862518696694" lon="14.97884389852391"><ele>579.0</ele><time>2026-04-11T15:54:14Z</time></trkpt><trkpt lat="36.94847118632193" lon="14.97888925505547"><ele>579.0</ele><time>2026-04-11T15:54:15Z</time></trkpt><trkpt lat="36.94831573034483" lon="14.97891579984753"><ele>578.3333333333334</ele><time>2026-04-11T15:54:16Z</time></trkpt><trkpt lat="36.948166805693354" lon="14.978951181748316"><ele>577.6666666666667</ele><time>2026-04-11T15:54:17Z</time></trkpt><trkpt lat="36.94801546901462" lon="14.978961292904694"><ele>577.0</ele><time>2026-04-11T15:54:18Z</time></trkpt><trkpt lat="36.94786527142249" lon="14.978985520089438"><ele>577.0</ele><time>2026-04-11T15:54:19Z</time></trkpt><trkpt lat="36.947716924432775" lon="14.979006544476837"><ele>577.0</ele><time>2026-04-11T15:54:20Z</time></trkpt><trkpt lat="36.94756802941795" lon="14.979017310910349"><ele>577.0</ele><time>2026-04-11T15:54:21Z</time></trkpt><trkpt lat="36.947421391025244" lon="14.979016770622906"><ele>577.0</ele><time>2026-04-11T15:54:22Z</time></trkpt><trkpt lat="36.94727801850208" lon="14.978996936249228"><ele>576.5</ele><time>2026-04-11T15:54:23Z</time></trkpt><trkpt lat="36.947138200046275" lon="14.978956574945164"><ele>576.0</ele><time>2026-04-11T15:54:24Z</time></trkpt><trkpt lat="36.94699149981135" lon="14.978922729632997"><ele>575.5</ele><time>2026-04-11T15:54:25Z</time></trkpt><trkpt lat="36.94685315869605" lon="14.97886229685353"><ele>575.0</ele><time>2026-04-11T15:54:26Z</time></trkpt><trkpt lat="36.94671202113677" lon="14.978814606771174"><ele>575.0</ele><time>2026-04-11T15:54:27Z</time></trkpt><trkpt lat="36.946570733556136" lon="14.978780210947253"><ele>575.0</ele><time>2026-04-11T15:54:28Z</time></trkpt><trkpt lat="36.94641702542355" lon="14.978753150055676"><ele>575.0</ele><time>2026-04-11T15:54:29Z</time></trkpt><trkpt lat="36.946255785565874" lon="14.978731698327186"><ele>575.0</ele><time>2026-04-11T15:54:30Z</time></trkpt><trkpt lat="36.94609401445126" lon="14.978726202882989"><ele>575.0</ele><time>2026-04-11T15:54:31Z</time></trkpt><trkpt lat="36.94593382817378" lon="14.978718939832392"><ele>575.0</ele><time>2026-04-11T15:54:32Z</time></trkpt><trkpt lat="36.94577886448856" lon="14.978694299423646"><ele>575.0</ele><time>2026-04-11T15:54:33Z</time></trkpt><trkpt lat="36.94562664372234" lon="14.97865043169493"><ele>575.0</ele><time>2026-04-11T15:54:34Z</time></trkpt><trkpt lat="36.9454844555985" lon="14.978594263058264"><ele>575.0</ele><time>2026-04-11T15:54:35Z</time></trkpt><trkpt lat="36.945346881395274" lon="14.978528516920887"><ele>575.0</ele><time>2026-04-11T15:54:36Z</time></trkpt><trkpt lat="36.94521518950246" lon="14.978444195416854"><ele>575.0</ele><time>2026-04-11T15:54:37Z</time></trkpt><trkpt lat="36.94509434872598" lon="14.978347358568312"><ele>575.0</ele><time>2026-04-11T15:54:38Z</time></trkpt><trkpt lat="36.94497463837642" lon="14.97825189300058"><ele>575.0</ele><time>2026-04-11T15:54:39Z</time></trkpt><trkpt lat="36.94485940259019" lon="14.978172993231206"><ele>573.5</ele><time>2026-04-11T15:54:40Z</time></trkpt><trkpt lat="36.94475161716744" lon="14.978113090866508"><ele>572.0</ele><time>2026-04-11T15:54:41Z</time></trkpt><trkpt lat="36.94464235662592" lon="14.978084557148073"><ele>570.5</ele><time>2026-04-11T15:54:42Z</time></trkpt><trkpt lat="36.9445315469036" lon="14.978098327876399"><ele>569.0</ele><time>2026-04-11T15:54:43Z</time></trkpt><trkpt lat="36.94441207017364" lon="14.978123070364282"><ele>569.0</ele><time>2026-04-11T15:54:44Z</time></trkpt><trkpt lat="36.944285178755365" lon="14.978162495132667"><ele>569.0</ele><time>2026-04-11T15:54:45Z</time></trkpt><trkpt lat="36.944149801044695" lon="14.978205390518662"><ele>569.0</ele><time>2026-04-11T15:54:46Z</time></trkpt><trkpt lat="36.94399361955519" lon="14.978245773743515"><ele>569.0</ele><time>2026-04-11T15:54:47Z</time></trkpt><trkpt lat="36.94382818105384" lon="14.978299672050776"><ele>568.3333333333333</ele><time>2026-04-11T15:54:48Z</time></trkpt><trkpt lat="36.943649475787886" lon="14.97835707164279"><ele>567.6666666666666</ele><time>2026-04-11T15:54:49.001Z</time></trkpt><trkpt lat="36.94346686535963" lon="14.978410414813656"><ele>567.0</ele><time>2026-04-11T15:54:50.001Z</time></trkpt><trkpt lat="36.94329262227971" lon="14.97847648145425"><ele>566.0</ele><time>2026-04-11T15:54:51.001Z</time></trkpt><trkpt lat="36.94312610374397" lon="14.978516455208267"><ele>565.0</ele><time>2026-04-11T15:54:52.001Z</time></trkpt><trkpt lat="36.942963923754185" lon="14.978544516808235"><ele>564.0</ele><time>2026-04-11T15:54:53.001Z</time></trkpt><trkpt lat="36.9428155790431" lon="14.978578626194626"><ele>564.0</ele><time>2026-04-11T15:54:54.001Z</time></trkpt><trkpt lat="36.942685044468945" lon="14.978605744290103"><ele>564.0</ele><time>2026-04-11T15:54:55.001Z</time></trkpt><trkpt lat="36.942569701743764" lon="14.978629340754361"><ele>564.0</ele><time>2026-04-11T15:54:56.001Z</time></trkpt><trkpt lat="36.94245532528011" lon="14.978653084385304"><ele>564.0</ele><time>2026-04-11T15:54:57.001Z</time></trkpt><trkpt lat="36.942353350443106" lon="14.978694121593964"><ele>563.6</ele><time>2026-04-11T15:54:58.001Z</time></trkpt><trkpt lat="36.94226105988643" lon="14.978712576735463"><ele>563.2</ele><time>2026-04-11T15:54:59.001Z</time></trkpt><trkpt lat="36.94217723113827" lon="14.978713738652043"><ele>562.8000000000001</ele><time>2026-04-11T15:55:00.001Z</time></trkpt><trkpt lat="36.94211485319257" lon="14.978746576494986"><ele>562.4</ele><time>2026-04-11T15:55:01.001Z</time></trkpt><trkpt lat="36.94201243451752" lon="14.978767092645512"><ele>562.0</ele><time>2026-04-11T15:55:03.001Z</time></trkpt><trkpt lat="36.94194776192324" lon="14.978654154512707"><ele>562.0</ele><time>2026-04-11T15:55:06.001Z</time></trkpt><trkpt lat="36.941919448182105" lon="14.978557463056715"><ele>562.0</ele><time>2026-04-11T15:55:07.001Z</time></trkpt><trkpt lat="36.9418831237253" lon="14.978439567046767"><ele>562.0</ele><time>2026-04-11T15:55:08.001Z</time></trkpt><trkpt lat="36.94184313710017" lon="14.978325955409542"><ele>562.0</ele><time>2026-04-11T15:55:09.001Z</time></trkpt><trkpt lat="36.941800710117725" lon="14.978218381527196"><ele>562.0</ele><time>2026-04-11T15:55:10.001Z</time></trkpt><trkpt lat="36.941755166556845" lon="14.978112270840255"><ele>562.25</ele><time>2026-04-11T15:55:11.001Z</time></trkpt><trkpt lat="36.94170119912078" lon="14.978003451197697"><ele>562.5</ele><time>2026-04-11T15:55:12.001Z</time></trkpt><trkpt lat="36.94163324800807" lon="14.977886668051516"><ele>562.75</ele><time>2026-04-11T15:55:13.001Z</time></trkpt><trkpt lat="36.94156264880523" lon="14.977761298930837"><ele>563.0</ele><time>2026-04-11T15:55:14.001Z</time></trkpt><trkpt lat="36.9414941909135" lon="14.977629684660686"><ele>563.4</ele><time>2026-04-11T15:55:15.001Z</time></trkpt><trkpt lat="36.941437351392494" lon="14.977514253976514"><ele>563.8</ele><time>2026-04-11T15:55:16.001Z</time></trkpt><trkpt lat="36.941383556676215" lon="14.977414707425007"><ele>564.2</ele><time>2026-04-11T15:55:17.001Z</time></trkpt><trkpt lat="36.94132652554774" lon="14.977317328193756"><ele>564.6</ele><time>2026-04-11T15:55:18.001Z</time></trkpt><trkpt lat="36.94127176221062" lon="14.977220763491891"><ele>565.0</ele><time>2026-04-11T15:55:19.001Z</time></trkpt><trkpt lat="36.94122160194515" lon="14.977115478387285"><ele>565.0</ele><time>2026-04-11T15:55:20.001Z</time></trkpt><trkpt lat="36.94117574487471" lon="14.977000539406786"><ele>565.0</ele><time>2026-04-11T15:55:21.001Z</time></trkpt><trkpt lat="36.941129960625354" lon="14.976875787907044"><ele>565.0</ele><time>2026-04-11T15:55:22.001Z</time></trkpt><trkpt lat="36.94107906540231" lon="14.976748417532043"><ele>565.0</ele><time>2026-04-11T15:55:23.001Z</time></trkpt><trkpt lat="36.94102979307491" lon="14.976634938080917"><ele>565.0</ele><time>2026-04-11T15:55:24.001Z</time></trkpt><trkpt lat="36.940971094112946" lon="14.97651459540033"><ele>564.75</ele><time>2026-04-11T15:55:25.001Z</time></trkpt><trkpt lat="36.94091587859328" lon="14.976383179345733"><ele>564.5</ele><time>2026-04-11T15:55:26.001Z</time></trkpt><trkpt lat="36.94086529548635" lon="14.976256233591098"><ele>564.25</ele><time>2026-04-11T15:55:27.001Z</time></trkpt><trkpt lat="36.94081479194899" lon="14.976126321248659"><ele>564.0</ele><time>2026-04-11T15:55:28.001Z</time></trkpt><trkpt lat="36.940766936185945" lon="14.976001768117339"><ele>562.6</ele><time>2026-04-11T15:55:29.001Z</time></trkpt><trkpt lat="36.940725856983086" lon="14.975885476962908"><ele>561.2</ele><time>2026-04-11T15:55:30.001Z</time></trkpt><trkpt lat="36.94069225263907" lon="14.975765847040364"><ele>559.8000000000001</ele><time>2026-04-11T15:55:31.001Z</time></trkpt><trkpt lat="36.94065485176854" lon="14.975639751668263"><ele>558.4</ele><time>2026-04-11T15:55:32.001Z</time></trkpt><trkpt lat="36.94061443027783" lon="14.975515672138991"><ele>557.0</ele><time>2026-04-11T15:55:33.001Z</time></trkpt><trkpt lat="36.94057727938356" lon="14.975394797416508"><ele>555.2</ele><time>2026-04-11T15:55:34.001Z</time></trkpt><trkpt lat="36.94054485556783" lon="14.97527108851194"><ele>553.4000000000001</ele><time>2026-04-11T15:55:35.001Z</time></trkpt><trkpt lat="36.94052331496123" lon="14.97515455413933"><ele>551.5999999999999</ele><time>2026-04-11T15:55:36.001Z</time></trkpt><trkpt lat="36.940518386901026" lon="14.975054082952695"><ele>549.8</ele><time>2026-04-11T15:55:37.001Z</time></trkpt><trkpt lat="36.94053123088957" lon="14.974945752172118"><ele>548.0</ele><time>2026-04-11T15:55:38.001Z</time></trkpt><trkpt lat="36.940549638789776" lon="14.974816140255625"><ele>545.5</ele><time>2026-04-11T15:55:39.001Z</time></trkpt><trkpt lat="36.94054912404122" lon="14.97467481730997"><ele>543.0</ele><time>2026-04-11T15:55:40.001Z</time></trkpt><trkpt lat="36.94052248594374" lon="14.97452293840047"><ele>540.5</ele><time>2026-04-11T15:55:41.001Z</time></trkpt><trkpt lat="36.9404871212157" lon="14.974363570901746"><ele>538.0</ele><time>2026-04-11T15:55:42.001Z</time></trkpt><trkpt lat="36.94045146680207" lon="14.974194883252286"><ele>535.0</ele><time>2026-04-11T15:55:43.001Z</time></trkpt><trkpt lat="36.94041536462667" lon="14.974023767181768"><ele>532.0</ele><time>2026-04-11T15:55:44.001Z</time></trkpt><trkpt lat="36.94037808515157" lon="14.97385865965828"><ele>529.0</ele><time>2026-04-11T15:55:45.001Z</time></trkpt><trkpt lat="36.94034604491409" lon="14.97369472722793"><ele>526.0</ele><time>2026-04-11T15:55:46.001Z</time></trkpt><trkpt lat="36.940321847462045" lon="14.97354380803858"><ele>526.0</ele><time>2026-04-11T15:55:47.001Z</time></trkpt><trkpt lat="36.94030886980588" lon="14.973401445401386"><ele>526.0</ele><time>2026-04-11T15:55:48.001Z</time></trkpt><trkpt lat="36.94030401053752" lon="14.973249351144087"><ele>526.0</ele><time>2026-04-11T15:55:49.001Z</time></trkpt><trkpt lat="36.94030792577127" lon="14.973104625582721"><ele>526.0</ele><time>2026-04-11T15:55:50.001Z</time></trkpt><trkpt lat="36.94032248249889" lon="14.972964817311789"><ele>524.25</ele><time>2026-04-11T15:55:51.001Z</time></trkpt><trkpt lat="36.94034827134789" lon="14.972821873724461"><ele>522.5</ele><time>2026-04-11T15:55:52.001Z</time></trkpt><trkpt lat="36.940382623144174" lon="14.972685119618204"><ele>520.75</ele><time>2026-04-11T15:55:53Z</time></trkpt><trkpt lat="36.940411498989484" lon="14.972548803224441"><ele>519.0</ele><time>2026-04-11T15:55:54Z</time></trkpt><trkpt lat="36.94042425483544" lon="14.972411383787323"><ele>517.25</ele><time>2026-04-11T15:55:55Z</time></trkpt><trkpt lat="36.940423899965786" lon="14.97226427010079"><ele>515.5</ele><time>2026-04-11T15:55:56Z</time></trkpt><trkpt lat="36.940412799915805" lon="14.972115685655993"><ele>513.75</ele><time>2026-04-11T15:55:57Z</time></trkpt><trkpt lat="36.940403935223856" lon="14.971961115437306"><ele>512.0</ele><time>2026-04-11T15:55:58Z</time></trkpt><trkpt lat="36.94040119204136" lon="14.971794245656087"><ele>511.0</ele><time>2026-04-11T15:55:59Z</time></trkpt><trkpt lat="36.94040643090661" lon="14.97162226667041"><ele>510.0</ele><time>2026-04-11T15:56:00Z</time></trkpt><trkpt lat="36.94041555375796" lon="14.971448569402362"><ele>509.0</ele><time>2026-04-11T15:56:01Z</time></trkpt><trkpt lat="36.94042254846452" lon="14.971288445466728"><ele>508.0</ele><time>2026-04-11T15:56:02Z</time></trkpt><trkpt lat="36.94043815244353" lon="14.97112841682514"><ele>508.0</ele><time>2026-04-11T15:56:03Z</time></trkpt><trkpt lat="36.94046291410524" lon="14.970970592366118"><ele>508.0</ele><time>2026-04-11T15:56:04Z</time></trkpt><trkpt lat="36.94049425110267" lon="14.970814084526483"><ele>508.0</ele><time>2026-04-11T15:56:05Z</time></trkpt><trkpt lat="36.940523579932744" lon="14.970652862094218"><ele>508.0</ele><time>2026-04-11T15:56:06Z</time></trkpt><trkpt lat="36.940553899567426" lon="14.970498221002115"><ele>507.5</ele><time>2026-04-11T15:56:07Z</time></trkpt><trkpt lat="36.94058202317521" lon="14.970352181715288"><ele>507.0</ele><time>2026-04-11T15:56:08Z</time></trkpt><trkpt lat="36.94060793164236" lon="14.97020666269351"><ele>506.5</ele><time>2026-04-11T15:56:09Z</time></trkpt><trkpt lat="36.940627770702726" lon="14.970057060264706"><ele>506.0</ele><time>2026-04-11T15:56:10Z</time></trkpt><trkpt lat="36.94064232335505" lon="14.969903548201831"><ele>506.0</ele><time>2026-04-11T15:56:11Z</time></trkpt><trkpt lat="36.94066515361758" lon="14.969752500992987"><ele>506.0</ele><time>2026-04-11T15:56:12Z</time></trkpt><trkpt lat="36.94068685510956" lon="14.969597125869976"><ele>506.0</ele><time>2026-04-11T15:56:13Z</time></trkpt><trkpt lat="36.94070945855578" lon="14.969442054555433"><ele>506.0</ele><time>2026-04-11T15:56:14Z</time></trkpt><trkpt lat="36.9407327180089" lon="14.969288470337048"><ele>506.4</ele><time>2026-04-11T15:56:15Z</time></trkpt><trkpt lat="36.9407627290128" lon="14.96914470882762"><ele>506.8</ele><time>2026-04-11T15:56:16Z</time></trkpt><trkpt lat="36.94078570938529" lon="14.969019559511926"><ele>507.19999999999993</ele><time>2026-04-11T15:56:17Z</time></trkpt><trkpt lat="36.9408038586013" lon="14.968927415397674"><ele>507.59999999999997</ele><time>2026-04-11T15:56:18Z</time></trkpt><trkpt lat="36.940844484731606" lon="14.96883231267687"><ele>508.0</ele><time>2026-04-11T15:56:20Z</time></trkpt><trkpt lat="36.94090875022668" lon="14.968748596991777"><ele>508.00000000000006</ele><time>2026-04-11T15:56:24Z</time></trkpt><trkpt lat="36.940879477235875" lon="14.968843345677497"><ele>508.0</ele><time>2026-04-11T15:56:36Z</time></trkpt><trkpt lat="36.940826137299595" lon="14.968796319140306"><ele>508.0</ele><time>2026-04-11T15:56:42Z</time></trkpt><trkpt lat="36.94084218918041" lon="14.968718725620738"><ele>508.0</ele><time>2026-04-11T15:56:44Z</time></trkpt><trkpt lat="36.94090326561273" lon="14.968612089218464"><ele>508.00000000000006</ele><time>2026-04-11T15:56:46Z</time></trkpt><trkpt lat="36.94097229279774" lon="14.968499445209789"><ele>508.0</ele><time>2026-04-11T15:56:48Z</time></trkpt><trkpt lat="36.941049526338766" lon="14.968487313367753"><ele>508.33333333333337</ele><time>2026-04-11T15:56:49Z</time></trkpt><trkpt lat="36.941081084166484" lon="14.968413931259999"><ele>508.6666666666667</ele><time>2026-04-11T15:56:51Z</time></trkpt><trkpt lat="36.94111037949071" lon="14.968320677014619"><ele>509.0</ele><time>2026-04-11T15:56:53.001Z</time></trkpt><trkpt lat="36.94113218068223" lon="14.96824615301249"><ele>509.33333333333337</ele><time>2026-04-11T15:57:04.001Z</time></trkpt><trkpt lat="36.941129611776276" lon="14.968151496474057"><ele>509.6666666666667</ele><time>2026-04-11T15:57:14.001Z</time></trkpt><trkpt lat="36.941161375776666" lon="14.968031894872839"><ele>510.0</ele><time>2026-04-11T15:57:17.001Z</time></trkpt><trkpt lat="36.94116426063735" lon="14.967932752016543"><ele>510.0</ele><time>2026-04-11T15:57:20.001Z</time></trkpt><trkpt lat="36.94118234856936" lon="14.967769751628504"><ele>510.0</ele><time>2026-04-11T15:57:23.001Z</time></trkpt><trkpt lat="36.941196316800685" lon="14.967613795275472"><ele>510.0</ele><time>2026-04-11T15:57:25.001Z</time></trkpt><trkpt lat="36.94122948254493" lon="14.967513775936146"><ele>510.0</ele><time>2026-04-11T15:57:27.001Z</time></trkpt><trkpt lat="36.941257269197855" lon="14.967416562393527"><ele>510.0</ele><time>2026-04-11T15:57:29.001Z</time></trkpt><trkpt lat="36.9412848692162" lon="14.967311519951378"><ele>510.5</ele><time>2026-04-11T15:57:31.001Z</time></trkpt><trkpt lat="36.94131059312647" lon="14.967207359927613"><ele>511.0</ele><time>2026-04-11T15:57:33.001Z</time></trkpt><trkpt lat="36.94134117658525" lon="14.967124306051335"><ele>511.5</ele><time>2026-04-11T15:57:35.001Z</time></trkpt><trkpt lat="36.94138019342088" lon="14.967031694821916"><ele>512.0</ele><time>2026-04-11T15:57:37.001Z</time></trkpt><trkpt lat="36.94141477974121" lon="14.966932165385979"><ele>512.5</ele><time>2026-04-11T15:57:39.001Z</time></trkpt><trkpt lat="36.94145444128194" lon="14.966841387151954"><ele>513.0</ele><time>2026-04-11T15:57:41.001Z</time></trkpt><trkpt lat="36.941489992752224" lon="14.966747014985652"><ele>512.0</ele><time>2026-04-11T15:57:43.001Z</time></trkpt><trkpt lat="36.941531108169876" lon="14.96664488575581"><ele>510.99999999999994</ele><time>2026-04-11T15:57:46.001Z</time></trkpt><trkpt lat="36.94154066435851" lon="14.966517437335868"><ele>509.99999999999994</ele><time>2026-04-11T15:57:48.001Z</time></trkpt><trkpt lat="36.941544994698" lon="14.966351927314165"><ele>509.0</ele><time>2026-04-11T15:57:50.001Z</time></trkpt><trkpt lat="36.94155320163035" lon="14.966249419542688"><ele>508.0</ele><time>2026-04-11T15:57:52.001Z</time></trkpt><trkpt lat="36.941543714965476" lon="14.966081244198556"><ele>508.0</ele><time>2026-04-11T15:57:54.001Z</time></trkpt><trkpt lat="36.94153681170887" lon="14.9659978788479"><ele>507.99999999999994</ele><time>2026-04-11T15:57:55.001Z</time></trkpt><trkpt lat="36.941529805668175" lon="14.965916719771725"><ele>507.99999999999994</ele><time>2026-04-11T15:57:56.001Z</time></trkpt><trkpt lat="36.941510255158185" lon="14.965762016659502"><ele>508.0</ele><time>2026-04-11T15:57:58.001Z</time></trkpt><trkpt lat="36.94146680569933" lon="14.965605072663294"><ele>508.0</ele><time>2026-04-11T15:58:00Z</time></trkpt><trkpt lat="36.941461829618866" lon="14.965494477480096"><ele>507.6666666666667</ele><time>2026-04-11T15:58:03Z</time></trkpt><trkpt lat="36.94144973357647" lon="14.965399529805989"><ele>507.33333333333337</ele><time>2026-04-11T15:58:05Z</time></trkpt><trkpt lat="36.941421136276" lon="14.965311585075288"><ele>507.0</ele><time>2026-04-11T15:58:07Z</time></trkpt><trkpt lat="36.94137156754124" lon="14.965225843692977"><ele>506.66666666666663</ele><time>2026-04-11T15:58:09Z</time></trkpt><trkpt lat="36.94132283432361" lon="14.965129629745656"><ele>506.3333333333333</ele><time>2026-04-11T15:58:11Z</time></trkpt><trkpt lat="36.94129398598031" lon="14.96503591136956"><ele>506.0</ele><time>2026-04-11T15:58:14Z</time></trkpt><trkpt lat="36.941311823957186" lon="14.964947216144617"><ele>504.4</ele><time>2026-04-11T15:58:17Z</time></trkpt><trkpt lat="36.941320827691285" lon="14.964867003238227"><ele>502.8</ele><time>2026-04-11T15:58:20Z</time></trkpt><trkpt lat="36.941312177351094" lon="14.964757049295088"><ele>501.19999999999993</ele><time>2026-04-11T15:58:24Z</time></trkpt><trkpt lat="36.941267425371116" lon="14.964524917613325"><ele>499.59999999999997</ele><time>2026-04-11T15:58:27Z</time></trkpt><trkpt lat="36.94127016471679" lon="14.964430928647879"><ele>498.0</ele><time>2026-04-11T15:58:31Z</time></trkpt><trkpt lat="36.94123992854587" lon="14.964324146359658"><ele>498.0</ele><time>2026-04-11T15:58:35Z</time></trkpt><trkpt lat="36.94121380706076" lon="14.964250171784881"><ele>498.0</ele><time>2026-04-11T15:58:37Z</time></trkpt><trkpt lat="36.94117158752415" lon="14.964144804010532"><ele>498.0</ele><time>2026-04-11T15:58:39Z</time></trkpt><trkpt lat="36.941111332156304" lon="14.964039355992197"><ele>498.0</ele><time>2026-04-11T15:58:40Z</time></trkpt><trkpt lat="36.941085877457915" lon="14.963956964182533"><ele>498.0</ele><time>2026-04-11T15:58:42Z</time></trkpt><trkpt lat="36.94102933747789" lon="14.963873497407434"><ele>498.0</ele><time>2026-04-11T15:58:45Z</time></trkpt><trkpt lat="36.9410964726321" lon="14.963847437908653"><ele>495.4</ele><time>2026-04-11T15:59:08.001Z</time></trkpt><trkpt lat="36.94109041207665" lon="14.963761464154794"><ele>492.79999999999995</ele><time>2026-04-11T15:59:11.001Z</time></trkpt><trkpt lat="36.941009720359546" lon="14.963682926262834"><ele>490.2</ele><time>2026-04-11T15:59:13.001Z</time></trkpt><trkpt lat="36.94089720955769" lon="14.963657956805466"><ele>487.6</ele><time>2026-04-11T15:59:15.001Z</time></trkpt><trkpt lat="36.94082333316363" lon="14.963615882141816"><ele>485.0</ele><time>2026-04-11T15:59:16.001Z</time></trkpt><trkpt lat="36.94074156066597" lon="14.96352482782381"><ele>488.16666666666663</ele><time>2026-04-11T15:59:17.001Z</time></trkpt><trkpt lat="36.94068144343514" lon="14.963451205114874"><ele>491.3333333333333</ele><time>2026-04-11T15:59:18.001Z</time></trkpt><trkpt lat="36.94062100610846" lon="14.963397247906132"><ele>494.5</ele><time>2026-04-11T15:59:19.001Z</time></trkpt><trkpt lat="36.940565592347674" lon="14.963308615898542"><ele>497.66666666666663</ele><time>2026-04-11T15:59:20.001Z</time></trkpt><trkpt lat="36.940496341858" lon="14.963217630743397"><ele>500.8333333333333</ele><time>2026-04-11T15:59:21.001Z</time></trkpt><trkpt lat="36.940449804108574" lon="14.963139935590934"><ele>504.0</ele><time>2026-04-11T15:59:22.001Z</time></trkpt><trkpt lat="36.94039280636745" lon="14.963047560027025"><ele>504.0</ele><time>2026-04-11T15:59:23.001Z</time></trkpt><trkpt lat="36.94033837396006" lon="14.962957644205055"><ele>504.0</ele><time>2026-04-11T15:59:24.001Z</time></trkpt><trkpt lat="36.94029416926864" lon="14.962874763795943"><ele>504.0</ele><time>2026-04-11T15:59:25.001Z</time></trkpt><trkpt lat="36.9402374910677" lon="14.962795493706883"><ele>504.0</ele><time>2026-04-11T15:59:26.001Z</time></trkpt><trkpt lat="36.940177917069846" lon="14.962725171386202"><ele>504.0</ele><time>2026-04-11T15:59:36.001Z</time></trkpt><trkpt lat="36.940118871088075" lon="14.962675575035991"><ele>504.0</ele><time>2026-04-11T16:00:37Z</time></trkpt><trkpt lat="36.94005968103767" lon="14.962595597690763"><ele>503.0</ele><time>2026-04-11T16:00:39Z</time></trkpt><trkpt lat="36.94000389028618" lon="14.962503731279787"><ele>502.0</ele><time>2026-04-11T16:00:41Z</time></trkpt><trkpt lat="36.939957027271085" lon="14.962383348776518"><ele>501.0</ele><time>2026-04-11T16:00:43Z</time></trkpt><trkpt lat="36.93993814837022" lon="14.962300679644374"><ele>500.0</ele><time>2026-04-11T16:00:44Z</time></trkpt><trkpt lat="36.939922670932766" lon="14.962154399921236"><ele>499.0</ele><time>2026-04-11T16:00:46Z</time></trkpt><trkpt lat="36.93991430374687" lon="14.962070316651097"><ele>499.0</ele><time>2026-04-11T16:00:47Z</time></trkpt><trkpt lat="36.939903786568856" lon="14.961984264132429"><ele>499.0</ele><time>2026-04-11T16:00:48Z</time></trkpt><trkpt lat="36.93989251353135" lon="14.961904844246172"><ele>499.0</ele><time>2026-04-11T16:00:49Z</time></trkpt><trkpt lat="36.93985121417301" lon="14.96176753896951"><ele>499.0</ele><time>2026-04-11T16:00:51Z</time></trkpt><trkpt lat="36.93978651389731" lon="14.96164380731651"><ele>499.0</ele><time>2026-04-11T16:00:53Z</time></trkpt><trkpt lat="36.93972412937661" lon="14.961534919061904"><ele>495.4</ele><time>2026-04-11T16:00:55Z</time></trkpt><trkpt lat="36.939665748366465" lon="14.961436438620575"><ele>491.79999999999995</ele><time>2026-04-11T16:00:57Z</time></trkpt><trkpt lat="36.93961178338457" lon="14.961326138448737"><ele>488.20000000000005</ele><time>2026-04-11T16:00:59Z</time></trkpt><trkpt lat="36.93955685971576" lon="14.961220380820748"><ele>484.6</ele><time>2026-04-11T16:01:01Z</time></trkpt><trkpt lat="36.93949558978107" lon="14.961120258529828"><ele>481.0</ele><time>2026-04-11T16:01:03Z</time></trkpt><trkpt lat="36.93943273364525" lon="14.961012441841259"><ele>481.0</ele><time>2026-04-11T16:01:05Z</time></trkpt><trkpt lat="36.9393687384214" lon="14.960908168360838"><ele>481.0</ele><time>2026-04-11T16:01:07Z</time></trkpt><trkpt lat="36.93929215631435" lon="14.960826031292626"><ele>481.0</ele><time>2026-04-11T16:01:09Z</time></trkpt><trkpt lat="36.93921649876844" lon="14.960717778475413"><ele>481.0</ele><time>2026-04-11T16:01:11Z</time></trkpt><trkpt lat="36.93917041883892" lon="14.960654335122516"><ele>481.0</ele><time>2026-04-11T16:01:12Z</time></trkpt><trkpt lat="36.93913559162754" lon="14.960579990830745"><ele>480.6666666666667</ele><time>2026-04-11T16:01:13Z</time></trkpt><trkpt lat="36.93909979045052" lon="14.960501534404434"><ele>480.33333333333337</ele><time>2026-04-11T16:01:14.001Z</time></trkpt><trkpt lat="36.93906516817086" lon="14.960416828166245"><ele>480.0</ele><time>2026-04-11T16:01:15.001Z</time></trkpt><trkpt lat="36.939027290618746" lon="14.960330364328005"><ele>479.66666666666663</ele><time>2026-04-11T16:01:16.001Z</time></trkpt><trkpt lat="36.93898700404239" lon="14.960241002733776"><ele>479.3333333333333</ele><time>2026-04-11T16:01:17.001Z</time></trkpt><trkpt lat="36.93893280626912" lon="14.960173679306537"><ele>479.0</ele><time>2026-04-11T16:01:18.001Z</time></trkpt><trkpt lat="36.93889306854845" lon="14.960095804013877"><ele>477.0</ele><time>2026-04-11T16:01:19.001Z</time></trkpt><trkpt lat="36.93887079332654" lon="14.960012588821325"><ele>475.0</ele><time>2026-04-11T16:01:20.001Z</time></trkpt><trkpt lat="36.93883549178701" lon="14.959945870159244"><ele>473.0</ele><time>2026-04-11T16:01:21.001Z</time></trkpt><trkpt lat="36.93880777866566" lon="14.95987429412465"><ele>471.0</ele><time>2026-04-11T16:01:22.001Z</time></trkpt><trkpt lat="36.93876144194446" lon="14.959806203266274"><ele>469.0</ele><time>2026-04-11T16:01:23.001Z</time></trkpt><trkpt lat="36.938726390835555" lon="14.959720807657254"><ele>467.0</ele><time>2026-04-11T16:01:24.001Z</time></trkpt><trkpt lat="36.938691470278215" lon="14.959634251287484"><ele>465.0</ele><time>2026-04-11T16:01:25.001Z</time></trkpt><trkpt lat="36.938655355989276" lon="14.959540866776122"><ele>465.0</ele><time>2026-04-11T16:01:26.001Z</time></trkpt><trkpt lat="36.938623925118804" lon="14.959459592654827"><ele>465.0</ele><time>2026-04-11T16:01:27.001Z</time></trkpt><trkpt lat="36.93857615869253" lon="14.959324553236286"><ele>465.0</ele><time>2026-04-11T16:01:29.001Z</time></trkpt><trkpt lat="36.938541423620734" lon="14.959203527021932"><ele>465.0</ele><time>2026-04-11T16:01:31.001Z</time></trkpt><trkpt lat="36.93853284242558" lon="14.959069008021766"><ele>465.0</ele><time>2026-04-11T16:01:33.001Z</time></trkpt><trkpt lat="36.938522324428284" lon="14.958991251274716"><ele>460.5</ele><time>2026-04-11T16:01:34.001Z</time></trkpt><trkpt lat="36.9385132194916" lon="14.95890951987559"><ele>456.0</ele><time>2026-04-11T16:01:35.001Z</time></trkpt><trkpt lat="36.93850474745229" lon="14.958826278990585"><ele>451.5</ele><time>2026-04-11T16:01:36.001Z</time></trkpt><trkpt lat="36.93850178610437" lon="14.958742862083797"><ele>447.0</ele><time>2026-04-11T16:01:37.001Z</time></trkpt><trkpt lat="36.938503209382894" lon="14.958600001592412"><ele>442.5</ele><time>2026-04-11T16:01:39.001Z</time></trkpt><trkpt lat="36.93848002624747" lon="14.958467050545213"><ele>438.0</ele><time>2026-04-11T16:01:41.001Z</time></trkpt><trkpt lat="36.93846018594996" lon="14.95833851617303"><ele>435.0</ele><time>2026-04-11T16:01:43.001Z</time></trkpt><trkpt lat="36.93843827989424" lon="14.958248402816329"><ele>432.0</ele><time>2026-04-11T16:01:45.001Z</time></trkpt><trkpt lat="36.9383909508268" lon="14.958187022105594"><ele>429.0</ele><time>2026-04-11T16:01:47.001Z</time></trkpt><trkpt lat="36.93832815670139" lon="14.958196149835628"><ele>426.0</ele><time>2026-04-11T16:01:49.001Z</time></trkpt><trkpt lat="36.938271291185515" lon="14.95824837270091"><ele>423.0</ele><time>2026-04-11T16:01:51.001Z</time></trkpt><trkpt lat="36.93824155405886" lon="14.958329744516286"><ele>420.0</ele><time>2026-04-11T16:01:52.001Z</time></trkpt><trkpt lat="36.93822385540096" lon="14.95840926494284"><ele>417.0</ele><time>2026-04-11T16:01:53.001Z</time></trkpt><trkpt lat="36.93820466436471" lon="14.958490909341505"><ele>427.0</ele><time>2026-04-11T16:01:54.001Z</time></trkpt><trkpt lat="36.93816511678369" lon="14.958630522335914"><ele>437.0</ele><time>2026-04-11T16:01:56.001Z</time></trkpt><trkpt lat="36.93812478981677" lon="14.958768203251841"><ele>447.00000000000006</ele><time>2026-04-11T16:01:58.001Z</time></trkpt><trkpt lat="36.938117813778206" lon="14.958871554460138"><ele>457.0</ele><time>2026-04-11T16:01:59.001Z</time></trkpt><trkpt lat="36.93812203101968" lon="14.958987909877553"><ele>467.0</ele><time>2026-04-11T16:02:00.001Z</time></trkpt><trkpt lat="36.9381220310185" lon="14.959115700209855"><ele>465.16666666666663</ele><time>2026-04-11T16:02:01.001Z</time></trkpt><trkpt lat="36.93812365986613" lon="14.959229903261393"><ele>463.3333333333333</ele><time>2026-04-11T16:02:02.001Z</time></trkpt><trkpt lat="36.938126426226425" lon="14.959335651381448"><ele>461.5</ele><time>2026-04-11T16:02:03.001Z</time></trkpt><trkpt lat="36.93813077368963" lon="14.959431794605846"><ele>459.66666666666663</ele><time>2026-04-11T16:02:04.001Z</time></trkpt><trkpt lat="36.9381372665055" lon="14.959528388886655"><ele>457.8333333333333</ele><time>2026-04-11T16:02:05.001Z</time></trkpt><trkpt lat="36.9381469899128" lon="14.959617305150887"><ele>456.0</ele><time>2026-04-11T16:02:06.001Z</time></trkpt><trkpt lat="36.93815871893314" lon="14.959706697144942"><ele>456.0</ele><time>2026-04-11T16:02:07.001Z</time></trkpt><trkpt lat="36.938172830463266" lon="14.95979676933858"><ele>455.99999999999994</ele><time>2026-04-11T16:02:08.001Z</time></trkpt><trkpt lat="36.9381875957829" lon="14.959879438606286"><ele>456.0</ele><time>2026-04-11T16:02:09.001Z</time></trkpt><trkpt lat="36.93820959593016" lon="14.959960468641476"><ele>456.0</ele><time>2026-04-11T16:02:10.001Z</time></trkpt><trkpt lat="36.9382303874976" lon="14.960072823552808"><ele>455.99999999999994</ele><time>2026-04-11T16:02:12Z</time></trkpt><trkpt lat="36.9382269359945" lon="14.960161998104185"><ele>456.0</ele><time>2026-04-11T16:02:14Z</time></trkpt><trkpt lat="36.93820699193615" lon="14.960237627525473"><ele>456.0</ele><time>2026-04-11T16:02:16Z</time></trkpt><trkpt lat="36.93814608233537" lon="14.960188327718976"><ele>456.0</ele><time>2026-04-11T16:02:20Z</time></trkpt><trkpt lat="36.938139623229134" lon="14.960011794866128"><ele>456.0</ele><time>2026-04-11T16:02:22Z</time></trkpt><trkpt lat="36.93811802484395" lon="14.959903213400304"><ele>456.0</ele><time>2026-04-11T16:02:23Z</time></trkpt><trkpt lat="36.93808420931553" lon="14.959806323483289"><ele>456.0</ele><time>2026-04-11T16:02:24Z</time></trkpt><trkpt lat="36.938043405190086" lon="14.95971496759165"><ele>456.0</ele><time>2026-04-11T16:02:25Z</time></trkpt><trkpt lat="36.937995983754824" lon="14.959626853612557"><ele>456.0</ele><time>2026-04-11T16:02:26Z</time></trkpt><trkpt lat="36.9379550670353" lon="14.959540834722265"><ele>455.99999999999994</ele><time>2026-04-11T16:02:27Z</time></trkpt><trkpt lat="36.93791791515759" lon="14.959457410504932"><ele>456.0</ele><time>2026-04-11T16:02:28Z</time></trkpt><trkpt lat="36.937886973291775" lon="14.959376684333662"><ele>456.0</ele><time>2026-04-11T16:02:29Z</time></trkpt><trkpt lat="36.93785795374682" lon="14.959294203730161"><ele>455.99999999999994</ele><time>2026-04-11T16:02:30Z</time></trkpt><trkpt lat="36.93783998649667" lon="14.95921109967115"><ele>456.0</ele><time>2026-04-11T16:02:31Z</time></trkpt><trkpt lat="36.937814992187654" lon="14.959122105633005"><ele>456.0</ele><time>2026-04-11T16:02:32Z</time></trkpt><trkpt lat="36.93778814791142" lon="14.959050108978957"><ele>458.20000000000005</ele><time>2026-04-11T16:02:33Z</time></trkpt><trkpt lat="36.93775800059736" lon="14.9589792896424"><ele>460.40000000000003</ele><time>2026-04-11T16:02:34Z</time></trkpt><trkpt lat="36.93770060011019" lon="14.958845272272171"><ele>462.6</ele><time>2026-04-11T16:02:36Z</time></trkpt><trkpt lat="36.937654991077736" lon="14.958711244556843"><ele>464.8</ele><time>2026-04-11T16:02:38Z</time></trkpt><trkpt lat="36.937603478126846" lon="14.958594456653111"><ele>467.0</ele><time>2026-04-11T16:02:40Z</time></trkpt><trkpt lat="36.93754775531087" lon="14.958497299411361"><ele>460.49999999999994</ele><time>2026-04-11T16:02:42Z</time></trkpt><trkpt lat="36.937459550838696" lon="14.95838845878879"><ele>454.0</ele><time>2026-04-11T16:02:44Z</time></trkpt><trkpt lat="36.93740150744426" lon="14.958341071940499"><ele>447.5</ele><time>2026-04-11T16:02:45Z</time></trkpt><trkpt lat="36.937343214101254" lon="14.958287582057828"><ele>441.0</ele><time>2026-04-11T16:02:46Z</time></trkpt><trkpt lat="36.93728439963378" lon="14.95824151154855"><ele>434.49999999999994</ele><time>2026-04-11T16:02:47Z</time></trkpt><trkpt lat="36.93718874816356" lon="14.958170352777172"><ele>428.0</ele><time>2026-04-11T16:02:49Z</time></trkpt><trkpt lat="36.93708626822874" lon="14.95808493464688"><ele>427.99999999999994</ele><time>2026-04-11T16:02:51Z</time></trkpt><trkpt lat="36.93699630215503" lon="14.958016505146356"><ele>428.0</ele><time>2026-04-11T16:02:53Z</time></trkpt><trkpt lat="36.93690062817864" lon="14.957941288897736"><ele>428.0</ele><time>2026-04-11T16:02:55Z</time></trkpt><trkpt lat="36.9368502319731" lon="14.957893105790376"><ele>428.0</ele><time>2026-04-11T16:02:56Z</time></trkpt><trkpt lat="36.9367995423611" lon="14.957835106228567"><ele>427.99999999999994</ele><time>2026-04-11T16:02:57Z</time></trkpt><trkpt lat="36.93675050179959" lon="14.957765209009699"><ele>428.0</ele><time>2026-04-11T16:02:58Z</time></trkpt><trkpt lat="36.936700618395804" lon="14.957685514922078"><ele>423.3333333333333</ele><time>2026-04-11T16:02:59Z</time></trkpt><trkpt lat="36.93664923941078" lon="14.957606501629776"><ele>418.66666666666663</ele><time>2026-04-11T16:03:00Z</time></trkpt><trkpt lat="36.936600971874746" lon="14.95752712735565"><ele>414.0</ele><time>2026-04-11T16:03:01Z</time></trkpt><trkpt lat="36.93655139418365" lon="14.957444760900085"><ele>409.33333333333337</ele><time>2026-04-11T16:03:02Z</time></trkpt><trkpt lat="36.93650348245008" lon="14.957366852596902"><ele>404.6666666666667</ele><time>2026-04-11T16:03:03Z</time></trkpt><trkpt lat="36.93646350821929" lon="14.957286258907393"><ele>400.0</ele><time>2026-04-11T16:03:04Z</time></trkpt><trkpt lat="36.936422728362935" lon="14.957209843661909"><ele>400.00000000000006</ele><time>2026-04-11T16:03:05Z</time></trkpt><trkpt lat="36.93637451626373" lon="14.95715126077495"><ele>400.0</ele><time>2026-04-11T16:03:06Z</time></trkpt><trkpt lat="36.93632890207034" lon="14.957094874841815"><ele>400.0</ele><time>2026-04-11T16:03:07Z</time></trkpt><trkpt lat="36.93627744084283" lon="14.956960155178676"><ele>400.0</ele><time>2026-04-11T16:03:09Z</time></trkpt><trkpt lat="36.93626132913646" lon="14.956882419584735"><ele>400.00000000000006</ele><time>2026-04-11T16:03:10Z</time></trkpt><trkpt lat="36.936230200664234" lon="14.956789539222239"><ele>400.0</ele><time>2026-04-11T16:03:11.001Z</time></trkpt><trkpt lat="36.9361941415469" lon="14.956687124631726"><ele>401.4</ele><time>2026-04-11T16:03:12.001Z</time></trkpt><trkpt lat="36.93616797337454" lon="14.956581061201108"><ele>402.8</ele><time>2026-04-11T16:03:13.001Z</time></trkpt><trkpt lat="36.93614740299746" lon="14.9564625735898"><ele>404.20000000000005</ele><time>2026-04-11T16:03:14.001Z</time></trkpt><trkpt lat="36.936125912367174" lon="14.956335327302737"><ele>405.6</ele><time>2026-04-11T16:03:15.001Z</time></trkpt><trkpt lat="36.936101472487195" lon="14.956213806537752"><ele>407.0</ele><time>2026-04-11T16:03:16.001Z</time></trkpt><trkpt lat="36.936073526041106" lon="14.956093081920539"><ele>407.0</ele><time>2026-04-11T16:03:17.001Z</time></trkpt><trkpt lat="36.93604360664719" lon="14.955969068173761"><ele>407.0</ele><time>2026-04-11T16:03:18.001Z</time></trkpt><trkpt lat="36.93600902085721" lon="14.955849668494126"><ele>407.0</ele><time>2026-04-11T16:03:19.001Z</time></trkpt><trkpt lat="36.935973955696895" lon="14.955734070144166"><ele>407.0</ele><time>2026-04-11T16:03:20.001Z</time></trkpt><trkpt lat="36.9359430571522" lon="14.955627940092699"><ele>407.0</ele><time>2026-04-11T16:03:21.001Z</time></trkpt><trkpt lat="36.93591631121725" lon="14.955530417179908"><ele>405.66666666666663</ele><time>2026-04-11T16:03:22.001Z</time></trkpt><trkpt lat="36.93589009486705" lon="14.955433736636692"><ele>404.3333333333333</ele><time>2026-04-11T16:03:23.001Z</time></trkpt><trkpt lat="36.93584980533641" lon="14.955347213732423"><ele>403.0</ele><time>2026-04-11T16:03:24.001Z</time></trkpt><trkpt lat="36.9358245251602" lon="14.955256811777101"><ele>401.66666666666663</ele><time>2026-04-11T16:03:25.001Z</time></trkpt><trkpt lat="36.93581448702983" lon="14.955162000963803"><ele>400.3333333333333</ele><time>2026-04-11T16:03:26.001Z</time></trkpt><trkpt lat="36.935786644759055" lon="14.955076094789105"><ele>399.0</ele><time>2026-04-11T16:03:27.001Z</time></trkpt><trkpt lat="36.935754669074676" lon="14.954981408357309"><ele>393.8333333333333</ele><time>2026-04-11T16:03:28.001Z</time></trkpt><trkpt lat="36.93570756871635" lon="14.954893381170605"><ele>388.6666666666667</ele><time>2026-04-11T16:03:29.001Z</time></trkpt><trkpt lat="36.93567776639309" lon="14.954793604478345"><ele>383.5</ele><time>2026-04-11T16:03:30.001Z</time></trkpt><trkpt lat="36.935653215811904" lon="14.954692034114728"><ele>378.33333333333337</ele><time>2026-04-11T16:03:31.001Z</time></trkpt><trkpt lat="36.93564085590604" lon="14.954585506225504"><ele>373.1666666666667</ele><time>2026-04-11T16:03:32.001Z</time></trkpt><trkpt lat="36.935612552342306" lon="14.954481483817048"><ele>368.0</ele><time>2026-04-11T16:03:33.001Z</time></trkpt><trkpt lat="36.935577798787946" lon="14.95437505719573"><ele>368.0</ele><time>2026-04-11T16:03:34.001Z</time></trkpt><trkpt lat="36.93553773911848" lon="14.954275546457252"><ele>368.0</ele><time>2026-04-11T16:03:35.001Z</time></trkpt><trkpt lat="36.935496384071975" lon="14.954187923918433"><ele>368.0</ele><time>2026-04-11T16:03:36.001Z</time></trkpt><trkpt lat="36.93545414102599" lon="14.954103930262756"><ele>368.0</ele><time>2026-04-11T16:03:37.001Z</time></trkpt><trkpt lat="36.935408389253226" lon="14.954021305068956"><ele>368.0</ele><time>2026-04-11T16:03:38.001Z</time></trkpt><trkpt lat="36.93536640646455" lon="14.953936816787936"><ele>368.0</ele><time>2026-04-11T16:03:39.001Z</time></trkpt><trkpt lat="36.935331522665415" lon="14.953848961427997"><ele>365.2</ele><time>2026-04-11T16:03:40.001Z</time></trkpt><trkpt lat="36.935301393850516" lon="14.95375373130395"><ele>362.4</ele><time>2026-04-11T16:03:41.001Z</time></trkpt><trkpt lat="36.935280697978435" lon="14.953644121758904"><ele>359.59999999999997</ele><time>2026-04-11T16:03:42.001Z</time></trkpt><trkpt lat="36.93526335820911" lon="14.953517687902044"><ele>356.79999999999995</ele><time>2026-04-11T16:03:43.001Z</time></trkpt><trkpt lat="36.935256335066136" lon="14.953381162846075"><ele>354.0</ele><time>2026-04-11T16:03:44.001Z</time></trkpt><trkpt lat="36.93525076944356" lon="14.953239913086685"><ele>349.5</ele><time>2026-04-11T16:03:45.001Z</time></trkpt><trkpt lat="36.93524521284603" lon="14.953094566089918"><ele>345.0</ele><time>2026-04-11T16:03:46.001Z</time></trkpt><trkpt lat="36.93522732045831" lon="14.952930988202468"><ele>340.5</ele><time>2026-04-11T16:03:47.001Z</time></trkpt><trkpt lat="36.9352111331684" lon="14.95276013801443"><ele>336.0</ele><time>2026-04-11T16:03:48.001Z</time></trkpt><trkpt lat="36.935195731845646" lon="14.952618971098488"><ele>333.6666666666667</ele><time>2026-04-11T16:03:49.001Z</time></trkpt><trkpt lat="36.935190581316846" lon="14.95249571269157"><ele>331.3333333333333</ele><time>2026-04-11T16:03:50.001Z</time></trkpt><trkpt lat="36.93517779789985" lon="14.952387435308307"><ele>329.0</ele><time>2026-04-11T16:03:51.001Z</time></trkpt><trkpt lat="36.93522590626698" lon="14.952297296394393"><ele>326.66666666666663</ele><time>2026-04-11T16:03:52.001Z</time></trkpt><trkpt lat="36.93526798747586" lon="14.952224230936347"><ele>324.3333333333333</ele><time>2026-04-11T16:03:53.001Z</time></trkpt><trkpt lat="36.93532544220844" lon="14.952169611278846"><ele>322.0</ele><time>2026-04-11T16:03:54.001Z</time></trkpt><trkpt lat="36.93542742798162" lon="14.95210400945036"><ele>322.0</ele><time>2026-04-11T16:03:56.001Z</time></trkpt><trkpt lat="36.93553771125754" lon="14.952018798708005"><ele>322.0</ele><time>2026-04-11T16:03:58.001Z</time></trkpt><trkpt lat="36.93562275483651" lon="14.951935865536607"><ele>322.0</ele><time>2026-04-11T16:03:59.001Z</time></trkpt><trkpt lat="36.93571134644052" lon="14.951838777141878"><ele>322.0</ele><time>2026-04-11T16:04:00.001Z</time></trkpt><trkpt lat="36.935777832530796" lon="14.951750166124443"><ele>323.66666666666663</ele><time>2026-04-11T16:04:01.001Z</time></trkpt><trkpt lat="36.935808683232196" lon="14.951653664222043"><ele>325.3333333333333</ele><time>2026-04-11T16:04:02.001Z</time></trkpt><trkpt lat="36.93584608029458" lon="14.951588380195329"><ele>327.0</ele><time>2026-04-11T16:04:03.001Z</time></trkpt><trkpt lat="36.93585496228695" lon="14.951502645408658"><ele>328.6666666666667</ele><time>2026-04-11T16:04:04.001Z</time></trkpt><trkpt lat="36.93581700470119" lon="14.951404396297661"><ele>330.33333333333337</ele><time>2026-04-11T16:04:05.001Z</time></trkpt><trkpt lat="36.9357840864372" lon="14.951290183774608"><ele>332.0</ele><time>2026-04-11T16:04:06.001Z</time></trkpt><trkpt lat="36.935759130727995" lon="14.95116574779082"><ele>332.0</ele><time>2026-04-11T16:04:07.001Z</time></trkpt><trkpt lat="36.93575277250208" lon="14.951052209351127"><ele>332.0</ele><time>2026-04-11T16:04:08.001Z</time></trkpt><trkpt lat="36.93578139036626" lon="14.950948735132064"><ele>332.0</ele><time>2026-04-11T16:04:09.001Z</time></trkpt><trkpt lat="36.93579272356788" lon="14.950854407732958"><ele>332.0</ele><time>2026-04-11T16:04:10.001Z</time></trkpt><trkpt lat="36.935789255677776" lon="14.950771800989429"><ele>332.0</ele><time>2026-04-11T16:04:11.001Z</time></trkpt><trkpt lat="36.93573900289103" lon="14.95062625501979"><ele>332.0</ele><time>2026-04-11T16:04:13.001Z</time></trkpt><trkpt lat="36.93568025421195" lon="14.950564783903502"><ele>332.1666666666667</ele><time>2026-04-11T16:04:14.001Z</time></trkpt><trkpt lat="36.93563527000509" lon="14.950466686165434"><ele>332.33333333333337</ele><time>2026-04-11T16:04:15.001Z</time></trkpt><trkpt lat="36.935602429710855" lon="14.950355171856458"><ele>332.5</ele><time>2026-04-11T16:04:16.001Z</time></trkpt><trkpt lat="36.935616166672105" lon="14.950250758106671"><ele>332.6666666666667</ele><time>2026-04-11T16:04:17Z</time></trkpt><trkpt lat="36.935625251723074" lon="14.950152010623267"><ele>332.8333333333333</ele><time>2026-04-11T16:04:18Z</time></trkpt><trkpt lat="36.93563304023454" lon="14.950054252141646"><ele>333.0</ele><time>2026-04-11T16:04:19Z</time></trkpt><trkpt lat="36.935616448814244" lon="14.949954766105137"><ele>330.5</ele><time>2026-04-11T16:04:20Z</time></trkpt><trkpt lat="36.935563269279285" lon="14.949818206914495"><ele>328.0</ele><time>2026-04-11T16:04:21Z</time></trkpt><trkpt lat="36.93554507875952" lon="14.94967529489357"><ele>325.5</ele><time>2026-04-11T16:04:22Z</time></trkpt><trkpt lat="36.93551947584963" lon="14.949549341576933"><ele>323.0</ele><time>2026-04-11T16:04:23Z</time></trkpt><trkpt lat="36.93548178974443" lon="14.949420876036262"><ele>323.0</ele><time>2026-04-11T16:04:24Z</time></trkpt><trkpt lat="36.93544393696745" lon="14.949300263007663"><ele>323.0</ele><time>2026-04-11T16:04:25Z</time></trkpt><trkpt lat="36.93540890936463" lon="14.949169710901907"><ele>323.0</ele><time>2026-04-11T16:04:26Z</time></trkpt><trkpt lat="36.93538560659519" lon="14.949034506696574"><ele>323.0</ele><time>2026-04-11T16:04:27Z</time></trkpt><trkpt lat="36.935366146171184" lon="14.948900762155692"><ele>323.0</ele><time>2026-04-11T16:04:28Z</time></trkpt><trkpt lat="36.93534741878815" lon="14.948774137245739"><ele>320.33333333333337</ele><time>2026-04-11T16:04:29Z</time></trkpt><trkpt lat="36.93532792863126" lon="14.948621831720356"><ele>317.6666666666667</ele><time>2026-04-11T16:04:30Z</time></trkpt><trkpt lat="36.93528673069589" lon="14.9484225590073"><ele>315.0</ele><time>2026-04-11T16:04:31Z</time></trkpt><trkpt lat="36.93524875105953" lon="14.948221923787422"><ele>312.5</ele><time>2026-04-11T16:04:32Z</time></trkpt><trkpt lat="36.93523194781851" lon="14.948052465759044"><ele>310.0</ele><time>2026-04-11T16:04:33Z</time></trkpt><trkpt lat="36.935217613142086" lon="14.9478918925478"><ele>307.5</ele><time>2026-04-11T16:04:34Z</time></trkpt><trkpt lat="36.935203044250024" lon="14.947750995935708"><ele>305.0</ele><time>2026-04-11T16:04:35Z</time></trkpt><trkpt lat="36.935194452655836" lon="14.947622433067641"><ele>304.0</ele><time>2026-04-11T16:04:36Z</time></trkpt><trkpt lat="36.93519798284694" lon="14.947496876895336"><ele>303.0</ele><time>2026-04-11T16:04:37Z</time></trkpt><trkpt lat="36.93520733125925" lon="14.947372887686118"><ele>302.0</ele><time>2026-04-11T16:04:38Z</time></trkpt><trkpt lat="36.93521015490807" lon="14.947252526911994"><ele>301.0</ele><time>2026-04-11T16:04:39Z</time></trkpt><trkpt lat="36.93520613882665" lon="14.94714068865675"><ele>300.0</ele><time>2026-04-11T16:04:40Z</time></trkpt><trkpt lat="36.935198747559724" lon="14.947039988311467"><ele>300.0</ele><time>2026-04-11T16:04:41Z</time></trkpt><trkpt lat="36.935176143528324" lon="14.946959984689823"><ele>300.0</ele><time>2026-04-11T16:04:42Z</time></trkpt><trkpt lat="36.93510786165661" lon="14.946893541861845"><ele>300.0</ele><time>2026-04-11T16:04:44Z</time></trkpt><trkpt lat="36.93504768137151" lon="14.946847818771019"><ele>300.0</ele><time>2026-04-11T16:04:45Z</time></trkpt><trkpt lat="36.93494241259003" lon="14.946843701817198"><ele>300.0</ele><time>2026-04-11T16:04:46Z</time></trkpt><trkpt lat="36.93484904101386" lon="14.946840903504151"><ele>300.0</ele><time>2026-04-11T16:04:47Z</time></trkpt><trkpt lat="36.93475932496971" lon="14.946794105808333"><ele>302.0</ele><time>2026-04-11T16:04:48Z</time></trkpt><trkpt lat="36.934674775188135" lon="14.94674786663323"><ele>304.0</ele><time>2026-04-11T16:04:49Z</time></trkpt><trkpt lat="36.934607174831434" lon="14.946704272984915"><ele>306.0</ele><time>2026-04-11T16:04:50Z</time></trkpt><trkpt lat="36.93455714397782" lon="14.94665349810409"><ele>308.0</ele><time>2026-04-11T16:04:51Z</time></trkpt><trkpt lat="36.93450693531396" lon="14.946504676723603"><ele>310.0</ele><time>2026-04-11T16:04:53Z</time></trkpt><trkpt lat="36.934499292189074" lon="14.946402902835976"><ele>312.0</ele><time>2026-04-11T16:04:54Z</time></trkpt><trkpt lat="36.93448441164731" lon="14.946264098421558"><ele>312.0</ele><time>2026-04-11T16:04:55Z</time></trkpt><trkpt lat="36.93448692608218" lon="14.94610380588545"><ele>312.0</ele><time>2026-04-11T16:04:56Z</time></trkpt><trkpt lat="36.934490806397115" lon="14.945972118656657"><ele>312.0</ele><time>2026-04-11T16:04:57Z</time></trkpt><trkpt lat="36.93449975960284" lon="14.945848201156439"><ele>312.0</ele><time>2026-04-11T16:04:58Z</time></trkpt><trkpt lat="36.93450791629563" lon="14.945717301219634"><ele>312.0</ele><time>2026-04-11T16:04:59Z</time></trkpt><trkpt lat="36.93451639606451" lon="14.945595055625242"><ele>311.5</ele><time>2026-04-11T16:05:00Z</time></trkpt><trkpt lat="36.93452695395806" lon="14.945447419131332"><ele>311.0</ele><time>2026-04-11T16:05:01Z</time></trkpt><trkpt lat="36.934538220672565" lon="14.945291728615217"><ele>310.5</ele><time>2026-04-11T16:05:02Z</time></trkpt><trkpt lat="36.934548496851924" lon="14.945149725865058"><ele>310.0</ele><time>2026-04-11T16:05:03Z</time></trkpt><trkpt lat="36.93458411864078" lon="14.945017757467143"><ele>308.8</ele><time>2026-04-11T16:05:04Z</time></trkpt><trkpt lat="36.93459414741883" lon="14.944890030394172"><ele>307.6</ele><time>2026-04-11T16:05:05Z</time></trkpt><trkpt lat="36.934603036355874" lon="14.94476384904938"><ele>306.4</ele><time>2026-04-11T16:05:06Z</time></trkpt><trkpt lat="36.93462569449794" lon="14.944625849311711"><ele>305.2</ele><time>2026-04-11T16:05:07Z</time></trkpt><trkpt lat="36.93465244755285" lon="14.944466870767387"><ele>304.0</ele><time>2026-04-11T16:05:08Z</time></trkpt><trkpt lat="36.93467717031409" lon="14.944326105268837"><ele>302.8</ele><time>2026-04-11T16:05:09Z</time></trkpt><trkpt lat="36.93470926418141" lon="14.944204309335408"><ele>301.59999999999997</ele><time>2026-04-11T16:05:10Z</time></trkpt><trkpt lat="36.934741903592645" lon="14.944095499402069"><ele>300.4</ele><time>2026-04-11T16:05:11Z</time></trkpt><trkpt lat="36.93478219727082" lon="14.943993445891612"><ele>299.2</ele><time>2026-04-11T16:05:12Z</time></trkpt><trkpt lat="36.934816789630126" lon="14.943870826049029"><ele>298.0</ele><time>2026-04-11T16:05:13Z</time></trkpt><trkpt lat="36.93489103705383" lon="14.943779853564921"><ele>298.0</ele><time>2026-04-11T16:05:14Z</time></trkpt><trkpt lat="36.934965337540596" lon="14.94367432173162"><ele>298.0</ele><time>2026-04-11T16:05:15Z</time></trkpt><trkpt lat="36.93504987831975" lon="14.94354248887171"><ele>298.0</ele><time>2026-04-11T16:05:16Z</time></trkpt><trkpt lat="36.935155998646636" lon="14.943399432315685"><ele>298.0</ele><time>2026-04-11T16:05:17Z</time></trkpt><trkpt lat="36.93526511032768" lon="14.9432405807494"><ele>296.75</ele><time>2026-04-11T16:05:18Z</time></trkpt><trkpt lat="36.93535823341022" lon="14.94310366767123"><ele>295.5</ele><time>2026-04-11T16:05:19Z</time></trkpt><trkpt lat="36.93544261580425" lon="14.942974889187555"><ele>294.25</ele><time>2026-04-11T16:05:20Z</time></trkpt><trkpt lat="36.93551669239578" lon="14.942845066920068"><ele>293.0</ele><time>2026-04-11T16:05:21Z</time></trkpt><trkpt lat="36.935571765973535" lon="14.942715555636873"><ele>293.0</ele><time>2026-04-11T16:05:22Z</time></trkpt><trkpt lat="36.935613951401784" lon="14.942589482504266"><ele>293.0</ele><time>2026-04-11T16:05:23Z</time></trkpt><trkpt lat="36.935655690596754" lon="14.942448447580215"><ele>293.0</ele><time>2026-04-11T16:05:24Z</time></trkpt><trkpt lat="36.93569635739785" lon="14.942299379586068"><ele>293.0</ele><time>2026-04-11T16:05:25Z</time></trkpt><trkpt lat="36.93573128540491" lon="14.9421669506106"><ele>292.25</ele><time>2026-04-11T16:05:26Z</time></trkpt><trkpt lat="36.93576344037098" lon="14.942037456433164"><ele>291.5</ele><time>2026-04-11T16:05:27Z</time></trkpt><trkpt lat="36.93579615594731" lon="14.941899753689933"><ele>290.75</ele><time>2026-04-11T16:05:28Z</time></trkpt><trkpt lat="36.93585520353025" lon="14.941763482342505"><ele>290.0</ele><time>2026-04-11T16:05:29.001Z</time></trkpt><trkpt lat="36.93588910748924" lon="14.941613196861466"><ele>288.4</ele><time>2026-04-11T16:05:30.001Z</time></trkpt><trkpt lat="36.93591895329813" lon="14.9414638090748"><ele>286.8</ele><time>2026-04-11T16:05:31.001Z</time></trkpt><trkpt lat="36.93595044524323" lon="14.94133233540525"><ele>285.2</ele><time>2026-04-11T16:05:32.001Z</time></trkpt><trkpt lat="36.93598251652655" lon="14.941215002738039"><ele>283.6</ele><time>2026-04-11T16:05:33.001Z</time></trkpt><trkpt lat="36.93601829854468" lon="14.941088420106773"><ele>282.0</ele><time>2026-04-11T16:05:34.001Z</time></trkpt><trkpt lat="36.93605566286741" lon="14.940970741300136"><ele>282.2</ele><time>2026-04-11T16:05:35.001Z</time></trkpt><trkpt lat="36.93608603147894" lon="14.940859869989309"><ele>282.4</ele><time>2026-04-11T16:05:36.001Z</time></trkpt><trkpt lat="36.93611875499669" lon="14.940750534787021"><ele>282.6</ele><time>2026-04-11T16:05:37.001Z</time></trkpt><trkpt lat="36.93615532797294" lon="14.940649508101163"><ele>282.8</ele><time>2026-04-11T16:05:38.001Z</time></trkpt><trkpt lat="36.93620496334616" lon="14.940538679329794"><ele>283.0</ele><time>2026-04-11T16:05:39.001Z</time></trkpt><trkpt lat="36.936258109113965" lon="14.940420998741613"><ele>283.0</ele><time>2026-04-11T16:05:40.001Z</time></trkpt><trkpt lat="36.93630098001952" lon="14.940308611796674"><ele>283.0</ele><time>2026-04-11T16:05:41.001Z</time></trkpt><trkpt lat="36.93633766318375" lon="14.940199395675185"><ele>283.0</ele><time>2026-04-11T16:05:42.001Z</time></trkpt><trkpt lat="36.93637053563264" lon="14.94009490327053"><ele>283.0</ele><time>2026-04-11T16:05:43.001Z</time></trkpt><trkpt lat="36.936397911540645" lon="14.93999576907186"><ele>283.0</ele><time>2026-04-11T16:05:44.001Z</time></trkpt><trkpt lat="36.93642081230665" lon="14.93990713603601"><ele>283.0</ele><time>2026-04-11T16:05:45.001Z</time></trkpt><trkpt lat="36.93643218185169" lon="14.939817011231957"><ele>281.6</ele><time>2026-04-11T16:05:46.001Z</time></trkpt><trkpt lat="36.9364310855624" lon="14.939699452799282"><ele>280.20000000000005</ele><time>2026-04-11T16:05:47.001Z</time></trkpt><trkpt lat="36.93641799430889" lon="14.939573684269048"><ele>278.8</ele><time>2026-04-11T16:05:48.001Z</time></trkpt><trkpt lat="36.93642498445197" lon="14.939439175303649"><ele>277.40000000000003</ele><time>2026-04-11T16:05:49.001Z</time></trkpt><trkpt lat="36.93642457767299" lon="14.93931421231379"><ele>276.0</ele><time>2026-04-11T16:05:50.001Z</time></trkpt><trkpt lat="36.93641838569822" lon="14.93919149075061"><ele>275.1666666666667</ele><time>2026-04-11T16:05:51.001Z</time></trkpt><trkpt lat="36.9363844340843" lon="14.939078678453699"><ele>274.3333333333333</ele><time>2026-04-11T16:05:52.001Z</time></trkpt><trkpt lat="36.93638584949465" lon="14.938978389400111"><ele>273.5</ele><time>2026-04-11T16:05:53.001Z</time></trkpt><trkpt lat="36.93639969092641" lon="14.938890218871286"><ele>272.66666666666663</ele><time>2026-04-11T16:05:54.001Z</time></trkpt><trkpt lat="36.936385423874" lon="14.938792669686576"><ele>271.8333333333333</ele><time>2026-04-11T16:05:55.001Z</time></trkpt><trkpt lat="36.936382189059906" lon="14.938698859997071"><ele>271.0</ele><time>2026-04-11T16:05:56.001Z</time></trkpt><trkpt lat="36.936356968890294" lon="14.938597708290713"><ele>271.0</ele><time>2026-04-11T16:05:58.001Z</time></trkpt><trkpt lat="36.93626507092998" lon="14.93857823494284"><ele>271.0</ele><time>2026-04-11T16:06:00.001Z</time></trkpt><trkpt lat="36.93616134890378" lon="14.938608127203517"><ele>271.0</ele><time>2026-04-11T16:06:01.001Z</time></trkpt><trkpt lat="36.93604714999105" lon="14.938706295136852"><ele>271.0</ele><time>2026-04-11T16:06:02.001Z</time></trkpt><trkpt lat="36.93592515237278" lon="14.93881650246343"><ele>268.0</ele><time>2026-04-11T16:06:03.001Z</time></trkpt><trkpt lat="36.93579085851046" lon="14.938937817712807"><ele>265.0</ele><time>2026-04-11T16:06:04.001Z</time></trkpt><trkpt lat="36.93566839209322" lon="14.939048448546366"><ele>262.0</ele><time>2026-04-11T16:06:05.001Z</time></trkpt><trkpt lat="36.93555454096275" lon="14.93915299948748"><ele>262.0</ele><time>2026-04-11T16:06:06.001Z</time></trkpt><trkpt lat="36.935455051431845" lon="14.93925222302432"><ele>262.0</ele><time>2026-04-11T16:06:07.001Z</time></trkpt><trkpt lat="36.93537316473134" lon="14.939332287399"><ele>262.0</ele><time>2026-04-11T16:06:08.001Z</time></trkpt><trkpt lat="36.93531683132009" lon="14.939381171023602"><ele>262.0</ele><time>2026-04-11T16:06:09.001Z</time></trkpt><trkpt lat="36.93525337778772" lon="14.93931271420577"><ele>262.0</ele><time>2026-04-11T16:06:12.001Z</time></trkpt><trkpt lat="36.93526022523354" lon="14.939204564442019"><ele>262.0</ele><time>2026-04-11T16:06:13.001Z</time></trkpt><trkpt lat="36.93529033350409" lon="14.939060330241137"><ele>262.0</ele><time>2026-04-11T16:06:14.001Z</time></trkpt><trkpt lat="36.93532932317601" lon="14.938885139951072"><ele>262.0</ele><time>2026-04-11T16:06:15.001Z</time></trkpt><trkpt lat="36.93536632764896" lon="14.938715556863368"><ele>262.0</ele><time>2026-04-11T16:06:16.001Z</time></trkpt><trkpt lat="36.935377914507825" lon="14.938561108953737"><ele>262.0</ele><time>2026-04-11T16:06:17.001Z</time></trkpt><trkpt lat="36.935406233566965" lon="14.938393149466194"><ele>262.0</ele><time>2026-04-11T16:06:18.001Z</time></trkpt><trkpt lat="36.93543883864874" lon="14.938201948010061"><ele>262.0</ele><time>2026-04-11T16:06:19.001Z</time></trkpt><trkpt lat="36.93547249472033" lon="14.938011900553766"><ele>262.0</ele><time>2026-04-11T16:06:20.001Z</time></trkpt><trkpt lat="36.93550358449584" lon="14.937840747052352"><ele>260.0</ele><time>2026-04-11T16:06:21.001Z</time></trkpt><trkpt lat="36.9355347014063" lon="14.93767524187724"><ele>258.0</ele><time>2026-04-11T16:06:22.001Z</time></trkpt><trkpt lat="36.93556442438776" lon="14.937521866658521"><ele>256.0</ele><time>2026-04-11T16:06:23Z</time></trkpt><trkpt lat="36.935610804400426" lon="14.937402179340546"><ele>254.0</ele><time>2026-04-11T16:06:24Z</time></trkpt><trkpt lat="36.935657131106616" lon="14.937285152715928"><ele>252.5</ele><time>2026-04-11T16:06:25Z</time></trkpt><trkpt lat="36.93572954204053" lon="14.937146960030685"><ele>251.0</ele><time>2026-04-11T16:06:26Z</time></trkpt><trkpt lat="36.93581663249058" lon="14.937014788868154"><ele>249.5</ele><time>2026-04-11T16:06:27Z</time></trkpt><trkpt lat="36.93590683034638" lon="14.936882722241396"><ele>248.0</ele><time>2026-04-11T16:06:28Z</time></trkpt><trkpt lat="36.93600221334555" lon="14.936757878345215"><ele>244.25</ele><time>2026-04-11T16:06:29Z</time></trkpt><trkpt lat="36.93608735279637" lon="14.936623757572534"><ele>240.5</ele><time>2026-04-11T16:06:30Z</time></trkpt><trkpt lat="36.93616165538378" lon="14.93650251881198"><ele>236.75</ele><time>2026-04-11T16:06:31Z</time></trkpt><trkpt lat="36.93622772809513" lon="14.93640185643813"><ele>233.0</ele><time>2026-04-11T16:06:32Z</time></trkpt><trkpt lat="36.936283437321435" lon="14.936318498883956"><ele>233.00000000000003</ele><time>2026-04-11T16:06:33Z</time></trkpt><trkpt lat="36.93631320368846" lon="14.936235997880074"><ele>233.0</ele><time>2026-04-11T16:06:34Z</time></trkpt><trkpt lat="36.93630326918247" lon="14.936141434812827"><ele>233.0</ele><time>2026-04-11T16:06:35Z</time></trkpt><trkpt lat="36.93626072156833" lon="14.936041445461269"><ele>233.0</ele><time>2026-04-11T16:06:36Z</time></trkpt><trkpt lat="36.936211988393104" lon="14.935973859009675"><ele>233.00000000000003</ele><time>2026-04-11T16:06:37Z</time></trkpt><trkpt lat="36.936159700786185" lon="14.93592387494884"><ele>233.0</ele><time>2026-04-11T16:06:38Z</time></trkpt><trkpt lat="36.93609466361733" lon="14.9358799548672"><ele>233.00000000000003</ele><time>2026-04-11T16:06:39Z</time></trkpt><trkpt lat="36.93602329141262" lon="14.935868303236939"><ele>233.0</ele><time>2026-04-11T16:06:40Z</time></trkpt><trkpt lat="36.935950285647415" lon="14.935895158355914"><ele>233.0</ele><time>2026-04-11T16:06:41Z</time></trkpt><trkpt lat="36.935875325799074" lon="14.93596000582291"><ele>233.0</ele><time>2026-04-11T16:06:42Z</time></trkpt><trkpt lat="36.935807530069226" lon="14.936049175662623"><ele>233.00000000000003</ele><time>2026-04-11T16:06:43Z</time></trkpt><trkpt lat="36.935741619214596" lon="14.936140700250915"><ele>233.0</ele><time>2026-04-11T16:06:44Z</time></trkpt><trkpt lat="36.93567426809937" lon="14.936232079910916"><ele>233.50000000000003</ele><time>2026-04-11T16:06:45Z</time></trkpt><trkpt lat="36.93561925961843" lon="14.936315943021699"><ele>234.0</ele><time>2026-04-11T16:06:46Z</time></trkpt><trkpt lat="36.935572064042645" lon="14.936387384504355"><ele>234.5</ele><time>2026-04-11T16:06:47Z</time></trkpt><trkpt lat="36.93550945032433" lon="14.936480458139165"><ele>235.0</ele><time>2026-04-11T16:06:49Z</time></trkpt><trkpt lat="36.935421763787154" lon="14.936494298831551"><ele>235.50000000000003</ele><time>2026-04-11T16:06:52Z</time></trkpt><trkpt lat="36.935391495556445" lon="14.93637749198015"><ele>236.0</ele><time>2026-04-11T16:06:54Z</time></trkpt><trkpt lat="36.93540498201949" lon="14.936277308343925"><ele>236.0</ele><time>2026-04-11T16:06:55Z</time></trkpt><trkpt lat="36.935412142652034" lon="14.93616127066926"><ele>236.00000000000003</ele><time>2026-04-11T16:06:56Z</time></trkpt><trkpt lat="36.935384232840185" lon="14.936038014099918"><ele>236.00000000000003</ele><time>2026-04-11T16:06:57Z</time></trkpt><trkpt lat="36.935387130267536" lon="14.935915422209247"><ele>236.0</ele><time>2026-04-11T16:06:58Z</time></trkpt><trkpt lat="36.93538872571477" lon="14.935789731204704"><ele>236.0</ele><time>2026-04-11T16:06:59Z</time></trkpt><trkpt lat="36.93539082972794" lon="14.93565860942805"><ele>234.60000000000002</ele><time>2026-04-11T16:07:00Z</time></trkpt><trkpt lat="36.93539431958647" lon="14.935518177867202"><ele>233.20000000000002</ele><time>2026-04-11T16:07:01Z</time></trkpt><trkpt lat="36.9353975892464" lon="14.935380403550369"><ele>231.79999999999998</ele><time>2026-04-11T16:07:02Z</time></trkpt><trkpt lat="36.93539922876759" lon="14.935250092241779"><ele>230.39999999999998</ele><time>2026-04-11T16:07:03Z</time></trkpt><trkpt lat="36.93540079033051" lon="14.935125977303533"><ele>229.0</ele><time>2026-04-11T16:07:04Z</time></trkpt><trkpt lat="36.93540232463094" lon="14.935004029174472"><ele>227.99999999999997</ele><time>2026-04-11T16:07:05Z</time></trkpt><trkpt lat="36.93540485343898" lon="14.93488999124652"><ele>227.0</ele><time>2026-04-11T16:07:06Z</time></trkpt><trkpt lat="36.935407620383685" lon="14.934788997795394"><ele>226.0</ele><time>2026-04-11T16:07:07Z</time></trkpt><trkpt lat="36.935410370995974" lon="14.934688600548732"><ele>225.0</ele><time>2026-04-11T16:07:08Z</time></trkpt><trkpt lat="36.93541143927394" lon="14.93459491834175"><ele>223.99999999999997</ele><time>2026-04-11T16:07:09Z</time></trkpt><trkpt lat="36.93541056902963" lon="14.934512496894369"><ele>223.0</ele><time>2026-04-11T16:07:10Z</time></trkpt><trkpt lat="36.93539085280203" lon="14.934427678715211"><ele>223.0</ele><time>2026-04-11T16:07:12Z</time></trkpt><trkpt lat="36.93530504569793" lon="14.93438789583618"><ele>223.0</ele><time>2026-04-11T16:07:14Z</time></trkpt><trkpt lat="36.93522739945834" lon="14.934431742904971"><ele>223.0</ele><time>2026-04-11T16:07:15Z</time></trkpt><trkpt lat="36.93517168861463" lon="14.934498683019312"><ele>223.0</ele><time>2026-04-11T16:07:16Z</time></trkpt><trkpt lat="36.93510028332425" lon="14.934554048651117"><ele>223.0</ele><time>2026-04-11T16:07:18Z</time></trkpt><trkpt lat="36.935065199415384" lon="14.934421003593146"><ele>222.99999999999997</ele><time>2026-04-11T16:07:21Z</time></trkpt><trkpt lat="36.935063750574834" lon="14.934323462220226"><ele>223.0</ele><time>2026-04-11T16:07:22Z</time></trkpt><trkpt lat="36.935073104741534" lon="14.934221987858804"><ele>223.0</ele><time>2026-04-11T16:07:23Z</time></trkpt><trkpt lat="36.93508272842236" lon="14.934120754219403"><ele>223.0</ele><time>2026-04-11T16:07:24Z</time></trkpt><trkpt lat="36.93509315501027" lon="14.934019298567454"><ele>222.99999999999997</ele><time>2026-04-11T16:07:25Z</time></trkpt><trkpt lat="36.93510306950573" lon="14.933922825840096"><ele>223.0</ele><time>2026-04-11T16:07:26Z</time></trkpt><trkpt lat="36.93511299170676" lon="14.933826278101378"><ele>222.16666666666666</ele><time>2026-04-11T16:07:27Z</time></trkpt><trkpt lat="36.93512204697785" lon="14.933725555056174"><ele>221.33333333333331</ele><time>2026-04-11T16:07:28Z</time></trkpt><trkpt lat="36.93512899640832" lon="14.933621159235589"><ele>220.5</ele><time>2026-04-11T16:07:29Z</time></trkpt><trkpt lat="36.93513529827364" lon="14.933526491268562"><ele>219.66666666666669</ele><time>2026-04-11T16:07:30Z</time></trkpt><trkpt lat="36.93514165862656" lon="14.933430944610164"><ele>218.83333333333334</ele><time>2026-04-11T16:07:31Z</time></trkpt><trkpt lat="36.935155155461615" lon="14.933326538713294"><ele>218.0</ele><time>2026-04-11T16:07:32.001Z</time></trkpt><trkpt lat="36.935168869719554" lon="14.933235681809625"><ele>217.14285714285714</ele><time>2026-04-11T16:07:33.001Z</time></trkpt><trkpt lat="36.935160121709444" lon="14.933141010683613"><ele>216.28571428571428</ele><time>2026-04-11T16:07:35.001Z</time></trkpt><trkpt lat="36.93508582835" lon="14.933108345625989"><ele>215.42857142857144</ele><time>2026-04-11T16:07:37.001Z</time></trkpt><trkpt lat="36.935014705102304" lon="14.933084096961899"><ele>214.57142857142856</ele><time>2026-04-11T16:07:38.001Z</time></trkpt><trkpt lat="36.93494627987233" lon="14.933107646648827"><ele>213.7142857142857</ele><time>2026-04-11T16:07:39.001Z</time></trkpt><trkpt lat="36.93486549928747" lon="14.933106541276366"><ele>212.85714285714286</ele><time>2026-04-11T16:07:41.001Z</time></trkpt><trkpt lat="36.934840159978506" lon="14.933034036787507"><ele>212.0</ele><time>2026-04-11T16:07:42.001Z</time></trkpt><trkpt lat="36.93481469623461" lon="14.932945272794674"><ele>210.83333333333334</ele><time>2026-04-11T16:07:43.001Z</time></trkpt><trkpt lat="36.93478769889068" lon="14.93285873937564"><ele>209.66666666666669</ele><time>2026-04-11T16:07:44.001Z</time></trkpt><trkpt lat="36.93476646144893" lon="14.932783739576028"><ele>208.5</ele><time>2026-04-11T16:07:45.001Z</time></trkpt><trkpt lat="36.93474543310111" lon="14.932676538125262"><ele>207.33333333333331</ele><time>2026-04-11T16:07:47.001Z</time></trkpt><trkpt lat="36.934764399747706" lon="14.932584594896712"><ele>206.16666666666666</ele><time>2026-04-11T16:07:49.001Z</time></trkpt><trkpt lat="36.93488393254642" lon="14.932490940267"><ele>205.0</ele><time>2026-04-11T16:07:51.001Z</time></trkpt><trkpt lat="36.934959469952666" lon="14.932416487690965"><ele>204.0</ele><time>2026-04-11T16:07:52.001Z</time></trkpt><trkpt lat="36.9350424345385" lon="14.932308284123318"><ele>203.0</ele><time>2026-04-11T16:07:53.001Z</time></trkpt><trkpt lat="36.93514723300569" lon="14.932191608398814"><ele>202.0</ele><time>2026-04-11T16:07:54.001Z</time></trkpt><trkpt lat="36.935262882080146" lon="14.932072968570665"><ele>201.0</ele><time>2026-04-11T16:07:55.001Z</time></trkpt><trkpt lat="36.9353674054545" lon="14.931957730412945"><ele>201.0</ele><time>2026-04-11T16:07:56.001Z</time></trkpt><trkpt lat="36.93546519697189" lon="14.931860745199215"><ele>201.0</ele><time>2026-04-11T16:07:57.001Z</time></trkpt><trkpt lat="36.93555532038849" lon="14.931760364096258"><ele>201.0</ele><time>2026-04-11T16:07:58.001Z</time></trkpt><trkpt lat="36.93564221556078" lon="14.931672413740639"><ele>201.0</ele><time>2026-04-11T16:07:59.001Z</time></trkpt><trkpt lat="36.93571853983408" lon="14.931606588532851"><ele>200.83333333333334</ele><time>2026-04-11T16:08:00.001Z</time></trkpt><trkpt lat="36.93578488723273" lon="14.931538121421003"><ele>200.66666666666669</ele><time>2026-04-11T16:08:01.001Z</time></trkpt><trkpt lat="36.935840704483525" lon="14.931456687569103"><ele>200.5</ele><time>2026-04-11T16:08:02.001Z</time></trkpt><trkpt lat="36.93589420127701" lon="14.931366286801968"><ele>200.33333333333334</ele><time>2026-04-11T16:08:03.001Z</time></trkpt><trkpt lat="36.93594624837067" lon="14.931273342802285"><ele>200.16666666666669</ele><time>2026-04-11T16:08:04.001Z</time></trkpt><trkpt lat="36.93599117688204" lon="14.931178118615076"><ele>200.0</ele><time>2026-04-11T16:08:05.001Z</time></trkpt><trkpt lat="36.936029734165956" lon="14.931078837109144"><ele>200.00000000000003</ele><time>2026-04-11T16:08:06.001Z</time></trkpt><trkpt lat="36.93603356400482" lon="14.930969734633125"><ele>200.0</ele><time>2026-04-11T16:08:07.001Z</time></trkpt><trkpt lat="36.936049459970135" lon="14.930871169967151"><ele>200.0</ele><time>2026-04-11T16:08:08.001Z</time></trkpt><trkpt lat="36.93606246607993" lon="14.930789902242923"><ele>200.0</ele><time>2026-04-11T16:08:09.001Z</time></trkpt><trkpt lat="36.936076924190644" lon="14.930663916202745"><ele>200.00000000000003</ele><time>2026-04-11T16:08:11.001Z</time></trkpt><trkpt lat="36.93610141993373" lon="14.930540599364345"><ele>200.0</ele><time>2026-04-11T16:08:13.001Z</time></trkpt><trkpt lat="36.93611891048043" lon="14.930395632753852"><ele>200.33333333333334</ele><time>2026-04-11T16:08:15.001Z</time></trkpt><trkpt lat="36.93610695925089" lon="14.930288478152935"><ele>200.66666666666669</ele><time>2026-04-11T16:08:17.001Z</time></trkpt><trkpt lat="36.93608860355027" lon="14.930205217460244"><ele>201.0</ele><time>2026-04-11T16:08:20.001Z</time></trkpt><trkpt lat="36.936073339127546" lon="14.93028487245439"><ele>201.33333333333331</ele><time>2026-04-11T16:09:02Z</time></trkpt><trkpt lat="36.93606618385483" lon="14.930202766644198"><ele>201.66666666666666</ele><time>2026-04-11T16:37:46.001Z</time></trkpt><trkpt lat="36.9360777866205" lon="14.930290508411776"><ele>202.0</ele><time>2026-04-11T16:39:18.001Z</time></trkpt><trkpt lat="36.93606812981165" lon="14.930417803889599"><ele>202.0</ele><time>2026-04-11T16:39:19.001Z</time></trkpt><trkpt lat="36.936056274491435" lon="14.930551256352542"><ele>202.0</ele><time>2026-04-11T16:39:20.001Z</time></trkpt><trkpt lat="36.93600765403195" lon="14.930703314030495"><ele>202.0</ele><time>2026-04-11T16:39:21.001Z</time></trkpt><trkpt lat="36.93597756723317" lon="14.930876974017796"><ele>202.0</ele><time>2026-04-11T16:39:22.001Z</time></trkpt><trkpt lat="36.93593127657313" lon="14.931082996843866"><ele>201.5</ele><time>2026-04-11T16:39:23.001Z</time></trkpt><trkpt lat="36.935909840787325" lon="14.9311995434489"><ele>201.0</ele><time>2026-04-11T16:39:24.001Z</time></trkpt><trkpt lat="36.9358612372561" lon="14.931309614435728"><ele>200.5</ele><time>2026-04-11T16:39:25.001Z</time></trkpt><trkpt lat="36.93578902420529" lon="14.931429246852128"><ele>200.0</ele><time>2026-04-11T16:39:26.001Z</time></trkpt><trkpt lat="36.93567621610476" lon="14.931571715299887"><ele>200.33333333333334</ele><time>2026-04-11T16:39:27.001Z</time></trkpt><trkpt lat="36.93555317764951" lon="14.931704822598846"><ele>200.66666666666669</ele><time>2026-04-11T16:39:28.001Z</time></trkpt><trkpt lat="36.93543028479992" lon="14.931839473991188"><ele>201.0</ele><time>2026-04-11T16:39:29.001Z</time></trkpt><trkpt lat="36.93530089145198" lon="14.931960442635749"><ele>201.0</ele><time>2026-04-11T16:39:30.001Z</time></trkpt><trkpt lat="36.935194730340584" lon="14.93207254983754"><ele>201.0</ele><time>2026-04-11T16:39:31.001Z</time></trkpt><trkpt lat="36.93509611558954" lon="14.932152256671024"><ele>201.0</ele><time>2026-04-11T16:39:32.001Z</time></trkpt><trkpt lat="36.93499827741121" lon="14.932318920671385"><ele>201.0</ele><time>2026-04-11T16:39:33.001Z</time></trkpt><trkpt lat="36.934913532743955" lon="14.932421570483726"><ele>200.66666666666666</ele><time>2026-04-11T16:39:34.001Z</time></trkpt><trkpt lat="36.93483445483067" lon="14.932505538433539"><ele>200.33333333333331</ele><time>2026-04-11T16:39:35.001Z</time></trkpt><trkpt lat="36.9347611174886" lon="14.932552506265003"><ele>200.0</ele><time>2026-04-11T16:39:36.001Z</time></trkpt><trkpt lat="36.93469343105244" lon="14.932557868977472"><ele>199.66666666666666</ele><time>2026-04-11T16:39:37.001Z</time></trkpt><trkpt lat="36.934626362249944" lon="14.932513684590624"><ele>199.33333333333331</ele><time>2026-04-11T16:39:38.001Z</time></trkpt><trkpt lat="36.9345671974694" lon="14.932425409108196"><ele>199.0</ele><time>2026-04-11T16:39:39.001Z</time></trkpt><trkpt lat="36.93450879402636" lon="14.932302765186423"><ele>199.0</ele><time>2026-04-11T16:39:40.001Z</time></trkpt><trkpt lat="36.93444527337373" lon="14.932173546765371"><ele>199.0</ele><time>2026-04-11T16:39:41.001Z</time></trkpt><trkpt lat="36.934373284209585" lon="14.932057103341458"><ele>199.0</ele><time>2026-04-11T16:39:42.001Z</time></trkpt><trkpt lat="36.93430290429468" lon="14.931950679665313"><ele>199.0</ele><time>2026-04-11T16:39:43.001Z</time></trkpt><trkpt lat="36.93422715638856" lon="14.931845582733235"><ele>198.5</ele><time>2026-04-11T16:39:44.001Z</time></trkpt><trkpt lat="36.93414969504018" lon="14.931732165308595"><ele>198.0</ele><time>2026-04-11T16:39:45.001Z</time></trkpt><trkpt lat="36.93406129732285" lon="14.93160957554571"><ele>197.5</ele><time>2026-04-11T16:39:46.001Z</time></trkpt><trkpt lat="36.933960960671435" lon="14.931489493694661"><ele>197.0</ele><time>2026-04-11T16:39:47.001Z</time></trkpt><trkpt lat="36.933840545906044" lon="14.931374594891883"><ele>197.0</ele><time>2026-04-11T16:39:48.001Z</time></trkpt><trkpt lat="36.933734447287954" lon="14.931272839409067"><ele>197.0</ele><time>2026-04-11T16:39:49.001Z</time></trkpt><trkpt lat="36.933623834157565" lon="14.93116706691418"><ele>197.0</ele><time>2026-04-11T16:39:50.001Z</time></trkpt><trkpt lat="36.93351744873602" lon="14.931067505987158"><ele>197.0</ele><time>2026-04-11T16:39:51.001Z</time></trkpt><trkpt lat="36.933415597739184" lon="14.93097526145753"><ele>197.0</ele><time>2026-04-11T16:39:52.001Z</time></trkpt><trkpt lat="36.93330851613213" lon="14.930884971274615"><ele>197.0</ele><time>2026-04-11T16:39:53.001Z</time></trkpt><trkpt lat="36.93319678036231" lon="14.930790152116373"><ele>197.0</ele><time>2026-04-11T16:39:54.001Z</time></trkpt><trkpt lat="36.933084406122084" lon="14.93069041710876"><ele>197.0</ele><time>2026-04-11T16:39:55.001Z</time></trkpt><trkpt lat="36.93297568935605" lon="14.930592868295554"><ele>197.0</ele><time>2026-04-11T16:39:56.001Z</time></trkpt><trkpt lat="36.932872516613585" lon="14.930508102231897"><ele>197.0</ele><time>2026-04-11T16:39:57.001Z</time></trkpt><trkpt lat="36.93276910269418" lon="14.930427661438749"><ele>197.0</ele><time>2026-04-11T16:39:58.001Z</time></trkpt><trkpt lat="36.9326570415378" lon="14.930347314623289"><ele>197.0</ele><time>2026-04-11T16:39:59Z</time></trkpt><trkpt lat="36.93253632134034" lon="14.93026396769322"><ele>196.0</ele><time>2026-04-11T16:40:00Z</time></trkpt><trkpt lat="36.932418539479336" lon="14.930196074739472"><ele>195.0</ele><time>2026-04-11T16:40:01Z</time></trkpt><trkpt lat="36.93229745624393" lon="14.930132358817117"><ele>194.0</ele><time>2026-04-11T16:40:02Z</time></trkpt><trkpt lat="36.932176041033316" lon="14.930077833963258"><ele>193.0</ele><time>2026-04-11T16:40:03Z</time></trkpt><trkpt lat="36.93204282694167" lon="14.930031536000667"><ele>193.0</ele><time>2026-04-11T16:40:04Z</time></trkpt><trkpt lat="36.93189935230006" lon="14.92999209266759"><ele>193.0</ele><time>2026-04-11T16:40:05Z</time></trkpt><trkpt lat="36.931751117270956" lon="14.929963605017976"><ele>193.0</ele><time>2026-04-11T16:40:06Z</time></trkpt><trkpt lat="36.931599430222334" lon="14.929946944733512"><ele>193.0</ele><time>2026-04-11T16:40:07Z</time></trkpt><trkpt lat="36.93144988863434" lon="14.929928083564235"><ele>193.0</ele><time>2026-04-11T16:40:08Z</time></trkpt><trkpt lat="36.931305033376006" lon="14.92991168272736"><ele>193.0</ele><time>2026-04-11T16:40:09Z</time></trkpt><trkpt lat="36.93117056592248" lon="14.929897935906576"><ele>193.0</ele><time>2026-04-11T16:40:10Z</time></trkpt><trkpt lat="36.93105104428325" lon="14.929889054858322"><ele>193.0</ele><time>2026-04-11T16:40:11Z</time></trkpt><trkpt lat="36.93094411327616" lon="14.929907685417012"><ele>193.5</ele><time>2026-04-11T16:40:12Z</time></trkpt><trkpt lat="36.93084400878787" lon="14.929966535275604"><ele>194.0</ele><time>2026-04-11T16:40:13Z</time></trkpt><trkpt lat="36.93074396338139" lon="14.930049040165459"><ele>194.5</ele><time>2026-04-11T16:40:14Z</time></trkpt><trkpt lat="36.93065178004313" lon="14.930160216073554"><ele>195.0</ele><time>2026-04-11T16:40:15Z</time></trkpt><trkpt lat="36.9305629551093" lon="14.93029880636768"><ele>195.0</ele><time>2026-04-11T16:40:16Z</time></trkpt><trkpt lat="36.930464487791625" lon="14.930445555505475"><ele>195.0</ele><time>2026-04-11T16:40:17Z</time></trkpt><trkpt lat="36.93036114995001" lon="14.930584912003242"><ele>195.0</ele><time>2026-04-11T16:40:18Z</time></trkpt><trkpt lat="36.93026197505333" lon="14.930715758975579"><ele>195.0</ele><time>2026-04-11T16:40:19Z</time></trkpt><trkpt lat="36.93016441618303" lon="14.930842918608562"><ele>196.5</ele><time>2026-04-11T16:40:20Z</time></trkpt><trkpt lat="36.93007335458407" lon="14.930967419448645"><ele>198.0</ele><time>2026-04-11T16:40:21Z</time></trkpt><trkpt lat="36.929989356466024" lon="14.931088617517497"><ele>199.5</ele><time>2026-04-11T16:40:22Z</time></trkpt><trkpt lat="36.92990411453421" lon="14.931202537559418"><ele>201.0</ele><time>2026-04-11T16:40:23Z</time></trkpt><trkpt lat="36.929830020329995" lon="14.93132001031424"><ele>196.33333333333334</ele><time>2026-04-11T16:40:24Z</time></trkpt><trkpt lat="36.9297657560216" lon="14.93147890040161"><ele>191.66666666666669</ele><time>2026-04-11T16:40:25Z</time></trkpt><trkpt lat="36.9297053199508" lon="14.931665104424694"><ele>187.0</ele><time>2026-04-11T16:40:26Z</time></trkpt><trkpt lat="36.929642410873534" lon="14.931873065085037"><ele>186.66666666666669</ele><time>2026-04-11T16:40:27Z</time></trkpt><trkpt lat="36.929575309150394" lon="14.932084475068159"><ele>186.33333333333334</ele><time>2026-04-11T16:40:28Z</time></trkpt><trkpt lat="36.929513912760655" lon="14.932291679298476"><ele>186.0</ele><time>2026-04-11T16:40:29Z</time></trkpt><trkpt lat="36.92945273441471" lon="14.932499625221588"><ele>185.25</ele><time>2026-04-11T16:40:30Z</time></trkpt><trkpt lat="36.92938893152483" lon="14.932688006337457"><ele>184.5</ele><time>2026-04-11T16:40:31Z</time></trkpt><trkpt lat="36.929330263458944" lon="14.932854355750802"><ele>183.75</ele><time>2026-04-11T16:40:32Z</time></trkpt><trkpt lat="36.929277248170656" lon="14.93300018828901"><ele>183.0</ele><time>2026-04-11T16:40:33Z</time></trkpt><trkpt lat="36.929227311620345" lon="14.933128191771722"><ele>181.25</ele><time>2026-04-11T16:40:34Z</time></trkpt><trkpt lat="36.9291684652154" lon="14.933250682283962"><ele>179.5</ele><time>2026-04-11T16:40:35Z</time></trkpt><trkpt lat="36.92908498318157" lon="14.933372041213735"><ele>177.75</ele><time>2026-04-11T16:40:36Z</time></trkpt><trkpt lat="36.928977866047774" lon="14.933483911828976"><ele>176.0</ele><time>2026-04-11T16:40:37Z</time></trkpt><trkpt lat="36.92885433076044" lon="14.933581050146636"><ele>175.33333333333331</ele><time>2026-04-11T16:40:38Z</time></trkpt><trkpt lat="36.92872686879162" lon="14.933681713427466"><ele>174.66666666666666</ele><time>2026-04-11T16:40:39Z</time></trkpt><trkpt lat="36.928600517237285" lon="14.933791320161118"><ele>174.0</ele><time>2026-04-11T16:40:40Z</time></trkpt><trkpt lat="36.928470985143484" lon="14.933901770617858"><ele>172.5</ele><time>2026-04-11T16:40:41Z</time></trkpt><trkpt lat="36.92834823548213" lon="14.934007236309794"><ele>171.0</ele><time>2026-04-11T16:40:42Z</time></trkpt><trkpt lat="36.9282346512314" lon="14.934107439918176"><ele>169.5</ele><time>2026-04-11T16:40:43Z</time></trkpt><trkpt lat="36.92811869303472" lon="14.934202613763713"><ele>168.0</ele><time>2026-04-11T16:40:44Z</time></trkpt><trkpt lat="36.92800066424164" lon="14.934297200396136"><ele>168.0</ele><time>2026-04-11T16:40:45Z</time></trkpt><trkpt lat="36.927880188902236" lon="14.934397956503846"><ele>168.0</ele><time>2026-04-11T16:40:46Z</time></trkpt><trkpt lat="36.92775207875074" lon="14.934495159401752"><ele>168.0</ele><time>2026-04-11T16:40:47Z</time></trkpt><trkpt lat="36.92761057623274" lon="14.934579675519947"><ele>167.0</ele><time>2026-04-11T16:40:48Z</time></trkpt><trkpt lat="36.92746049504257" lon="14.934645459063832"><ele>166.0</ele><time>2026-04-11T16:40:49Z</time></trkpt><trkpt lat="36.92731553253657" lon="14.934709087886795"><ele>165.0</ele><time>2026-04-11T16:40:50Z</time></trkpt><trkpt lat="36.927176738941384" lon="14.934773269096063"><ele>165.0</ele><time>2026-04-11T16:40:51Z</time></trkpt><trkpt lat="36.92703227970861" lon="14.934840938626827"><ele>165.0</ele><time>2026-04-11T16:40:52Z</time></trkpt><trkpt lat="36.92688738912727" lon="14.934906255110278"><ele>165.0</ele><time>2026-04-11T16:40:53Z</time></trkpt><trkpt lat="36.9267366826044" lon="14.934954549977864"><ele>164.33333333333334</ele><time>2026-04-11T16:40:54Z</time></trkpt><trkpt lat="36.92659010822963" lon="14.93498624900067"><ele>163.66666666666669</ele><time>2026-04-11T16:40:55Z</time></trkpt><trkpt lat="36.92643993191097" lon="14.934992264586528"><ele>163.0</ele><time>2026-04-11T16:40:56Z</time></trkpt><trkpt lat="36.92628896375232" lon="14.934990442453133"><ele>163.0</ele><time>2026-04-11T16:40:57Z</time></trkpt><trkpt lat="36.926135948589376" lon="14.934990977616145"><ele>163.0</ele><time>2026-04-11T16:40:58Z</time></trkpt><trkpt lat="36.925977646432266" lon="14.934992379206676"><ele>163.0</ele><time>2026-04-11T16:40:59Z</time></trkpt><trkpt lat="36.92582501196322" lon="14.934997066255335"><ele>162.0</ele><time>2026-04-11T16:41:00Z</time></trkpt><trkpt lat="36.92566674836488" lon="14.935000648197763"><ele>161.0</ele><time>2026-04-11T16:41:01Z</time></trkpt><trkpt lat="36.92550872969653" lon="14.935005685760427"><ele>160.0</ele><time>2026-04-11T16:41:02Z</time></trkpt><trkpt lat="36.92534970505131" lon="14.935009689673313"><ele>160.0</ele><time>2026-04-11T16:41:03Z</time></trkpt><trkpt lat="36.925190716549196" lon="14.9350165112689"><ele>160.0</ele><time>2026-04-11T16:41:04Z</time></trkpt><trkpt lat="36.925034223838004" lon="14.935029302112937"><ele>160.0</ele><time>2026-04-11T16:41:05Z</time></trkpt><trkpt lat="36.9248787490244" lon="14.935044668307626"><ele>160.0</ele><time>2026-04-11T16:41:06Z</time></trkpt><trkpt lat="36.92472733436395" lon="14.935044421815284"><ele>160.0</ele><time>2026-04-11T16:41:07Z</time></trkpt><trkpt lat="36.92457351588878" lon="14.935044245259869"><ele>160.0</ele><time>2026-04-11T16:41:08Z</time></trkpt><trkpt lat="36.92442012850967" lon="14.935045171599045"><ele>160.0</ele><time>2026-04-11T16:41:09Z</time></trkpt><trkpt lat="36.924269949195114" lon="14.935052269135426"><ele>160.0</ele><time>2026-04-11T16:41:10Z</time></trkpt><trkpt lat="36.924119603918506" lon="14.935055590438047"><ele>160.0</ele><time>2026-04-11T16:41:11Z</time></trkpt><trkpt lat="36.92396867475935" lon="14.935065205820171"><ele>161.33333333333334</ele><time>2026-04-11T16:41:12Z</time></trkpt><trkpt lat="36.923813115839046" lon="14.935085005849977"><ele>162.66666666666666</ele><time>2026-04-11T16:41:13Z</time></trkpt><trkpt lat="36.923655730003276" lon="14.935115198539325"><ele>164.0</ele><time>2026-04-11T16:41:14Z</time></trkpt><trkpt lat="36.9234965641363" lon="14.935149079539459"><ele>163.33333333333331</ele><time>2026-04-11T16:41:15Z</time></trkpt><trkpt lat="36.923336457553646" lon="14.935187012543944"><ele>162.66666666666666</ele><time>2026-04-11T16:41:16Z</time></trkpt><trkpt lat="36.92317766149499" lon="14.935230388853219"><ele>162.0</ele><time>2026-04-11T16:41:17Z</time></trkpt><trkpt lat="36.92302031874021" lon="14.93527419902924"><ele>162.0</ele><time>2026-04-11T16:41:18Z</time></trkpt><trkpt lat="36.9228634091158" lon="14.93532041170919"><ele>162.0</ele><time>2026-04-11T16:41:19Z</time></trkpt><trkpt lat="36.92270682900949" lon="14.935362983970899"><ele>162.0</ele><time>2026-04-11T16:41:20Z</time></trkpt><trkpt lat="36.922549456836585" lon="14.935403115056776"><ele>161.33333333333334</ele><time>2026-04-11T16:41:21Z</time></trkpt><trkpt lat="36.922388317556546" lon="14.935442605111843"><ele>160.66666666666669</ele><time>2026-04-11T16:41:22.001Z</time></trkpt><trkpt lat="36.92222249543495" lon="14.935490075883017"><ele>160.0</ele><time>2026-04-11T16:41:23.001Z</time></trkpt><trkpt lat="36.922055504209304" lon="14.935541358128653"><ele>160.0</ele><time>2026-04-11T16:41:24.001Z</time></trkpt><trkpt lat="36.921884167576025" lon="14.935592461867826"><ele>160.0</ele><time>2026-04-11T16:41:25.001Z</time></trkpt><trkpt lat="36.92172120737952" lon="14.935638556762939"><ele>160.0</ele><time>2026-04-11T16:41:26.001Z</time></trkpt><trkpt lat="36.921555304537826" lon="14.935685143185802"><ele>159.33333333333334</ele><time>2026-04-11T16:41:27.001Z</time></trkpt><trkpt lat="36.92137868615905" lon="14.935733100606832"><ele>158.66666666666666</ele><time>2026-04-11T16:41:28.001Z</time></trkpt><trkpt lat="36.921200462342526" lon="14.93578174292145"><ele>158.0</ele><time>2026-04-11T16:41:29.001Z</time></trkpt><trkpt lat="36.921021054317094" lon="14.935830807466473"><ele>158.0</ele><time>2026-04-11T16:41:30.001Z</time></trkpt><trkpt lat="36.92084715398317" lon="14.935876646472085"><ele>158.0</ele><time>2026-04-11T16:41:31.001Z</time></trkpt><trkpt lat="36.92068589017882" lon="14.935921245389398"><ele>158.0</ele><time>2026-04-11T16:41:32.001Z</time></trkpt><trkpt lat="36.920536524937006" lon="14.935962898334324"><ele>159.0</ele><time>2026-04-11T16:41:33.001Z</time></trkpt><trkpt lat="36.92038661836703" lon="14.936005446596305"><ele>160.0</ele><time>2026-04-11T16:41:34.001Z</time></trkpt><trkpt lat="36.92023471473172" lon="14.936047358362861"><ele>161.0</ele><time>2026-04-11T16:41:35.001Z</time></trkpt><trkpt lat="36.920082104626154" lon="14.93609172796265"><ele>160.66666666666666</ele><time>2026-04-11T16:41:36.001Z</time></trkpt><trkpt lat="36.919927169954406" lon="14.936136255497063"><ele>160.33333333333334</ele><time>2026-04-11T16:41:37.001Z</time></trkpt><trkpt lat="36.91977118925516" lon="14.936176598952617"><ele>160.0</ele><time>2026-04-11T16:41:38.001Z</time></trkpt><trkpt lat="36.91961340964951" lon="14.936218021858567"><ele>160.0</ele><time>2026-04-11T16:41:39.001Z</time></trkpt><trkpt lat="36.91944999725467" lon="14.936260233790467"><ele>160.0</ele><time>2026-04-11T16:41:40.001Z</time></trkpt><trkpt lat="36.91928221256308" lon="14.936305162499295"><ele>160.0</ele><time>2026-04-11T16:41:41.001Z</time></trkpt><trkpt lat="36.91911142056026" lon="14.936355312280098"><ele>160.33333333333334</ele><time>2026-04-11T16:41:42.001Z</time></trkpt><trkpt lat="36.9189350994173" lon="14.936406689183087"><ele>160.66666666666666</ele><time>2026-04-11T16:41:43.001Z</time></trkpt><trkpt lat="36.918757912295455" lon="14.936455103634973"><ele>161.0</ele><time>2026-04-11T16:41:44.001Z</time></trkpt><trkpt lat="36.9185837748339" lon="14.936504501575193"><ele>161.0</ele><time>2026-04-11T16:41:45.001Z</time></trkpt><trkpt lat="36.91841198577602" lon="14.9365516264227"><ele>161.0</ele><time>2026-04-11T16:41:46.001Z</time></trkpt><trkpt lat="36.91823685231938" lon="14.936602818812903"><ele>161.0</ele><time>2026-04-11T16:41:47.001Z</time></trkpt><trkpt lat="36.9180612213503" lon="14.936656204581997"><ele>160.66666666666666</ele><time>2026-04-11T16:41:48.001Z</time></trkpt><trkpt lat="36.91788246598281" lon="14.936706773950618"><ele>160.33333333333334</ele><time>2026-04-11T16:41:49.001Z</time></trkpt><trkpt lat="36.917706673815694" lon="14.936753507735544"><ele>160.0</ele><time>2026-04-11T16:41:50.001Z</time></trkpt><trkpt lat="36.917549081440534" lon="14.936792078008608"><ele>161.0</ele><time>2026-04-11T16:41:51.001Z</time></trkpt><trkpt lat="36.917401644702935" lon="14.936827930473195"><ele>162.0</ele><time>2026-04-11T16:41:52.001Z</time></trkpt><trkpt lat="36.917260552888564" lon="14.936882396443828"><ele>163.0</ele><time>2026-04-11T16:41:53.001Z</time></trkpt><trkpt lat="36.917136193780614" lon="14.936974581098013"><ele>164.0</ele><time>2026-04-11T16:41:54.001Z</time></trkpt><trkpt lat="36.91701892750476" lon="14.937102045970676"><ele>164.0</ele><time>2026-04-11T16:41:55.001Z</time></trkpt><trkpt lat="36.91690874679692" lon="14.937250012190344"><ele>164.0</ele><time>2026-04-11T16:41:56.001Z</time></trkpt><trkpt lat="36.91680175114598" lon="14.93740630351172"><ele>164.0</ele><time>2026-04-11T16:41:57.001Z</time></trkpt><trkpt lat="36.91668849908952" lon="14.937555959985078"><ele>162.66666666666666</ele><time>2026-04-11T16:41:58.001Z</time></trkpt><trkpt lat="36.91657776350161" lon="14.937696256087994"><ele>161.33333333333334</ele><time>2026-04-11T16:41:59.001Z</time></trkpt><trkpt lat="36.91647094559511" lon="14.937833410468148"><ele>160.0</ele><time>2026-04-11T16:42:00.001Z</time></trkpt><trkpt lat="36.91636268193644" lon="14.937960705324782"><ele>160.0</ele><time>2026-04-11T16:42:01.001Z</time></trkpt><trkpt lat="36.916245554056" lon="14.93807086545252"><ele>160.0</ele><time>2026-04-11T16:42:02.001Z</time></trkpt><trkpt lat="36.916124877765235" lon="14.938175367077504"><ele>160.0</ele><time>2026-04-11T16:42:03.001Z</time></trkpt><trkpt lat="36.915988753374066" lon="14.938274960570753"><ele>158.66666666666669</ele><time>2026-04-11T16:42:04.001Z</time></trkpt><trkpt lat="36.91585194085072" lon="14.93837326852371"><ele>157.33333333333334</ele><time>2026-04-11T16:42:05Z</time></trkpt><trkpt lat="36.91571186227418" lon="14.938473753598013"><ele>156.0</ele><time>2026-04-11T16:42:06Z</time></trkpt><trkpt lat="36.915564791058344" lon="14.93857233002739"><ele>156.0</ele><time>2026-04-11T16:42:07Z</time></trkpt><trkpt lat="36.915419755123544" lon="14.938677446845317"><ele>156.0</ele><time>2026-04-11T16:42:08Z</time></trkpt><trkpt lat="36.91527139145607" lon="14.938791882376822"><ele>156.0</ele><time>2026-04-11T16:42:09Z</time></trkpt><trkpt lat="36.91513065406842" lon="14.93890307794691"><ele>154.33333333333334</ele><time>2026-04-11T16:42:10Z</time></trkpt><trkpt lat="36.91499402169951" lon="14.939006807128758"><ele>152.66666666666669</ele><time>2026-04-11T16:42:11Z</time></trkpt><trkpt lat="36.91485770580482" lon="14.939114043346429"><ele>151.0</ele><time>2026-04-11T16:42:12Z</time></trkpt><trkpt lat="36.9147203173339" lon="14.93921440866536"><ele>151.66666666666669</ele><time>2026-04-11T16:42:13Z</time></trkpt><trkpt lat="36.91458543527074" lon="14.939309834445675"><ele>152.33333333333334</ele><time>2026-04-11T16:42:14Z</time></trkpt><trkpt lat="36.91444773974844" lon="14.939391993622728"><ele>153.0</ele><time>2026-04-11T16:42:15Z</time></trkpt><trkpt lat="36.914300674334214" lon="14.939466896462841"><ele>153.66666666666666</ele><time>2026-04-11T16:42:16Z</time></trkpt><trkpt lat="36.91414300188457" lon="14.93951663404272"><ele>154.33333333333331</ele><time>2026-04-11T16:42:17Z</time></trkpt><trkpt lat="36.91398560546953" lon="14.939554347431887"><ele>155.0</ele><time>2026-04-11T16:42:18Z</time></trkpt><trkpt lat="36.91382239546491" lon="14.939594397103098"><ele>155.0</ele><time>2026-04-11T16:42:19Z</time></trkpt><trkpt lat="36.913667513572705" lon="14.93962634641213"><ele>155.0</ele><time>2026-04-11T16:42:20Z</time></trkpt><trkpt lat="36.913521404386955" lon="14.939671043850176"><ele>155.0</ele><time>2026-04-11T16:42:21Z</time></trkpt><trkpt lat="36.91338135242695" lon="14.939742247008196"><ele>155.66666666666666</ele><time>2026-04-11T16:42:22Z</time></trkpt><trkpt lat="36.91325292315113" lon="14.939846381606651"><ele>156.33333333333334</ele><time>2026-04-11T16:42:23Z</time></trkpt><trkpt lat="36.91312402062611" lon="14.93996179970728"><ele>157.0</ele><time>2026-04-11T16:42:24Z</time></trkpt><trkpt lat="36.91299611938555" lon="14.940087348478135"><ele>159.0</ele><time>2026-04-11T16:42:25Z</time></trkpt><trkpt lat="36.9128644944945" lon="14.940210666051074"><ele>161.0</ele><time>2026-04-11T16:42:26Z</time></trkpt><trkpt lat="36.912722976288705" lon="14.940333667723012"><ele>163.0</ele><time>2026-04-11T16:42:27Z</time></trkpt><trkpt lat="36.91257427007883" lon="14.940460128672271"><ele>161.33333333333334</ele><time>2026-04-11T16:42:28Z</time></trkpt><trkpt lat="36.91242257088247" lon="14.940588955765739"><ele>159.66666666666666</ele><time>2026-04-11T16:42:29Z</time></trkpt><trkpt lat="36.91227824496867" lon="14.940720059473335"><ele>158.0</ele><time>2026-04-11T16:42:30Z</time></trkpt><trkpt lat="36.912143618036446" lon="14.940832408310024"><ele>159.25</ele><time>2026-04-11T16:42:31Z</time></trkpt><trkpt lat="36.91201718989133" lon="14.940938604346858"><ele>160.5</ele><time>2026-04-11T16:42:32Z</time></trkpt><trkpt lat="36.91189297101334" lon="14.941039575668984"><ele>161.75</ele><time>2026-04-11T16:42:33Z</time></trkpt><trkpt lat="36.911775676387826" lon="14.941147410648489"><ele>163.0</ele><time>2026-04-11T16:42:34Z</time></trkpt><trkpt lat="36.911657528156255" lon="14.941250882377185"><ele>163.0</ele><time>2026-04-11T16:42:35Z</time></trkpt><trkpt lat="36.91153825610117" lon="14.941347305474311"><ele>163.0</ele><time>2026-04-11T16:42:36Z</time></trkpt><trkpt lat="36.91141772096074" lon="14.941445158051591"><ele>163.0</ele><time>2026-04-11T16:42:37Z</time></trkpt><trkpt lat="36.91129536643458" lon="14.941547358880841"><ele>163.0</ele><time>2026-04-11T16:42:38Z</time></trkpt><trkpt lat="36.911170869924916" lon="14.941657953837904"><ele>164.5</ele><time>2026-04-11T16:42:39Z</time></trkpt><trkpt lat="36.91105711111467" lon="14.941778806032671"><ele>166.0</ele><time>2026-04-11T16:42:40Z</time></trkpt><trkpt lat="36.91095904865735" lon="14.941914196067254"><ele>167.5</ele><time>2026-04-11T16:42:41Z</time></trkpt><trkpt lat="36.91088691247672" lon="14.942074693809682"><ele>169.0</ele><time>2026-04-11T16:42:42Z</time></trkpt><trkpt lat="36.91083449490472" lon="14.942253459522618"><ele>169.0</ele><time>2026-04-11T16:42:43Z</time></trkpt><trkpt lat="36.91078916172791" lon="14.942446246429656"><ele>169.0</ele><time>2026-04-11T16:42:44Z</time></trkpt><trkpt lat="36.91072986204743" lon="14.942639785835485"><ele>169.0</ele><time>2026-04-11T16:42:45Z</time></trkpt><trkpt lat="36.91067145158479" lon="14.94282649656104"><ele>169.25</ele><time>2026-04-11T16:42:46Z</time></trkpt><trkpt lat="36.91061762503129" lon="14.943004739161129"><ele>169.5</ele><time>2026-04-11T16:42:47Z</time></trkpt><trkpt lat="36.91057752900242" lon="14.943163501939454"><ele>169.75</ele><time>2026-04-11T16:42:48Z</time></trkpt><trkpt lat="36.91052589452961" lon="14.94331640616509"><ele>170.0</ele><time>2026-04-11T16:42:49Z</time></trkpt><trkpt lat="36.910463452158645" lon="14.943461000429064"><ele>169.25</ele><time>2026-04-11T16:42:50Z</time></trkpt><trkpt lat="36.91037483991697" lon="14.943594365726772"><ele>168.5</ele><time>2026-04-11T16:42:51Z</time></trkpt><trkpt lat="36.910270777004534" lon="14.94372503003023"><ele>167.75</ele><time>2026-04-11T16:42:52Z</time></trkpt><trkpt lat="36.910162659384895" lon="14.943850854273267"><ele>167.0</ele><time>2026-04-11T16:42:53Z</time></trkpt><trkpt lat="36.910059016854774" lon="14.94397058510749"><ele>165.5</ele><time>2026-04-11T16:42:54Z</time></trkpt><trkpt lat="36.90994645450027" lon="14.944070476185534"><ele>164.0</ele><time>2026-04-11T16:42:55Z</time></trkpt><trkpt lat="36.909829095648526" lon="14.944145603930249"><ele>162.5</ele><time>2026-04-11T16:42:56Z</time></trkpt><trkpt lat="36.909704934893135" lon="14.944206259374125"><ele>161.0</ele><time>2026-04-11T16:42:57Z</time></trkpt><trkpt lat="36.90956272847047" lon="14.94423566275336"><ele>158.66666666666666</ele><time>2026-04-11T16:42:58Z</time></trkpt><trkpt lat="36.9094219150222" lon="14.944264759777491"><ele>156.33333333333334</ele><time>2026-04-11T16:42:59Z</time></trkpt><trkpt lat="36.9092704600906" lon="14.94430070812711"><ele>154.0</ele><time>2026-04-11T16:43:00Z</time></trkpt><trkpt lat="36.909118299783934" lon="14.94434500504773"><ele>153.66666666666669</ele><time>2026-04-11T16:43:01Z</time></trkpt><trkpt lat="36.9089593749656" lon="14.944386016693288"><ele>153.33333333333334</ele><time>2026-04-11T16:43:02Z</time></trkpt><trkpt lat="36.90880026617265" lon="14.944430827405439"><ele>153.0</ele><time>2026-04-11T16:43:03Z</time></trkpt><trkpt lat="36.90864628867971" lon="14.944469918989777"><ele>153.0</ele><time>2026-04-11T16:43:04Z</time></trkpt><trkpt lat="36.9084989804961" lon="14.944507165121644"><ele>153.0</ele><time>2026-04-11T16:43:05Z</time></trkpt><trkpt lat="36.908353982486084" lon="14.944540698543854"><ele>153.0</ele><time>2026-04-11T16:43:06Z</time></trkpt><trkpt lat="36.90820930079296" lon="14.944577010223956"><ele>153.0</ele><time>2026-04-11T16:43:07Z</time></trkpt><trkpt lat="36.908064715773975" lon="14.944619393562403"><ele>153.0</ele><time>2026-04-11T16:43:08Z</time></trkpt><trkpt lat="36.90792074078321" lon="14.944667887583355"><ele>153.0</ele><time>2026-04-11T16:43:09Z</time></trkpt><trkpt lat="36.907783339973015" lon="14.944733782199563"><ele>153.0</ele><time>2026-04-11T16:43:10Z</time></trkpt><trkpt lat="36.907651606886546" lon="14.944809690155688"><ele>153.0</ele><time>2026-04-11T16:43:11Z</time></trkpt><trkpt lat="36.907524312543536" lon="14.944892991078957"><ele>152.25</ele><time>2026-04-11T16:43:12Z</time></trkpt><trkpt lat="36.90740226271142" lon="14.944976360554612"><ele>151.5</ele><time>2026-04-11T16:43:13Z</time></trkpt><trkpt lat="36.90728019889971" lon="14.945050421273573"><ele>150.75</ele><time>2026-04-11T16:43:14Z</time></trkpt><trkpt lat="36.90715339779793" lon="14.945099219100294"><ele>150.0</ele><time>2026-04-11T16:43:15Z</time></trkpt><trkpt lat="36.907024331200006" lon="14.945109730552113"><ele>150.0</ele><time>2026-04-11T16:43:16Z</time></trkpt><trkpt lat="36.906886955426046" lon="14.945095119863305"><ele>150.0</ele><time>2026-04-11T16:43:17Z</time></trkpt><trkpt lat="36.90675122659668" lon="14.94505959370184"><ele>150.0</ele><time>2026-04-11T16:43:18Z</time></trkpt><trkpt lat="36.90662107828938" lon="14.944991890655436"><ele>150.0</ele><time>2026-04-11T16:43:19Z</time></trkpt><trkpt lat="36.90649989433516" lon="14.944885625674543"><ele>150.0</ele><time>2026-04-11T16:43:20Z</time></trkpt><trkpt lat="36.906379333790746" lon="14.944751869737066"><ele>150.0</ele><time>2026-04-11T16:43:21Z</time></trkpt><trkpt lat="36.90625916895794" lon="14.944602175985676"><ele>150.0</ele><time>2026-04-11T16:43:22Z</time></trkpt><trkpt lat="36.90614126088148" lon="14.944449349655931"><ele>150.0</ele><time>2026-04-11T16:43:23Z</time></trkpt><trkpt lat="36.90602968045791" lon="14.944285890645695"><ele>150.0</ele><time>2026-04-11T16:43:24Z</time></trkpt><trkpt lat="36.90594232916839" lon="14.944119936548729"><ele>150.0</ele><time>2026-04-11T16:43:25Z</time></trkpt><trkpt lat="36.9058605456437" lon="14.943968345389825"><ele>149.25</ele><time>2026-04-11T16:43:26Z</time></trkpt><trkpt lat="36.90576316285221" lon="14.9438384573814"><ele>148.5</ele><time>2026-04-11T16:43:27Z</time></trkpt><trkpt lat="36.90565471553376" lon="14.943715038521622"><ele>147.75</ele><time>2026-04-11T16:43:28Z</time></trkpt><trkpt lat="36.90553671331032" lon="14.943595403727524"><ele>147.0</ele><time>2026-04-11T16:43:29Z</time></trkpt><trkpt lat="36.90541002118549" lon="14.943475190808126"><ele>146.5</ele><time>2026-04-11T16:43:30Z</time></trkpt><trkpt lat="36.905284016566696" lon="14.94335685989403"><ele>146.0</ele><time>2026-04-11T16:43:31Z</time></trkpt><trkpt lat="36.90516474719132" lon="14.943251346546859"><ele>145.5</ele><time>2026-04-11T16:43:32Z</time></trkpt><trkpt lat="36.90505546559154" lon="14.943150956774542"><ele>145.0</ele><time>2026-04-11T16:43:33Z</time></trkpt><trkpt lat="36.90496161857359" lon="14.943071726736255"><ele>145.0</ele><time>2026-04-11T16:43:34Z</time></trkpt><trkpt lat="36.904867585551244" lon="14.943024453217129"><ele>145.0</ele><time>2026-04-11T16:43:35Z</time></trkpt><trkpt lat="36.904761239448774" lon="14.943020221664701"><ele>145.0</ele><time>2026-04-11T16:43:36Z</time></trkpt><trkpt lat="36.90465165853977" lon="14.94306666683847"><ele>145.0</ele><time>2026-04-11T16:43:37Z</time></trkpt><trkpt lat="36.904533792717864" lon="14.943150247292667"><ele>145.0</ele><time>2026-04-11T16:43:38Z</time></trkpt><trkpt lat="36.90440573501888" lon="14.94326339376026"><ele>145.0</ele><time>2026-04-11T16:43:39Z</time></trkpt><trkpt lat="36.90425948243142" lon="14.943389052147642"><ele>145.0</ele><time>2026-04-11T16:43:40Z</time></trkpt><trkpt lat="36.904103098866756" lon="14.943524252509471"><ele>145.33333333333334</ele><time>2026-04-11T16:43:41Z</time></trkpt><trkpt lat="36.90394430514321" lon="14.943656295889076"><ele>145.66666666666666</ele><time>2026-04-11T16:43:42Z</time></trkpt><trkpt lat="36.90378397922417" lon="14.943781570781221"><ele>146.0</ele><time>2026-04-11T16:43:43Z</time></trkpt><trkpt lat="36.90363522493053" lon="14.943901947829987"><ele>146.0</ele><time>2026-04-11T16:43:44Z</time></trkpt><trkpt lat="36.90349336321423" lon="14.944015040927232"><ele>146.0</ele><time>2026-04-11T16:43:45Z</time></trkpt><trkpt lat="36.90335504829333" lon="14.944127124962328"><ele>146.0</ele><time>2026-04-11T16:43:46Z</time></trkpt><trkpt lat="36.903210727791716" lon="14.944242283885787"><ele>146.0</ele><time>2026-04-11T16:43:47Z</time></trkpt><trkpt lat="36.90305871911967" lon="14.944363677721118"><ele>146.0</ele><time>2026-04-11T16:43:48Z</time></trkpt><trkpt lat="36.90290395115965" lon="14.94448779818417"><ele>146.0</ele><time>2026-04-11T16:43:49Z</time></trkpt><trkpt lat="36.90275359608104" lon="14.944606612756473"><ele>146.0</ele><time>2026-04-11T16:43:50Z</time></trkpt><trkpt lat="36.902611179064095" lon="14.94471848224911"><ele>146.0</ele><time>2026-04-11T16:43:51Z</time></trkpt><trkpt lat="36.902466461398596" lon="14.944831619983713"><ele>146.0</ele><time>2026-04-11T16:43:52Z</time></trkpt><trkpt lat="36.90231504768157" lon="14.944948164316209"><ele>147.33333333333331</ele><time>2026-04-11T16:43:53Z</time></trkpt><trkpt lat="36.90217454256788" lon="14.945061999024333"><ele>148.66666666666666</ele><time>2026-04-11T16:43:54Z</time></trkpt><trkpt lat="36.90203780393082" lon="14.945173004679695"><ele>150.0</ele><time>2026-04-11T16:43:55.001Z</time></trkpt><trkpt lat="36.90190448707789" lon="14.945281988937886"><ele>150.0</ele><time>2026-04-11T16:43:56.001Z</time></trkpt><trkpt lat="36.90177220565212" lon="14.945391816877303"><ele>150.0</ele><time>2026-04-11T16:43:57.001Z</time></trkpt><trkpt lat="36.90163810867143" lon="14.945502121823814"><ele>150.0</ele><time>2026-04-11T16:43:58.001Z</time></trkpt><trkpt lat="36.90150791426396" lon="14.945615919010802"><ele>149.66666666666666</ele><time>2026-04-11T16:43:59.001Z</time></trkpt><trkpt lat="36.90137366845019" lon="14.945727741791382"><ele>149.33333333333331</ele><time>2026-04-11T16:44:00.001Z</time></trkpt><trkpt lat="36.901238715496405" lon="14.94583522552204"><ele>149.0</ele><time>2026-04-11T16:44:01.001Z</time></trkpt><trkpt lat="36.90110821538419" lon="14.945940560155485"><ele>149.0</ele><time>2026-04-11T16:44:02.001Z</time></trkpt><trkpt lat="36.900974398125186" lon="14.94604436048558"><ele>149.0</ele><time>2026-04-11T16:44:03.001Z</time></trkpt><trkpt lat="36.90083817423787" lon="14.946151082519286"><ele>149.0</ele><time>2026-04-11T16:44:04.001Z</time></trkpt><trkpt lat="36.90070441320396" lon="14.946265331476226"><ele>149.0</ele><time>2026-04-11T16:44:05.001Z</time></trkpt><trkpt lat="36.90056735196813" lon="14.946379536539704"><ele>149.0</ele><time>2026-04-11T16:44:06.001Z</time></trkpt><trkpt lat="36.90043093948096" lon="14.94648991567873"><ele>149.0</ele><time>2026-04-11T16:44:07.001Z</time></trkpt><trkpt lat="36.90030405350949" lon="14.946596390688411"><ele>149.0</ele><time>2026-04-11T16:44:08.001Z</time></trkpt><trkpt lat="36.900175525619275" lon="14.94670293600174"><ele>149.0</ele><time>2026-04-11T16:44:09.001Z</time></trkpt><trkpt lat="36.900044830022715" lon="14.946809324765018"><ele>149.0</ele><time>2026-04-11T16:44:10.001Z</time></trkpt><trkpt lat="36.899910296775616" lon="14.94691717943949"><ele>150.0</ele><time>2026-04-11T16:44:11Z</time></trkpt><trkpt lat="36.899778878891" lon="14.947029247376578"><ele>151.0</ele><time>2026-04-11T16:44:12Z</time></trkpt><trkpt lat="36.89966178317869" lon="14.947150893074802"><ele>152.0</ele><time>2026-04-11T16:44:13Z</time></trkpt><trkpt lat="36.899556312285874" lon="14.947293026653087"><ele>152.0</ele><time>2026-04-11T16:44:14Z</time></trkpt><trkpt lat="36.899463299656894" lon="14.947453118954254"><ele>152.0</ele><time>2026-04-11T16:44:15Z</time></trkpt><trkpt lat="36.89937425478783" lon="14.947617266949813"><ele>152.0</ele><time>2026-04-11T16:44:16Z</time></trkpt><trkpt lat="36.89929393860289" lon="14.94777222027552"><ele>151.5</ele><time>2026-04-11T16:44:17Z</time></trkpt><trkpt lat="36.899211506339675" lon="14.947921214642154"><ele>151.0</ele><time>2026-04-11T16:44:18Z</time></trkpt><trkpt lat="36.89913103597566" lon="14.948066260080134"><ele>150.5</ele><time>2026-04-11T16:44:19Z</time></trkpt><trkpt lat="36.89905067296027" lon="14.948201848233357"><ele>150.0</ele><time>2026-04-11T16:44:20Z</time></trkpt><trkpt lat="36.89895158230864" lon="14.948323942436446"><ele>150.66666666666666</ele><time>2026-04-11T16:44:21Z</time></trkpt><trkpt lat="36.89883291356664" lon="14.948431346783327"><ele>151.33333333333331</ele><time>2026-04-11T16:44:22Z</time></trkpt><trkpt lat="36.898695542129175" lon="14.948536017474401"><ele>152.0</ele><time>2026-04-11T16:44:23Z</time></trkpt><trkpt lat="36.8985502966707" lon="14.948639629739725"><ele>150.33333333333331</ele><time>2026-04-11T16:44:24Z</time></trkpt><trkpt lat="36.8984007466119" lon="14.948741096020871"><ele>148.66666666666666</ele><time>2026-04-11T16:44:25Z</time></trkpt><trkpt lat="36.89825833888342" lon="14.948838541719605"><ele>147.0</ele><time>2026-04-11T16:44:26Z</time></trkpt><trkpt lat="36.89811629139989" lon="14.948941100700207"><ele>147.0</ele><time>2026-04-11T16:44:27Z</time></trkpt><trkpt lat="36.897971353170306" lon="14.949046922558887"><ele>147.0</ele><time>2026-04-11T16:44:28Z</time></trkpt><trkpt lat="36.89782692107119" lon="14.949162557576358"><ele>147.0</ele><time>2026-04-11T16:44:29Z</time></trkpt><trkpt lat="36.89768302057316" lon="14.949273063759223"><ele>146.66666666666666</ele><time>2026-04-11T16:44:30Z</time></trkpt><trkpt lat="36.897547697527905" lon="14.94938496378214"><ele>146.33333333333331</ele><time>2026-04-11T16:44:31Z</time></trkpt><trkpt lat="36.897418613310606" lon="14.949490684241729"><ele>146.0</ele><time>2026-04-11T16:44:32Z</time></trkpt><trkpt lat="36.89729354394726" lon="14.949585321665591"><ele>146.0</ele><time>2026-04-11T16:44:33Z</time></trkpt><trkpt lat="36.89717098727115" lon="14.949681092260297"><ele>146.0</ele><time>2026-04-11T16:44:34Z</time></trkpt><trkpt lat="36.89704500078306" lon="14.949779244218242"><ele>146.0</ele><time>2026-04-11T16:44:35Z</time></trkpt><trkpt lat="36.896931710698354" lon="14.949869686938264"><ele>146.0</ele><time>2026-04-11T16:44:36Z</time></trkpt><trkpt lat="36.896830907582896" lon="14.94995256788103"><ele>145.75</ele><time>2026-04-11T16:44:37Z</time></trkpt><trkpt lat="36.896749978328785" lon="14.950041142523032"><ele>145.5</ele><time>2026-04-11T16:44:38Z</time></trkpt><trkpt lat="36.896698231777215" lon="14.950152844076136"><ele>145.25</ele><time>2026-04-11T16:44:39Z</time></trkpt><trkpt lat="36.89668061192243" lon="14.950291824478843"><ele>145.0</ele><time>2026-04-11T16:44:40Z</time></trkpt><trkpt lat="36.896690946141796" lon="14.950459068063088"><ele>145.0</ele><time>2026-04-11T16:44:41Z</time></trkpt><trkpt lat="36.896726762647575" lon="14.95066084751332"><ele>145.0</ele><time>2026-04-11T16:44:42Z</time></trkpt><trkpt lat="36.89675331473241" lon="14.950866179158202"><ele>145.0</ele><time>2026-04-11T16:44:43Z</time></trkpt><trkpt lat="36.896775346573826" lon="14.951081174210609"><ele>147.0</ele><time>2026-04-11T16:44:44Z</time></trkpt><trkpt lat="36.896795265294045" lon="14.951290330828991"><ele>149.0</ele><time>2026-04-11T16:44:45Z</time></trkpt><trkpt lat="36.89681449873805" lon="14.951488882498808"><ele>151.0</ele><time>2026-04-11T16:44:46Z</time></trkpt><trkpt lat="36.89683572395289" lon="14.951688842915926"><ele>152.0</ele><time>2026-04-11T16:44:47Z</time></trkpt><trkpt lat="36.896856225400995" lon="14.951881382623633"><ele>153.0</ele><time>2026-04-11T16:44:48Z</time></trkpt><trkpt lat="36.89687210090156" lon="14.952057432869033"><ele>154.0</ele><time>2026-04-11T16:44:49Z</time></trkpt><trkpt lat="36.89686833774873" lon="14.952216152238867"><ele>155.0</ele><time>2026-04-11T16:44:50Z</time></trkpt><trkpt lat="36.896843504597506" lon="14.952368993919704"><ele>155.0</ele><time>2026-04-11T16:44:51Z</time></trkpt><trkpt lat="36.89680335396095" lon="14.952520413615884"><ele>155.0</ele><time>2026-04-11T16:44:52Z</time></trkpt><trkpt lat="36.89674256925575" lon="14.952687299679782"><ele>155.0</ele><time>2026-04-11T16:44:53Z</time></trkpt><trkpt lat="36.89667660635993" lon="14.952863715527487"><ele>155.0</ele><time>2026-04-11T16:44:54Z</time></trkpt><trkpt lat="36.896618933775294" lon="14.953029270027077"><ele>154.25</ele><time>2026-04-11T16:44:55Z</time></trkpt><trkpt lat="36.896566159374984" lon="14.953179081431404"><ele>153.5</ele><time>2026-04-11T16:44:56Z</time></trkpt><trkpt lat="36.8965044394751" lon="14.953298453928356"><ele>152.75</ele><time>2026-04-11T16:44:57Z</time></trkpt><trkpt lat="36.89641786465056" lon="14.95340701167633"><ele>152.0</ele><time>2026-04-11T16:44:58Z</time></trkpt><trkpt lat="36.89630276061259" lon="14.95350950623561"><ele>152.0</ele><time>2026-04-11T16:44:59Z</time></trkpt><trkpt lat="36.89615971126093" lon="14.953611762082948"><ele>152.0</ele><time>2026-04-11T16:45:00Z</time></trkpt><trkpt lat="36.89601757498441" lon="14.953719874119553"><ele>152.0</ele><time>2026-04-11T16:45:01Z</time></trkpt><trkpt lat="36.89588786215482" lon="14.953828504294036"><ele>149.75</ele><time>2026-04-11T16:45:02Z</time></trkpt><trkpt lat="36.895770194553215" lon="14.953938261995718"><ele>147.5</ele><time>2026-04-11T16:45:03Z</time></trkpt><trkpt lat="36.895655656272076" lon="14.954042826436172"><ele>145.25</ele><time>2026-04-11T16:45:04Z</time></trkpt><trkpt lat="36.895561262649466" lon="14.954147848972186"><ele>143.0</ele><time>2026-04-11T16:45:05Z</time></trkpt><trkpt lat="36.89548240835577" lon="14.954270153424227"><ele>142.25</ele><time>2026-04-11T16:45:06Z</time></trkpt><trkpt lat="36.89542741648807" lon="14.954415116647544"><ele>141.5</ele><time>2026-04-11T16:45:07Z</time></trkpt><trkpt lat="36.895381938401826" lon="14.954571174385828"><ele>140.75</ele><time>2026-04-11T16:45:08Z</time></trkpt><trkpt lat="36.89535746575801" lon="14.954737916053633"><ele>140.0</ele><time>2026-04-11T16:45:09Z</time></trkpt><trkpt lat="36.895346711455865" lon="14.954912754004717"><ele>139.25</ele><time>2026-04-11T16:45:10Z</time></trkpt><trkpt lat="36.89533683229656" lon="14.955086238215525"><ele>138.5</ele><time>2026-04-11T16:45:11Z</time></trkpt><trkpt lat="36.895322617766" lon="14.95525186845505"><ele>137.75</ele><time>2026-04-11T16:45:12Z</time></trkpt><trkpt lat="36.895302917324265" lon="14.95540659098758"><ele>137.0</ele><time>2026-04-11T16:45:13Z</time></trkpt><trkpt lat="36.895283016331526" lon="14.955559302185339"><ele>137.0</ele><time>2026-04-11T16:45:14Z</time></trkpt><trkpt lat="36.89525808991682" lon="14.955707078314408"><ele>137.0</ele><time>2026-04-11T16:45:15Z</time></trkpt><trkpt lat="36.89521304962789" lon="14.955841866562771"><ele>137.0</ele><time>2026-04-11T16:45:16Z</time></trkpt><trkpt lat="36.89514480585177" lon="14.95596490351438"><ele>137.0</ele><time>2026-04-11T16:45:17Z</time></trkpt><trkpt lat="36.89505573412174" lon="14.956070237759086"><ele>135.75</ele><time>2026-04-11T16:45:18Z</time></trkpt><trkpt lat="36.894950880620904" lon="14.956156231675301"><ele>134.5</ele><time>2026-04-11T16:45:19Z</time></trkpt><trkpt lat="36.89483177003298" lon="14.956229002123324"><ele>133.25</ele><time>2026-04-11T16:45:20Z</time></trkpt><trkpt lat="36.89469325006563" lon="14.956267073450787"><ele>132.0</ele><time>2026-04-11T16:45:21Z</time></trkpt><trkpt lat="36.89454935120801" lon="14.956282518382697"><ele>132.0</ele><time>2026-04-11T16:45:22Z</time></trkpt><trkpt lat="36.89439766259381" lon="14.956297123192106"><ele>132.0</ele><time>2026-04-11T16:45:23Z</time></trkpt><trkpt lat="36.89424195121049" lon="14.95631949821324"><ele>132.0</ele><time>2026-04-11T16:45:24Z</time></trkpt><trkpt lat="36.89408075847408" lon="14.956352498128119"><ele>130.33333333333334</ele><time>2026-04-11T16:45:25Z</time></trkpt><trkpt lat="36.89391549827068" lon="14.956364603906389"><ele>128.66666666666669</ele><time>2026-04-11T16:45:26Z</time></trkpt><trkpt lat="36.89375001969281" lon="14.956403173430244"><ele>127.0</ele><time>2026-04-11T16:45:27Z</time></trkpt><trkpt lat="36.89357855616398" lon="14.956443137939095"><ele>126.33333333333334</ele><time>2026-04-11T16:45:28Z</time></trkpt><trkpt lat="36.89340724211281" lon="14.95648137631621"><ele>125.66666666666666</ele><time>2026-04-11T16:45:29Z</time></trkpt><trkpt lat="36.89324661089389" lon="14.9565169250071"><ele>125.0</ele><time>2026-04-11T16:45:30Z</time></trkpt><trkpt lat="36.893086610496844" lon="14.956550528829881"><ele>125.0</ele><time>2026-04-11T16:45:31Z</time></trkpt><trkpt lat="36.89293061978061" lon="14.956580730282612"><ele>125.0</ele><time>2026-04-11T16:45:32Z</time></trkpt><trkpt lat="36.89277878157524" lon="14.956616743845755"><ele>125.0</ele><time>2026-04-11T16:45:33Z</time></trkpt><trkpt lat="36.892625134466314" lon="14.956621288669833"><ele>124.33333333333333</ele><time>2026-04-11T16:45:34Z</time></trkpt><trkpt lat="36.89247063707722" lon="14.956620245776099"><ele>123.66666666666666</ele><time>2026-04-11T16:45:35Z</time></trkpt><trkpt lat="36.89230847235471" lon="14.956590734154876"><ele>123.0</ele><time>2026-04-11T16:45:36Z</time></trkpt><trkpt lat="36.892140314499485" lon="14.956572091171294"><ele>123.0</ele><time>2026-04-11T16:45:37Z</time></trkpt><trkpt lat="36.89196364226082" lon="14.956552699138289"><ele>123.0</ele><time>2026-04-11T16:45:38Z</time></trkpt><trkpt lat="36.89178026320693" lon="14.956535398385766"><ele>123.0</ele><time>2026-04-11T16:45:39Z</time></trkpt><trkpt lat="36.89160855414612" lon="14.956541909221743"><ele>123.0</ele><time>2026-04-11T16:45:40Z</time></trkpt><trkpt lat="36.89144592943529" lon="14.956529060328851"><ele>123.0</ele><time>2026-04-11T16:45:41Z</time></trkpt><trkpt lat="36.89128600544463" lon="14.956515793747363"><ele>123.0</ele><time>2026-04-11T16:45:42Z</time></trkpt><trkpt lat="36.89112713657632" lon="14.956503401779026"><ele>123.0</ele><time>2026-04-11T16:45:43Z</time></trkpt><trkpt lat="36.89097344112922" lon="14.956492411343254"><ele>123.0</ele><time>2026-04-11T16:45:44Z</time></trkpt><trkpt lat="36.89081961912937" lon="14.956477151701602"><ele>123.0</ele><time>2026-04-11T16:45:45Z</time></trkpt><trkpt lat="36.890673005661" lon="14.956464894458941"><ele>122.5</ele><time>2026-04-11T16:45:46Z</time></trkpt><trkpt lat="36.8905345131145" lon="14.956468531990469"><ele>122.0</ele><time>2026-04-11T16:45:47.001Z</time></trkpt><trkpt lat="36.89039175594243" lon="14.956483273932784"><ele>121.5</ele><time>2026-04-11T16:45:48.001Z</time></trkpt><trkpt lat="36.890241381705636" lon="14.956575929237621"><ele>121.0</ele><time>2026-04-11T16:45:49.001Z</time></trkpt><trkpt lat="36.8900995795493" lon="14.956678015331311"><ele>121.0</ele><time>2026-04-11T16:45:50.001Z</time></trkpt><trkpt lat="36.8899443336194" lon="14.956730466553891"><ele>121.0</ele><time>2026-04-11T16:45:51.001Z</time></trkpt><trkpt lat="36.88979654510857" lon="14.956795482726415"><ele>121.0</ele><time>2026-04-11T16:45:52.001Z</time></trkpt><trkpt lat="36.889654177360754" lon="14.956852736551456"><ele>121.0</ele><time>2026-04-11T16:45:53.001Z</time></trkpt><trkpt lat="36.88951430379771" lon="14.956909876779477"><ele>121.0</ele><time>2026-04-11T16:45:54.001Z</time></trkpt><trkpt lat="36.8893798005136" lon="14.956963939628496"><ele>121.0</ele><time>2026-04-11T16:45:55.001Z</time></trkpt><trkpt lat="36.88924282399422" lon="14.957006452535897"><ele>121.0</ele><time>2026-04-11T16:45:56.001Z</time></trkpt><trkpt lat="36.88909759878452" lon="14.957024180084824"><ele>121.0</ele><time>2026-04-11T16:45:57.001Z</time></trkpt><trkpt lat="36.888950048555415" lon="14.957031211746532"><ele>121.0</ele><time>2026-04-11T16:45:58.001Z</time></trkpt><trkpt lat="36.88880959625601" lon="14.957066425360528"><ele>121.0</ele><time>2026-04-11T16:45:59.001Z</time></trkpt><trkpt lat="36.88865891424107" lon="14.95709925809767"><ele>121.0</ele><time>2026-04-11T16:46:00.001Z</time></trkpt><trkpt lat="36.88851872988858" lon="14.95719068353735"><ele>120.66666666666667</ele><time>2026-04-11T16:46:01.001Z</time></trkpt><trkpt lat="36.88837722400363" lon="14.95729179041288"><ele>120.33333333333334</ele><time>2026-04-11T16:46:02.001Z</time></trkpt><trkpt lat="36.88823448260909" lon="14.957394601449046"><ele>120.0</ele><time>2026-04-11T16:46:03.001Z</time></trkpt><trkpt lat="36.888088823672845" lon="14.957498566793427"><ele>120.66666666666666</ele><time>2026-04-11T16:46:04.001Z</time></trkpt><trkpt lat="36.88794256929084" lon="14.957601154877842"><ele>121.33333333333333</ele><time>2026-04-11T16:46:05.001Z</time></trkpt><trkpt lat="36.887801536218944" lon="14.957700080543752"><ele>122.0</ele><time>2026-04-11T16:46:06.001Z</time></trkpt><trkpt lat="36.88766470565274" lon="14.957794922665212"><ele>122.66666666666666</ele><time>2026-04-11T16:46:07.001Z</time></trkpt><trkpt lat="36.887529622699255" lon="14.957888219916166"><ele>123.33333333333334</ele><time>2026-04-11T16:46:08.001Z</time></trkpt><trkpt lat="36.887395881108866" lon="14.957980590738162"><ele>124.0</ele><time>2026-04-11T16:46:09.001Z</time></trkpt><trkpt lat="36.8872638174881" lon="14.95807180264053"><ele>124.0</ele><time>2026-04-11T16:46:10.001Z</time></trkpt><trkpt lat="36.88713606970542" lon="14.958160033733991"><ele>124.0</ele><time>2026-04-11T16:46:11.001Z</time></trkpt><trkpt lat="36.88701867276638" lon="14.958264686596085"><ele>124.0</ele><time>2026-04-11T16:46:12.001Z</time></trkpt><trkpt lat="36.88689105132927" lon="14.958330932041374"><ele>124.0</ele><time>2026-04-11T16:46:13.001Z</time></trkpt><trkpt lat="36.88677248146428" lon="14.958424408497107"><ele>125.66666666666667</ele><time>2026-04-11T16:46:14.001Z</time></trkpt><trkpt lat="36.886658178961284" lon="14.958543308996058"><ele>127.33333333333334</ele><time>2026-04-11T16:46:15.001Z</time></trkpt><trkpt lat="36.8865558249903" lon="14.958678445140036"><ele>129.0</ele><time>2026-04-11T16:46:16.001Z</time></trkpt><trkpt lat="36.886445479672005" lon="14.958828708782242"><ele>129.0</ele><time>2026-04-11T16:46:17Z</time></trkpt><trkpt lat="36.88633421026336" lon="14.958983389126162"><ele>129.0</ele><time>2026-04-11T16:46:18Z</time></trkpt><trkpt lat="36.88621453189501" lon="14.959155123874266"><ele>129.0</ele><time>2026-04-11T16:46:19Z</time></trkpt><trkpt lat="36.88608145338902" lon="14.959350092804362"><ele>128.66666666666666</ele><time>2026-04-11T16:46:20Z</time></trkpt><trkpt lat="36.88593597398495" lon="14.959556960900283"><ele>128.33333333333331</ele><time>2026-04-11T16:46:21Z</time></trkpt><trkpt lat="36.885800900732534" lon="14.959749031378763"><ele>128.0</ele><time>2026-04-11T16:46:22Z</time></trkpt><trkpt lat="36.88567134649465" lon="14.95992123170412"><ele>128.33333333333331</ele><time>2026-04-11T16:46:23Z</time></trkpt><trkpt lat="36.88555108739575" lon="14.960093667639752"><ele>128.66666666666666</ele><time>2026-04-11T16:46:24Z</time></trkpt><trkpt lat="36.885433917615984" lon="14.960254600907964"><ele>129.0</ele><time>2026-04-11T16:46:25Z</time></trkpt><trkpt lat="36.88531384866455" lon="14.960412706775935"><ele>129.0</ele><time>2026-04-11T16:46:26Z</time></trkpt><trkpt lat="36.88519618721138" lon="14.960564622140469"><ele>129.0</ele><time>2026-04-11T16:46:27Z</time></trkpt><trkpt lat="36.88507732907441" lon="14.960716853553228"><ele>129.0</ele><time>2026-04-11T16:46:28Z</time></trkpt><trkpt lat="36.884960991924785" lon="14.960864366363596"><ele>128.66666666666666</ele><time>2026-04-11T16:46:29Z</time></trkpt><trkpt lat="36.88485010152856" lon="14.960999994178103"><ele>128.33333333333331</ele><time>2026-04-11T16:46:30Z</time></trkpt><trkpt lat="36.88473908571829" lon="14.96113037490622"><ele>128.0</ele><time>2026-04-11T16:46:31Z</time></trkpt><trkpt lat="36.88462881353612" lon="14.961258868508567"><ele>128.0</ele><time>2026-04-11T16:46:32Z</time></trkpt><trkpt lat="36.88452052597996" lon="14.961383079171753"><ele>128.0</ele><time>2026-04-11T16:46:33Z</time></trkpt><trkpt lat="36.88441359436092" lon="14.961506166054201"><ele>128.0</ele><time>2026-04-11T16:46:34Z</time></trkpt><trkpt lat="36.884307681209165" lon="14.961639814175365"><ele>128.0</ele><time>2026-04-11T16:46:35Z</time></trkpt><trkpt lat="36.88424478958856" lon="14.961804366659338"><ele>125.5</ele><time>2026-04-11T16:46:36Z</time></trkpt><trkpt lat="36.884178690761246" lon="14.961967740595169"><ele>123.0</ele><time>2026-04-11T16:46:37Z</time></trkpt><trkpt lat="36.88409733756597" lon="14.962102618393358"><ele>120.5</ele><time>2026-04-11T16:46:38Z</time></trkpt><trkpt lat="36.88402552619809" lon="14.962237473750587"><ele>118.0</ele><time>2026-04-11T16:46:39Z</time></trkpt><trkpt lat="36.88395050552495" lon="14.962375499025878"><ele>118.0</ele><time>2026-04-11T16:46:40Z</time></trkpt><trkpt lat="36.883879818420496" lon="14.962505551311732"><ele>118.0</ele><time>2026-04-11T16:46:41Z</time></trkpt><trkpt lat="36.883810058646496" lon="14.962633897417184"><ele>118.0</ele><time>2026-04-11T16:46:42Z</time></trkpt><trkpt lat="36.883739492125436" lon="14.962763727823006"><ele>118.0</ele><time>2026-04-11T16:46:43Z</time></trkpt><trkpt lat="36.88370136538105" lon="14.962905091433406"><ele>117.2</ele><time>2026-04-11T16:46:44Z</time></trkpt><trkpt lat="36.88364427850573" lon="14.963000772028582"><ele>116.4</ele><time>2026-04-11T16:46:45Z</time></trkpt><trkpt lat="36.8835822031329" lon="14.963085734570978"><ele>115.60000000000001</ele><time>2026-04-11T16:46:47Z</time></trkpt><trkpt lat="36.883504873747846" lon="14.963084326626335"><ele>114.80000000000001</ele><time>2026-04-11T16:46:51Z</time></trkpt><trkpt lat="36.883451878213435" lon="14.963000237983675"><ele>114.0</ele><time>2026-04-11T16:46:53Z</time></trkpt><trkpt lat="36.88341188561678" lon="14.962851418484796"><ele>113.80000000000001</ele><time>2026-04-11T16:46:55Z</time></trkpt><trkpt lat="36.883394001845986" lon="14.962765450834262"><ele>113.60000000000001</ele><time>2026-04-11T16:46:56Z</time></trkpt><trkpt lat="36.88337336923622" lon="14.96266128832274"><ele>113.4</ele><time>2026-04-11T16:46:57Z</time></trkpt><trkpt lat="36.88334878464062" lon="14.962532213808645"><ele>113.2</ele><time>2026-04-11T16:46:58Z</time></trkpt><trkpt lat="36.883318843241376" lon="14.962383826780396"><ele>113.0</ele><time>2026-04-11T16:46:59Z</time></trkpt><trkpt lat="36.88329940019914" lon="14.962264565879556"><ele>112.71428571428572</ele><time>2026-04-11T16:47:00Z</time></trkpt><trkpt lat="36.88328001838042" lon="14.962162094887297"><ele>112.42857142857142</ele><time>2026-04-11T16:47:01Z</time></trkpt><trkpt lat="36.883260322201046" lon="14.962071351326026"><ele>112.14285714285714</ele><time>2026-04-11T16:47:02Z</time></trkpt><trkpt lat="36.8832410425246" lon="14.961989020953123"><ele>111.85714285714286</ele><time>2026-04-11T16:47:03Z</time></trkpt><trkpt lat="36.8832095980001" lon="14.96190953924144"><ele>111.57142857142858</ele><time>2026-04-11T16:47:04Z</time></trkpt><trkpt lat="36.883172740876674" lon="14.961834202355233"><ele>111.28571428571428</ele><time>2026-04-11T16:47:05Z</time></trkpt><trkpt lat="36.88313498968245" lon="14.961770787448097"><ele>111.0</ele><time>2026-04-11T16:47:06Z</time></trkpt><trkpt lat="36.883087316430704" lon="14.961644762835402"><ele>110.8</ele><time>2026-04-11T16:47:08Z</time></trkpt><trkpt lat="36.88305091120068" lon="14.961552586835012"><ele>110.6</ele><time>2026-04-11T16:47:10Z</time></trkpt><trkpt lat="36.883013502710426" lon="14.961449876455575"><ele>110.4</ele><time>2026-04-11T16:47:12Z</time></trkpt><trkpt lat="36.88300711990708" lon="14.961371329690783"><ele>110.2</ele><time>2026-04-11T16:47:13Z</time></trkpt><trkpt lat="36.88302575956013" lon="14.961232911635392"><ele>110.0</ele><time>2026-04-11T16:47:14Z</time></trkpt><trkpt lat="36.88305430304101" lon="14.961075194622907"><ele>110.0</ele><time>2026-04-11T16:47:15Z</time></trkpt><trkpt lat="36.88309234409452" lon="14.960915472379352"><ele>110.0</ele><time>2026-04-11T16:47:16Z</time></trkpt><trkpt lat="36.88309983030732" lon="14.960772851479435"><ele>110.0</ele><time>2026-04-11T16:47:17Z</time></trkpt><trkpt lat="36.88312375829704" lon="14.960632242077205"><ele>110.0</ele><time>2026-04-11T16:47:18Z</time></trkpt><trkpt lat="36.88314388459576" lon="14.960483228533718"><ele>109.75</ele><time>2026-04-11T16:47:19Z</time></trkpt><trkpt lat="36.8831593874103" lon="14.960327496475538"><ele>109.5</ele><time>2026-04-11T16:47:20Z</time></trkpt><trkpt lat="36.883182306484194" lon="14.96017510725158"><ele>109.25</ele><time>2026-04-11T16:47:21Z</time></trkpt><trkpt lat="36.88318158369096" lon="14.960031552963336"><ele>109.0</ele><time>2026-04-11T16:47:22Z</time></trkpt><trkpt lat="36.88318013459201" lon="14.959905831171774"><ele>108.4</ele><time>2026-04-11T16:47:23Z</time></trkpt><trkpt lat="36.88318130577885" lon="14.959779788985546"><ele>107.80000000000001</ele><time>2026-04-11T16:47:24Z</time></trkpt><trkpt lat="36.883179395973364" lon="14.959645441901952"><ele>107.19999999999999</ele><time>2026-04-11T16:47:25Z</time></trkpt><trkpt lat="36.88318041628083" lon="14.959526261073446"><ele>106.6</ele><time>2026-04-11T16:47:26Z</time></trkpt><trkpt lat="36.88318436063954" lon="14.959435395381243"><ele>106.0</ele><time>2026-04-11T16:47:27Z</time></trkpt><trkpt lat="36.88318543965651" lon="14.959303788903448"><ele>106.0</ele><time>2026-04-11T16:47:29Z</time></trkpt><trkpt lat="36.88317748335615" lon="14.959218683885231"><ele>106.0</ele><time>2026-04-11T16:47:31Z</time></trkpt><trkpt lat="36.883102521877596" lon="14.959193977166064"><ele>106.0</ele><time>2026-04-11T16:47:37Z</time></trkpt><trkpt lat="36.8830303003779" lon="14.959148093258717"><ele>106.0</ele><time>2026-04-11T16:47:40Z</time></trkpt><trkpt lat="36.88297926673175" lon="14.959088414190026"><ele>106.0</ele><time>2026-04-11T16:47:41Z</time></trkpt><trkpt lat="36.88291372980519" lon="14.959039803846695"><ele>106.0</ele><time>2026-04-11T16:47:42Z</time></trkpt><trkpt lat="36.88284750411312" lon="14.959002262607138"><ele>106.0</ele><time>2026-04-11T16:47:43Z</time></trkpt><trkpt lat="36.882789391779646" lon="14.958970460784503"><ele>106.19999999999999</ele><time>2026-04-11T16:47:44Z</time></trkpt><trkpt lat="36.88269855660309" lon="14.958911493838366"><ele>106.39999999999999</ele><time>2026-04-11T16:47:46Z</time></trkpt><trkpt lat="36.88261220388387" lon="14.958851311053268"><ele>106.6</ele><time>2026-04-11T16:47:48Z</time></trkpt><trkpt lat="36.88251931948818" lon="14.958783467393149"><ele>106.8</ele><time>2026-04-11T16:47:50.001Z</time></trkpt><trkpt lat="36.882411524989514" lon="14.958714790321173"><ele>107.0</ele><time>2026-04-11T16:47:52.001Z</time></trkpt><trkpt lat="36.88229938527628" lon="14.958638592733985"><ele>106.66666666666666</ele><time>2026-04-11T16:47:54.001Z</time></trkpt><trkpt lat="36.882239183384094" lon="14.958602772110241"><ele>106.33333333333333</ele><time>2026-04-11T16:47:55.001Z</time></trkpt><trkpt lat="36.88213530805251" lon="14.958542367012754"><ele>106.0</ele><time>2026-04-11T16:47:57.001Z</time></trkpt><trkpt lat="36.88202949304602" lon="14.95847076121338"><ele>105.66666666666666</ele><time>2026-04-11T16:47:59.001Z</time></trkpt><trkpt lat="36.88197402502497" lon="14.958430215205167"><ele>105.33333333333333</ele><time>2026-04-11T16:48:00.001Z</time></trkpt><trkpt lat="36.88191912105901" lon="14.95838087564952"><ele>105.0</ele><time>2026-04-11T16:48:01.001Z</time></trkpt><trkpt lat="36.88186049382377" lon="14.958336558204229"><ele>105.0</ele><time>2026-04-11T16:48:02.001Z</time></trkpt><trkpt lat="36.88177436858593" lon="14.958294844325216"><ele>105.0</ele><time>2026-04-11T16:48:03.001Z</time></trkpt><trkpt lat="36.88171194416402" lon="14.958257067000002"><ele>105.0</ele><time>2026-04-11T16:48:04.001Z</time></trkpt><trkpt lat="36.88165322019723" lon="14.95820370885484"><ele>105.0</ele><time>2026-04-11T16:48:05.001Z</time></trkpt><trkpt lat="36.88156617650788" lon="14.958143961247472"><ele>105.0</ele><time>2026-04-11T16:48:06.001Z</time></trkpt><trkpt lat="36.88147679210059" lon="14.958083609665268"><ele>105.0</ele><time>2026-04-11T16:48:07.001Z</time></trkpt><trkpt lat="36.88137986951323" lon="14.958019082196929"><ele>105.6</ele><time>2026-04-11T16:48:08.001Z</time></trkpt><trkpt lat="36.88131015708189" lon="14.95797502662268"><ele>106.2</ele><time>2026-04-11T16:48:09.001Z</time></trkpt><trkpt lat="36.881206978290756" lon="14.957898029316995"><ele>106.80000000000001</ele><time>2026-04-11T16:48:11.001Z</time></trkpt><trkpt lat="36.8810979299523" lon="14.957834902411248"><ele>107.4</ele><time>2026-04-11T16:48:13.001Z</time></trkpt><trkpt lat="36.88103906430507" lon="14.95779444764374"><ele>108.0</ele><time>2026-04-11T16:48:14.001Z</time></trkpt><trkpt lat="36.880988552958996" lon="14.957720148262995"><ele>108.33333333333333</ele><time>2026-04-11T16:48:16.001Z</time></trkpt><trkpt lat="36.880921420432315" lon="14.957639747185464"><ele>108.66666666666666</ele><time>2026-04-11T16:48:18.001Z</time></trkpt><trkpt lat="36.880860537430614" lon="14.957569820293806"><ele>109.0</ele><time>2026-04-11T16:48:20.001Z</time></trkpt><trkpt lat="36.88079694585132" lon="14.957495078067138"><ele>109.33333333333333</ele><time>2026-04-11T16:48:22.001Z</time></trkpt><trkpt lat="36.88074442135431" lon="14.957411177815267"><ele>109.66666666666666</ele><time>2026-04-11T16:48:24Z</time></trkpt><trkpt lat="36.880703764434834" lon="14.957318705977892"><ele>110.0</ele><time>2026-04-11T16:48:26Z</time></trkpt><trkpt lat="36.88065319544152" lon="14.957228109498306"><ele>111.6</ele><time>2026-04-11T16:48:28Z</time></trkpt><trkpt lat="36.880597168206194" lon="14.95714359561394"><ele>113.2</ele><time>2026-04-11T16:48:30Z</time></trkpt><trkpt lat="36.88053852064468" lon="14.957053198577574"><ele>114.80000000000001</ele><time>2026-04-11T16:48:32Z</time></trkpt><trkpt lat="36.88047437954642" lon="14.956967042016739"><ele>116.4</ele><time>2026-04-11T16:48:34Z</time></trkpt><trkpt lat="36.880411445566644" lon="14.956886098552285"><ele>118.0</ele><time>2026-04-11T16:48:36Z</time></trkpt><trkpt lat="36.88034354563977" lon="14.956797114328099"><ele>117.80000000000001</ele><time>2026-04-11T16:48:38Z</time></trkpt><trkpt lat="36.88026423562445" lon="14.956687217546158"><ele>117.60000000000001</ele><time>2026-04-11T16:48:40Z</time></trkpt><trkpt lat="36.88021045992431" lon="14.956613509839572"><ele>117.39999999999999</ele><time>2026-04-11T16:48:42Z</time></trkpt><trkpt lat="36.88015181509842" lon="14.956547529733989"><ele>117.19999999999999</ele><time>2026-04-11T16:48:44Z</time></trkpt><trkpt lat="36.880083661200445" lon="14.956467634283982"><ele>117.0</ele><time>2026-04-11T16:48:46Z</time></trkpt><trkpt lat="36.88001264431354" lon="14.956360620145354"><ele>117.0</ele><time>2026-04-11T16:48:48Z</time></trkpt><trkpt lat="36.87997122074749" lon="14.956298327041425"><ele>117.0</ele><time>2026-04-11T16:48:50Z</time></trkpt><trkpt lat="36.87991863090683" lon="14.956236137664368"><ele>117.0</ele><time>2026-04-11T16:48:53Z</time></trkpt><trkpt lat="36.87978240162956" lon="14.95624904034797"><ele>117.0</ele><time>2026-04-11T16:48:55Z</time></trkpt><trkpt lat="36.879703650937415" lon="14.956257941806397"><ele>117.0</ele><time>2026-04-11T16:48:56Z</time></trkpt><trkpt lat="36.87961737687901" lon="14.956259116316867"><ele>117.0</ele><time>2026-04-11T16:48:57Z</time></trkpt><trkpt lat="36.87952804745094" lon="14.956252046437424"><ele>117.0</ele><time>2026-04-11T16:48:58Z</time></trkpt><trkpt lat="36.87943207012644" lon="14.956248721725899"><ele>117.0</ele><time>2026-04-11T16:48:59Z</time></trkpt><trkpt lat="36.879334876155646" lon="14.956246759767854"><ele>117.0</ele><time>2026-04-11T16:49:00Z</time></trkpt><trkpt lat="36.879247041086124" lon="14.956249924189779"><ele>117.0</ele><time>2026-04-11T16:49:01Z</time></trkpt><trkpt lat="36.8791659878818" lon="14.95625404962229"><ele>117.0</ele><time>2026-04-11T16:49:02Z</time></trkpt><trkpt lat="36.87908364326879" lon="14.956254545722249"><ele>117.0</ele><time>2026-04-11T16:49:03Z</time></trkpt><trkpt lat="36.87900479359587" lon="14.956253129264308"><ele>116.66666666666667</ele><time>2026-04-11T16:49:04Z</time></trkpt><trkpt lat="36.8789299062471" lon="14.95625686301138"><ele>116.33333333333334</ele><time>2026-04-11T16:49:05Z</time></trkpt><trkpt lat="36.87885494880685" lon="14.956260249476113"><ele>116.0</ele><time>2026-04-11T16:49:07Z</time></trkpt><trkpt lat="36.878820480795724" lon="14.956147967060858"><ele>115.66666666666667</ele><time>2026-04-11T16:49:13Z</time></trkpt><trkpt lat="36.878826071473036" lon="14.95601519196563"><ele>115.33333333333334</ele><time>2026-04-11T16:49:15Z</time></trkpt><trkpt lat="36.878824937060585" lon="14.955907101628801"><ele>115.0</ele><time>2026-04-11T16:49:17Z</time></trkpt><trkpt lat="36.87883401656937" lon="14.955783915007931"><ele>115.00000000000001</ele><time>2026-04-11T16:49:19Z</time></trkpt><trkpt lat="36.878857545102825" lon="14.955670883284796"><ele>115.0</ele><time>2026-04-11T16:49:21Z</time></trkpt><trkpt lat="36.878869110074355" lon="14.955553969328577"><ele>115.0</ele><time>2026-04-11T16:49:23Z</time></trkpt><trkpt lat="36.878892519082754" lon="14.95544658103106"><ele>115.0</ele><time>2026-04-11T16:49:25Z</time></trkpt><trkpt lat="36.878930376408384" lon="14.955335247356842"><ele>115.00000000000001</ele><time>2026-04-11T16:49:27Z</time></trkpt><trkpt lat="36.87895406792201" lon="14.95524766655225"><ele>115.0</ele><time>2026-04-11T16:49:29Z</time></trkpt><trkpt lat="36.87897395373333" lon="14.95515458389877"><ele>115.0</ele><time>2026-04-11T16:49:31Z</time></trkpt><trkpt lat="36.87899118101283" lon="14.955061392768235"><ele>115.0</ele><time>2026-04-11T16:49:34Z</time></trkpt><trkpt lat="36.8788998350986" lon="14.954968340628502"><ele>115.0</ele><time>2026-04-11T16:49:36Z</time></trkpt><trkpt lat="36.878832746174425" lon="14.954915935323847"><ele>115.0</ele><time>2026-04-11T16:49:37Z</time></trkpt><trkpt lat="36.87874587029911" lon="14.954851715759727"><ele>115.0</ele><time>2026-04-11T16:49:39Z</time></trkpt><trkpt lat="36.87866497547483" lon="14.954788037779378"><ele>114.4</ele><time>2026-04-11T16:50:12.001Z</time></trkpt><trkpt lat="36.87859655704089" lon="14.954743867183215"><ele>113.8</ele><time>2026-04-11T16:50:13.001Z</time></trkpt><trkpt lat="36.87851318427199" lon="14.954700160942192"><ele>113.19999999999999</ele><time>2026-04-11T16:50:14.001Z</time></trkpt><trkpt lat="36.87841571307887" lon="14.95466635430401"><ele>112.6</ele><time>2026-04-11T16:50:15.001Z</time></trkpt><trkpt lat="36.87831499025379" lon="14.95463200674572"><ele>112.0</ele><time>2026-04-11T16:50:16.001Z</time></trkpt><trkpt lat="36.87823092624782" lon="14.95460342206498"><ele>111.66666666666667</ele><time>2026-04-11T16:50:17.001Z</time></trkpt><trkpt lat="36.87815453294238" lon="14.954575434092606"><ele>111.33333333333334</ele><time>2026-04-11T16:50:18.001Z</time></trkpt><trkpt lat="36.878085267587466" lon="14.954547248595144"><ele>111.0</ele><time>2026-04-11T16:50:19.001Z</time></trkpt><trkpt lat="36.87801805115938" lon="14.954521912522832"><ele>110.66666666666666</ele><time>2026-04-11T16:50:20.001Z</time></trkpt><trkpt lat="36.87794471694794" lon="14.954493330961903"><ele>110.33333333333333</ele><time>2026-04-11T16:50:21.001Z</time></trkpt><trkpt lat="36.877861788313126" lon="14.954459363021966"><ele>110.0</ele><time>2026-04-11T16:50:22.001Z</time></trkpt><trkpt lat="36.87778233421429" lon="14.954422091115761"><ele>109.99999999999999</ele><time>2026-04-11T16:50:23.001Z</time></trkpt><trkpt lat="36.87771506363547" lon="14.954384807045368"><ele>110.0</ele><time>2026-04-11T16:50:24.001Z</time></trkpt><trkpt lat="36.87764760840029" lon="14.954350013737852"><ele>110.0</ele><time>2026-04-11T16:50:25.001Z</time></trkpt><trkpt lat="36.8775768809326" lon="14.95431127291798"><ele>110.0</ele><time>2026-04-11T16:50:26.001Z</time></trkpt><trkpt lat="36.877514985517415" lon="14.954266103681789"><ele>110.0</ele><time>2026-04-11T16:50:27.001Z</time></trkpt><trkpt lat="36.877458402694465" lon="14.954213792392716"><ele>109.99999999999999</ele><time>2026-04-11T16:50:28.001Z</time></trkpt><trkpt lat="36.87740421859106" lon="14.954163674109159"><ele>110.0</ele><time>2026-04-11T16:50:29Z</time></trkpt><trkpt lat="36.8773445337592" lon="14.95413071396124"><ele>108.66666666666666</ele><time>2026-04-11T16:50:30Z</time></trkpt><trkpt lat="36.877283942247544" lon="14.95410709264911"><ele>107.33333333333333</ele><time>2026-04-11T16:50:31Z</time></trkpt><trkpt lat="36.87718265456801" lon="14.954077463753482"><ele>106.0</ele><time>2026-04-11T16:50:33Z</time></trkpt><trkpt lat="36.87707251669304" lon="14.954099025020964"><ele>104.66666666666666</ele><time>2026-04-11T16:50:35Z</time></trkpt><trkpt lat="36.87700865520571" lon="14.954101040028648"><ele>103.33333333333333</ele><time>2026-04-11T16:50:36Z</time></trkpt><trkpt lat="36.876942284637956" lon="14.954099249020057"><ele>102.0</ele><time>2026-04-11T16:50:37Z</time></trkpt><trkpt lat="36.87687509894171" lon="14.954105279013021"><ele>102.0</ele><time>2026-04-11T16:50:38Z</time></trkpt><trkpt lat="36.87680954538875" lon="14.954128334332099"><ele>102.0</ele><time>2026-04-11T16:50:39Z</time></trkpt><trkpt lat="36.87674646516589" lon="14.954153962744302"><ele>102.0</ele><time>2026-04-11T16:50:40Z</time></trkpt><trkpt lat="36.87663958220796" lon="14.954194085239275"><ele>102.0</ele><time>2026-04-11T16:50:42Z</time></trkpt><trkpt lat="36.876586627272225" lon="14.95424491864643"><ele>102.0</ele><time>2026-04-11T16:50:43Z</time></trkpt><trkpt lat="36.87653801819408" lon="14.95431345660908"><ele>102.0</ele><time>2026-04-11T16:50:44Z</time></trkpt><trkpt lat="36.876478962800796" lon="14.954394578180707"><ele>100.6</ele><time>2026-04-11T16:50:45Z</time></trkpt><trkpt lat="36.87642114580466" lon="14.954464177306134"><ele>99.19999999999999</ele><time>2026-04-11T16:50:46Z</time></trkpt><trkpt lat="36.876373079557474" lon="14.954531318336953"><ele>97.8</ele><time>2026-04-11T16:50:47Z</time></trkpt><trkpt lat="36.87633521947812" lon="14.95460243636064"><ele>96.4</ele><time>2026-04-11T16:50:48Z</time></trkpt><trkpt lat="36.876292429969226" lon="14.954746021325482"><ele>95.0</ele><time>2026-04-11T16:50:50Z</time></trkpt><trkpt lat="36.876258828694944" lon="14.954872928573437"><ele>95.0</ele><time>2026-04-11T16:50:52Z</time></trkpt><trkpt lat="36.876197820181844" lon="14.954900687185232"><ele>95.0</ele><time>2026-04-11T16:50:54Z</time></trkpt><trkpt lat="36.876098118607636" lon="14.954886159589918"><ele>95.0</ele><time>2026-04-11T16:50:56Z</time></trkpt><trkpt lat="36.876034669007545" lon="14.954872173573666"><ele>95.0</ele><time>2026-04-11T16:50:58Z</time></trkpt><trkpt lat="36.875961059698774" lon="14.954875907703679"><ele>95.0</ele><time>2026-04-11T16:51:08Z</time></trkpt><trkpt lat="36.8758797829202" lon="14.954888659766358"><ele>95.0</ele><time>2026-04-11T16:51:11Z</time></trkpt><trkpt lat="36.87581382294558" lon="14.954908669575977"><ele>93.33333333333334</ele><time>2026-04-11T16:51:13Z</time></trkpt><trkpt lat="36.87571598057377" lon="14.954948606185905"><ele>91.66666666666667</ele><time>2026-04-11T16:51:15Z</time></trkpt><trkpt lat="36.875634438141184" lon="14.954986911181672"><ele>90.0</ele><time>2026-04-11T16:51:17Z</time></trkpt><trkpt lat="36.87557527631518" lon="14.955036302615412"><ele>88.33333333333333</ele><time>2026-04-11T16:51:28Z</time></trkpt><trkpt lat="36.875537246494105" lon="14.95510615497749"><ele>86.66666666666666</ele><time>2026-04-11T16:51:29Z</time></trkpt><trkpt lat="36.87549224837519" lon="14.955180700467592"><ele>85.0</ele><time>2026-04-11T16:51:30Z</time></trkpt><trkpt lat="36.87540477721499" lon="14.955284475092549"><ele>84.83333333333333</ele><time>2026-04-11T16:51:32Z</time></trkpt><trkpt lat="36.87536088701071" lon="14.955369686557296"><ele>84.66666666666666</ele><time>2026-04-11T16:51:34Z</time></trkpt><trkpt lat="36.87535856527551" lon="14.955460033380563"><ele>84.5</ele><time>2026-04-11T16:51:36Z</time></trkpt><trkpt lat="36.87535924033487" lon="14.955538955977426"><ele>84.33333333333333</ele><time>2026-04-11T16:51:41.001Z</time></trkpt><trkpt lat="36.87535229097263" lon="14.955455227962963"><ele>84.16666666666667</ele><time>2026-04-11T16:53:19Z</time></trkpt><trkpt lat="36.875268873396124" lon="14.955506305338185"><ele>84.0</ele><time>2026-04-11T16:53:23Z</time></trkpt><trkpt lat="36.87518960744122" lon="14.955547691253061"><ele>84.0</ele><time>2026-04-11T16:53:25Z</time></trkpt><trkpt lat="36.87512086816937" lon="14.955588446624231"><ele>84.0</ele><time>2026-04-11T16:53:27Z</time></trkpt><trkpt lat="36.8750527248839" lon="14.955629460900933"><ele>84.0</ele><time>2026-04-11T16:53:29Z</time></trkpt><trkpt lat="36.87499365245724" lon="14.955668210926037"><ele>84.0</ele><time>2026-04-11T16:53:31Z</time></trkpt><trkpt lat="36.87492133784515" lon="14.95572480875013"><ele>84.0</ele><time>2026-04-11T16:53:34Z</time></trkpt><trkpt lat="36.87485613682647" lon="14.955762640314243"><ele>84.0</ele><time>2026-04-11T16:53:36Z</time></trkpt><trkpt lat="36.87479043410011" lon="14.955779548801381"><ele>84.0</ele><time>2026-04-11T16:53:41.001Z</time></trkpt><trkpt lat="36.87472895316415" lon="14.95575362344795"><ele>84.71428571428571</ele><time>2026-04-11T16:53:45.001Z</time></trkpt><trkpt lat="36.87466154251127" lon="14.955742006703433"><ele>85.42857142857143</ele><time>2026-04-11T16:53:48.001Z</time></trkpt><trkpt lat="36.874599727354266" lon="14.95571459861206"><ele>86.14285714285714</ele><time>2026-04-11T16:53:50.001Z</time></trkpt><trkpt lat="36.87453669984002" lon="14.955697255296906"><ele>86.85714285714286</ele><time>2026-04-11T16:53:52.001Z</time></trkpt><trkpt lat="36.874475687175696" lon="14.955657685127019"><ele>87.57142857142857</ele><time>2026-04-11T16:53:54.001Z</time></trkpt><trkpt lat="36.87440417856188" lon="14.955641673022726"><ele>88.28571428571428</ele><time>2026-04-11T16:53:56.001Z</time></trkpt><trkpt lat="36.87431933354947" lon="14.95563507653167"><ele>89.0</ele><time>2026-04-11T16:53:59.001Z</time></trkpt><trkpt lat="36.874278913049444" lon="14.955571788942951"><ele>89.0</ele><time>2026-04-11T16:54:03.001Z</time></trkpt><trkpt lat="36.874321626827054" lon="14.95550822373027"><ele>89.0</ele><time>2026-04-11T16:54:05.001Z</time></trkpt><trkpt lat="36.87438517552202" lon="14.955465692834617"><ele>89.0</ele><time>2026-04-11T16:54:07.001Z</time></trkpt><trkpt lat="36.87444305814323" lon="14.955402091507555"><ele>89.0</ele><time>2026-04-11T16:54:09.001Z</time></trkpt><trkpt lat="36.87446633115388" lon="14.955294340190923"><ele>89.0</ele><time>2026-04-11T16:54:12.001Z</time></trkpt><trkpt lat="36.87442931774833" lon="14.955197125455145"><ele>89.0</ele><time>2026-04-11T16:54:14.001Z</time></trkpt><trkpt lat="36.87436484087465" lon="14.955060913364617"><ele>90.0</ele><time>2026-04-11T16:54:16.001Z</time></trkpt><trkpt lat="36.87433095721602" lon="14.954986276189153"><ele>91.0</ele><time>2026-04-11T16:54:17.001Z</time></trkpt><trkpt lat="36.874284532257505" lon="14.954865552279113"><ele>92.0</ele><time>2026-04-11T16:54:19.001Z</time></trkpt><trkpt lat="36.87424351773423" lon="14.95476959260254"><ele>93.0</ele><time>2026-04-11T16:54:21.001Z</time></trkpt><trkpt lat="36.87420586918384" lon="14.95466280594578"><ele>94.0</ele><time>2026-04-11T16:54:23.001Z</time></trkpt><trkpt lat="36.87416102123486" lon="14.954569238079042"><ele>95.0</ele><time>2026-04-11T16:54:25.001Z</time></trkpt><trkpt lat="36.87410263343748" lon="14.954481725898159"><ele>96.33333333333334</ele><time>2026-04-11T16:54:27.001Z</time></trkpt><trkpt lat="36.87405708423436" lon="14.954399870768665"><ele>97.66666666666667</ele><time>2026-04-11T16:54:29.001Z</time></trkpt><trkpt lat="36.87402981034212" lon="14.95429485787037"><ele>99.0</ele><time>2026-04-11T16:54:31.001Z</time></trkpt><trkpt lat="36.87399021051749" lon="14.95417845056179"><ele>100.33333333333334</ele><time>2026-04-11T16:54:33.001Z</time></trkpt><trkpt lat="36.87396281249741" lon="14.954066201282464"><ele>101.66666666666667</ele><time>2026-04-11T16:54:35.001Z</time></trkpt><trkpt lat="36.873944912672165" lon="14.953964874021288"><ele>103.0</ele><time>2026-04-11T16:54:37.001Z</time></trkpt><trkpt lat="36.87392923587656" lon="14.953879640617448"><ele>104.33333333333334</ele><time>2026-04-11T16:54:39.001Z</time></trkpt><trkpt lat="36.87393299786908" lon="14.953774615115243"><ele>105.66666666666667</ele><time>2026-04-11T16:54:42Z</time></trkpt><trkpt lat="36.873921871509566" lon="14.953677505027533"><ele>107.0</ele><time>2026-04-11T16:54:45Z</time></trkpt><trkpt lat="36.87390027072891" lon="14.95360213304131"><ele>108.33333333333334</ele><time>2026-04-11T16:54:47Z</time></trkpt><trkpt lat="36.87387436297573" lon="14.953501783104644"><ele>109.66666666666667</ele><time>2026-04-11T16:54:51Z</time></trkpt><trkpt lat="36.87382442822811" lon="14.953422636288789"><ele>111.0</ele><time>2026-04-11T16:54:54Z</time></trkpt><trkpt lat="36.873776449491146" lon="14.953363093571141"><ele>112.0</ele><time>2026-04-11T16:54:56Z</time></trkpt><trkpt lat="36.873686197921955" lon="14.953350413350403"><ele>113.0</ele><time>2026-04-11T16:54:58Z</time></trkpt><trkpt lat="36.87360934115157" lon="14.953343569879051"><ele>114.0</ele><time>2026-04-11T16:55:00Z</time></trkpt><trkpt lat="36.87367631554398" lon="14.953352884924787"><ele>115.0</ele><time>2026-04-11T16:55:21Z</time></trkpt><trkpt lat="36.87374195175233" lon="14.953328938853748"><ele>116.0</ele><time>2026-04-11T16:55:25Z</time></trkpt><trkpt lat="36.873785900281966" lon="14.953241471098215"><ele>117.0</ele><time>2026-04-11T16:55:28Z</time></trkpt><trkpt lat="36.87382727337553" lon="14.953173783867774"><ele>117.0</ele><time>2026-04-11T16:55:30Z</time></trkpt><trkpt lat="36.87387418297902" lon="14.953085297679308"><ele>117.0</ele><time>2026-04-11T16:55:33Z</time></trkpt><trkpt lat="36.873927943746665" lon="14.953037328688607"><ele>117.0</ele><time>2026-04-11T16:55:36Z</time></trkpt><trkpt lat="36.873976633176554" lon="14.952961261648502"><ele>117.0</ele><time>2026-04-11T16:55:39.001Z</time></trkpt><trkpt lat="36.87398040282626" lon="14.952850833590071"><ele>117.0</ele><time>2026-04-11T16:55:43.001Z</time></trkpt><trkpt lat="36.87397801606128" lon="14.952759293925903"><ele>117.0</ele><time>2026-04-11T16:55:47.001Z</time></trkpt><trkpt lat="36.87398139968292" lon="14.952674356724978"><ele>117.0</ele><time>2026-04-11T16:55:49.001Z</time></trkpt><trkpt lat="36.87398361096371" lon="14.952584229780026"><ele>117.0</ele><time>2026-04-11T16:55:53.001Z</time></trkpt><trkpt lat="36.87399331501402" lon="14.95248211438337"><ele>117.0</ele><time>2026-04-11T16:55:58.001Z</time></trkpt><trkpt lat="36.87400050868087" lon="14.952389625331596"><ele>117.0</ele><time>2026-04-11T16:56:01.001Z</time></trkpt><trkpt lat="36.874037866232094" lon="14.95232119644967"><ele>117.0</ele><time>2026-04-11T16:56:06.001Z</time></trkpt><trkpt lat="36.87411104626602" lon="14.952284046750302"><ele>117.0</ele><time>2026-04-11T16:56:10.001Z</time></trkpt><trkpt lat="36.874117623375724" lon="14.952181256698754"><ele>117.0</ele><time>2026-04-11T16:56:14.001Z</time></trkpt><trkpt lat="36.874077498192435" lon="14.952104799554515"><ele>117.0</ele><time>2026-04-11T16:56:18.001Z</time></trkpt><trkpt lat="36.87404070522677" lon="14.952010488222712"><ele>117.0</ele><time>2026-04-11T16:56:21.001Z</time></trkpt><trkpt lat="36.87400785664677" lon="14.951915465461225"><ele>117.0</ele><time>2026-04-11T16:56:24.001Z</time></trkpt><trkpt lat="36.8739531591421" lon="14.95184508211383"><ele>117.0</ele><time>2026-04-11T16:56:30.001Z</time></trkpt><trkpt lat="36.87391140300253" lon="14.951767415857688"><ele>117.0</ele><time>2026-04-11T16:57:40Z</time></trkpt><trkpt lat="36.87390169937303" lon="14.951684734797258"><ele>117.0</ele><time>2026-04-11T16:57:41Z</time></trkpt><trkpt lat="36.8738887124565" lon="14.95157934704913"><ele>116.99999999999999</ele><time>2026-04-11T16:57:42Z</time></trkpt><trkpt lat="36.873878315424726" lon="14.951445638461758"><ele>116.99999999999999</ele><time>2026-04-11T16:57:43Z</time></trkpt><trkpt lat="36.873865944944455" lon="14.951283373594192"><ele>117.0</ele><time>2026-04-11T16:57:44Z</time></trkpt><trkpt lat="36.8738560648713" lon="14.951137901545092"><ele>117.0</ele><time>2026-04-11T16:57:45Z</time></trkpt><trkpt lat="36.87385427436771" lon="14.950978684076174"><ele>117.39999999999999</ele><time>2026-04-11T16:57:46Z</time></trkpt><trkpt lat="36.873856798670474" lon="14.950795134800416"><ele>117.79999999999998</ele><time>2026-04-11T16:57:47Z</time></trkpt><trkpt lat="36.87386381064554" lon="14.950656474470472"><ele>118.2</ele><time>2026-04-11T16:57:48Z</time></trkpt><trkpt lat="36.87387187867741" lon="14.950558395449157"><ele>118.6</ele><time>2026-04-11T16:57:49Z</time></trkpt><trkpt lat="36.87387346208124" lon="14.95046899224451"><ele>119.0</ele><time>2026-04-11T16:57:50Z</time></trkpt><trkpt lat="36.87387237213857" lon="14.950331498251657"><ele>119.0</ele><time>2026-04-11T16:57:52.001Z</time></trkpt><trkpt lat="36.873881948981854" lon="14.950197448778402"><ele>119.0</ele><time>2026-04-11T16:57:54.001Z</time></trkpt><trkpt lat="36.87389091675384" lon="14.950106621487526"><ele>119.0</ele><time>2026-04-11T16:57:55.001Z</time></trkpt><trkpt lat="36.87389769274316" lon="14.949995343003708"><ele>119.0</ele><time>2026-04-11T16:57:56.001Z</time></trkpt><trkpt lat="36.873911505632336" lon="14.949857705037275"><ele>119.0</ele><time>2026-04-11T16:57:57.001Z</time></trkpt><trkpt lat="36.87392464117163" lon="14.949737016041544"><ele>120.4</ele><time>2026-04-11T16:57:58.001Z</time></trkpt><trkpt lat="36.87395373825598" lon="14.949648171222929"><ele>121.80000000000001</ele><time>2026-04-11T16:57:59.001Z</time></trkpt><trkpt lat="36.87401049822797" lon="14.949564805038415"><ele>123.19999999999999</ele><time>2026-04-11T16:58:00.001Z</time></trkpt><trkpt lat="36.87407569492273" lon="14.949464367755752"><ele>124.6</ele><time>2026-04-11T16:58:01.001Z</time></trkpt><trkpt lat="36.87410974925071" lon="14.949352734143972"><ele>126.0</ele><time>2026-04-11T16:58:02.001Z</time></trkpt><trkpt lat="36.874158398987305" lon="14.949239481780362"><ele>126.33333333333333</ele><time>2026-04-11T16:58:03.001Z</time></trkpt><trkpt lat="36.87418607224321" lon="14.949132556357652"><ele>126.66666666666666</ele><time>2026-04-11T16:58:04.001Z</time></trkpt><trkpt lat="36.87422276197851" lon="14.949046660420596"><ele>127.0</ele><time>2026-04-11T16:58:05.001Z</time></trkpt><trkpt lat="36.874285649502845" lon="14.948966647059773"><ele>127.33333333333333</ele><time>2026-04-11T16:58:06.001Z</time></trkpt><trkpt lat="36.87434814743174" lon="14.948907526561463"><ele>127.66666666666666</ele><time>2026-04-11T16:58:07.001Z</time></trkpt><trkpt lat="36.87442755721029" lon="14.948824247627007"><ele>128.0</ele><time>2026-04-11T16:58:08.001Z</time></trkpt><trkpt lat="36.87450698483333" lon="14.948754803583439"><ele>128.33333333333331</ele><time>2026-04-11T16:58:09.001Z</time></trkpt><trkpt lat="36.87457058787642" lon="14.948714943564289"><ele>128.66666666666666</ele><time>2026-04-11T16:58:10.001Z</time></trkpt><trkpt lat="36.87466292096149" lon="14.948626156278735"><ele>129.0</ele><time>2026-04-11T16:58:12.001Z</time></trkpt><trkpt lat="36.8746722157873" lon="14.948542374452984"><ele>129.33333333333334</ele><time>2026-04-11T16:58:13.001Z</time></trkpt><trkpt lat="36.87471313296916" lon="14.948464155307777"><ele>129.66666666666669</ele><time>2026-04-11T16:58:14.001Z</time></trkpt><trkpt lat="36.87474811629644" lon="14.948375551340437"><ele>130.0</ele><time>2026-04-11T16:58:15.001Z</time></trkpt><trkpt lat="36.87479102094483" lon="14.948294451933725"><ele>131.0</ele><time>2026-04-11T16:58:16.001Z</time></trkpt><trkpt lat="36.87480903275266" lon="14.94814517003425"><ele>132.0</ele><time>2026-04-11T16:58:18.001Z</time></trkpt><trkpt lat="36.87480998036872" lon="14.948014264749393"><ele>133.0</ele><time>2026-04-11T16:58:19.001Z</time></trkpt><trkpt lat="36.87482572037774" lon="14.947871772882214"><ele>134.0</ele><time>2026-04-11T16:58:20.001Z</time></trkpt><trkpt lat="36.87482686512017" lon="14.94772400478214"><ele>134.0</ele><time>2026-04-11T16:58:21.001Z</time></trkpt><trkpt lat="36.87482502133769" lon="14.947597728230118"><ele>134.0</ele><time>2026-04-11T16:58:22.001Z</time></trkpt><trkpt lat="36.874823757860355" lon="14.947470665876896"><ele>134.0</ele><time>2026-04-11T16:58:23.001Z</time></trkpt><trkpt lat="36.874816784869274" lon="14.947341216654731"><ele>134.0</ele><time>2026-04-11T16:58:24.001Z</time></trkpt><trkpt lat="36.87480658371211" lon="14.947224401187428"><ele>134.0</ele><time>2026-04-11T16:58:25.001Z</time></trkpt><trkpt lat="36.87478807902958" lon="14.947123313538992"><ele>134.4</ele><time>2026-04-11T16:58:26.001Z</time></trkpt><trkpt lat="36.87475614981084" lon="14.947027277549612"><ele>134.8</ele><time>2026-04-11T16:58:27.001Z</time></trkpt><trkpt lat="36.87470698002445" lon="14.946931361797844"><ele>135.2</ele><time>2026-04-11T16:58:28.001Z</time></trkpt><trkpt lat="36.874643088713086" lon="14.94683439391663"><ele>135.6</ele><time>2026-04-11T16:58:29.001Z</time></trkpt><trkpt lat="36.87457548646267" lon="14.946742950887197"><ele>136.0</ele><time>2026-04-11T16:58:30.001Z</time></trkpt><trkpt lat="36.874503364212416" lon="14.946664984015959"><ele>136.0</ele><time>2026-04-11T16:58:31.001Z</time></trkpt><trkpt lat="36.87441785040837" lon="14.946593798113918"><ele>136.0</ele><time>2026-04-11T16:58:32.001Z</time></trkpt><trkpt lat="36.87432278037957" lon="14.946516134701136"><ele>136.0</ele><time>2026-04-11T16:58:33.001Z</time></trkpt><trkpt lat="36.87422711470873" lon="14.946436692548174"><ele>136.0</ele><time>2026-04-11T16:58:34.001Z</time></trkpt><trkpt lat="36.87413063964155" lon="14.946358281320688"><ele>136.0</ele><time>2026-04-11T16:58:35.001Z</time></trkpt><trkpt lat="36.874027569804014" lon="14.94627046778431"><ele>134.0</ele><time>2026-04-11T16:58:36.001Z</time></trkpt><trkpt lat="36.87392106964141" lon="14.94617626802098"><ele>132.0</ele><time>2026-04-11T16:58:37.001Z</time></trkpt><trkpt lat="36.87379773275258" lon="14.946065881281191"><ele>130.0</ele><time>2026-04-11T16:58:38.001Z</time></trkpt><trkpt lat="36.87364708058736" lon="14.945923547540145"><ele>130.25</ele><time>2026-04-11T16:58:39.001Z</time></trkpt><trkpt lat="36.87350357654632" lon="14.945801227579388"><ele>130.5</ele><time>2026-04-11T16:58:40.001Z</time></trkpt><trkpt lat="36.87338823434297" lon="14.945706500142407"><ele>130.75</ele><time>2026-04-11T16:58:41.001Z</time></trkpt><trkpt lat="36.87329424059747" lon="14.945626068151867"><ele>131.0</ele><time>2026-04-11T16:58:42.001Z</time></trkpt><trkpt lat="36.873203616095296" lon="14.945556467473287"><ele>131.0</ele><time>2026-04-11T16:58:43.001Z</time></trkpt><trkpt lat="36.87310594158799" lon="14.945468349410277"><ele>131.0</ele><time>2026-04-11T16:58:44.001Z</time></trkpt><trkpt lat="36.87297056797346" lon="14.945424146947717"><ele>131.0</ele><time>2026-04-11T16:58:45.001Z</time></trkpt><trkpt lat="36.87285816130906" lon="14.945384598854027"><ele>131.0</ele><time>2026-04-11T16:58:46.001Z</time></trkpt><trkpt lat="36.87270373687338" lon="14.945333422508188"><ele>132.0</ele><time>2026-04-11T16:58:47.001Z</time></trkpt><trkpt lat="36.872523918362624" lon="14.945269103249787"><ele>133.0</ele><time>2026-04-11T16:58:48.001Z</time></trkpt><trkpt lat="36.872373730990304" lon="14.945211276560327"><ele>134.0</ele><time>2026-04-11T16:58:49.001Z</time></trkpt><trkpt lat="36.872239533925374" lon="14.94516464149369"><ele>134.0</ele><time>2026-04-11T16:58:50.001Z</time></trkpt><trkpt lat="36.87212901135952" lon="14.945122615152192"><ele>134.0</ele><time>2026-04-11T16:58:51.001Z</time></trkpt><trkpt lat="36.87203685670346" lon="14.945089540870006"><ele>134.0</ele><time>2026-04-11T16:58:52.001Z</time></trkpt><trkpt lat="36.871957885097196" lon="14.945057604592783"><ele>134.0</ele><time>2026-04-11T16:58:53Z</time></trkpt><trkpt lat="36.871887109297475" lon="14.945030195167712"><ele>134.0</ele><time>2026-04-11T16:58:54Z</time></trkpt><trkpt lat="36.87182569215303" lon="14.945008975594337"><ele>134.0</ele><time>2026-04-11T16:58:55Z</time></trkpt><trkpt lat="36.8717224447954" lon="14.944978941983864"><ele>134.2</ele><time>2026-04-11T16:58:57Z</time></trkpt><trkpt lat="36.87165913485054" lon="14.944939889913302"><ele>134.4</ele><time>2026-04-11T16:59:00Z</time></trkpt><trkpt lat="36.87157653685094" lon="14.945100257082874"><ele>134.6</ele><time>2026-04-11T16:59:04Z</time></trkpt><trkpt lat="36.87155225300414" lon="14.945197135472064"><ele>134.8</ele><time>2026-04-11T16:59:05Z</time></trkpt><trkpt lat="36.87153676051529" lon="14.945311157700095"><ele>135.0</ele><time>2026-04-11T16:59:06Z</time></trkpt><trkpt lat="36.871521362555896" lon="14.945408480668323"><ele>135.0</ele><time>2026-04-11T16:59:07Z</time></trkpt><trkpt lat="36.8715001089822" lon="14.945492848165486"><ele>135.0</ele><time>2026-04-11T16:59:08Z</time></trkpt><trkpt lat="36.8714851782357" lon="14.945575201827518"><ele>135.0</ele><time>2026-04-11T16:59:09Z</time></trkpt><trkpt lat="36.87147049939766" lon="14.945654459451575"><ele>135.0</ele><time>2026-04-11T16:59:10Z</time></trkpt><trkpt lat="36.8714563195865" lon="14.945743351022918"><ele>135.0</ele><time>2026-04-11T16:59:11Z</time></trkpt><trkpt lat="36.87141527058769" lon="14.945895778463456"><ele>135.0</ele><time>2026-04-11T16:59:13Z</time></trkpt><trkpt lat="36.87138379811182" lon="14.946058501677436"><ele>134.33333333333334</ele><time>2026-04-11T16:59:15Z</time></trkpt><trkpt lat="36.87136376651498" lon="14.946153544272246"><ele>133.66666666666666</ele><time>2026-04-11T16:59:16Z</time></trkpt><trkpt lat="36.87134189164553" lon="14.946249144348242"><ele>133.0</ele><time>2026-04-11T16:59:17Z</time></trkpt><trkpt lat="36.871328030240626" lon="14.946338645601362"><ele>132.33333333333331</ele><time>2026-04-11T16:59:18Z</time></trkpt><trkpt lat="36.87128898475956" lon="14.946414480947753"><ele>131.66666666666666</ele><time>2026-04-11T16:59:19Z</time></trkpt><trkpt lat="36.871238556729764" lon="14.946485124226639"><ele>131.0</ele><time>2026-04-11T16:59:20Z</time></trkpt><trkpt lat="36.87118085289352" lon="14.94655081390516"><ele>131.0</ele><time>2026-04-11T16:59:21Z</time></trkpt><trkpt lat="36.87111329894002" lon="14.946606850504534"><ele>131.0</ele><time>2026-04-11T16:59:22Z</time></trkpt><trkpt lat="36.871036204467536" lon="14.94664785523658"><ele>131.0</ele><time>2026-04-11T16:59:23Z</time></trkpt><trkpt lat="36.870958481295794" lon="14.94668186762247"><ele>131.0</ele><time>2026-04-11T16:59:24Z</time></trkpt><trkpt lat="36.870878973718675" lon="14.946705999098457"><ele>131.0</ele><time>2026-04-11T16:59:25Z</time></trkpt><trkpt lat="36.87079793956944" lon="14.946716447891237"><ele>131.0</ele><time>2026-04-11T16:59:26Z</time></trkpt><trkpt lat="36.87072435433698" lon="14.946722493250453"><ele>130.5</ele><time>2026-04-11T16:59:27Z</time></trkpt><trkpt lat="36.87065425515086" lon="14.94672535646112"><ele>130.0</ele><time>2026-04-11T16:59:28Z</time></trkpt><trkpt lat="36.870588835461355" lon="14.946722543881515"><ele>129.5</ele><time>2026-04-11T16:59:29Z</time></trkpt><trkpt lat="36.870524993940066" lon="14.946719255932596"><ele>129.0</ele><time>2026-04-11T16:59:30Z</time></trkpt><trkpt lat="36.870402294224704" lon="14.946737787217318"><ele>128.5</ele><time>2026-04-11T16:59:32Z</time></trkpt><trkpt lat="36.870296216546194" lon="14.946756552923976"><ele>128.0</ele><time>2026-04-11T16:59:34Z</time></trkpt><trkpt lat="36.87018134634621" lon="14.946767706406456"><ele>127.99999999999999</ele><time>2026-04-11T16:59:36Z</time></trkpt><trkpt lat="36.870114421010584" lon="14.946769663884933"><ele>128.0</ele><time>2026-04-11T16:59:37Z</time></trkpt><trkpt lat="36.87003276496383" lon="14.946779964853919"><ele>128.0</ele><time>2026-04-11T16:59:38Z</time></trkpt><trkpt lat="36.869939249180156" lon="14.946797999408442"><ele>128.0</ele><time>2026-04-11T16:59:39Z</time></trkpt><trkpt lat="36.86984833390319" lon="14.946815412054029"><ele>127.99999999999999</ele><time>2026-04-11T16:59:40Z</time></trkpt><trkpt lat="36.869769541668404" lon="14.946832475685708"><ele>128.0</ele><time>2026-04-11T16:59:41Z</time></trkpt><trkpt lat="36.869686729648116" lon="14.946840168271002"><ele>127.4</ele><time>2026-04-11T16:59:42Z</time></trkpt><trkpt lat="36.86959078405688" lon="14.946851172230932"><ele>126.80000000000001</ele><time>2026-04-11T16:59:43Z</time></trkpt><trkpt lat="36.8694873493471" lon="14.946864390637955"><ele>126.2</ele><time>2026-04-11T16:59:44Z</time></trkpt><trkpt lat="36.86938982089938" lon="14.946876767281731"><ele>125.6</ele><time>2026-04-11T16:59:45Z</time></trkpt><trkpt lat="36.86928439288659" lon="14.946880156775249"><ele>125.0</ele><time>2026-04-11T16:59:46Z</time></trkpt><trkpt lat="36.869156721204696" lon="14.946895760054263"><ele>124.0</ele><time>2026-04-11T16:59:47Z</time></trkpt><trkpt lat="36.86901460859979" lon="14.946916991452571"><ele>123.0</ele><time>2026-04-11T16:59:48Z</time></trkpt><trkpt lat="36.86886427297802" lon="14.946938838902279"><ele>122.0</ele><time>2026-04-11T16:59:49Z</time></trkpt><trkpt lat="36.86871752724991" lon="14.94695348427004"><ele>121.0</ele><time>2026-04-11T16:59:50Z</time></trkpt><trkpt lat="36.868584684384324" lon="14.946975499144589"><ele>121.0</ele><time>2026-04-11T16:59:51Z</time></trkpt><trkpt lat="36.86845012710931" lon="14.946989044741853"><ele>121.0</ele><time>2026-04-11T16:59:52Z</time></trkpt><trkpt lat="36.86832337035082" lon="14.947005231907493"><ele>121.0</ele><time>2026-04-11T16:59:53Z</time></trkpt><trkpt lat="36.868207908985696" lon="14.947030224468183"><ele>121.0</ele><time>2026-04-11T16:59:54Z</time></trkpt><trkpt lat="36.868097590014216" lon="14.947062396055594"><ele>120.19999999999999</ele><time>2026-04-11T16:59:55Z</time></trkpt><trkpt lat="36.86798935082414" lon="14.947098254660677"><ele>119.39999999999999</ele><time>2026-04-11T16:59:56Z</time></trkpt><trkpt lat="36.86788119512981" lon="14.9471318581495"><ele>118.6</ele><time>2026-04-11T16:59:57Z</time></trkpt><trkpt lat="36.867771338632835" lon="14.947159968509611"><ele>117.8</ele><time>2026-04-11T16:59:58Z</time></trkpt><trkpt lat="36.86766705123908" lon="14.94718804927241"><ele>117.0</ele><time>2026-04-11T16:59:59Z</time></trkpt><trkpt lat="36.867561993157075" lon="14.947213022101527"><ele>114.8</ele><time>2026-04-11T17:00:00Z</time></trkpt><trkpt lat="36.867454964885894" lon="14.947229952266836"><ele>112.6</ele><time>2026-04-11T17:00:01Z</time></trkpt><trkpt lat="36.8673513646752" lon="14.947229605796933"><ele>110.39999999999999</ele><time>2026-04-11T17:00:02.001Z</time></trkpt><trkpt lat="36.86724952632547" lon="14.947216683512291"><ele>108.19999999999999</ele><time>2026-04-11T17:00:03.001Z</time></trkpt><trkpt lat="36.86715007107101" lon="14.947189037682763"><ele>106.0</ele><time>2026-04-11T17:00:04.001Z</time></trkpt><trkpt lat="36.867051547143234" lon="14.947163339050515"><ele>106.0</ele><time>2026-04-11T17:00:05.001Z</time></trkpt><trkpt lat="36.866952312743734" lon="14.947146578517701"><ele>106.0</ele><time>2026-04-11T17:00:06.001Z</time></trkpt><trkpt lat="36.866853154437635" lon="14.947149344363062"><ele>106.0</ele><time>2026-04-11T17:00:07.001Z</time></trkpt><trkpt lat="36.86676263900582" lon="14.947180386623847"><ele>106.0</ele><time>2026-04-11T17:00:08.001Z</time></trkpt><trkpt lat="36.866676199050275" lon="14.947221268557032"><ele>106.0</ele><time>2026-04-11T17:00:09.001Z</time></trkpt><trkpt lat="36.86661907116173" lon="14.947338450673715"><ele>105.0</ele><time>2026-04-11T17:00:10.001Z</time></trkpt><trkpt lat="36.866528967359436" lon="14.9474544451549"><ele>104.0</ele><time>2026-04-11T17:00:11.001Z</time></trkpt><trkpt lat="36.86645409031013" lon="14.947578813387414"><ele>103.0</ele><time>2026-04-11T17:00:12.001Z</time></trkpt><trkpt lat="36.86640015039745" lon="14.947712391624975"><ele>102.0</ele><time>2026-04-11T17:00:13.001Z</time></trkpt><trkpt lat="36.866335909236234" lon="14.947820888250753"><ele>102.0</ele><time>2026-04-11T17:00:14.001Z</time></trkpt><trkpt lat="36.866289647962155" lon="14.947941480273089"><ele>102.0</ele><time>2026-04-11T17:00:15.001Z</time></trkpt><trkpt lat="36.86627157766114" lon="14.948081529359916"><ele>102.0</ele><time>2026-04-11T17:00:16.001Z</time></trkpt><trkpt lat="36.86629197578649" lon="14.94822191828691"><ele>102.0</ele><time>2026-04-11T17:00:17.001Z</time></trkpt><trkpt lat="36.866353239298014" lon="14.948355313924766"><ele>102.5</ele><time>2026-04-11T17:00:18.001Z</time></trkpt><trkpt lat="36.86644715819346" lon="14.948495680620828"><ele>103.0</ele><time>2026-04-11T17:00:19.001Z</time></trkpt><trkpt lat="36.86653572639004" lon="14.948638952995443"><ele>103.5</ele><time>2026-04-11T17:00:20.001Z</time></trkpt><trkpt lat="36.86658943637246" lon="14.948765418742518"><ele>104.0</ele><time>2026-04-11T17:00:21.001Z</time></trkpt><trkpt lat="36.866582885181415" lon="14.948895693597477"><ele>104.0</ele><time>2026-04-11T17:00:22.001Z</time></trkpt><trkpt lat="36.866560856164654" lon="14.949005021429345"><ele>104.0</ele><time>2026-04-11T17:00:23.001Z</time></trkpt><trkpt lat="36.86650122107037" lon="14.949082185677407"><ele>104.0</ele><time>2026-04-11T17:00:24.001Z</time></trkpt><trkpt lat="36.86642459200709" lon="14.9491724941953"><ele>104.0</ele><time>2026-04-11T17:00:25.001Z</time></trkpt><trkpt lat="36.86631001504627" lon="14.949289105114675"><ele>104.0</ele><time>2026-04-11T17:00:26.001Z</time></trkpt><trkpt lat="36.866192103204824" lon="14.949439367276986"><ele>105.0</ele><time>2026-04-11T17:00:27.001Z</time></trkpt><trkpt lat="36.866045269684676" lon="14.949579274104385"><ele>106.0</ele><time>2026-04-11T17:00:28.001Z</time></trkpt><trkpt lat="36.8658718890143" lon="14.949744439811816"><ele>107.0</ele><time>2026-04-11T17:00:29.001Z</time></trkpt><trkpt lat="36.865687573109746" lon="14.949919869803896"><ele>110.66666666666666</ele><time>2026-04-11T17:00:30.001Z</time></trkpt><trkpt lat="36.865527159644174" lon="14.950082855371715"><ele>114.33333333333334</ele><time>2026-04-11T17:00:31.001Z</time></trkpt><trkpt lat="36.86539364604903" lon="14.950234770564553"><ele>118.0</ele><time>2026-04-11T17:00:32.001Z</time></trkpt><trkpt lat="36.8652796099933" lon="14.950362991464688"><ele>118.0</ele><time>2026-04-11T17:00:33.001Z</time></trkpt><trkpt lat="36.86511996048048" lon="14.95045772897829"><ele>118.0</ele><time>2026-04-11T17:00:34.001Z</time></trkpt><trkpt lat="36.86496775483439" lon="14.95060760188359"><ele>118.0</ele><time>2026-04-11T17:00:35.001Z</time></trkpt><trkpt lat="36.86480102435564" lon="14.950771776953186"><ele>119.0</ele><time>2026-04-11T17:00:36.001Z</time></trkpt><trkpt lat="36.864613442506304" lon="14.95095677537728"><ele>120.0</ele><time>2026-04-11T17:00:37.001Z</time></trkpt><trkpt lat="36.8644221923776" lon="14.951172818257177"><ele>125.5</ele><time>2026-04-11T17:00:38.001Z</time></trkpt><trkpt lat="36.86420835620063" lon="14.951371963242703"><ele>131.0</ele><time>2026-04-11T17:00:39.001Z</time></trkpt><trkpt lat="36.86401021562473" lon="14.951580500434936"><ele>129.66666666666666</ele><time>2026-04-11T17:00:40.001Z</time></trkpt><trkpt lat="36.86383002292737" lon="14.951734773013488"><ele>128.33333333333334</ele><time>2026-04-11T17:00:41.001Z</time></trkpt><trkpt lat="36.8636644836414" lon="14.95189502239133"><ele>127.0</ele><time>2026-04-11T17:00:42.001Z</time></trkpt><trkpt lat="36.8635044264798" lon="14.952049963830103"><ele>128.66666666666669</ele><time>2026-04-11T17:00:43.001Z</time></trkpt><trkpt lat="36.86336541455826" lon="14.952211877219764"><ele>130.33333333333334</ele><time>2026-04-11T17:00:44.001Z</time></trkpt><trkpt lat="36.86321636259066" lon="14.952333722939704"><ele>132.0</ele><time>2026-04-11T17:00:45.001Z</time></trkpt><trkpt lat="36.86308431551634" lon="14.952458137538535"><ele>130.66666666666666</ele><time>2026-04-11T17:00:46.001Z</time></trkpt><trkpt lat="36.8629466781136" lon="14.952568766544234"><ele>129.33333333333331</ele><time>2026-04-11T17:00:47.001Z</time></trkpt><trkpt lat="36.86279286485362" lon="14.952666641729566"><ele>128.0</ele><time>2026-04-11T17:00:48.001Z</time></trkpt><trkpt lat="36.86261935832864" lon="14.952753842108956"><ele>129.0</ele><time>2026-04-11T17:00:49.001Z</time></trkpt><trkpt lat="36.86243853668286" lon="14.952834546013966"><ele>130.0</ele><time>2026-04-11T17:00:50.001Z</time></trkpt><trkpt lat="36.86225627069075" lon="14.952941997312289"><ele>131.0</ele><time>2026-04-11T17:00:51.001Z</time></trkpt><trkpt lat="36.862064078204305" lon="14.953034270937367"><ele>131.0</ele><time>2026-04-11T17:00:52.001Z</time></trkpt><trkpt lat="36.8618654121292" lon="14.953126144754759"><ele>131.0</ele><time>2026-04-11T17:00:53.001Z</time></trkpt><trkpt lat="36.86166808952357" lon="14.953221823890503"><ele>131.0</ele><time>2026-04-11T17:00:54.001Z</time></trkpt><trkpt lat="36.86146689457901" lon="14.953318968303497"><ele>131.33333333333331</ele><time>2026-04-11T17:00:55.001Z</time></trkpt><trkpt lat="36.86126121061944" lon="14.953417709068034"><ele>131.66666666666666</ele><time>2026-04-11T17:00:56.001Z</time></trkpt><trkpt lat="36.86105636449674" lon="14.953516273258522"><ele>132.0</ele><time>2026-04-11T17:00:57.001Z</time></trkpt><trkpt lat="36.86085108484498" lon="14.953617249142868"><ele>132.0</ele><time>2026-04-11T17:00:58.001Z</time></trkpt><trkpt lat="36.86064375311718" lon="14.953718314068807"><ele>132.0</ele><time>2026-04-11T17:00:59Z</time></trkpt><trkpt lat="36.86043772417589" lon="14.953814572709426"><ele>132.0</ele><time>2026-04-11T17:01:00Z</time></trkpt><trkpt lat="36.86023601616435" lon="14.953912360308548"><ele>133.33333333333334</ele><time>2026-04-11T17:01:01Z</time></trkpt><trkpt lat="36.86003244198334" lon="14.954007950768322"><ele>134.66666666666669</ele><time>2026-04-11T17:01:02Z</time></trkpt><trkpt lat="36.85982931569361" lon="14.954103854381"><ele>136.0</ele><time>2026-04-11T17:01:03Z</time></trkpt><trkpt lat="36.85962748056684" lon="14.954197535609907"><ele>135.33333333333334</ele><time>2026-04-11T17:01:04Z</time></trkpt><trkpt lat="36.85942836672856" lon="14.954292398752763"><ele>134.66666666666666</ele><time>2026-04-11T17:01:05Z</time></trkpt><trkpt lat="36.85922961885842" lon="14.954388274111174"><ele>134.0</ele><time>2026-04-11T17:01:06Z</time></trkpt><trkpt lat="36.85903168625723" lon="14.954485758226076"><ele>134.0</ele><time>2026-04-11T17:01:07Z</time></trkpt><trkpt lat="36.85882871731452" lon="14.954561146827855"><ele>134.0</ele><time>2026-04-11T17:01:08Z</time></trkpt><trkpt lat="36.85863960764753" lon="14.954651561168063"><ele>134.0</ele><time>2026-04-11T17:01:09Z</time></trkpt><trkpt lat="36.858448380473035" lon="14.954744979397773"><ele>134.66666666666666</ele><time>2026-04-11T17:01:10Z</time></trkpt><trkpt lat="36.85827925381908" lon="14.95484713933022"><ele>135.33333333333334</ele><time>2026-04-11T17:01:11Z</time></trkpt><trkpt lat="36.85811346889414" lon="14.954927567151858"><ele>136.0</ele><time>2026-04-11T17:01:12Z</time></trkpt><trkpt lat="36.85794791843026" lon="14.955002871009558"><ele>135.66666666666669</ele><time>2026-04-11T17:01:13Z</time></trkpt><trkpt lat="36.85779912210123" lon="14.955077581321003"><ele>135.33333333333334</ele><time>2026-04-11T17:01:14Z</time></trkpt><trkpt lat="36.85765824508316" lon="14.955174599583257"><ele>135.0</ele><time>2026-04-11T17:01:15Z</time></trkpt><trkpt lat="36.857504481910226" lon="14.955278917554507"><ele>135.0</ele><time>2026-04-11T17:01:16Z</time></trkpt><trkpt lat="36.85737153588975" lon="14.955448567073857"><ele>135.0</ele><time>2026-04-11T17:01:17Z</time></trkpt><trkpt lat="36.85723575722117" lon="14.955623201667661"><ele>135.0</ele><time>2026-04-11T17:01:18Z</time></trkpt><trkpt lat="36.85709827823628" lon="14.955806389036956"><ele>134.33333333333334</ele><time>2026-04-11T17:01:19Z</time></trkpt><trkpt lat="36.85695944970196" lon="14.95599313569098"><ele>133.66666666666669</ele><time>2026-04-11T17:01:20Z</time></trkpt><trkpt lat="36.85682438319131" lon="14.956175281190452"><ele>133.0</ele><time>2026-04-11T17:01:21Z</time></trkpt><trkpt lat="36.85668712865549" lon="14.956358695991762"><ele>133.0</ele><time>2026-04-11T17:01:22Z</time></trkpt><trkpt lat="36.85654904573472" lon="14.956543217720512"><ele>133.0</ele><time>2026-04-11T17:01:23Z</time></trkpt><trkpt lat="36.85640818465116" lon="14.956731451998222"><ele>133.0</ele><time>2026-04-11T17:01:24Z</time></trkpt><trkpt lat="36.85627910150067" lon="14.956933244226905"><ele>132.66666666666669</ele><time>2026-04-11T17:01:25Z</time></trkpt><trkpt lat="36.85613691215926" lon="14.957120444755414"><ele>132.33333333333334</ele><time>2026-04-11T17:01:26Z</time></trkpt><trkpt lat="36.855983297230495" lon="14.957299233844838"><ele>132.0</ele><time>2026-04-11T17:01:27Z</time></trkpt><trkpt lat="36.85583747016532" lon="14.957494777852272"><ele>131.0</ele><time>2026-04-11T17:01:28Z</time></trkpt><trkpt lat="36.855692080895494" lon="14.957689934543879"><ele>130.0</ele><time>2026-04-11T17:01:29Z</time></trkpt><trkpt lat="36.85554750567542" lon="14.957883998541023"><ele>129.0</ele><time>2026-04-11T17:01:30Z</time></trkpt><trkpt lat="36.85541175403727" lon="14.958066218511629"><ele>129.0</ele><time>2026-04-11T17:01:31Z</time></trkpt><trkpt lat="36.85528179770047" lon="14.958240659624881"><ele>129.0</ele><time>2026-04-11T17:01:32Z</time></trkpt><trkpt lat="36.855156394813534" lon="14.958407507605495"><ele>129.0</ele><time>2026-04-11T17:01:33Z</time></trkpt><trkpt lat="36.85503490502264" lon="14.958561140170236"><ele>129.33333333333334</ele><time>2026-04-11T17:01:34Z</time></trkpt><trkpt lat="36.85491995175919" lon="14.958713737874438"><ele>129.66666666666669</ele><time>2026-04-11T17:01:35Z</time></trkpt><trkpt lat="36.85479762909414" lon="14.958877457884839"><ele>130.0</ele><time>2026-04-11T17:01:36Z</time></trkpt><trkpt lat="36.85466968071375" lon="14.95904870750604"><ele>128.0</ele><time>2026-04-11T17:01:37Z</time></trkpt><trkpt lat="36.8545420288028" lon="14.959232812757552"><ele>126.0</ele><time>2026-04-11T17:01:38Z</time></trkpt><trkpt lat="36.85454583815287" lon="14.95958903563939"><ele>126.0</ele><time>2026-04-11T17:01:39Z</time></trkpt><trkpt lat="36.854445654492295" lon="14.959847449400565"><ele>126.0</ele><time>2026-04-11T17:01:40Z</time></trkpt><trkpt lat="36.854342744050385" lon="14.9601006297516"><ele>125.33333333333334</ele><time>2026-04-11T17:01:41Z</time></trkpt><trkpt lat="36.85423835959094" lon="14.960348317469231"><ele>124.66666666666667</ele><time>2026-04-11T17:01:42Z</time></trkpt><trkpt lat="36.85413832427034" lon="14.960600258131032"><ele>124.0</ele><time>2026-04-11T17:01:43Z</time></trkpt><trkpt lat="36.85403487009202" lon="14.960853086660602"><ele>122.0</ele><time>2026-04-11T17:01:44Z</time></trkpt><trkpt lat="36.85393126236886" lon="14.961106524886782"><ele>120.0</ele><time>2026-04-11T17:01:45Z</time></trkpt><trkpt lat="36.85382484931497" lon="14.961358198402532"><ele>120.0</ele><time>2026-04-11T17:01:46Z</time></trkpt><trkpt lat="36.85372577675534" lon="14.961598537635053"><ele>120.0</ele><time>2026-04-11T17:01:47Z</time></trkpt><trkpt lat="36.853628985546045" lon="14.961833599781475"><ele>120.0</ele><time>2026-04-11T17:01:48Z</time></trkpt><trkpt lat="36.85353092248758" lon="14.962074104648197"><ele>119.66666666666666</ele><time>2026-04-11T17:01:49Z</time></trkpt><trkpt lat="36.853434909290264" lon="14.962312463504071"><ele>119.33333333333333</ele><time>2026-04-11T17:01:50Z</time></trkpt><trkpt lat="36.85333790183519" lon="14.962551788849813"><ele>119.0</ele><time>2026-04-11T17:01:51Z</time></trkpt><trkpt lat="36.85324009414365" lon="14.962790491098746"><ele>118.33333333333333</ele><time>2026-04-11T17:01:52Z</time></trkpt><trkpt lat="36.85314139224971" lon="14.963033038569957"><ele>117.66666666666666</ele><time>2026-04-11T17:01:53Z</time></trkpt><trkpt lat="36.85304131751226" lon="14.963275910049163"><ele>117.0</ele><time>2026-04-11T17:01:54Z</time></trkpt><trkpt lat="36.85294072726774" lon="14.963521068845354"><ele>116.0</ele><time>2026-04-11T17:01:55Z</time></trkpt><trkpt lat="36.852838265582676" lon="14.963770166378337"><ele>115.0</ele><time>2026-04-11T17:01:56Z</time></trkpt><trkpt lat="36.852739568773146" lon="14.96400959841654"><ele>114.0</ele><time>2026-04-11T17:01:57Z</time></trkpt><trkpt lat="36.852646576927015" lon="14.964240362453678"><ele>113.33333333333334</ele><time>2026-04-11T17:01:58Z</time></trkpt><trkpt lat="36.85255014607951" lon="14.964479865196667"><ele>112.66666666666667</ele><time>2026-04-11T17:01:59Z</time></trkpt><trkpt lat="36.85245470651935" lon="14.964719843077944"><ele>112.0</ele><time>2026-04-11T17:02:00Z</time></trkpt><trkpt lat="36.85235481527947" lon="14.964961466588528"><ele>111.33333333333334</ele><time>2026-04-11T17:02:01Z</time></trkpt><trkpt lat="36.85225502042884" lon="14.965202517042233"><ele>110.66666666666666</ele><time>2026-04-11T17:02:02Z</time></trkpt><trkpt lat="36.85216284600441" lon="14.965427604250698"><ele>110.0</ele><time>2026-04-11T17:02:03Z</time></trkpt><trkpt lat="36.852076008307776" lon="14.965643090222418"><ele>110.0</ele><time>2026-04-11T17:02:04Z</time></trkpt><trkpt lat="36.85198495675735" lon="14.965859243143107"><ele>110.0</ele><time>2026-04-11T17:02:05Z</time></trkpt><trkpt lat="36.85189382383321" lon="14.966082399197902"><ele>110.0</ele><time>2026-04-11T17:02:06Z</time></trkpt><trkpt lat="36.851794654310844" lon="14.966310143665945"><ele>110.0</ele><time>2026-04-11T17:02:07Z</time></trkpt><trkpt lat="36.85170135802435" lon="14.966545380277267"><ele>110.0</ele><time>2026-04-11T17:02:08Z</time></trkpt><trkpt lat="36.85160452145349" lon="14.966780360470798"><ele>110.0</ele><time>2026-04-11T17:02:09Z</time></trkpt><trkpt lat="36.851507885065395" lon="14.967013524925445"><ele>108.66666666666666</ele><time>2026-04-11T17:02:10Z</time></trkpt><trkpt lat="36.85141057338942" lon="14.967247430579166"><ele>107.33333333333334</ele><time>2026-04-11T17:02:11Z</time></trkpt><trkpt lat="36.85131309707529" lon="14.967483051255991"><ele>106.0</ele><time>2026-04-11T17:02:12Z</time></trkpt><trkpt lat="36.85121847145362" lon="14.967721338875691"><ele>105.66666666666667</ele><time>2026-04-11T17:02:13Z</time></trkpt><trkpt lat="36.851122342623896" lon="14.967959169344915"><ele>105.33333333333334</ele><time>2026-04-11T17:02:14Z</time></trkpt><trkpt lat="36.851028586264164" lon="14.968203019600818"><ele>105.0</ele><time>2026-04-11T17:02:15Z</time></trkpt><trkpt lat="36.850947113764114" lon="14.968453664288374"><ele>105.0</ele><time>2026-04-11T17:02:16.001Z</time></trkpt><trkpt lat="36.85087748190762" lon="14.968711968694723"><ele>105.0</ele><time>2026-04-11T17:02:17.001Z</time></trkpt><trkpt lat="36.850810076457925" lon="14.968973577916628"><ele>105.0</ele><time>2026-04-11T17:02:18.001Z</time></trkpt><trkpt lat="36.85074413873223" lon="14.96923559028637"><ele>104.33333333333334</ele><time>2026-04-11T17:02:19.001Z</time></trkpt><trkpt lat="36.85067194674932" lon="14.969496758849157"><ele>103.66666666666667</ele><time>2026-04-11T17:02:20.001Z</time></trkpt><trkpt lat="36.850600135172066" lon="14.969759045540854"><ele>103.0</ele><time>2026-04-11T17:02:21.001Z</time></trkpt><trkpt lat="36.85052894365532" lon="14.970020586795348"><ele>102.66666666666667</ele><time>2026-04-11T17:02:22.001Z</time></trkpt><trkpt lat="36.85045890513932" lon="14.970276682904892"><ele>102.33333333333334</ele><time>2026-04-11T17:02:23.001Z</time></trkpt><trkpt lat="36.85039586899027" lon="14.970515282104124"><ele>102.0</ele><time>2026-04-11T17:02:24.001Z</time></trkpt><trkpt lat="36.850334211248104" lon="14.97075525654825"><ele>102.0</ele><time>2026-04-11T17:02:25.001Z</time></trkpt><trkpt lat="36.85027191505564" lon="14.970992611001343"><ele>102.0</ele><time>2026-04-11T17:02:26.001Z</time></trkpt><trkpt lat="36.85020952422911" lon="14.97123085997778"><ele>102.0</ele><time>2026-04-11T17:02:27.001Z</time></trkpt><trkpt lat="36.85014416856784" lon="14.971466024396447"><ele>102.0</ele><time>2026-04-11T17:02:28.001Z</time></trkpt><trkpt lat="36.850077405613135" lon="14.971699992853045"><ele>102.0</ele><time>2026-04-11T17:02:29.001Z</time></trkpt><trkpt lat="36.85001349927318" lon="14.97193063774415"><ele>102.0</ele><time>2026-04-11T17:02:30.001Z</time></trkpt><trkpt lat="36.84995246527702" lon="14.972157795100722"><ele>102.0</ele><time>2026-04-11T17:02:31.001Z</time></trkpt><trkpt lat="36.84988993776298" lon="14.972388060130905"><ele>102.0</ele><time>2026-04-11T17:02:32.001Z</time></trkpt><trkpt lat="36.84982637165118" lon="14.972619029407"><ele>102.0</ele><time>2026-04-11T17:02:33.001Z</time></trkpt><trkpt lat="36.84976225934756" lon="14.972850134788786"><ele>101.0</ele><time>2026-04-11T17:02:34.001Z</time></trkpt><trkpt lat="36.84969925980074" lon="14.973083497601584"><ele>100.0</ele><time>2026-04-11T17:02:35.001Z</time></trkpt><trkpt lat="36.84961850967199" lon="14.973307310002651"><ele>99.0</ele><time>2026-04-11T17:02:36.001Z</time></trkpt><trkpt lat="36.84957035204666" lon="14.973545905340467"><ele>98.66666666666666</ele><time>2026-04-11T17:02:37.001Z</time></trkpt><trkpt lat="36.849508337113754" lon="14.97377610102729"><ele>98.33333333333333</ele><time>2026-04-11T17:02:38.001Z</time></trkpt><trkpt lat="36.84944814998062" lon="14.973997404899475"><ele>98.0</ele><time>2026-04-11T17:02:39.001Z</time></trkpt><trkpt lat="36.849385890381626" lon="14.974226259476499"><ele>97.66666666666666</ele><time>2026-04-11T17:02:40.001Z</time></trkpt><trkpt lat="36.849320202873336" lon="14.974461728524892"><ele>97.33333333333334</ele><time>2026-04-11T17:02:41.001Z</time></trkpt><trkpt lat="36.84925318609308" lon="14.974706095488157"><ele>97.0</ele><time>2026-04-11T17:02:42.001Z</time></trkpt><trkpt lat="36.84918543264543" lon="14.97494709012584"><ele>96.33333333333334</ele><time>2026-04-11T17:02:43.001Z</time></trkpt><trkpt lat="36.84912213685219" lon="14.97518806950015"><ele>95.66666666666667</ele><time>2026-04-11T17:02:44.001Z</time></trkpt><trkpt lat="36.84905757355934" lon="14.975430192310412"><ele>95.0</ele><time>2026-04-11T17:02:45.001Z</time></trkpt><trkpt lat="36.84898908826134" lon="14.97567460576599"><ele>95.0</ele><time>2026-04-11T17:02:46.001Z</time></trkpt><trkpt lat="36.84892224665636" lon="14.975917067237924"><ele>95.0</ele><time>2026-04-11T17:02:47.001Z</time></trkpt><trkpt lat="36.848858035818" lon="14.976160636039019"><ele>95.0</ele><time>2026-04-11T17:02:48.001Z</time></trkpt><trkpt lat="36.84879593259905" lon="14.976395453913794"><ele>95.0</ele><time>2026-04-11T17:02:49.001Z</time></trkpt><trkpt lat="36.84873463945907" lon="14.976618782632045"><ele>95.0</ele><time>2026-04-11T17:02:50.001Z</time></trkpt><trkpt lat="36.848671238192416" lon="14.976833396577545"><ele>95.0</ele><time>2026-04-11T17:02:51.001Z</time></trkpt><trkpt lat="36.84861178315514" lon="14.977049924759955"><ele>95.33333333333334</ele><time>2026-04-11T17:02:52.001Z</time></trkpt><trkpt lat="36.84855760996517" lon="14.97726676030561"><ele>95.66666666666667</ele><time>2026-04-11T17:02:53.001Z</time></trkpt><trkpt lat="36.848486257421754" lon="14.977466092783287"><ele>96.0</ele><time>2026-04-11T17:02:54.001Z</time></trkpt><trkpt lat="36.84843413867008" lon="14.977653323745889"><ele>95.5</ele><time>2026-04-11T17:02:55.001Z</time></trkpt><trkpt lat="36.848384791323944" lon="14.977830839108291"><ele>95.0</ele><time>2026-04-11T17:02:56.001Z</time></trkpt><trkpt lat="36.84833883778583" lon="14.97799825042266"><ele>94.5</ele><time>2026-04-11T17:02:57.001Z</time></trkpt><trkpt lat="36.848296821480744" lon="14.978151318185153"><ele>94.0</ele><time>2026-04-11T17:02:58.001Z</time></trkpt><trkpt lat="36.8482613669723" lon="14.978280480951021"><ele>93.6</ele><time>2026-04-11T17:02:59.001Z</time></trkpt><trkpt lat="36.84823199263625" lon="14.978387493307057"><ele>93.2</ele><time>2026-04-11T17:03:00.001Z</time></trkpt><trkpt lat="36.84820298761904" lon="14.978496047770584"><ele>92.8</ele><time>2026-04-11T17:03:02.001Z</time></trkpt><trkpt lat="36.848059270783594" lon="14.978434280620975"><ele>92.39999999999999</ele><time>2026-04-11T17:03:04.001Z</time></trkpt><trkpt lat="36.84794945178108" lon="14.978426490350591"><ele>92.0</ele><time>2026-04-11T17:03:04.999Z</time></trkpt><trkpt lat="36.847837299410834" lon="14.978390012873353"><ele>92.0</ele><time>2026-04-11T17:03:05.999Z</time></trkpt><trkpt lat="36.84772331776982" lon="14.97836843493384"><ele>92.0</ele><time>2026-04-11T17:03:06.999Z</time></trkpt><trkpt lat="36.84761527088269" lon="14.97834294952621"><ele>92.0</ele><time>2026-04-11T17:03:07.999Z</time></trkpt><trkpt lat="36.84751160297136" lon="14.978312745091984"><ele>92.0</ele><time>2026-04-11T17:03:08.999Z</time></trkpt><trkpt lat="36.84741254712077" lon="14.9782792570155"><ele>92.0</ele><time>2026-04-11T17:03:09.999Z</time></trkpt><trkpt lat="36.847324507899664" lon="14.978258355682003"><ele>91.0</ele><time>2026-04-11T17:03:10.999Z</time></trkpt><trkpt lat="36.847238358667674" lon="14.978261791591114"><ele>90.0</ele><time>2026-04-11T17:03:11.999Z</time></trkpt><trkpt lat="36.84715013749682" lon="14.978279586648329"><ele>89.0</ele><time>2026-04-11T17:03:12.999Z</time></trkpt><trkpt lat="36.84705684318199" lon="14.978279660650447"><ele>88.0</ele><time>2026-04-11T17:03:13.999Z</time></trkpt><trkpt lat="36.84695536488074" lon="14.978287434020666"><ele>87.0</ele><time>2026-04-11T17:03:14.999Z</time></trkpt><trkpt lat="36.846843045039485" lon="14.978326346275903"><ele>84.75</ele><time>2026-04-11T17:03:15.999Z</time></trkpt><trkpt lat="36.846723733157106" lon="14.978331542380776"><ele>82.5</ele><time>2026-04-11T17:03:16.999Z</time></trkpt><trkpt lat="36.84660512856925" lon="14.978337493448647"><ele>80.25</ele><time>2026-04-11T17:03:17.999Z</time></trkpt><trkpt lat="36.846488520993304" lon="14.978346280568726"><ele>78.0</ele><time>2026-04-11T17:03:19Z</time></trkpt><trkpt lat="36.8463714239868" lon="14.978356170780636"><ele>78.0</ele><time>2026-04-11T17:03:20Z</time></trkpt><trkpt lat="36.846259252460484" lon="14.97836995359005"><ele>78.0</ele><time>2026-04-11T17:03:21Z</time></trkpt><trkpt lat="36.84615440851297" lon="14.97838568381567"><ele>78.0</ele><time>2026-04-11T17:03:22Z</time></trkpt><trkpt lat="36.84605536013098" lon="14.978405878147239"><ele>78.0</ele><time>2026-04-11T17:03:23Z</time></trkpt><trkpt lat="36.84596250501982" lon="14.978451036394564"><ele>78.0</ele><time>2026-04-11T17:03:24Z</time></trkpt><trkpt lat="36.8458737057441" lon="14.978510796501833"><ele>77.0</ele><time>2026-04-11T17:03:25Z</time></trkpt><trkpt lat="36.845790278649126" lon="14.978541803946944"><ele>76.0</ele><time>2026-04-11T17:03:26Z</time></trkpt><trkpt lat="36.84570894874426" lon="14.978538710242177"><ele>75.0</ele><time>2026-04-11T17:03:27Z</time></trkpt><trkpt lat="36.84561383929266" lon="14.978510133028252"><ele>74.0</ele><time>2026-04-11T17:03:28Z</time></trkpt><trkpt lat="36.84550020610217" lon="14.978478458344615"><ele>73.0</ele><time>2026-04-11T17:03:29Z</time></trkpt><trkpt lat="36.84536130711297" lon="14.978467068600942"><ele>73.0</ele><time>2026-04-11T17:03:30Z</time></trkpt><trkpt lat="36.845222510573194" lon="14.97848152824737"><ele>73.0</ele><time>2026-04-11T17:03:31Z</time></trkpt><trkpt lat="36.845096564497595" lon="14.97851413220754"><ele>73.0</ele><time>2026-04-11T17:03:32Z</time></trkpt><trkpt lat="36.84497374027257" lon="14.97855403813159"><ele>73.0</ele><time>2026-04-11T17:03:33Z</time></trkpt><trkpt lat="36.844861791984535" lon="14.978587098529161"><ele>71.83333333333333</ele><time>2026-04-11T17:03:34Z</time></trkpt><trkpt lat="36.84476339601145" lon="14.978609407476826"><ele>70.66666666666666</ele><time>2026-04-11T17:03:35Z</time></trkpt><trkpt lat="36.84467341698827" lon="14.978622590597672"><ele>69.5</ele><time>2026-04-11T17:03:36Z</time></trkpt><trkpt lat="36.84459331127833" lon="14.978626994158438"><ele>68.33333333333333</ele><time>2026-04-11T17:03:37Z</time></trkpt><trkpt lat="36.844517942436205" lon="14.978627764937288"><ele>67.16666666666667</ele><time>2026-04-11T17:03:38Z</time></trkpt><trkpt lat="36.844437337842784" lon="14.97863502769497"><ele>66.0</ele><time>2026-04-11T17:03:39Z</time></trkpt><trkpt lat="36.84435415485846" lon="14.978648011372437"><ele>65.75</ele><time>2026-04-11T17:03:40Z</time></trkpt><trkpt lat="36.84424970340896" lon="14.978677183656039"><ele>65.5</ele><time>2026-04-11T17:03:41Z</time></trkpt><trkpt lat="36.84412426472583" lon="14.978710517629347"><ele>65.25</ele><time>2026-04-11T17:03:42Z</time></trkpt><trkpt lat="36.84399744324014" lon="14.978755255211938"><ele>65.0</ele><time>2026-04-11T17:03:43Z</time></trkpt><trkpt lat="36.84389465212395" lon="14.978801518322852"><ele>65.0</ele><time>2026-04-11T17:03:44Z</time></trkpt><trkpt lat="36.84380691150203" lon="14.97884535434557"><ele>65.0</ele><time>2026-04-11T17:03:45Z</time></trkpt><trkpt lat="36.84372221250974" lon="14.978889642961507"><ele>65.0</ele><time>2026-04-11T17:03:46Z</time></trkpt><trkpt lat="36.843616766411465" lon="14.978926959977965"><ele>65.0</ele><time>2026-04-11T17:03:47Z</time></trkpt><trkpt lat="36.84350652395374" lon="14.978970363393966"><ele>65.0</ele><time>2026-04-11T17:03:48Z</time></trkpt><trkpt lat="36.84338895179613" lon="14.979018166023623"><ele>65.0</ele><time>2026-04-11T17:03:49Z</time></trkpt><trkpt lat="36.84325952895587" lon="14.979062633045896"><ele>65.0</ele><time>2026-04-11T17:03:50Z</time></trkpt><trkpt lat="36.84313109824967" lon="14.979096545762829"><ele>65.0</ele><time>2026-04-11T17:03:51Z</time></trkpt><trkpt lat="36.842996189006065" lon="14.979081557379342"><ele>65.0</ele><time>2026-04-11T17:03:52Z</time></trkpt><trkpt lat="36.842864939361625" lon="14.979086461254466"><ele>65.0</ele><time>2026-04-11T17:03:53Z</time></trkpt><trkpt lat="36.8427329897567" lon="14.979072751961425"><ele>65.0</ele><time>2026-04-11T17:03:54Z</time></trkpt><trkpt lat="36.84261107539863" lon="14.9790574096235"><ele>65.0</ele><time>2026-04-11T17:03:55Z</time></trkpt><trkpt lat="36.84249991808074" lon="14.979043421006097"><ele>65.0</ele><time>2026-04-11T17:03:56Z</time></trkpt><trkpt lat="36.84238438557169" lon="14.979026041271075"><ele>65.25</ele><time>2026-04-11T17:03:57Z</time></trkpt><trkpt lat="36.84225990078936" lon="14.979033316360137"><ele>65.5</ele><time>2026-04-11T17:03:58Z</time></trkpt><trkpt lat="36.842143731684445" lon="14.979023801627388"><ele>65.75</ele><time>2026-04-11T17:03:59Z</time></trkpt><trkpt lat="36.8420286651092" lon="14.979025452190642"><ele>66.0</ele><time>2026-04-11T17:04:00Z</time></trkpt><trkpt lat="36.841910295672804" lon="14.979009491880959"><ele>66.25</ele><time>2026-04-11T17:04:01Z</time></trkpt><trkpt lat="36.84179231671215" lon="14.97902034948696"><ele>66.5</ele><time>2026-04-11T17:04:02Z</time></trkpt><trkpt lat="36.841672302759626" lon="14.979034923007909"><ele>66.75</ele><time>2026-04-11T17:04:03Z</time></trkpt><trkpt lat="36.84154382808254" lon="14.979058308251076"><ele>67.0</ele><time>2026-04-11T17:04:04Z</time></trkpt><trkpt lat="36.841412267758606" lon="14.979087483467033"><ele>67.0</ele><time>2026-04-11T17:04:05Z</time></trkpt><trkpt lat="36.84127966291418" lon="14.979123824139341"><ele>67.0</ele><time>2026-04-11T17:04:06Z</time></trkpt><trkpt lat="36.841155009987574" lon="14.97918367104033"><ele>67.0</ele><time>2026-04-11T17:04:07Z</time></trkpt><trkpt lat="36.84103546566916" lon="14.979221561237122"><ele>67.0</ele><time>2026-04-11T17:04:08Z</time></trkpt><trkpt lat="36.84091760490671" lon="14.979258526800878"><ele>65.25</ele><time>2026-04-11T17:04:09Z</time></trkpt><trkpt lat="36.84080323873472" lon="14.979277191939762"><ele>63.5</ele><time>2026-04-11T17:04:10Z</time></trkpt><trkpt lat="36.840695617034996" lon="14.97931331703689"><ele>61.75</ele><time>2026-04-11T17:04:11Z</time></trkpt><trkpt lat="36.84059056301361" lon="14.979371087270266"><ele>60.0</ele><time>2026-04-11T17:04:12Z</time></trkpt><trkpt lat="36.840484254702254" lon="14.979450153426574"><ele>60.0</ele><time>2026-04-11T17:04:13Z</time></trkpt><trkpt lat="36.840368603621926" lon="14.979536542511859"><ele>60.0</ele><time>2026-04-11T17:04:14Z</time></trkpt><trkpt lat="36.840255074517835" lon="14.97962847277917"><ele>60.0</ele><time>2026-04-11T17:04:15Z</time></trkpt><trkpt lat="36.84015083335865" lon="14.97972045077499"><ele>60.0</ele><time>2026-04-11T17:04:16Z</time></trkpt><trkpt lat="36.84005315636349" lon="14.979799266288508"><ele>59.8</ele><time>2026-04-11T17:04:17Z</time></trkpt><trkpt lat="36.83996676646511" lon="14.979867507987718"><ele>59.6</ele><time>2026-04-11T17:04:18Z</time></trkpt><trkpt lat="36.839893928055524" lon="14.979920351572709"><ele>59.400000000000006</ele><time>2026-04-11T17:04:19Z</time></trkpt><trkpt lat="36.83980972542739" lon="14.979929156181685"><ele>59.2</ele><time>2026-04-11T17:04:20Z</time></trkpt><trkpt lat="36.83971476684347" lon="14.979873576624215"><ele>59.0</ele><time>2026-04-11T17:04:21Z</time></trkpt><trkpt lat="36.83960484537928" lon="14.979825742026094"><ele>59.0</ele><time>2026-04-11T17:04:22Z</time></trkpt><trkpt lat="36.839483842324874" lon="14.979783327965546"><ele>59.0</ele><time>2026-04-11T17:04:23.001Z</time></trkpt><trkpt lat="36.83935423595286" lon="14.979727659100039"><ele>59.0</ele><time>2026-04-11T17:04:24.001Z</time></trkpt><trkpt lat="36.839200618849475" lon="14.979681587720433"><ele>59.0</ele><time>2026-04-11T17:04:25.001Z</time></trkpt><trkpt lat="36.83903370146089" lon="14.979649579515087"><ele>59.0</ele><time>2026-04-11T17:04:26.001Z</time></trkpt><trkpt lat="36.83883898456478" lon="14.979621729336937"><ele>59.0</ele><time>2026-04-11T17:04:27.001Z</time></trkpt><trkpt lat="36.83862316858953" lon="14.979593798538643"><ele>59.0</ele><time>2026-04-11T17:04:28.001Z</time></trkpt><trkpt lat="36.83845019104702" lon="14.979545470802401"><ele>59.0</ele><time>2026-04-11T17:04:29.001Z</time></trkpt><trkpt lat="36.838288269728565" lon="14.979529173554521"><ele>59.0</ele><time>2026-04-11T17:04:30.001Z</time></trkpt><trkpt lat="36.83814151193823" lon="14.979489264647968"><ele>59.0</ele><time>2026-04-11T17:04:31.001Z</time></trkpt><trkpt lat="36.83798331163326" lon="14.979442715662476"><ele>59.0</ele><time>2026-04-11T17:04:32.001Z</time></trkpt><trkpt lat="36.8378267094908" lon="14.979388816189248"><ele>59.0</ele><time>2026-04-11T17:04:33.001Z</time></trkpt><trkpt lat="36.837681679725655" lon="14.979325338099068"><ele>59.0</ele><time>2026-04-11T17:04:34.001Z</time></trkpt><trkpt lat="36.837544177186714" lon="14.979251063514077"><ele>59.0</ele><time>2026-04-11T17:04:35.001Z</time></trkpt><trkpt lat="36.83742510470245" lon="14.979189142863614"><ele>59.0</ele><time>2026-04-11T17:04:36.001Z</time></trkpt><trkpt lat="36.83730765969013" lon="14.979133140177852"><ele>59.0</ele><time>2026-04-11T17:04:37.001Z</time></trkpt><trkpt lat="36.83719820359734" lon="14.97908100856827"><ele>59.0</ele><time>2026-04-11T17:04:38.001Z</time></trkpt><trkpt lat="36.83709431081504" lon="14.979031184315282"><ele>60.0</ele><time>2026-04-11T17:04:39.001Z</time></trkpt><trkpt lat="36.83699814656908" lon="14.978968126349548"><ele>61.0</ele><time>2026-04-11T17:04:40.001Z</time></trkpt><trkpt lat="36.83689996012216" lon="14.978887557520558"><ele>62.0</ele><time>2026-04-11T17:04:41.001Z</time></trkpt><trkpt lat="36.83680593244689" lon="14.978791788314151"><ele>63.0</ele><time>2026-04-11T17:04:42.001Z</time></trkpt><trkpt lat="36.836711740477284" lon="14.978694997635849"><ele>63.0</ele><time>2026-04-11T17:04:43.001Z</time></trkpt><trkpt lat="36.83662250034777" lon="14.978605412683972"><ele>63.0</ele><time>2026-04-11T17:04:44.001Z</time></trkpt><trkpt lat="36.83653929781526" lon="14.978523173589977"><ele>63.0</ele><time>2026-04-11T17:04:45.001Z</time></trkpt><trkpt lat="36.83646338220761" lon="14.978443673594866"><ele>63.0</ele><time>2026-04-11T17:04:46.001Z</time></trkpt><trkpt lat="36.8363974123575" lon="14.978377661858698"><ele>63.0</ele><time>2026-04-11T17:04:47.001Z</time></trkpt><trkpt lat="36.836332076165476" lon="14.97831245711106"><ele>62.599999999999994</ele><time>2026-04-11T17:04:49.001Z</time></trkpt><trkpt lat="36.83626491654602" lon="14.978261828147955"><ele>62.199999999999996</ele><time>2026-04-11T17:04:51.001Z</time></trkpt><trkpt lat="36.836158842713424" lon="14.97818987801156"><ele>61.8</ele><time>2026-04-11T17:04:52.001Z</time></trkpt><trkpt lat="36.83606196794386" lon="14.978117299349952"><ele>61.4</ele><time>2026-04-11T17:04:53.001Z</time></trkpt><trkpt lat="36.83597688877579" lon="14.97805031926807"><ele>61.0</ele><time>2026-04-11T17:04:54.001Z</time></trkpt><trkpt lat="36.83588854765674" lon="14.977981857127395"><ele>61.0</ele><time>2026-04-11T17:04:55.001Z</time></trkpt><trkpt lat="36.83579933827827" lon="14.977907715635615"><ele>60.99999999999999</ele><time>2026-04-11T17:04:56.001Z</time></trkpt><trkpt lat="36.83571538488697" lon="14.977834476571244"><ele>60.99999999999999</ele><time>2026-04-11T17:04:57.001Z</time></trkpt><trkpt lat="36.835636489611026" lon="14.977787843193253"><ele>61.0</ele><time>2026-04-11T17:04:58.001Z</time></trkpt><trkpt lat="36.83554124387348" lon="14.977760362478993"><ele>61.0</ele><time>2026-04-11T17:04:59.001Z</time></trkpt><trkpt lat="36.835439287623196" lon="14.977735429125884"><ele>61.0</ele><time>2026-04-11T17:05:00.001Z</time></trkpt><trkpt lat="36.83535845644099" lon="14.977687478915888"><ele>60.99999999999999</ele><time>2026-04-11T17:05:01.001Z</time></trkpt><trkpt lat="36.83528019209948" lon="14.977608143615496"><ele>60.99999999999999</ele><time>2026-04-11T17:05:02.001Z</time></trkpt><trkpt lat="36.83518854152513" lon="14.977500464144553"><ele>61.0</ele><time>2026-04-11T17:05:03.001Z</time></trkpt><trkpt lat="36.83509340150675" lon="14.977399350711547"><ele>61.0</ele><time>2026-04-11T17:05:04.001Z</time></trkpt><trkpt lat="36.83498745475603" lon="14.977299545241967"><ele>62.25</ele><time>2026-04-11T17:05:05.001Z</time></trkpt><trkpt lat="36.834880787511075" lon="14.977228638185927"><ele>63.5</ele><time>2026-04-11T17:05:06.001Z</time></trkpt><trkpt lat="36.834748294437354" lon="14.977165429424325"><ele>64.75</ele><time>2026-04-11T17:05:07.001Z</time></trkpt><trkpt lat="36.83459212722568" lon="14.97710223667159"><ele>66.0</ele><time>2026-04-11T17:05:08.001Z</time></trkpt><trkpt lat="36.83442321341938" lon="14.97703868999666"><ele>66.5</ele><time>2026-04-11T17:05:09.001Z</time></trkpt><trkpt lat="36.83426892991035" lon="14.976981171735506"><ele>67.0</ele><time>2026-04-11T17:05:10.001Z</time></trkpt><trkpt lat="36.83414509795904" lon="14.976922851011846"><ele>67.5</ele><time>2026-04-11T17:05:10.999Z</time></trkpt><trkpt lat="36.83403424220426" lon="14.976861645091722"><ele>68.0</ele><time>2026-04-11T17:05:11.999Z</time></trkpt><trkpt lat="36.83393491182838" lon="14.976791933917854"><ele>68.0</ele><time>2026-04-11T17:05:12.999Z</time></trkpt><trkpt lat="36.83383603812144" lon="14.976699240924235"><ele>68.0</ele><time>2026-04-11T17:05:13.999Z</time></trkpt><trkpt lat="36.83374694813927" lon="14.976596987831243"><ele>68.0</ele><time>2026-04-11T17:05:14.999Z</time></trkpt><trkpt lat="36.8336554447733" lon="14.976475125923931"><ele>68.0</ele><time>2026-04-11T17:05:16Z</time></trkpt><trkpt lat="36.83357294655436" lon="14.976357395375297"><ele>68.6</ele><time>2026-04-11T17:05:17Z</time></trkpt><trkpt lat="36.833496874749024" lon="14.97624991018758"><ele>69.19999999999999</ele><time>2026-04-11T17:05:18Z</time></trkpt><trkpt lat="36.833425123154534" lon="14.976146737501985"><ele>69.8</ele><time>2026-04-11T17:05:19Z</time></trkpt><trkpt lat="36.83335984945939" lon="14.976054100348684"><ele>70.39999999999999</ele><time>2026-04-11T17:05:20Z</time></trkpt><trkpt lat="36.83329995534535" lon="14.975972039380208"><ele>71.0</ele><time>2026-04-11T17:05:21Z</time></trkpt><trkpt lat="36.833245692150605" lon="14.975896474412986"><ele>71.5</ele><time>2026-04-11T17:05:22Z</time></trkpt><trkpt lat="36.83321122870813" lon="14.97581487021803"><ele>72.0</ele><time>2026-04-11T17:05:23Z</time></trkpt><trkpt lat="36.83319661345183" lon="14.975732985291053"><ele>72.5</ele><time>2026-04-11T17:05:24Z</time></trkpt><trkpt lat="36.83318168414672" lon="14.975656452260067"><ele>73.0</ele><time>2026-04-11T17:05:25Z</time></trkpt><trkpt lat="36.833131075887565" lon="14.975537099246305"><ele>73.5</ele><time>2026-04-11T17:05:27Z</time></trkpt><trkpt lat="36.83305084682884" lon="14.975400877251099"><ele>74.0</ele><time>2026-04-11T17:05:29Z</time></trkpt><trkpt lat="36.83300265122928" lon="14.975326275138674"><ele>74.0</ele><time>2026-04-11T17:05:30Z</time></trkpt><trkpt lat="36.832949361432696" lon="14.975242553169004"><ele>74.0</ele><time>2026-04-11T17:05:31Z</time></trkpt><trkpt lat="36.832899433846556" lon="14.975162616406937"><ele>74.0</ele><time>2026-04-11T17:05:32Z</time></trkpt><trkpt lat="36.8328480242828" lon="14.975087952746158"><ele>74.0</ele><time>2026-04-11T17:05:33Z</time></trkpt><trkpt lat="36.8327938447874" lon="14.975023878444045"><ele>74.0</ele><time>2026-04-11T17:05:34Z</time></trkpt><trkpt lat="36.832740957830815" lon="14.97496551170512"><ele>74.0</ele><time>2026-04-11T17:05:35Z</time></trkpt><trkpt lat="36.83269053446281" lon="14.974901127580582"><ele>74.16666666666667</ele><time>2026-04-11T17:05:36Z</time></trkpt><trkpt lat="36.832643737687455" lon="14.974834789659862"><ele>74.33333333333334</ele><time>2026-04-11T17:05:37Z</time></trkpt><trkpt lat="36.83259650461686" lon="14.974767220795192"><ele>74.5</ele><time>2026-04-11T17:05:38Z</time></trkpt><trkpt lat="36.83254809205232" lon="14.974703359277374"><ele>74.66666666666667</ele><time>2026-04-11T17:05:39Z</time></trkpt><trkpt lat="36.83249246010701" lon="14.974650866870636"><ele>74.83333333333333</ele><time>2026-04-11T17:05:40Z</time></trkpt><trkpt lat="36.83242990731875" lon="14.974606590769199"><ele>75.0</ele><time>2026-04-11T17:05:41Z</time></trkpt><trkpt lat="36.83232208010558" lon="14.97455994433461"><ele>74.2</ele><time>2026-04-11T17:05:43Z</time></trkpt><trkpt lat="36.83223495494714" lon="14.974547381101202"><ele>73.4</ele><time>2026-04-11T17:05:45Z</time></trkpt><trkpt lat="36.832157503898294" lon="14.974586235780992"><ele>72.6</ele><time>2026-04-11T17:05:48Z</time></trkpt><trkpt lat="36.83209327014475" lon="14.974551223080763"><ele>71.8</ele><time>2026-04-11T17:05:50Z</time></trkpt><trkpt lat="36.831980794123766" lon="14.974429108756768"><ele>71.0</ele><time>2026-04-11T17:05:52Z</time></trkpt><trkpt lat="36.83189469891631" lon="14.974335020178497"><ele>71.0</ele><time>2026-04-11T17:05:53Z</time></trkpt><trkpt lat="36.831787021714575" lon="14.974237538177645"><ele>71.0</ele><time>2026-04-11T17:05:54Z</time></trkpt><trkpt lat="36.83163841134092" lon="14.974132819910182"><ele>71.0</ele><time>2026-04-11T17:05:55Z</time></trkpt><trkpt lat="36.83146102465043" lon="14.974015582544482"><ele>72.0</ele><time>2026-04-11T17:05:56Z</time></trkpt><trkpt lat="36.83128375936312" lon="14.973908572131396"><ele>73.0</ele><time>2026-04-11T17:05:57Z</time></trkpt><trkpt lat="36.83114923558567" lon="14.973828320818697"><ele>74.0</ele><time>2026-04-11T17:05:58Z</time></trkpt><trkpt lat="36.83104237657466" lon="14.973768256179381"><ele>73.5</ele><time>2026-04-11T17:05:59Z</time></trkpt><trkpt lat="36.83093607667468" lon="14.973709587572298"><ele>73.0</ele><time>2026-04-11T17:06:00Z</time></trkpt><trkpt lat="36.830829967926746" lon="14.97364638534362"><ele>72.5</ele><time>2026-04-11T17:06:01Z</time></trkpt><trkpt lat="36.8307311223282" lon="14.973575970986248"><ele>72.0</ele><time>2026-04-11T17:06:02Z</time></trkpt><trkpt lat="36.83062695131299" lon="14.97350876684457"><ele>72.0</ele><time>2026-04-11T17:06:03Z</time></trkpt><trkpt lat="36.83051595987501" lon="14.97344099518275"><ele>72.0</ele><time>2026-04-11T17:06:04Z</time></trkpt><trkpt lat="36.830392415916855" lon="14.973373810677083"><ele>72.0</ele><time>2026-04-11T17:06:05Z</time></trkpt><trkpt lat="36.830271818403276" lon="14.973301582644073"><ele>72.0</ele><time>2026-04-11T17:06:06Z</time></trkpt><trkpt lat="36.83015981465064" lon="14.973244439889175"><ele>72.8</ele><time>2026-04-11T17:06:07Z</time></trkpt><trkpt lat="36.830063513206646" lon="14.973199832332945"><ele>73.6</ele><time>2026-04-11T17:06:08Z</time></trkpt><trkpt lat="36.829974381918845" lon="14.973164973479914"><ele>74.39999999999999</ele><time>2026-04-11T17:06:09Z</time></trkpt><trkpt lat="36.82990369221848" lon="14.973134205044397"><ele>75.2</ele><time>2026-04-11T17:06:10Z</time></trkpt><trkpt lat="36.82983003435472" lon="14.973099346529409"><ele>76.0</ele><time>2026-04-11T17:06:12Z</time></trkpt><trkpt lat="36.829725644932935" lon="14.973038738443053"><ele>76.0</ele><time>2026-04-11T17:06:43.001Z</time></trkpt><trkpt lat="36.82967410076553" lon="14.972956416912048"><ele>76.0</ele><time>2026-04-11T17:06:44.001Z</time></trkpt><trkpt lat="36.829599126247686" lon="14.972836947709954"><ele>76.0</ele><time>2026-04-11T17:06:45.001Z</time></trkpt><trkpt lat="36.82951384572171" lon="14.972698859053292"><ele>76.0</ele><time>2026-04-11T17:06:46.001Z</time></trkpt><trkpt lat="36.82942036443966" lon="14.972548482677327"><ele>77.33333333333333</ele><time>2026-04-11T17:06:47.001Z</time></trkpt><trkpt lat="36.82932220414574" lon="14.972381430874202"><ele>78.66666666666667</ele><time>2026-04-11T17:06:48.001Z</time></trkpt><trkpt lat="36.82922252947533" lon="14.972198330327027"><ele>80.0</ele><time>2026-04-11T17:06:49.001Z</time></trkpt><trkpt lat="36.829124063654454" lon="14.972015854820349"><ele>80.0</ele><time>2026-04-11T17:06:50.001Z</time></trkpt><trkpt lat="36.82902341589129" lon="14.971828534442304"><ele>80.0</ele><time>2026-04-11T17:06:51.001Z</time></trkpt><trkpt lat="36.828920555316365" lon="14.971627790988984"><ele>80.0</ele><time>2026-04-11T17:06:52.001Z</time></trkpt><trkpt lat="36.82881905913978" lon="14.971426453530006"><ele>81.66666666666667</ele><time>2026-04-11T17:06:53.001Z</time></trkpt><trkpt lat="36.82871504723484" lon="14.97121726247901"><ele>83.33333333333333</ele><time>2026-04-11T17:06:54.001Z</time></trkpt><trkpt lat="36.828605761510794" lon="14.971004059111968"><ele>85.0</ele><time>2026-04-11T17:06:55.001Z</time></trkpt><trkpt lat="36.82849462927202" lon="14.970794240123954"><ele>86.0</ele><time>2026-04-11T17:06:56.001Z</time></trkpt><trkpt lat="36.82838106994273" lon="14.970579697170532"><ele>87.0</ele><time>2026-04-11T17:06:57.001Z</time></trkpt><trkpt lat="36.82826506106229" lon="14.97036506903961"><ele>88.0</ele><time>2026-04-11T17:06:58.001Z</time></trkpt><trkpt lat="36.828157616075906" lon="14.970152263840271"><ele>89.0</ele><time>2026-04-11T17:06:59.001Z</time></trkpt><trkpt lat="36.82804042832197" lon="14.969945195450663"><ele>90.0</ele><time>2026-04-11T17:07:00.001Z</time></trkpt><trkpt lat="36.827929765747136" lon="14.969725632424993"><ele>91.0</ele><time>2026-04-11T17:07:01.001Z</time></trkpt><trkpt lat="36.82781430533577" lon="14.96950679774546"><ele>91.0</ele><time>2026-04-11T17:07:02.001Z</time></trkpt><trkpt lat="36.827699675198815" lon="14.969281418879667"><ele>91.0</ele><time>2026-04-11T17:07:03.001Z</time></trkpt><trkpt lat="36.82758037635178" lon="14.969061105222911"><ele>91.0</ele><time>2026-04-11T17:07:04.001Z</time></trkpt><trkpt lat="36.82745904740969" lon="14.968834113215058"><ele>91.0</ele><time>2026-04-11T17:07:05.001Z</time></trkpt><trkpt lat="36.827334447144246" lon="14.968603891364124"><ele>91.0</ele><time>2026-04-11T17:07:06.001Z</time></trkpt><trkpt lat="36.82721474862791" lon="14.968385561220414"><ele>91.0</ele><time>2026-04-11T17:07:07.001Z</time></trkpt><trkpt lat="36.82709815165178" lon="14.968167768740564"><ele>92.66666666666666</ele><time>2026-04-11T17:07:08.001Z</time></trkpt><trkpt lat="36.826996714421554" lon="14.967966704945072"><ele>94.33333333333333</ele><time>2026-04-11T17:07:09.001Z</time></trkpt><trkpt lat="36.826906132511255" lon="14.967784550785755"><ele>96.0</ele><time>2026-04-11T17:07:10.001Z</time></trkpt><trkpt lat="36.82682284733761" lon="14.967616884139899"><ele>97.0</ele><time>2026-04-11T17:07:11.001Z</time></trkpt><trkpt lat="36.82674458785044" lon="14.967461110172595"><ele>98.0</ele><time>2026-04-11T17:07:12.001Z</time></trkpt><trkpt lat="36.826662301762155" lon="14.967308442803317"><ele>99.0</ele><time>2026-04-11T17:07:13.001Z</time></trkpt><trkpt lat="36.826581137915035" lon="14.967151189079384"><ele>100.0</ele><time>2026-04-11T17:07:14.001Z</time></trkpt><trkpt lat="36.82650412601933" lon="14.967002417087885"><ele>100.0</ele><time>2026-04-11T17:07:15.001Z</time></trkpt><trkpt lat="36.826428541936714" lon="14.966857850536414"><ele>100.0</ele><time>2026-04-11T17:07:16.001Z</time></trkpt><trkpt lat="36.82635271234815" lon="14.966716915236722"><ele>100.0</ele><time>2026-04-11T17:07:16.999Z</time></trkpt><trkpt lat="36.826275524243925" lon="14.966574207751599"><ele>100.0</ele><time>2026-04-11T17:07:17.999Z</time></trkpt><trkpt lat="36.82620423339266" lon="14.966436194653701"><ele>100.2</ele><time>2026-04-11T17:07:18.999Z</time></trkpt><trkpt lat="36.826145268248005" lon="14.966314157485165"><ele>100.4</ele><time>2026-04-11T17:07:19.999Z</time></trkpt><trkpt lat="36.82609716778845" lon="14.966222166538017"><ele>100.6</ele><time>2026-04-11T17:07:20.999Z</time></trkpt><trkpt lat="36.826057921251305" lon="14.966147944694965"><ele>100.8</ele><time>2026-04-11T17:07:22Z</time></trkpt><trkpt lat="36.82599176058844" lon="14.96603578243258"><ele>101.0</ele><time>2026-04-11T17:07:24Z</time></trkpt><trkpt lat="36.8259290109021" lon="14.96593714950092"><ele>101.19999999999999</ele><time>2026-04-11T17:07:26Z</time></trkpt><trkpt lat="36.82588127077006" lon="14.965846669924549"><ele>101.39999999999999</ele><time>2026-04-11T17:07:28Z</time></trkpt><trkpt lat="36.82581299024703" lon="14.965710019892537"><ele>101.6</ele><time>2026-04-11T17:07:30Z</time></trkpt><trkpt lat="36.82576618088394" lon="14.965621027649403"><ele>101.8</ele><time>2026-04-11T17:07:31Z</time></trkpt><trkpt lat="36.82571127210163" lon="14.965515047340354"><ele>102.0</ele><time>2026-04-11T17:07:32Z</time></trkpt><trkpt lat="36.82565911210079" lon="14.965413005113142"><ele>102.0</ele><time>2026-04-11T17:07:33Z</time></trkpt><trkpt lat="36.825602651665164" lon="14.965302260631145"><ele>102.0</ele><time>2026-04-11T17:07:34Z</time></trkpt><trkpt lat="36.82553822788394" lon="14.96517653618476"><ele>102.0</ele><time>2026-04-11T17:07:35Z</time></trkpt><trkpt lat="36.82547141239214" lon="14.965048449192256"><ele>102.0</ele><time>2026-04-11T17:07:36Z</time></trkpt><trkpt lat="36.825409277250195" lon="14.964926797793586"><ele>102.16666666666667</ele><time>2026-04-11T17:07:37Z</time></trkpt><trkpt lat="36.82535808039543" lon="14.964816003445973"><ele>102.33333333333334</ele><time>2026-04-11T17:07:38Z</time></trkpt><trkpt lat="36.82530902153297" lon="14.964721203561796"><ele>102.5</ele><time>2026-04-11T17:07:39Z</time></trkpt><trkpt lat="36.825261873414725" lon="14.964634977066419"><ele>102.66666666666667</ele><time>2026-04-11T17:07:40Z</time></trkpt><trkpt lat="36.82522187784259" lon="14.964553262531771"><ele>102.83333333333334</ele><time>2026-04-11T17:07:41Z</time></trkpt><trkpt lat="36.825173774025274" lon="14.964451561745204"><ele>103.0</ele><time>2026-04-11T17:07:42Z</time></trkpt><trkpt lat="36.82510306748405" lon="14.96432669259885"><ele>103.2</ele><time>2026-04-11T17:07:43Z</time></trkpt><trkpt lat="36.82503048775843" lon="14.964188183108753"><ele>103.4</ele><time>2026-04-11T17:07:44Z</time></trkpt><trkpt lat="36.824969026493434" lon="14.964076326505396"><ele>103.60000000000001</ele><time>2026-04-11T17:07:45Z</time></trkpt><trkpt lat="36.824913780329844" lon="14.963969899266159"><ele>103.80000000000001</ele><time>2026-04-11T17:07:46Z</time></trkpt><trkpt lat="36.82486288493671" lon="14.963873385378124"><ele>104.0</ele><time>2026-04-11T17:07:47Z</time></trkpt><trkpt lat="36.82482051868894" lon="14.963791637938261"><ele>103.99999999999999</ele><time>2026-04-11T17:07:48Z</time></trkpt><trkpt lat="36.82478577131369" lon="14.963723492051242"><ele>104.0</ele><time>2026-04-11T17:07:49Z</time></trkpt><trkpt lat="36.82472500627171" lon="14.96360331306329"><ele>104.0</ele><time>2026-04-11T17:07:51Z</time></trkpt><trkpt lat="36.82467368041895" lon="14.963499911948242"><ele>104.0</ele><time>2026-04-11T17:07:53Z</time></trkpt><trkpt lat="36.82462786463996" lon="14.963398672197052"><ele>103.99999999999999</ele><time>2026-04-11T17:07:55Z</time></trkpt><trkpt lat="36.82460461660192" lon="14.963318882945723"><ele>104.0</ele><time>2026-04-11T17:07:57Z</time></trkpt><trkpt lat="36.824608749107576" lon="14.96322643082587"><ele>104.66666666666666</ele><time>2026-04-11T17:08:04Z</time></trkpt><trkpt lat="36.824626424634125" lon="14.963088421114712"><ele>105.33333333333333</ele><time>2026-04-11T17:08:06Z</time></trkpt><trkpt lat="36.8246129306359" lon="14.963008055621176"><ele>106.0</ele><time>2026-04-11T17:08:07Z</time></trkpt><trkpt lat="36.824694612671564" lon="14.962949662058406"><ele>106.66666666666666</ele><time>2026-04-11T17:08:08Z</time></trkpt><trkpt lat="36.82474940897917" lon="14.96287925512587"><ele>107.33333333333333</ele><time>2026-04-11T17:08:09Z</time></trkpt><trkpt lat="36.82482124494807" lon="14.962801307458491"><ele>108.0</ele><time>2026-04-11T17:08:10Z</time></trkpt><trkpt lat="36.82489952105706" lon="14.962715984809902"><ele>108.0</ele><time>2026-04-11T17:08:11Z</time></trkpt><trkpt lat="36.82499124830953" lon="14.962616092123055"><ele>108.0</ele><time>2026-04-11T17:08:12Z</time></trkpt><trkpt lat="36.82508631792339" lon="14.962520693662693"><ele>108.0</ele><time>2026-04-11T17:08:13Z</time></trkpt><trkpt lat="36.82519195832261" lon="14.962415200644083"><ele>108.0</ele><time>2026-04-11T17:08:14Z</time></trkpt><trkpt lat="36.82529876289861" lon="14.962309071379996"><ele>110.0</ele><time>2026-04-11T17:08:15Z</time></trkpt><trkpt lat="36.82541821712253" lon="14.962199602692369"><ele>112.0</ele><time>2026-04-11T17:08:16Z</time></trkpt><trkpt lat="36.82554345463558" lon="14.962083045971337"><ele>114.0</ele><time>2026-04-11T17:08:17Z</time></trkpt><trkpt lat="36.825670042039725" lon="14.961958207760981"><ele>114.0</ele><time>2026-04-11T17:08:18Z</time></trkpt><trkpt lat="36.82580479793285" lon="14.961828261498523"><ele>114.0</ele><time>2026-04-11T17:08:19Z</time></trkpt><trkpt lat="36.825948473158626" lon="14.96170058385531"><ele>114.0</ele><time>2026-04-11T17:08:20Z</time></trkpt><trkpt lat="36.82609189268686" lon="14.961574169336723"><ele>117.33333333333334</ele><time>2026-04-11T17:08:21Z</time></trkpt><trkpt lat="36.82622435841035" lon="14.961443474590505"><ele>120.66666666666667</ele><time>2026-04-11T17:08:22Z</time></trkpt><trkpt lat="36.82635105105208" lon="14.961314935770629"><ele>124.0</ele><time>2026-04-11T17:08:23.001Z</time></trkpt><trkpt lat="36.82647196515584" lon="14.9611887864205"><ele>124.0</ele><time>2026-04-11T17:08:24.001Z</time></trkpt><trkpt lat="36.82657391024525" lon="14.961065596258177"><ele>124.0</ele><time>2026-04-11T17:08:25.001Z</time></trkpt><trkpt lat="36.826651425513695" lon="14.96093454482122"><ele>124.0</ele><time>2026-04-11T17:08:26.001Z</time></trkpt><trkpt lat="36.8267133582401" lon="14.960798686887317"><ele>124.0</ele><time>2026-04-11T17:08:27.001Z</time></trkpt><trkpt lat="36.826765272534196" lon="14.960673023281677"><ele>126.6</ele><time>2026-04-11T17:08:28.001Z</time></trkpt><trkpt lat="36.82681565493928" lon="14.960554379239767"><ele>129.2</ele><time>2026-04-11T17:08:29.001Z</time></trkpt><trkpt lat="36.82685701655827" lon="14.960436457717691"><ele>131.79999999999998</ele><time>2026-04-11T17:08:30.001Z</time></trkpt><trkpt lat="36.82689529821231" lon="14.960323825653017"><ele>134.4</ele><time>2026-04-11T17:08:31.001Z</time></trkpt><trkpt lat="36.82693152205941" lon="14.960219801024314"><ele>137.0</ele><time>2026-04-11T17:08:32.001Z</time></trkpt><trkpt lat="36.826967977849776" lon="14.96011759881038"><ele>137.2</ele><time>2026-04-11T17:08:33.001Z</time></trkpt><trkpt lat="36.82700431510417" lon="14.96000411870494"><ele>137.39999999999998</ele><time>2026-04-11T17:08:34.001Z</time></trkpt><trkpt lat="36.82705088237243" lon="14.959871804137792"><ele>137.60000000000002</ele><time>2026-04-11T17:08:35.001Z</time></trkpt><trkpt lat="36.827111731331534" lon="14.95974082468908"><ele>137.8</ele><time>2026-04-11T17:08:36.001Z</time></trkpt><trkpt lat="36.82717219954856" lon="14.959619599141734"><ele>138.0</ele><time>2026-04-11T17:08:37.001Z</time></trkpt><trkpt lat="36.82722397479537" lon="14.959488140298035"><ele>138.0</ele><time>2026-04-11T17:08:38.001Z</time></trkpt><trkpt lat="36.82727616257239" lon="14.959358790478268"><ele>138.0</ele><time>2026-04-11T17:08:39.001Z</time></trkpt><trkpt lat="36.827333330483306" lon="14.959224770522082"><ele>138.0</ele><time>2026-04-11T17:08:40.001Z</time></trkpt><trkpt lat="36.82737536955764" lon="14.959086012728182"><ele>138.0</ele><time>2026-04-11T17:08:41.001Z</time></trkpt><trkpt lat="36.827413064830544" lon="14.958954537060487"><ele>138.4</ele><time>2026-04-11T17:08:42.001Z</time></trkpt><trkpt lat="36.827454177163304" lon="14.958828581433554"><ele>138.8</ele><time>2026-04-11T17:08:43.001Z</time></trkpt><trkpt lat="36.827499181647575" lon="14.95870263176205"><ele>139.2</ele><time>2026-04-11T17:08:44.001Z</time></trkpt><trkpt lat="36.82754946079707" lon="14.958578639008408"><ele>139.6</ele><time>2026-04-11T17:08:45.001Z</time></trkpt><trkpt lat="36.82759476542507" lon="14.958447042553114"><ele>140.0</ele><time>2026-04-11T17:08:46.001Z</time></trkpt><trkpt lat="36.82764378140723" lon="14.958321033588165"><ele>141.2</ele><time>2026-04-11T17:08:47.001Z</time></trkpt><trkpt lat="36.82769112093513" lon="14.95818887556459"><ele>142.4</ele><time>2026-04-11T17:08:48.001Z</time></trkpt><trkpt lat="36.827732608580135" lon="14.958057316447395"><ele>143.6</ele><time>2026-04-11T17:08:49.001Z</time></trkpt><trkpt lat="36.827770286620385" lon="14.95794453094621"><ele>144.8</ele><time>2026-04-11T17:08:50.001Z</time></trkpt><trkpt lat="36.82780933628542" lon="14.957851235118364"><ele>146.0</ele><time>2026-04-11T17:08:51.001Z</time></trkpt><trkpt lat="36.827843988264426" lon="14.957770018311017"><ele>146.0</ele><time>2026-04-11T17:08:52.001Z</time></trkpt><trkpt lat="36.827876891762585" lon="14.957698437330961"><ele>146.0</ele><time>2026-04-11T17:08:53.001Z</time></trkpt><trkpt lat="36.82791671062411" lon="14.957570533535044"><ele>146.0</ele><time>2026-04-11T17:08:55.001Z</time></trkpt><trkpt lat="36.82795594874922" lon="14.957450593174194"><ele>146.0</ele><time>2026-04-11T17:08:57.001Z</time></trkpt><trkpt lat="36.82799550084674" lon="14.957311722521546"><ele>146.0</ele><time>2026-04-11T17:08:59.001Z</time></trkpt><trkpt lat="36.82801456525176" lon="14.957169317125375"><ele>145.8</ele><time>2026-04-11T17:09:01.001Z</time></trkpt><trkpt lat="36.828012773969824" lon="14.957076703420904"><ele>145.6</ele><time>2026-04-11T17:09:02.001Z</time></trkpt><trkpt lat="36.82800038538454" lon="14.956953941902226"><ele>145.4</ele><time>2026-04-11T17:09:03.001Z</time></trkpt><trkpt lat="36.827992585412304" lon="14.956811137053727"><ele>145.2</ele><time>2026-04-11T17:09:04.001Z</time></trkpt><trkpt lat="36.82797800127736" lon="14.956650522113259"><ele>145.0</ele><time>2026-04-11T17:09:05.001Z</time></trkpt><trkpt lat="36.8279637348783" lon="14.956505881301835"><ele>145.0</ele><time>2026-04-11T17:09:06.001Z</time></trkpt><trkpt lat="36.827939592751385" lon="14.956357212612089"><ele>145.0</ele><time>2026-04-11T17:09:07.001Z</time></trkpt><trkpt lat="36.82791624553293" lon="14.956194782134437"><ele>145.0</ele><time>2026-04-11T17:09:08.001Z</time></trkpt><trkpt lat="36.82789224156453" lon="14.95603322759064"><ele>145.0</ele><time>2026-04-11T17:09:09.001Z</time></trkpt><trkpt lat="36.82786752008299" lon="14.955879659691012"><ele>145.25</ele><time>2026-04-11T17:09:10.001Z</time></trkpt><trkpt lat="36.8278412355636" lon="14.95572191979377"><ele>145.5</ele><time>2026-04-11T17:09:11.001Z</time></trkpt><trkpt lat="36.82781417361465" lon="14.955555395620896"><ele>145.75</ele><time>2026-04-11T17:09:12.001Z</time></trkpt><trkpt lat="36.82778807228492" lon="14.955394231709342"><ele>146.0</ele><time>2026-04-11T17:09:13.001Z</time></trkpt><trkpt lat="36.82776064987416" lon="14.955230255863023"><ele>146.0</ele><time>2026-04-11T17:09:14.001Z</time></trkpt><trkpt lat="36.827732800930846" lon="14.955062981699005"><ele>146.0</ele><time>2026-04-11T17:09:15.001Z</time></trkpt><trkpt lat="36.827708790618054" lon="14.954906250771492"><ele>146.0</ele><time>2026-04-11T17:09:16.001Z</time></trkpt><trkpt lat="36.827690856699085" lon="14.954763288815691"><ele>146.0</ele><time>2026-04-11T17:09:17.001Z</time></trkpt><trkpt lat="36.82767194754261" lon="14.954617401817842"><ele>146.0</ele><time>2026-04-11T17:09:18.001Z</time></trkpt><trkpt lat="36.82764918798589" lon="14.954471078460159"><ele>146.0</ele><time>2026-04-11T17:09:19.001Z</time></trkpt><trkpt lat="36.8276237319171" lon="14.954329965927428"><ele>146.0</ele><time>2026-04-11T17:09:20.001Z</time></trkpt><trkpt lat="36.82760490571281" lon="14.954193124611596"><ele>146.0</ele><time>2026-04-11T17:09:21.001Z</time></trkpt><trkpt lat="36.827590685606616" lon="14.954057684414263"><ele>146.0</ele><time>2026-04-11T17:09:22.001Z</time></trkpt><trkpt lat="36.827587235857" lon="14.953919394926936"><ele>146.0</ele><time>2026-04-11T17:09:23Z</time></trkpt><trkpt lat="36.827598165346714" lon="14.953781686797548"><ele>146.0</ele><time>2026-04-11T17:09:24Z</time></trkpt><trkpt lat="36.827622056608185" lon="14.953644379080366"><ele>146.0</ele><time>2026-04-11T17:09:25Z</time></trkpt><trkpt lat="36.82765766114661" lon="14.953512534225444"><ele>146.0</ele><time>2026-04-11T17:09:26Z</time></trkpt><trkpt lat="36.827703137645" lon="14.953375978613186"><ele>146.2</ele><time>2026-04-11T17:09:27Z</time></trkpt><trkpt lat="36.82776292379167" lon="14.953245602756484"><ele>146.39999999999998</ele><time>2026-04-11T17:09:28Z</time></trkpt><trkpt lat="36.8278205954541" lon="14.953130659141657"><ele>146.6</ele><time>2026-04-11T17:09:29Z</time></trkpt><trkpt lat="36.82787017192649" lon="14.953017153471986"><ele>146.79999999999998</ele><time>2026-04-11T17:09:30Z</time></trkpt><trkpt lat="36.82791387110152" lon="14.952906915432491"><ele>147.0</ele><time>2026-04-11T17:09:31Z</time></trkpt><trkpt lat="36.82795996873455" lon="14.952799907052379"><ele>147.0</ele><time>2026-04-11T17:09:32Z</time></trkpt><trkpt lat="36.82800371840708" lon="14.952701010973778"><ele>147.0</ele><time>2026-04-11T17:09:33Z</time></trkpt><trkpt lat="36.82804108710035" lon="14.952605248699241"><ele>147.0</ele><time>2026-04-11T17:09:34Z</time></trkpt><trkpt lat="36.82807857669521" lon="14.952511891767045"><ele>147.0</ele><time>2026-04-11T17:09:35Z</time></trkpt><trkpt lat="36.82811897822683" lon="14.952429620370498"><ele>147.0</ele><time>2026-04-11T17:09:36Z</time></trkpt><trkpt lat="36.828155268616264" lon="14.952354182552853"><ele>147.0</ele><time>2026-04-11T17:09:37Z</time></trkpt><trkpt lat="36.82818877083673" lon="14.952284399623649"><ele>147.4</ele><time>2026-04-11T17:09:38Z</time></trkpt><trkpt lat="36.828244895771704" lon="14.952149910130993"><ele>147.79999999999998</ele><time>2026-04-11T17:09:40Z</time></trkpt><trkpt lat="36.82829361795229" lon="14.952034220588812"><ele>148.2</ele><time>2026-04-11T17:09:42Z</time></trkpt><trkpt lat="36.82832737572369" lon="14.95196406568203"><ele>148.6</ele><time>2026-04-11T17:09:43Z</time></trkpt><trkpt lat="36.82835374998386" lon="14.951891092476172"><ele>149.0</ele><time>2026-04-11T17:09:44Z</time></trkpt><trkpt lat="36.828417310754844" lon="14.951746912363268"><ele>149.0</ele><time>2026-04-11T17:09:46Z</time></trkpt><trkpt lat="36.82845933020254" lon="14.95166192762211"><ele>149.0</ele><time>2026-04-11T17:09:47Z</time></trkpt><trkpt lat="36.828508527499885" lon="14.951554754391346"><ele>149.0</ele><time>2026-04-11T17:09:48Z</time></trkpt><trkpt lat="36.82856248349919" lon="14.951426614734563"><ele>149.0</ele><time>2026-04-11T17:09:49Z</time></trkpt><trkpt lat="36.82862125964693" lon="14.951288110429049"><ele>149.0</ele><time>2026-04-11T17:09:50Z</time></trkpt><trkpt lat="36.828681369253594" lon="14.951146328783897"><ele>149.0</ele><time>2026-04-11T17:09:51Z</time></trkpt><trkpt lat="36.82874561620972" lon="14.950999058818493"><ele>149.0</ele><time>2026-04-11T17:09:52Z</time></trkpt><trkpt lat="36.82880171360666" lon="14.950872363034515"><ele>149.0</ele><time>2026-04-11T17:09:53Z</time></trkpt><trkpt lat="36.82885302886011" lon="14.950755368903375"><ele>149.0</ele><time>2026-04-11T17:09:54Z</time></trkpt><trkpt lat="36.828904938632654" lon="14.950637089327858"><ele>149.0</ele><time>2026-04-11T17:09:55Z</time></trkpt><trkpt lat="36.82895682295013" lon="14.950512243593748"><ele>149.0</ele><time>2026-04-11T17:09:56Z</time></trkpt><trkpt lat="36.82901555252311" lon="14.950382625994294"><ele>149.0</ele><time>2026-04-11T17:09:57Z</time></trkpt><trkpt lat="36.82907312549166" lon="14.950249038638779"><ele>149.0</ele><time>2026-04-11T17:09:58Z</time></trkpt><trkpt lat="36.829141657542344" lon="14.950106229695157"><ele>149.25</ele><time>2026-04-11T17:09:59Z</time></trkpt><trkpt lat="36.829204149045005" lon="14.949961149075687"><ele>149.5</ele><time>2026-04-11T17:10:00Z</time></trkpt><trkpt lat="36.82927004856217" lon="14.949814293263344"><ele>149.75</ele><time>2026-04-11T17:10:01Z</time></trkpt><trkpt lat="36.82933217736729" lon="14.949677785797778"><ele>150.0</ele><time>2026-04-11T17:10:02Z</time></trkpt><trkpt lat="36.82939038027102" lon="14.949542934070127"><ele>149.75</ele><time>2026-04-11T17:10:03Z</time></trkpt><trkpt lat="36.829445001234006" lon="14.949409799025718"><ele>149.5</ele><time>2026-04-11T17:10:04Z</time></trkpt><trkpt lat="36.82950054471615" lon="14.949271511911425"><ele>149.25</ele><time>2026-04-11T17:10:05Z</time></trkpt><trkpt lat="36.8295617074925" lon="14.9491255392608"><ele>149.0</ele><time>2026-04-11T17:10:06Z</time></trkpt><trkpt lat="36.82962669926527" lon="14.948979499104029"><ele>149.0</ele><time>2026-04-11T17:10:07Z</time></trkpt><trkpt lat="36.82969312829662" lon="14.948829810631088"><ele>149.0</ele><time>2026-04-11T17:10:08Z</time></trkpt><trkpt lat="36.829755312348084" lon="14.948675434341695"><ele>149.0</ele><time>2026-04-11T17:10:09Z</time></trkpt><trkpt lat="36.82981735442833" lon="14.94851938037477"><ele>149.0</ele><time>2026-04-11T17:10:10Z</time></trkpt><trkpt lat="36.829871557417526" lon="14.948355017142205"><ele>149.0</ele><time>2026-04-11T17:10:11Z</time></trkpt><trkpt lat="36.829911142209305" lon="14.948185122797419"><ele>149.0</ele><time>2026-04-11T17:10:12Z</time></trkpt><trkpt lat="36.82994087891992" lon="14.948007873899856"><ele>149.0</ele><time>2026-04-11T17:10:13Z</time></trkpt><trkpt lat="36.82996152563221" lon="14.947834185075026"><ele>149.0</ele><time>2026-04-11T17:10:14Z</time></trkpt><trkpt lat="36.82996856104465" lon="14.947651424309509"><ele>148.25</ele><time>2026-04-11T17:10:15Z</time></trkpt><trkpt lat="36.82996417823066" lon="14.947473476934162"><ele>147.5</ele><time>2026-04-11T17:10:16Z</time></trkpt><trkpt lat="36.829950921661975" lon="14.947296509584676"><ele>146.75</ele><time>2026-04-11T17:10:17.001Z</time></trkpt><trkpt lat="36.82993633740639" lon="14.94711942985931"><ele>146.0</ele><time>2026-04-11T17:10:18.001Z</time></trkpt><trkpt lat="36.82992251777884" lon="14.946944472303148"><ele>146.0</ele><time>2026-04-11T17:10:19.001Z</time></trkpt><trkpt lat="36.829904566385196" lon="14.946768447424958"><ele>146.0</ele><time>2026-04-11T17:10:20.001Z</time></trkpt><trkpt lat="36.82988350539863" lon="14.946591285595918"><ele>146.0</ele><time>2026-04-11T17:10:21.001Z</time></trkpt><trkpt lat="36.82986532235459" lon="14.946418841127572"><ele>146.0</ele><time>2026-04-11T17:10:22.001Z</time></trkpt><trkpt lat="36.82986176409857" lon="14.946248705672351"><ele>147.0</ele><time>2026-04-11T17:10:23.001Z</time></trkpt><trkpt lat="36.82985192010831" lon="14.946078158829676"><ele>148.0</ele><time>2026-04-11T17:10:24.001Z</time></trkpt><trkpt lat="36.829838686396435" lon="14.945905124473077"><ele>149.0</ele><time>2026-04-11T17:10:25.001Z</time></trkpt><trkpt lat="36.829825603715875" lon="14.945734210762485"><ele>150.0</ele><time>2026-04-11T17:10:26.001Z</time></trkpt><trkpt lat="36.8298089914454" lon="14.945582401512066"><ele>150.0</ele><time>2026-04-11T17:10:27.001Z</time></trkpt><trkpt lat="36.829786368854016" lon="14.945448602472247"><ele>150.0</ele><time>2026-04-11T17:10:28.001Z</time></trkpt><trkpt lat="36.829747814840104" lon="14.945329411060227"><ele>150.0</ele><time>2026-04-11T17:10:29.001Z</time></trkpt><trkpt lat="36.82968826831068" lon="14.945223569814589"><ele>150.0</ele><time>2026-04-11T17:10:30.001Z</time></trkpt><trkpt lat="36.82960492689669" lon="14.945138001187562"><ele>150.0</ele><time>2026-04-11T17:10:31.001Z</time></trkpt><trkpt lat="36.829507822121336" lon="14.945064618103677"><ele>149.4</ele><time>2026-04-11T17:10:32.001Z</time></trkpt><trkpt lat="36.829414392209316" lon="14.944999503641764"><ele>148.8</ele><time>2026-04-11T17:10:33.001Z</time></trkpt><trkpt lat="36.82933981223867" lon="14.944926166342084"><ele>148.2</ele><time>2026-04-11T17:10:34.001Z</time></trkpt><trkpt lat="36.82928152379963" lon="14.944834056484861"><ele>147.6</ele><time>2026-04-11T17:10:35.001Z</time></trkpt><trkpt lat="36.82924708516985" lon="14.944726853694283"><ele>147.0</ele><time>2026-04-11T17:10:36.001Z</time></trkpt><trkpt lat="36.8292444534029" lon="14.944621609096535"><ele>147.0</ele><time>2026-04-11T17:10:37.001Z</time></trkpt><trkpt lat="36.829269143106416" lon="14.94451356633889"><ele>147.0</ele><time>2026-04-11T17:10:38.001Z</time></trkpt><trkpt lat="36.82931815493551" lon="14.944401422631538"><ele>147.0</ele><time>2026-04-11T17:10:39.001Z</time></trkpt><trkpt lat="36.829379566431584" lon="14.944281441445275"><ele>147.0</ele><time>2026-04-11T17:10:40.001Z</time></trkpt><trkpt lat="36.8294414705088" lon="14.944148215151744"><ele>147.0</ele><time>2026-04-11T17:10:41.001Z</time></trkpt><trkpt lat="36.82950590490325" lon="14.944001383144075"><ele>147.25</ele><time>2026-04-11T17:10:42.001Z</time></trkpt><trkpt lat="36.82957517926255" lon="14.943852544695897"><ele>147.5</ele><time>2026-04-11T17:10:43.001Z</time></trkpt><trkpt lat="36.829642130915786" lon="14.943707368999023"><ele>147.75</ele><time>2026-04-11T17:10:44.001Z</time></trkpt><trkpt lat="36.82970625517729" lon="14.943560862725516"><ele>148.0</ele><time>2026-04-11T17:10:45.001Z</time></trkpt><trkpt lat="36.82977217257966" lon="14.943411592980889"><ele>149.75</ele><time>2026-04-11T17:10:46.001Z</time></trkpt><trkpt lat="36.82983925725213" lon="14.94325636459252"><ele>151.5</ele><time>2026-04-11T17:10:47.001Z</time></trkpt><trkpt lat="36.829909497069735" lon="14.94309829865061"><ele>153.25</ele><time>2026-04-11T17:10:48.001Z</time></trkpt><trkpt lat="36.82998345953263" lon="14.942936736061323"><ele>155.0</ele><time>2026-04-11T17:10:49.001Z</time></trkpt><trkpt lat="36.83006023751055" lon="14.942770082906064"><ele>155.0</ele><time>2026-04-11T17:10:50.001Z</time></trkpt><trkpt lat="36.83013610958461" lon="14.942599003336866"><ele>155.0</ele><time>2026-04-11T17:10:51.001Z</time></trkpt><trkpt lat="36.83020792350454" lon="14.942438891534021"><ele>155.0</ele><time>2026-04-11T17:10:52.001Z</time></trkpt><trkpt lat="36.83027126306173" lon="14.942298663286794"><ele>155.0</ele><time>2026-04-11T17:10:53.001Z</time></trkpt><trkpt lat="36.83033082792816" lon="14.94216611224593"><ele>155.75</ele><time>2026-04-11T17:10:54.001Z</time></trkpt><trkpt lat="36.830388492163166" lon="14.94203971735857"><ele>156.5</ele><time>2026-04-11T17:10:55.001Z</time></trkpt><trkpt lat="36.83044640720328" lon="14.941914014800476"><ele>157.25</ele><time>2026-04-11T17:10:56.001Z</time></trkpt><trkpt lat="36.830482257264556" lon="14.941772549549658"><ele>158.0</ele><time>2026-04-11T17:10:57.001Z</time></trkpt><trkpt lat="36.83054485257012" lon="14.941659788099717"><ele>159.25</ele><time>2026-04-11T17:10:58.001Z</time></trkpt><trkpt lat="36.83062482406447" lon="14.941553988449177"><ele>160.5</ele><time>2026-04-11T17:10:59.001Z</time></trkpt><trkpt lat="36.83069257297532" lon="14.941438089624686"><ele>161.75</ele><time>2026-04-11T17:11:00.001Z</time></trkpt><trkpt lat="36.83080236987876" lon="14.941351851862681"><ele>163.0</ele><time>2026-04-11T17:11:01.001Z</time></trkpt><trkpt lat="36.830879077276194" lon="14.941241600125338"><ele>164.0</ele><time>2026-04-11T17:11:02.001Z</time></trkpt><trkpt lat="36.83103288872188" lon="14.941204855298723"><ele>165.0</ele><time>2026-04-11T17:11:03.001Z</time></trkpt><trkpt lat="36.83114746605104" lon="14.941125153117667"><ele>166.0</ele><time>2026-04-11T17:11:04.001Z</time></trkpt><trkpt lat="36.83126011288346" lon="14.94104363167492"><ele>167.0</ele><time>2026-04-11T17:11:05.001Z</time></trkpt><trkpt lat="36.83136547471233" lon="14.940961873289169"><ele>167.0</ele><time>2026-04-11T17:11:06.001Z</time></trkpt><trkpt lat="36.831457196942104" lon="14.94088627535194"><ele>167.0</ele><time>2026-04-11T17:11:07.001Z</time></trkpt><trkpt lat="36.831537982244164" lon="14.94081536163999"><ele>167.0</ele><time>2026-04-11T17:11:08.001Z</time></trkpt><trkpt lat="36.83161285028381" lon="14.940757690211802"><ele>167.0</ele><time>2026-04-11T17:11:09.001Z</time></trkpt><trkpt lat="36.83168618745736" lon="14.940720835025624"><ele>167.0</ele><time>2026-04-11T17:11:10.001Z</time></trkpt><trkpt lat="36.8317583615425" lon="14.94072568530916"><ele>167.0</ele><time>2026-04-11T17:11:11.001Z</time></trkpt><trkpt lat="36.83182509895625" lon="14.940758816902761"><ele>167.39999999999998</ele><time>2026-04-11T17:11:12.001Z</time></trkpt><trkpt lat="36.83186801271119" lon="14.94084201440849"><ele>167.79999999999998</ele><time>2026-04-11T17:11:13.001Z</time></trkpt><trkpt lat="36.83194785698743" lon="14.94089615419285"><ele>168.2</ele><time>2026-04-11T17:11:14.001Z</time></trkpt><trkpt lat="36.83201782750627" lon="14.940974059607887"><ele>168.6</ele><time>2026-04-11T17:11:15.001Z</time></trkpt><trkpt lat="36.83210379093395" lon="14.941047821810285"><ele>169.0</ele><time>2026-04-11T17:11:16.001Z</time></trkpt><trkpt lat="36.83220584666712" lon="14.941115672528106"><ele>169.0</ele><time>2026-04-11T17:11:17.001Z</time></trkpt><trkpt lat="36.83231340306047" lon="14.941177488302195"><ele>169.0</ele><time>2026-04-11T17:11:18.001Z</time></trkpt><trkpt lat="36.832427440730264" lon="14.94124217155286"><ele>169.0</ele><time>2026-04-11T17:11:19.001Z</time></trkpt><trkpt lat="36.83254656478382" lon="14.94129182079984"><ele>169.0</ele><time>2026-04-11T17:11:20.001Z</time></trkpt><trkpt lat="36.832680494051516" lon="14.941329492217818"><ele>169.25</ele><time>2026-04-11T17:11:21.001Z</time></trkpt><trkpt lat="36.8328177339143" lon="14.94136044082972"><ele>169.5</ele><time>2026-04-11T17:11:22.001Z</time></trkpt><trkpt lat="36.83295794335413" lon="14.941390898391061"><ele>169.75</ele><time>2026-04-11T17:11:23.002Z</time></trkpt><trkpt lat="36.833097891368794" lon="14.941434075447201"><ele>170.0</ele><time>2026-04-11T17:11:24.002Z</time></trkpt><trkpt lat="36.83323131744706" lon="14.941482920860635"><ele>170.0</ele><time>2026-04-11T17:11:25.002Z</time></trkpt><trkpt lat="36.83335849824106" lon="14.941543141281436"><ele>170.0</ele><time>2026-04-11T17:11:26.002Z</time></trkpt><trkpt lat="36.833477489049386" lon="14.941620094962527"><ele>170.0</ele><time>2026-04-11T17:11:27.002Z</time></trkpt><trkpt lat="36.833592016233254" lon="14.941712576026408"><ele>170.0</ele><time>2026-04-11T17:11:28.002Z</time></trkpt><trkpt lat="36.83369433077308" lon="14.941831337738785"><ele>169.75</ele><time>2026-04-11T17:11:29Z</time></trkpt><trkpt lat="36.83378794978112" lon="14.94196474108375"><ele>169.5</ele><time>2026-04-11T17:11:30Z</time></trkpt><trkpt lat="36.833871614492054" lon="14.94210734268029"><ele>169.25</ele><time>2026-04-11T17:11:31Z</time></trkpt><trkpt lat="36.83394971464162" lon="14.942262217882655"><ele>169.0</ele><time>2026-04-11T17:11:32Z</time></trkpt><trkpt lat="36.834021966779694" lon="14.94241864614827"><ele>168.0</ele><time>2026-04-11T17:11:33Z</time></trkpt><trkpt lat="36.834092277829036" lon="14.942567789832605"><ele>167.0</ele><time>2026-04-11T17:11:34Z</time></trkpt><trkpt lat="36.834162971284286" lon="14.94270883893969"><ele>166.0</ele><time>2026-04-11T17:11:35Z</time></trkpt><trkpt lat="36.83421610061711" lon="14.942858121514774"><ele>165.0</ele><time>2026-04-11T17:11:36Z</time></trkpt><trkpt lat="36.83429391577977" lon="14.942980401698115"><ele>165.25</ele><time>2026-04-11T17:11:37Z</time></trkpt><trkpt lat="36.8343686218895" lon="14.943095763572401"><ele>165.5</ele><time>2026-04-11T17:11:38Z</time></trkpt><trkpt lat="36.83444440241976" lon="14.943210976781248"><ele>165.75</ele><time>2026-04-11T17:11:39Z</time></trkpt><trkpt lat="36.83452420675908" lon="14.94332212172351"><ele>166.0</ele><time>2026-04-11T17:11:40Z</time></trkpt><trkpt lat="36.834598098814396" lon="14.943421147452248"><ele>165.60000000000002</ele><time>2026-04-11T17:11:41Z</time></trkpt><trkpt lat="36.83467244980432" lon="14.943520247666948"><ele>165.2</ele><time>2026-04-11T17:11:42Z</time></trkpt><trkpt lat="36.834744210389154" lon="14.9436178856347"><ele>164.8</ele><time>2026-04-11T17:11:43Z</time></trkpt><trkpt lat="36.834816078185426" lon="14.943715283697804"><ele>164.39999999999998</ele><time>2026-04-11T17:11:44Z</time></trkpt><trkpt lat="36.83488979351348" lon="14.943805475114527"><ele>164.0</ele><time>2026-04-11T17:11:45Z</time></trkpt><trkpt lat="36.834966246056105" lon="14.943894100927915"><ele>164.0</ele><time>2026-04-11T17:11:46Z</time></trkpt><trkpt lat="36.83504053336384" lon="14.94397683943777"><ele>164.0</ele><time>2026-04-11T17:11:47Z</time></trkpt><trkpt lat="36.83513007508017" lon="14.944034048653554"><ele>164.0</ele><time>2026-04-11T17:11:48Z</time></trkpt><trkpt lat="36.83520745206757" lon="14.944113966563663"><ele>164.0</ele><time>2026-04-11T17:11:49Z</time></trkpt><trkpt lat="36.83528499647534" lon="14.944192414840263"><ele>164.0</ele><time>2026-04-11T17:11:50Z</time></trkpt><trkpt lat="36.83536574390373" lon="14.944268903302884"><ele>162.0</ele><time>2026-04-11T17:11:51Z</time></trkpt><trkpt lat="36.835423306492494" lon="14.94437257022682"><ele>160.0</ele><time>2026-04-11T17:11:52Z</time></trkpt><trkpt lat="36.83549480087429" lon="14.944457864945363"><ele>158.0</ele><time>2026-04-11T17:11:53Z</time></trkpt><trkpt lat="36.83556046884769" lon="14.944549437247627"><ele>156.0</ele><time>2026-04-11T17:11:54Z</time></trkpt><trkpt lat="36.8356235919326" lon="14.944646232489188"><ele>154.0</ele><time>2026-04-11T17:11:55Z</time></trkpt><trkpt lat="36.835686268212164" lon="14.944747120657064"><ele>154.0</ele><time>2026-04-11T17:11:56Z</time></trkpt><trkpt lat="36.8357459242223" lon="14.944851964978474"><ele>154.0</ele><time>2026-04-11T17:11:57Z</time></trkpt><trkpt lat="36.8358044193298" lon="14.944957327044024"><ele>154.0</ele><time>2026-04-11T17:11:58Z</time></trkpt><trkpt lat="36.83587547231573" lon="14.945049825639584"><ele>154.0</ele><time>2026-04-11T17:11:59Z</time></trkpt><trkpt lat="36.83593565761563" lon="14.945147770988061"><ele>154.0</ele><time>2026-04-11T17:12:00Z</time></trkpt><trkpt lat="36.835991337613244" lon="14.945224823218043"><ele>152.33333333333334</ele><time>2026-04-11T17:12:01Z</time></trkpt><trkpt lat="36.83606141219989" lon="14.945317294050922"><ele>150.66666666666666</ele><time>2026-04-11T17:12:03Z</time></trkpt><trkpt lat="36.83594362386941" lon="14.945508862574727"><ele>149.0</ele><time>2026-04-11T17:12:06Z</time></trkpt><trkpt lat="36.83586311343189" lon="14.945689103128778"><ele>149.0</ele><time>2026-04-11T17:12:07Z</time></trkpt><trkpt lat="36.8357792318025" lon="14.945877916495"><ele>149.0</ele><time>2026-04-11T17:12:08Z</time></trkpt><trkpt lat="36.83571933340597" lon="14.946016390909648"><ele>149.0</ele><time>2026-04-11T17:12:09Z</time></trkpt><trkpt lat="36.8356882921583" lon="14.946121137052286"><ele>149.0</ele><time>2026-04-11T17:12:10Z</time></trkpt><trkpt lat="36.83567981817002" lon="14.946218956202198"><ele>148.8</ele><time>2026-04-11T17:12:11Z</time></trkpt><trkpt lat="36.83568946559205" lon="14.946335161758855"><ele>148.60000000000002</ele><time>2026-04-11T17:12:12Z</time></trkpt><trkpt lat="36.83571453207387" lon="14.946460534627915"><ele>148.4</ele><time>2026-04-11T17:12:13Z</time></trkpt><trkpt lat="36.8357375886806" lon="14.946561274952732"><ele>148.20000000000002</ele><time>2026-04-11T17:12:14Z</time></trkpt><trkpt lat="36.835782289120786" lon="14.946672271722017"><ele>148.0</ele><time>2026-04-11T17:12:16.001Z</time></trkpt><trkpt lat="36.835716175869585" lon="14.94672215532036"><ele>148.0</ele><time>2026-04-11T17:12:43.001Z</time></trkpt><trkpt lat="36.83568106457053" lon="14.946790554465162"><ele>148.0</ele><time>2026-04-11T17:12:45.001Z</time></trkpt></trkseg></trk></gpx>